<?xml version="1.0" encoding="UTF-8" standalone="no" ?>
<gpx xmlns="http://www.topografix.com/GPX/1/1" xmlns:xsi="http://www.w3.org/2001/XMLSchema-instance" xsi:schemaLocation="http://www.topografix.com/GPX/1/1 http://www.topografix.com/GPX/1/1/gpx.xsd" version="1.1" creator="VisuGPX - https://www.visugpx.com">
  <metadata>
    <name>Le Grand Som par le Chateau</name>
    <desc><![CDATA[Au départ du Hameau le CHATEAU remonter la combe des Eparres jusqu\"au col de Bovinant, prendre à droite jusqu\'au col de Léchaud . Descendre sur le col de Bovinant . Remettre les peaux pour le Gd Som en suivant la crète jusqu\' au sommet.]]></desc>
  </metadata>
  <trk>
    <name><![CDATA[Grand Som Par le Chateau]]></name>
    <trkseg>
      <trkpt lat="45.41279" lon="5.83701">
        <ele>943</ele>
        <time>2012-12-09T09:12:35Z</time>
      </trkpt>
      <trkpt lat="45.4128" lon="5.83702">
        <ele>942.799987793</ele>
        <time>2012-12-09T09:12:45Z</time>
      </trkpt>
      <trkpt lat="45.41278" lon="5.83705">
        <ele>944</ele>
        <time>2012-12-09T09:13:27Z</time>
      </trkpt>
      <trkpt lat="45.41278" lon="5.83705">
        <ele>943.799987793</ele>
        <time>2012-12-09T09:13:34Z</time>
      </trkpt>
      <trkpt lat="45.41278" lon="5.83705">
        <ele>943.799987793</ele>
        <time>2012-12-09T09:13:40Z</time>
      </trkpt>
      <trkpt lat="45.41271" lon="5.83702">
        <ele>945.400024414</ele>
        <time>2012-12-09T09:15:01Z</time>
      </trkpt>
      <trkpt lat="45.41264" lon="5.83695">
        <ele>946.200012207</ele>
        <time>2012-12-09T09:15:07Z</time>
      </trkpt>
      <trkpt lat="45.41258" lon="5.83689">
        <ele>946.599975586</ele>
        <time>2012-12-09T09:15:13Z</time>
      </trkpt>
      <trkpt lat="45.41252" lon="5.83684">
        <ele>947.200012207</ele>
        <time>2012-12-09T09:15:20Z</time>
      </trkpt>
      <trkpt lat="45.41252" lon="5.83683">
        <ele>947.400024414</ele>
        <time>2012-12-09T09:15:21Z</time>
      </trkpt>
      <trkpt lat="45.41246" lon="5.83675">
        <ele>947.599975586</ele>
        <time>2012-12-09T09:15:29Z</time>
      </trkpt>
      <trkpt lat="45.4124" lon="5.83668">
        <ele>948.200012207</ele>
        <time>2012-12-09T09:15:37Z</time>
      </trkpt>
      <trkpt lat="45.41234" lon="5.8366">
        <ele>949</ele>
        <time>2012-12-09T09:15:45Z</time>
      </trkpt>
      <trkpt lat="45.41229" lon="5.83652">
        <ele>949.799987793</ele>
        <time>2012-12-09T09:15:53Z</time>
      </trkpt>
      <trkpt lat="45.41226" lon="5.83645">
        <ele>949.799987793</ele>
        <time>2012-12-09T09:16:00Z</time>
      </trkpt>
      <trkpt lat="45.41221" lon="5.83639">
        <ele>950.599975586</ele>
        <time>2012-12-09T09:16:09Z</time>
      </trkpt>
      <trkpt lat="45.41216" lon="5.83631">
        <ele>951</ele>
        <time>2012-12-09T09:16:17Z</time>
      </trkpt>
      <trkpt lat="45.41213" lon="5.83624">
        <ele>951.200012207</ele>
        <time>2012-12-09T09:16:24Z</time>
      </trkpt>
      <trkpt lat="45.41209" lon="5.83618">
        <ele>951.400024414</ele>
        <time>2012-12-09T09:16:30Z</time>
      </trkpt>
      <trkpt lat="45.41208" lon="5.83616">
        <ele>951.599975586</ele>
        <time>2012-12-09T09:16:33Z</time>
      </trkpt>
      <trkpt lat="45.41206" lon="5.83614">
        <ele>951.799987793</ele>
        <time>2012-12-09T09:16:36Z</time>
      </trkpt>
      <trkpt lat="45.41202" lon="5.8361">
        <ele>952.200012207</ele>
        <time>2012-12-09T09:16:42Z</time>
      </trkpt>
      <trkpt lat="45.41199" lon="5.83609">
        <ele>952.799987793</ele>
        <time>2012-12-09T09:16:47Z</time>
      </trkpt>
      <trkpt lat="45.41194" lon="5.83608">
        <ele>953.799987793</ele>
        <time>2012-12-09T09:16:53Z</time>
      </trkpt>
      <trkpt lat="45.41191" lon="5.83607">
        <ele>954.599975586</ele>
        <time>2012-12-09T09:16:58Z</time>
      </trkpt>
      <trkpt lat="45.41186" lon="5.8361">
        <ele>956.200012207</ele>
        <time>2012-12-09T09:17:04Z</time>
      </trkpt>
      <trkpt lat="45.41184" lon="5.8361">
        <ele>956.799987793</ele>
        <time>2012-12-09T09:17:06Z</time>
      </trkpt>
      <trkpt lat="45.41182" lon="5.83612">
        <ele>957.599975586</ele>
        <time>2012-12-09T09:17:09Z</time>
      </trkpt>
      <trkpt lat="45.4118" lon="5.83613">
        <ele>958.200012207</ele>
        <time>2012-12-09T09:17:11Z</time>
      </trkpt>
      <trkpt lat="45.41179" lon="5.83614">
        <ele>958.599975586</ele>
        <time>2012-12-09T09:17:13Z</time>
      </trkpt>
      <trkpt lat="45.41177" lon="5.83615">
        <ele>959</ele>
        <time>2012-12-09T09:17:14Z</time>
      </trkpt>
      <trkpt lat="45.41175" lon="5.83616">
        <ele>959.799987793</ele>
        <time>2012-12-09T09:17:17Z</time>
      </trkpt>
      <trkpt lat="45.4117" lon="5.83619">
        <ele>961.599975586</ele>
        <time>2012-12-09T09:17:23Z</time>
      </trkpt>
      <trkpt lat="45.41162" lon="5.8362">
        <ele>963.400024414</ele>
        <time>2012-12-09T09:17:31Z</time>
      </trkpt>
      <trkpt lat="45.41154" lon="5.83621">
        <ele>964.599975586</ele>
        <time>2012-12-09T09:17:38Z</time>
      </trkpt>
      <trkpt lat="45.41148" lon="5.83621">
        <ele>965.200012207</ele>
        <time>2012-12-09T09:17:44Z</time>
      </trkpt>
      <trkpt lat="45.4114" lon="5.83621">
        <ele>966.400024414</ele>
        <time>2012-12-09T09:17:50Z</time>
      </trkpt>
      <trkpt lat="45.41138" lon="5.83622">
        <ele>966.799987793</ele>
        <time>2012-12-09T09:17:52Z</time>
      </trkpt>
      <trkpt lat="45.41132" lon="5.83622">
        <ele>967.599975586</ele>
        <time>2012-12-09T09:17:56Z</time>
      </trkpt>
      <trkpt lat="45.41127" lon="5.83622">
        <ele>968.200012207</ele>
        <time>2012-12-09T09:18:01Z</time>
      </trkpt>
      <trkpt lat="45.41124" lon="5.83622">
        <ele>968.799987793</ele>
        <time>2012-12-09T09:18:05Z</time>
      </trkpt>
      <trkpt lat="45.41119" lon="5.83622">
        <ele>969.400024414</ele>
        <time>2012-12-09T09:18:08Z</time>
      </trkpt>
      <trkpt lat="45.41115" lon="5.83622">
        <ele>969.799987793</ele>
        <time>2012-12-09T09:18:12Z</time>
      </trkpt>
      <trkpt lat="45.41113" lon="5.83622">
        <ele>970.200012207</ele>
        <time>2012-12-09T09:18:14Z</time>
      </trkpt>
      <trkpt lat="45.4111" lon="5.83623">
        <ele>970.599975586</ele>
        <time>2012-12-09T09:18:16Z</time>
      </trkpt>
      <trkpt lat="45.41108" lon="5.83622">
        <ele>970.799987793</ele>
        <time>2012-12-09T09:18:17Z</time>
      </trkpt>
      <trkpt lat="45.41107" lon="5.83622">
        <ele>971</ele>
        <time>2012-12-09T09:18:18Z</time>
      </trkpt>
      <trkpt lat="45.41102" lon="5.8362">
        <ele>971.400024414</ele>
        <time>2012-12-09T09:18:22Z</time>
      </trkpt>
      <trkpt lat="45.41101" lon="5.83619">
        <ele>971.599975586</ele>
        <time>2012-12-09T09:18:23Z</time>
      </trkpt>
      <trkpt lat="45.41095" lon="5.83615">
        <ele>972</ele>
        <time>2012-12-09T09:18:29Z</time>
      </trkpt>
      <trkpt lat="45.41091" lon="5.83608">
        <ele>971.799987793</ele>
        <time>2012-12-09T09:18:35Z</time>
      </trkpt>
      <trkpt lat="45.41089" lon="5.83602">
        <ele>971.599975586</ele>
        <time>2012-12-09T09:18:40Z</time>
      </trkpt>
      <trkpt lat="45.41089" lon="5.83599">
        <ele>971.400024414</ele>
        <time>2012-12-09T09:18:42Z</time>
      </trkpt>
      <trkpt lat="45.41089" lon="5.83597">
        <ele>971.200012207</ele>
        <time>2012-12-09T09:18:45Z</time>
      </trkpt>
      <trkpt lat="45.41089" lon="5.83594">
        <ele>971</ele>
        <time>2012-12-09T09:18:47Z</time>
      </trkpt>
      <trkpt lat="45.41088" lon="5.83588">
        <ele>970.599975586</ele>
        <time>2012-12-09T09:18:52Z</time>
      </trkpt>
      <trkpt lat="45.41086" lon="5.83578">
        <ele>971</ele>
        <time>2012-12-09T09:18:59Z</time>
      </trkpt>
      <trkpt lat="45.41085" lon="5.83576">
        <ele>971.200012207</ele>
        <time>2012-12-09T09:19:00Z</time>
      </trkpt>
      <trkpt lat="45.41083" lon="5.83568">
        <ele>972.200012207</ele>
        <time>2012-12-09T09:19:06Z</time>
      </trkpt>
      <trkpt lat="45.41081" lon="5.83561">
        <ele>973</ele>
        <time>2012-12-09T09:19:11Z</time>
      </trkpt>
      <trkpt lat="45.41079" lon="5.83554">
        <ele>973.799987793</ele>
        <time>2012-12-09T09:19:16Z</time>
      </trkpt>
      <trkpt lat="45.41077" lon="5.83546">
        <ele>974.799987793</ele>
        <time>2012-12-09T09:19:22Z</time>
      </trkpt>
      <trkpt lat="45.41076" lon="5.83542">
        <ele>975.200012207</ele>
        <time>2012-12-09T09:19:25Z</time>
      </trkpt>
      <trkpt lat="45.41075" lon="5.83538">
        <ele>975.799987793</ele>
        <time>2012-12-09T09:19:28Z</time>
      </trkpt>
      <trkpt lat="45.41073" lon="5.83531">
        <ele>976.599975586</ele>
        <time>2012-12-09T09:19:34Z</time>
      </trkpt>
      <trkpt lat="45.41072" lon="5.83525">
        <ele>977.200012207</ele>
        <time>2012-12-09T09:19:38Z</time>
      </trkpt>
      <trkpt lat="45.41071" lon="5.83521">
        <ele>977.599975586</ele>
        <time>2012-12-09T09:19:41Z</time>
      </trkpt>
      <trkpt lat="45.41069" lon="5.83514">
        <ele>978.400024414</ele>
        <time>2012-12-09T09:19:47Z</time>
      </trkpt>
      <trkpt lat="45.41067" lon="5.83504">
        <ele>979.400024414</ele>
        <time>2012-12-09T09:19:54Z</time>
      </trkpt>
      <trkpt lat="45.41065" lon="5.83496">
        <ele>981</ele>
        <time>2012-12-09T09:20:01Z</time>
      </trkpt>
      <trkpt lat="45.41064" lon="5.83491">
        <ele>982.200012207</ele>
        <time>2012-12-09T09:20:05Z</time>
      </trkpt>
      <trkpt lat="45.41063" lon="5.83485">
        <ele>984</ele>
        <time>2012-12-09T09:20:11Z</time>
      </trkpt>
      <trkpt lat="45.41061" lon="5.83476">
        <ele>985.799987793</ele>
        <time>2012-12-09T09:20:18Z</time>
      </trkpt>
      <trkpt lat="45.41059" lon="5.8347">
        <ele>987.400024414</ele>
        <time>2012-12-09T09:20:23Z</time>
      </trkpt>
      <trkpt lat="45.41058" lon="5.83469">
        <ele>987.799987793</ele>
        <time>2012-12-09T09:20:25Z</time>
      </trkpt>
      <trkpt lat="45.41056" lon="5.83465">
        <ele>988.599975586</ele>
        <time>2012-12-09T09:20:29Z</time>
      </trkpt>
      <trkpt lat="45.41056" lon="5.83464">
        <ele>988.799987793</ele>
        <time>2012-12-09T09:20:30Z</time>
      </trkpt>
      <trkpt lat="45.41052" lon="5.83459">
        <ele>990.200012207</ele>
        <time>2012-12-09T09:20:36Z</time>
      </trkpt>
      <trkpt lat="45.41048" lon="5.83454">
        <ele>991.200012207</ele>
        <time>2012-12-09T09:20:42Z</time>
      </trkpt>
      <trkpt lat="45.41045" lon="5.83449">
        <ele>992</ele>
        <time>2012-12-09T09:20:47Z</time>
      </trkpt>
      <trkpt lat="45.41043" lon="5.83446">
        <ele>992.599975586</ele>
        <time>2012-12-09T09:20:51Z</time>
      </trkpt>
      <trkpt lat="45.41042" lon="5.83445">
        <ele>992.799987793</ele>
        <time>2012-12-09T09:20:52Z</time>
      </trkpt>
      <trkpt lat="45.41041" lon="5.83445">
        <ele>992.799987793</ele>
        <time>2012-12-09T09:20:53Z</time>
      </trkpt>
      <trkpt lat="45.41039" lon="5.83441">
        <ele>993.599975586</ele>
        <time>2012-12-09T09:20:57Z</time>
      </trkpt>
      <trkpt lat="45.41036" lon="5.83435">
        <ele>994.400024414</ele>
        <time>2012-12-09T09:21:03Z</time>
      </trkpt>
      <trkpt lat="45.41035" lon="5.83433">
        <ele>994.599975586</ele>
        <time>2012-12-09T09:21:05Z</time>
      </trkpt>
      <trkpt lat="45.4103" lon="5.83425">
        <ele>995.799987793</ele>
        <time>2012-12-09T09:21:14Z</time>
      </trkpt>
      <trkpt lat="45.41025" lon="5.83417">
        <ele>996.599975586</ele>
        <time>2012-12-09T09:21:22Z</time>
      </trkpt>
      <trkpt lat="45.41019" lon="5.8341">
        <ele>997.200012207</ele>
        <time>2012-12-09T09:21:31Z</time>
      </trkpt>
      <trkpt lat="45.41014" lon="5.83405">
        <ele>997.599975586</ele>
        <time>2012-12-09T09:21:40Z</time>
      </trkpt>
      <trkpt lat="45.4101" lon="5.83399">
        <ele>998</ele>
        <time>2012-12-09T09:21:48Z</time>
      </trkpt>
      <trkpt lat="45.41007" lon="5.83391">
        <ele>998.599975586</ele>
        <time>2012-12-09T09:21:56Z</time>
      </trkpt>
      <trkpt lat="45.41006" lon="5.83387">
        <ele>999</ele>
        <time>2012-12-09T09:22:01Z</time>
      </trkpt>
      <trkpt lat="45.41004" lon="5.8338">
        <ele>999.599975586</ele>
        <time>2012-12-09T09:22:07Z</time>
      </trkpt>
      <trkpt lat="45.41003" lon="5.83372">
        <ele>1000.200012207</ele>
        <time>2012-12-09T09:22:14Z</time>
      </trkpt>
      <trkpt lat="45.41002" lon="5.83366">
        <ele>1000.799987793</ele>
        <time>2012-12-09T09:22:20Z</time>
      </trkpt>
      <trkpt lat="45.41002" lon="5.83364">
        <ele>1001</ele>
        <time>2012-12-09T09:22:21Z</time>
      </trkpt>
      <trkpt lat="45.41001" lon="5.83357">
        <ele>1001.599975586</ele>
        <time>2012-12-09T09:22:28Z</time>
      </trkpt>
      <trkpt lat="45.41002" lon="5.8335">
        <ele>1002.400024414</ele>
        <time>2012-12-09T09:22:34Z</time>
      </trkpt>
      <trkpt lat="45.41001" lon="5.83344">
        <ele>1003</ele>
        <time>2012-12-09T09:22:39Z</time>
      </trkpt>
      <trkpt lat="45.41" lon="5.8334">
        <ele>1003.200012207</ele>
        <time>2012-12-09T09:22:42Z</time>
      </trkpt>
      <trkpt lat="45.41" lon="5.83339">
        <ele>1003.200012207</ele>
        <time>2012-12-09T09:22:43Z</time>
      </trkpt>
      <trkpt lat="45.40999" lon="5.83334">
        <ele>1003.799987793</ele>
        <time>2012-12-09T09:22:48Z</time>
      </trkpt>
      <trkpt lat="45.40999" lon="5.83333">
        <ele>1004</ele>
        <time>2012-12-09T09:22:49Z</time>
      </trkpt>
      <trkpt lat="45.40998" lon="5.83327">
        <ele>1005.200012207</ele>
        <time>2012-12-09T09:22:55Z</time>
      </trkpt>
      <trkpt lat="45.40997" lon="5.83321">
        <ele>1006.200012207</ele>
        <time>2012-12-09T09:23:00Z</time>
      </trkpt>
      <trkpt lat="45.40996" lon="5.83313">
        <ele>1007.599975586</ele>
        <time>2012-12-09T09:23:07Z</time>
      </trkpt>
      <trkpt lat="45.40995" lon="5.83311">
        <ele>1008</ele>
        <time>2012-12-09T09:23:09Z</time>
      </trkpt>
      <trkpt lat="45.40994" lon="5.83308">
        <ele>1008.799987793</ele>
        <time>2012-12-09T09:23:12Z</time>
      </trkpt>
      <trkpt lat="45.40992" lon="5.83303">
        <ele>1009.799987793</ele>
        <time>2012-12-09T09:23:17Z</time>
      </trkpt>
      <trkpt lat="45.40991" lon="5.83302">
        <ele>1010</ele>
        <time>2012-12-09T09:23:18Z</time>
      </trkpt>
      <trkpt lat="45.4099" lon="5.833">
        <ele>1010.599975586</ele>
        <time>2012-12-09T09:23:21Z</time>
      </trkpt>
      <trkpt lat="45.40988" lon="5.83298">
        <ele>1011</ele>
        <time>2012-12-09T09:23:24Z</time>
      </trkpt>
      <trkpt lat="45.40986" lon="5.83297">
        <ele>1011.400024414</ele>
        <time>2012-12-09T09:23:27Z</time>
      </trkpt>
      <trkpt lat="45.40985" lon="5.83296">
        <ele>1011.599975586</ele>
        <time>2012-12-09T09:23:29Z</time>
      </trkpt>
      <trkpt lat="45.40982" lon="5.83294">
        <ele>1012.200012207</ele>
        <time>2012-12-09T09:23:35Z</time>
      </trkpt>
      <trkpt lat="45.40978" lon="5.83292">
        <ele>1013.200012207</ele>
        <time>2012-12-09T09:23:42Z</time>
      </trkpt>
      <trkpt lat="45.40972" lon="5.83289">
        <ele>1014.400024414</ele>
        <time>2012-12-09T09:23:49Z</time>
      </trkpt>
      <trkpt lat="45.40965" lon="5.83286">
        <ele>1015.599975586</ele>
        <time>2012-12-09T09:23:56Z</time>
      </trkpt>
      <trkpt lat="45.4096" lon="5.83283">
        <ele>1016.799987793</ele>
        <time>2012-12-09T09:24:02Z</time>
      </trkpt>
      <trkpt lat="45.40955" lon="5.83281">
        <ele>1017.599975586</ele>
        <time>2012-12-09T09:24:07Z</time>
      </trkpt>
      <trkpt lat="45.40948" lon="5.83276">
        <ele>1019.400024414</ele>
        <time>2012-12-09T09:24:15Z</time>
      </trkpt>
      <trkpt lat="45.40946" lon="5.83274">
        <ele>1020</ele>
        <time>2012-12-09T09:24:19Z</time>
      </trkpt>
      <trkpt lat="45.40946" lon="5.83273">
        <ele>1020.200012207</ele>
        <time>2012-12-09T09:24:20Z</time>
      </trkpt>
      <trkpt lat="45.40944" lon="5.83268">
        <ele>1021.599975586</ele>
        <time>2012-12-09T09:24:24Z</time>
      </trkpt>
      <trkpt lat="45.40942" lon="5.83265">
        <ele>1022.400024414</ele>
        <time>2012-12-09T09:24:27Z</time>
      </trkpt>
      <trkpt lat="45.40942" lon="5.83257">
        <ele>1024.199951172</ele>
        <time>2012-12-09T09:24:32Z</time>
      </trkpt>
      <trkpt lat="45.40944" lon="5.83252">
        <ele>1025</ele>
        <time>2012-12-09T09:24:36Z</time>
      </trkpt>
      <trkpt lat="45.40944" lon="5.8325">
        <ele>1025.199951172</ele>
        <time>2012-12-09T09:24:37Z</time>
      </trkpt>
      <trkpt lat="45.40945" lon="5.83249">
        <ele>1025.400024414</ele>
        <time>2012-12-09T09:24:39Z</time>
      </trkpt>
      <trkpt lat="45.40945" lon="5.83247">
        <ele>1025.800048828</ele>
        <time>2012-12-09T09:24:41Z</time>
      </trkpt>
      <trkpt lat="45.40947" lon="5.83242">
        <ele>1026.400024414</ele>
        <time>2012-12-09T09:24:45Z</time>
      </trkpt>
      <trkpt lat="45.40948" lon="5.83239">
        <ele>1026.800048828</ele>
        <time>2012-12-09T09:24:47Z</time>
      </trkpt>
      <trkpt lat="45.40949" lon="5.83236">
        <ele>1027.199951172</ele>
        <time>2012-12-09T09:24:50Z</time>
      </trkpt>
      <trkpt lat="45.40951" lon="5.83228">
        <ele>1028.599975586</ele>
        <time>2012-12-09T09:24:57Z</time>
      </trkpt>
      <trkpt lat="45.40953" lon="5.83222">
        <ele>1029.599975586</ele>
        <time>2012-12-09T09:25:03Z</time>
      </trkpt>
      <trkpt lat="45.40953" lon="5.83217">
        <ele>1030.599975586</ele>
        <time>2012-12-09T09:25:07Z</time>
      </trkpt>
      <trkpt lat="45.40954" lon="5.83212">
        <ele>1031.400024414</ele>
        <time>2012-12-09T09:25:12Z</time>
      </trkpt>
      <trkpt lat="45.40955" lon="5.83204">
        <ele>1032.800048828</ele>
        <time>2012-12-09T09:25:19Z</time>
      </trkpt>
      <trkpt lat="45.40956" lon="5.83197">
        <ele>1034.199951172</ele>
        <time>2012-12-09T09:25:25Z</time>
      </trkpt>
      <trkpt lat="45.40956" lon="5.83191">
        <ele>1035.400024414</ele>
        <time>2012-12-09T09:25:31Z</time>
      </trkpt>
      <trkpt lat="45.40956" lon="5.83185">
        <ele>1036.400024414</ele>
        <time>2012-12-09T09:25:36Z</time>
      </trkpt>
      <trkpt lat="45.40955" lon="5.8318">
        <ele>1037.400024414</ele>
        <time>2012-12-09T09:25:41Z</time>
      </trkpt>
      <trkpt lat="45.40951" lon="5.83175">
        <ele>1038.800048828</ele>
        <time>2012-12-09T09:25:48Z</time>
      </trkpt>
      <trkpt lat="45.40949" lon="5.83171">
        <ele>1039.599975586</ele>
        <time>2012-12-09T09:25:52Z</time>
      </trkpt>
      <trkpt lat="45.40948" lon="5.83167">
        <ele>1040.400024414</ele>
        <time>2012-12-09T09:25:55Z</time>
      </trkpt>
      <trkpt lat="45.40946" lon="5.83162">
        <ele>1041.199951172</ele>
        <time>2012-12-09T09:26:02Z</time>
      </trkpt>
      <trkpt lat="45.40944" lon="5.83158">
        <ele>1041.800048828</ele>
        <time>2012-12-09T09:26:08Z</time>
      </trkpt>
      <trkpt lat="45.40943" lon="5.83154">
        <ele>1042.199951172</ele>
        <time>2012-12-09T09:26:14Z</time>
      </trkpt>
      <trkpt lat="45.4094" lon="5.83149">
        <ele>1043</ele>
        <time>2012-12-09T09:26:19Z</time>
      </trkpt>
      <trkpt lat="45.40937" lon="5.83145">
        <ele>1043.400024414</ele>
        <time>2012-12-09T09:26:24Z</time>
      </trkpt>
      <trkpt lat="45.40935" lon="5.8314">
        <ele>1043.800048828</ele>
        <time>2012-12-09T09:26:28Z</time>
      </trkpt>
      <trkpt lat="45.40933" lon="5.83136">
        <ele>1044.199951172</ele>
        <time>2012-12-09T09:26:33Z</time>
      </trkpt>
      <trkpt lat="45.40933" lon="5.83134">
        <ele>1044.400024414</ele>
        <time>2012-12-09T09:26:34Z</time>
      </trkpt>
      <trkpt lat="45.40931" lon="5.83133">
        <ele>1044.400024414</ele>
        <time>2012-12-09T09:26:36Z</time>
      </trkpt>
      <trkpt lat="45.40931" lon="5.83132">
        <ele>1044.400024414</ele>
        <time>2012-12-09T09:26:37Z</time>
      </trkpt>
      <trkpt lat="45.40929" lon="5.83129">
        <ele>1044.800048828</ele>
        <time>2012-12-09T09:26:41Z</time>
      </trkpt>
      <trkpt lat="45.40925" lon="5.83122">
        <ele>1045.199951172</ele>
        <time>2012-12-09T09:26:48Z</time>
      </trkpt>
      <trkpt lat="45.40924" lon="5.83115">
        <ele>1045.599975586</ele>
        <time>2012-12-09T09:26:53Z</time>
      </trkpt>
      <trkpt lat="45.40924" lon="5.83114">
        <ele>1045.599975586</ele>
        <time>2012-12-09T09:26:54Z</time>
      </trkpt>
      <trkpt lat="45.40922" lon="5.83107">
        <ele>1046</ele>
        <time>2012-12-09T09:27:02Z</time>
      </trkpt>
      <trkpt lat="45.40921" lon="5.83099">
        <ele>1046.400024414</ele>
        <time>2012-12-09T09:27:09Z</time>
      </trkpt>
      <trkpt lat="45.40919" lon="5.83095">
        <ele>1046.599975586</ele>
        <time>2012-12-09T09:27:14Z</time>
      </trkpt>
      <trkpt lat="45.40919" lon="5.83091">
        <ele>1046.599975586</ele>
        <time>2012-12-09T09:27:17Z</time>
      </trkpt>
      <trkpt lat="45.40919" lon="5.83088">
        <ele>1046.800048828</ele>
        <time>2012-12-09T09:27:19Z</time>
      </trkpt>
      <trkpt lat="45.40919" lon="5.83079">
        <ele>1048</ele>
        <time>2012-12-09T09:27:25Z</time>
      </trkpt>
      <trkpt lat="45.40917" lon="5.83075">
        <ele>1048.599975586</ele>
        <time>2012-12-09T09:27:28Z</time>
      </trkpt>
      <trkpt lat="45.40917" lon="5.83074">
        <ele>1049</ele>
        <time>2012-12-09T09:27:29Z</time>
      </trkpt>
      <trkpt lat="45.40916" lon="5.83073">
        <ele>1049.199951172</ele>
        <time>2012-12-09T09:27:31Z</time>
      </trkpt>
      <trkpt lat="45.40916" lon="5.83071">
        <ele>1049.599975586</ele>
        <time>2012-12-09T09:27:33Z</time>
      </trkpt>
      <trkpt lat="45.40913" lon="5.83065">
        <ele>1051</ele>
        <time>2012-12-09T09:27:48Z</time>
      </trkpt>
      <trkpt lat="45.40911" lon="5.83061">
        <ele>1052</ele>
        <time>2012-12-09T09:27:53Z</time>
      </trkpt>
      <trkpt lat="45.40909" lon="5.83059">
        <ele>1052.599975586</ele>
        <time>2012-12-09T09:27:55Z</time>
      </trkpt>
      <trkpt lat="45.40906" lon="5.83054">
        <ele>1053.599975586</ele>
        <time>2012-12-09T09:27:59Z</time>
      </trkpt>
      <trkpt lat="45.40904" lon="5.83053">
        <ele>1054</ele>
        <time>2012-12-09T09:28:03Z</time>
      </trkpt>
      <trkpt lat="45.40897" lon="5.83046">
        <ele>1055.800048828</ele>
        <time>2012-12-09T09:28:10Z</time>
      </trkpt>
      <trkpt lat="45.40891" lon="5.83038">
        <ele>1057.400024414</ele>
        <time>2012-12-09T09:28:17Z</time>
      </trkpt>
      <trkpt lat="45.40889" lon="5.83035">
        <ele>1058</ele>
        <time>2012-12-09T09:28:20Z</time>
      </trkpt>
      <trkpt lat="45.40887" lon="5.83035">
        <ele>1058</ele>
        <time>2012-12-09T09:28:22Z</time>
      </trkpt>
      <trkpt lat="45.40879" lon="5.83029">
        <ele>1059</ele>
        <time>2012-12-09T09:28:29Z</time>
      </trkpt>
      <trkpt lat="45.40873" lon="5.83022">
        <ele>1060.199951172</ele>
        <time>2012-12-09T09:28:35Z</time>
      </trkpt>
      <trkpt lat="45.40871" lon="5.83015">
        <ele>1061.400024414</ele>
        <time>2012-12-09T09:28:40Z</time>
      </trkpt>
      <trkpt lat="45.40871" lon="5.83014">
        <ele>1061.599975586</ele>
        <time>2012-12-09T09:28:41Z</time>
      </trkpt>
      <trkpt lat="45.40867" lon="5.83011">
        <ele>1062</ele>
        <time>2012-12-09T09:28:47Z</time>
      </trkpt>
      <trkpt lat="45.40865" lon="5.83004">
        <ele>1063</ele>
        <time>2012-12-09T09:29:03Z</time>
      </trkpt>
      <trkpt lat="45.40862" lon="5.83007">
        <ele>1062.599975586</ele>
        <time>2012-12-09T09:29:58Z</time>
      </trkpt>
      <trkpt lat="45.40859" lon="5.83005">
        <ele>1062.800048828</ele>
        <time>2012-12-09T09:30:03Z</time>
      </trkpt>
      <trkpt lat="45.40852" lon="5.83003">
        <ele>1063</ele>
        <time>2012-12-09T09:30:10Z</time>
      </trkpt>
      <trkpt lat="45.40851" lon="5.83004">
        <ele>1062.800048828</ele>
        <time>2012-12-09T09:30:11Z</time>
      </trkpt>
      <trkpt lat="45.40848" lon="5.83002">
        <ele>1063</ele>
        <time>2012-12-09T09:30:15Z</time>
      </trkpt>
      <trkpt lat="45.40844" lon="5.82998">
        <ele>1063.599975586</ele>
        <time>2012-12-09T09:30:20Z</time>
      </trkpt>
      <trkpt lat="45.4084" lon="5.82992">
        <ele>1065</ele>
        <time>2012-12-09T09:30:27Z</time>
      </trkpt>
      <trkpt lat="45.4084" lon="5.82991">
        <ele>1065.199951172</ele>
        <time>2012-12-09T09:30:29Z</time>
      </trkpt>
      <trkpt lat="45.40837" lon="5.82991">
        <ele>1065.400024414</ele>
        <time>2012-12-09T09:30:32Z</time>
      </trkpt>
      <trkpt lat="45.40834" lon="5.82989">
        <ele>1065.400024414</ele>
        <time>2012-12-09T09:30:35Z</time>
      </trkpt>
      <trkpt lat="45.40833" lon="5.82987">
        <ele>1066</ele>
        <time>2012-12-09T09:30:37Z</time>
      </trkpt>
      <trkpt lat="45.40834" lon="5.82979">
        <ele>1068</ele>
        <time>2012-12-09T09:30:46Z</time>
      </trkpt>
      <trkpt lat="45.40834" lon="5.82976">
        <ele>1068.599975586</ele>
        <time>2012-12-09T09:30:54Z</time>
      </trkpt>
      <trkpt lat="45.40831" lon="5.8297">
        <ele>1070.199951172</ele>
        <time>2012-12-09T09:31:00Z</time>
      </trkpt>
      <trkpt lat="45.40829" lon="5.82969">
        <ele>1070.599975586</ele>
        <time>2012-12-09T09:31:02Z</time>
      </trkpt>
      <trkpt lat="45.40827" lon="5.82965">
        <ele>1071.599975586</ele>
        <time>2012-12-09T09:31:07Z</time>
      </trkpt>
      <trkpt lat="45.40822" lon="5.82959">
        <ele>1073.199951172</ele>
        <time>2012-12-09T09:31:13Z</time>
      </trkpt>
      <trkpt lat="45.40818" lon="5.82955">
        <ele>1074</ele>
        <time>2012-12-09T09:31:17Z</time>
      </trkpt>
      <trkpt lat="45.40817" lon="5.82954">
        <ele>1074.400024414</ele>
        <time>2012-12-09T09:31:19Z</time>
      </trkpt>
      <trkpt lat="45.40816" lon="5.82952">
        <ele>1074.800048828</ele>
        <time>2012-12-09T09:31:22Z</time>
      </trkpt>
      <trkpt lat="45.40813" lon="5.82948">
        <ele>1075.800048828</ele>
        <time>2012-12-09T09:31:27Z</time>
      </trkpt>
      <trkpt lat="45.40812" lon="5.82948">
        <ele>1075.800048828</ele>
        <time>2012-12-09T09:31:28Z</time>
      </trkpt>
      <trkpt lat="45.40809" lon="5.82944">
        <ele>1076.599975586</ele>
        <time>2012-12-09T09:31:33Z</time>
      </trkpt>
      <trkpt lat="45.4081" lon="5.82942">
        <ele>1077.199951172</ele>
        <time>2012-12-09T09:31:38Z</time>
      </trkpt>
      <trkpt lat="45.40806" lon="5.82944">
        <ele>1076.800048828</ele>
        <time>2012-12-09T09:31:46Z</time>
      </trkpt>
      <trkpt lat="45.40804" lon="5.82942">
        <ele>1077.199951172</ele>
        <time>2012-12-09T09:31:48Z</time>
      </trkpt>
      <trkpt lat="45.40803" lon="5.82939">
        <ele>1077.800048828</ele>
        <time>2012-12-09T09:31:50Z</time>
      </trkpt>
      <trkpt lat="45.40803" lon="5.82934">
        <ele>1078.800048828</ele>
        <time>2012-12-09T09:31:56Z</time>
      </trkpt>
      <trkpt lat="45.40802" lon="5.82932">
        <ele>1079.199951172</ele>
        <time>2012-12-09T09:31:59Z</time>
      </trkpt>
      <trkpt lat="45.40799" lon="5.82932">
        <ele>1079.199951172</ele>
        <time>2012-12-09T09:32:03Z</time>
      </trkpt>
      <trkpt lat="45.40797" lon="5.8293">
        <ele>1079.400024414</ele>
        <time>2012-12-09T09:32:06Z</time>
      </trkpt>
      <trkpt lat="45.40795" lon="5.82926">
        <ele>1080.199951172</ele>
        <time>2012-12-09T09:32:11Z</time>
      </trkpt>
      <trkpt lat="45.40791" lon="5.82923">
        <ele>1080.800048828</ele>
        <time>2012-12-09T09:32:15Z</time>
      </trkpt>
      <trkpt lat="45.40785" lon="5.8292">
        <ele>1081.199951172</ele>
        <time>2012-12-09T09:32:20Z</time>
      </trkpt>
      <trkpt lat="45.40779" lon="5.8292">
        <ele>1081</ele>
        <time>2012-12-09T09:32:25Z</time>
      </trkpt>
      <trkpt lat="45.40776" lon="5.8292">
        <ele>1081</ele>
        <time>2012-12-09T09:32:27Z</time>
      </trkpt>
      <trkpt lat="45.40774" lon="5.82918">
        <ele>1081.199951172</ele>
        <time>2012-12-09T09:32:29Z</time>
      </trkpt>
      <trkpt lat="45.40772" lon="5.82916">
        <ele>1081.599975586</ele>
        <time>2012-12-09T09:32:32Z</time>
      </trkpt>
      <trkpt lat="45.4077" lon="5.82914">
        <ele>1081.800048828</ele>
        <time>2012-12-09T09:32:34Z</time>
      </trkpt>
      <trkpt lat="45.40766" lon="5.82909">
        <ele>1082.599975586</ele>
        <time>2012-12-09T09:32:39Z</time>
      </trkpt>
      <trkpt lat="45.40766" lon="5.82908">
        <ele>1082.800048828</ele>
        <time>2012-12-09T09:32:40Z</time>
      </trkpt>
      <trkpt lat="45.40762" lon="5.82903">
        <ele>1083.400024414</ele>
        <time>2012-12-09T09:32:44Z</time>
      </trkpt>
      <trkpt lat="45.40761" lon="5.82901">
        <ele>1083.599975586</ele>
        <time>2012-12-09T09:32:45Z</time>
      </trkpt>
      <trkpt lat="45.40753" lon="5.82896">
        <ele>1084</ele>
        <time>2012-12-09T09:32:50Z</time>
      </trkpt>
      <trkpt lat="45.40752" lon="5.82894">
        <ele>1084</ele>
        <time>2012-12-09T09:32:51Z</time>
      </trkpt>
      <trkpt lat="45.40749" lon="5.8289">
        <ele>1084.400024414</ele>
        <time>2012-12-09T09:32:54Z</time>
      </trkpt>
      <trkpt lat="45.40743" lon="5.82883">
        <ele>1085.199951172</ele>
        <time>2012-12-09T09:32:59Z</time>
      </trkpt>
      <trkpt lat="45.40734" lon="5.82878">
        <ele>1085.599975586</ele>
        <time>2012-12-09T09:33:06Z</time>
      </trkpt>
      <trkpt lat="45.40731" lon="5.82875">
        <ele>1086</ele>
        <time>2012-12-09T09:33:11Z</time>
      </trkpt>
      <trkpt lat="45.40729" lon="5.82874">
        <ele>1086.199951172</ele>
        <time>2012-12-09T09:33:13Z</time>
      </trkpt>
      <trkpt lat="45.40727" lon="5.82872">
        <ele>1086.400024414</ele>
        <time>2012-12-09T09:33:16Z</time>
      </trkpt>
      <trkpt lat="45.40718" lon="5.82868">
        <ele>1086.800048828</ele>
        <time>2012-12-09T09:33:22Z</time>
      </trkpt>
      <trkpt lat="45.40716" lon="5.82867">
        <ele>1087</ele>
        <time>2012-12-09T09:33:24Z</time>
      </trkpt>
      <trkpt lat="45.40712" lon="5.82865">
        <ele>1087.199951172</ele>
        <time>2012-12-09T09:33:29Z</time>
      </trkpt>
      <trkpt lat="45.40712" lon="5.82864">
        <ele>1087.400024414</ele>
        <time>2012-12-09T09:33:30Z</time>
      </trkpt>
      <trkpt lat="45.40711" lon="5.82864">
        <ele>1087.400024414</ele>
        <time>2012-12-09T09:33:32Z</time>
      </trkpt>
      <trkpt lat="45.4071" lon="5.82864">
        <ele>1087.400024414</ele>
        <time>2012-12-09T09:33:33Z</time>
      </trkpt>
      <trkpt lat="45.40708" lon="5.82863">
        <ele>1087.400024414</ele>
        <time>2012-12-09T09:33:36Z</time>
      </trkpt>
      <trkpt lat="45.40707" lon="5.82863">
        <ele>1087.400024414</ele>
        <time>2012-12-09T09:33:37Z</time>
      </trkpt>
      <trkpt lat="45.40705" lon="5.82864">
        <ele>1087.199951172</ele>
        <time>2012-12-09T09:33:42Z</time>
      </trkpt>
      <trkpt lat="45.40699" lon="5.82866">
        <ele>1086.800048828</ele>
        <time>2012-12-09T09:33:47Z</time>
      </trkpt>
      <trkpt lat="45.40697" lon="5.82866">
        <ele>1086.800048828</ele>
        <time>2012-12-09T09:33:48Z</time>
      </trkpt>
      <trkpt lat="45.40692" lon="5.82868">
        <ele>1086.400024414</ele>
        <time>2012-12-09T09:33:53Z</time>
      </trkpt>
      <trkpt lat="45.4069" lon="5.82868">
        <ele>1086.400024414</ele>
        <time>2012-12-09T09:33:55Z</time>
      </trkpt>
      <trkpt lat="45.40687" lon="5.82867">
        <ele>1086.599975586</ele>
        <time>2012-12-09T09:33:57Z</time>
      </trkpt>
      <trkpt lat="45.40683" lon="5.82869">
        <ele>1086.199951172</ele>
        <time>2012-12-09T09:34:00Z</time>
      </trkpt>
      <trkpt lat="45.4068" lon="5.82869">
        <ele>1086.199951172</ele>
        <time>2012-12-09T09:34:02Z</time>
      </trkpt>
      <trkpt lat="45.40678" lon="5.82868">
        <ele>1086.199951172</ele>
        <time>2012-12-09T09:34:04Z</time>
      </trkpt>
      <trkpt lat="45.40672" lon="5.82866">
        <ele>1086.400024414</ele>
        <time>2012-12-09T09:34:09Z</time>
      </trkpt>
      <trkpt lat="45.40663" lon="5.82867">
        <ele>1086.800048828</ele>
        <time>2012-12-09T09:34:16Z</time>
      </trkpt>
      <trkpt lat="45.40659" lon="5.82865">
        <ele>1087.599975586</ele>
        <time>2012-12-09T09:34:20Z</time>
      </trkpt>
      <trkpt lat="45.40658" lon="5.82865">
        <ele>1087.800048828</ele>
        <time>2012-12-09T09:34:21Z</time>
      </trkpt>
      <trkpt lat="45.40653" lon="5.82863">
        <ele>1089</ele>
        <time>2012-12-09T09:34:27Z</time>
      </trkpt>
      <trkpt lat="45.40652" lon="5.82863">
        <ele>1089</ele>
        <time>2012-12-09T09:34:28Z</time>
      </trkpt>
      <trkpt lat="45.4065" lon="5.82863">
        <ele>1089.400024414</ele>
        <time>2012-12-09T09:34:31Z</time>
      </trkpt>
      <trkpt lat="45.40649" lon="5.82863">
        <ele>1089.400024414</ele>
        <time>2012-12-09T09:34:32Z</time>
      </trkpt>
      <trkpt lat="45.40644" lon="5.82863">
        <ele>1090.400024414</ele>
        <time>2012-12-09T09:34:38Z</time>
      </trkpt>
      <trkpt lat="45.40641" lon="5.82863">
        <ele>1090.800048828</ele>
        <time>2012-12-09T09:34:41Z</time>
      </trkpt>
      <trkpt lat="45.40639" lon="5.82861">
        <ele>1091.400024414</ele>
        <time>2012-12-09T09:34:44Z</time>
      </trkpt>
      <trkpt lat="45.40636" lon="5.82861">
        <ele>1091.800048828</ele>
        <time>2012-12-09T09:34:48Z</time>
      </trkpt>
      <trkpt lat="45.40633" lon="5.8286">
        <ele>1092.599975586</ele>
        <time>2012-12-09T09:34:53Z</time>
      </trkpt>
      <trkpt lat="45.40629" lon="5.82859">
        <ele>1093.400024414</ele>
        <time>2012-12-09T09:34:58Z</time>
      </trkpt>
      <trkpt lat="45.40625" lon="5.82861">
        <ele>1093.599975586</ele>
        <time>2012-12-09T09:35:02Z</time>
      </trkpt>
      <trkpt lat="45.40624" lon="5.8286">
        <ele>1093.800048828</ele>
        <time>2012-12-09T09:35:03Z</time>
      </trkpt>
      <trkpt lat="45.40622" lon="5.8286">
        <ele>1094.400024414</ele>
        <time>2012-12-09T09:35:06Z</time>
      </trkpt>
      <trkpt lat="45.40618" lon="5.8286">
        <ele>1094.800048828</ele>
        <time>2012-12-09T09:35:12Z</time>
      </trkpt>
      <trkpt lat="45.40609" lon="5.8286">
        <ele>1096.400024414</ele>
        <time>2012-12-09T09:35:21Z</time>
      </trkpt>
      <trkpt lat="45.40601" lon="5.82861">
        <ele>1097.199951172</ele>
        <time>2012-12-09T09:35:29Z</time>
      </trkpt>
      <trkpt lat="45.40596" lon="5.82863">
        <ele>1097.400024414</ele>
        <time>2012-12-09T09:35:33Z</time>
      </trkpt>
      <trkpt lat="45.40591" lon="5.82866">
        <ele>1097</ele>
        <time>2012-12-09T09:35:38Z</time>
      </trkpt>
      <trkpt lat="45.40587" lon="5.82869">
        <ele>1096.800048828</ele>
        <time>2012-12-09T09:35:43Z</time>
      </trkpt>
      <trkpt lat="45.40585" lon="5.8287">
        <ele>1096.800048828</ele>
        <time>2012-12-09T09:35:45Z</time>
      </trkpt>
      <trkpt lat="45.40584" lon="5.82871">
        <ele>1096.599975586</ele>
        <time>2012-12-09T09:35:48Z</time>
      </trkpt>
      <trkpt lat="45.4058" lon="5.82872">
        <ele>1097</ele>
        <time>2012-12-09T09:35:52Z</time>
      </trkpt>
      <trkpt lat="45.40579" lon="5.82873">
        <ele>1097.199951172</ele>
        <time>2012-12-09T09:35:53Z</time>
      </trkpt>
      <trkpt lat="45.40575" lon="5.82874">
        <ele>1097.599975586</ele>
        <time>2012-12-09T09:35:58Z</time>
      </trkpt>
      <trkpt lat="45.40573" lon="5.82875">
        <ele>1098</ele>
        <time>2012-12-09T09:36:01Z</time>
      </trkpt>
      <trkpt lat="45.40568" lon="5.82875">
        <ele>1099</ele>
        <time>2012-12-09T09:36:06Z</time>
      </trkpt>
      <trkpt lat="45.40566" lon="5.82875">
        <ele>1099.599975586</ele>
        <time>2012-12-09T09:36:09Z</time>
      </trkpt>
      <trkpt lat="45.40565" lon="5.82875">
        <ele>1099.800048828</ele>
        <time>2012-12-09T09:36:10Z</time>
      </trkpt>
      <trkpt lat="45.40562" lon="5.82876">
        <ele>1100.400024414</ele>
        <time>2012-12-09T09:36:15Z</time>
      </trkpt>
      <trkpt lat="45.40558" lon="5.82877">
        <ele>1101.199951172</ele>
        <time>2012-12-09T09:36:21Z</time>
      </trkpt>
      <trkpt lat="45.40553" lon="5.82878">
        <ele>1102.199951172</ele>
        <time>2012-12-09T09:36:26Z</time>
      </trkpt>
      <trkpt lat="45.40552" lon="5.82878">
        <ele>1102.599975586</ele>
        <time>2012-12-09T09:36:28Z</time>
      </trkpt>
      <trkpt lat="45.4055" lon="5.82879">
        <ele>1102.800048828</ele>
        <time>2012-12-09T09:36:30Z</time>
      </trkpt>
      <trkpt lat="45.40549" lon="5.82878">
        <ele>1103.199951172</ele>
        <time>2012-12-09T09:36:32Z</time>
      </trkpt>
      <trkpt lat="45.40547" lon="5.82878">
        <ele>1103.800048828</ele>
        <time>2012-12-09T09:36:35Z</time>
      </trkpt>
      <trkpt lat="45.40544" lon="5.82879">
        <ele>1104.400024414</ele>
        <time>2012-12-09T09:36:39Z</time>
      </trkpt>
      <trkpt lat="45.40542" lon="5.82879">
        <ele>1105</ele>
        <time>2012-12-09T09:36:43Z</time>
      </trkpt>
      <trkpt lat="45.40539" lon="5.8288">
        <ele>1105.599975586</ele>
        <time>2012-12-09T09:36:47Z</time>
      </trkpt>
      <trkpt lat="45.40536" lon="5.82881">
        <ele>1106.199951172</ele>
        <time>2012-12-09T09:36:51Z</time>
      </trkpt>
      <trkpt lat="45.40532" lon="5.82881">
        <ele>1107.199951172</ele>
        <time>2012-12-09T09:36:56Z</time>
      </trkpt>
      <trkpt lat="45.40528" lon="5.82882">
        <ele>1108.199951172</ele>
        <time>2012-12-09T09:37:03Z</time>
      </trkpt>
      <trkpt lat="45.40524" lon="5.82883">
        <ele>1109</ele>
        <time>2012-12-09T09:37:10Z</time>
      </trkpt>
      <trkpt lat="45.40521" lon="5.82884">
        <ele>1109.800048828</ele>
        <time>2012-12-09T09:37:15Z</time>
      </trkpt>
      <trkpt lat="45.40518" lon="5.82884">
        <ele>1110.599975586</ele>
        <time>2012-12-09T09:37:19Z</time>
      </trkpt>
      <trkpt lat="45.40514" lon="5.82883">
        <ele>1112</ele>
        <time>2012-12-09T09:37:24Z</time>
      </trkpt>
      <trkpt lat="45.40512" lon="5.82883">
        <ele>1112.400024414</ele>
        <time>2012-12-09T09:37:26Z</time>
      </trkpt>
      <trkpt lat="45.40508" lon="5.82883">
        <ele>1113.599975586</ele>
        <time>2012-12-09T09:37:30Z</time>
      </trkpt>
      <trkpt lat="45.40504" lon="5.82881">
        <ele>1114.599975586</ele>
        <time>2012-12-09T09:37:35Z</time>
      </trkpt>
      <trkpt lat="45.40502" lon="5.82877">
        <ele>1115.400024414</ele>
        <time>2012-12-09T09:37:40Z</time>
      </trkpt>
      <trkpt lat="45.40501" lon="5.82872">
        <ele>1115.800048828</ele>
        <time>2012-12-09T09:37:44Z</time>
      </trkpt>
      <trkpt lat="45.40502" lon="5.82866">
        <ele>1115.800048828</ele>
        <time>2012-12-09T09:37:49Z</time>
      </trkpt>
      <trkpt lat="45.40502" lon="5.82865">
        <ele>1115.599975586</ele>
        <time>2012-12-09T09:37:50Z</time>
      </trkpt>
      <trkpt lat="45.40503" lon="5.82864">
        <ele>1115.599975586</ele>
        <time>2012-12-09T09:37:51Z</time>
      </trkpt>
      <trkpt lat="45.40504" lon="5.82863">
        <ele>1115.400024414</ele>
        <time>2012-12-09T09:37:52Z</time>
      </trkpt>
      <trkpt lat="45.40505" lon="5.8286">
        <ele>1115.400024414</ele>
        <time>2012-12-09T09:37:55Z</time>
      </trkpt>
      <trkpt lat="45.40505" lon="5.82858">
        <ele>1115.400024414</ele>
        <time>2012-12-09T09:37:57Z</time>
      </trkpt>
      <trkpt lat="45.40507" lon="5.82855">
        <ele>1115</ele>
        <time>2012-12-09T09:38:01Z</time>
      </trkpt>
      <trkpt lat="45.40511" lon="5.82852">
        <ele>1114.599975586</ele>
        <time>2012-12-09T09:38:07Z</time>
      </trkpt>
      <trkpt lat="45.40512" lon="5.8285">
        <ele>1114.599975586</ele>
        <time>2012-12-09T09:38:11Z</time>
      </trkpt>
      <trkpt lat="45.40514" lon="5.82845">
        <ele>1114.599975586</ele>
        <time>2012-12-09T09:38:16Z</time>
      </trkpt>
      <trkpt lat="45.40514" lon="5.82837">
        <ele>1115.199951172</ele>
        <time>2012-12-09T09:38:23Z</time>
      </trkpt>
      <trkpt lat="45.40516" lon="5.82831">
        <ele>1116.199951172</ele>
        <time>2012-12-09T09:38:30Z</time>
      </trkpt>
      <trkpt lat="45.40518" lon="5.82827">
        <ele>1117</ele>
        <time>2012-12-09T09:38:36Z</time>
      </trkpt>
      <trkpt lat="45.40518" lon="5.82823">
        <ele>1118</ele>
        <time>2012-12-09T09:38:41Z</time>
      </trkpt>
      <trkpt lat="45.40517" lon="5.8282">
        <ele>1118.800048828</ele>
        <time>2012-12-09T09:38:45Z</time>
      </trkpt>
      <trkpt lat="45.40518" lon="5.82816">
        <ele>1120</ele>
        <time>2012-12-09T09:38:50Z</time>
      </trkpt>
      <trkpt lat="45.40517" lon="5.82812">
        <ele>1121</ele>
        <time>2012-12-09T09:38:55Z</time>
      </trkpt>
      <trkpt lat="45.40516" lon="5.82809">
        <ele>1122</ele>
        <time>2012-12-09T09:38:59Z</time>
      </trkpt>
      <trkpt lat="45.40516" lon="5.82805">
        <ele>1122.800048828</ele>
        <time>2012-12-09T09:39:04Z</time>
      </trkpt>
      <trkpt lat="45.40514" lon="5.82802">
        <ele>1123.599975586</ele>
        <time>2012-12-09T09:39:08Z</time>
      </trkpt>
      <trkpt lat="45.40513" lon="5.82799">
        <ele>1124.400024414</ele>
        <time>2012-12-09T09:39:13Z</time>
      </trkpt>
      <trkpt lat="45.40512" lon="5.82795">
        <ele>1125.599975586</ele>
        <time>2012-12-09T09:39:18Z</time>
      </trkpt>
      <trkpt lat="45.40512" lon="5.8279">
        <ele>1126.800048828</ele>
        <time>2012-12-09T09:39:23Z</time>
      </trkpt>
      <trkpt lat="45.40511" lon="5.82788">
        <ele>1127.199951172</ele>
        <time>2012-12-09T09:39:25Z</time>
      </trkpt>
      <trkpt lat="45.4051" lon="5.82786">
        <ele>1127.800048828</ele>
        <time>2012-12-09T09:39:28Z</time>
      </trkpt>
      <trkpt lat="45.40509" lon="5.8278">
        <ele>1129.199951172</ele>
        <time>2012-12-09T09:39:36Z</time>
      </trkpt>
      <trkpt lat="45.40507" lon="5.82777">
        <ele>1130</ele>
        <time>2012-12-09T09:39:41Z</time>
      </trkpt>
      <trkpt lat="45.40506" lon="5.82776">
        <ele>1130.199951172</ele>
        <time>2012-12-09T09:39:47Z</time>
      </trkpt>
      <trkpt lat="45.40505" lon="5.82771">
        <ele>1131.199951172</ele>
        <time>2012-12-09T09:39:52Z</time>
      </trkpt>
      <trkpt lat="45.40502" lon="5.82768">
        <ele>1132</ele>
        <time>2012-12-09T09:39:57Z</time>
      </trkpt>
      <trkpt lat="45.40502" lon="5.82765">
        <ele>1132.599975586</ele>
        <time>2012-12-09T09:40:00Z</time>
      </trkpt>
      <trkpt lat="45.40502" lon="5.82763">
        <ele>1133</ele>
        <time>2012-12-09T09:40:02Z</time>
      </trkpt>
      <trkpt lat="45.40502" lon="5.82759">
        <ele>1134</ele>
        <time>2012-12-09T09:40:08Z</time>
      </trkpt>
      <trkpt lat="45.405" lon="5.82752">
        <ele>1135.599975586</ele>
        <time>2012-12-09T09:40:18Z</time>
      </trkpt>
      <trkpt lat="45.405" lon="5.82752">
        <ele>1135.599975586</ele>
        <time>2012-12-09T09:40:23Z</time>
      </trkpt>
      <trkpt lat="45.40496" lon="5.82753">
        <ele>1136.199951172</ele>
        <time>2012-12-09T09:40:29Z</time>
      </trkpt>
      <trkpt lat="45.40495" lon="5.8275">
        <ele>1136.800048828</ele>
        <time>2012-12-09T09:40:35Z</time>
      </trkpt>
      <trkpt lat="45.40495" lon="5.82747">
        <ele>1137.800048828</ele>
        <time>2012-12-09T09:40:40Z</time>
      </trkpt>
      <trkpt lat="45.40494" lon="5.82744">
        <ele>1138.800048828</ele>
        <time>2012-12-09T09:40:47Z</time>
      </trkpt>
      <trkpt lat="45.40493" lon="5.82741">
        <ele>1140</ele>
        <time>2012-12-09T09:40:51Z</time>
      </trkpt>
      <trkpt lat="45.40493" lon="5.82738">
        <ele>1141</ele>
        <time>2012-12-09T09:40:56Z</time>
      </trkpt>
      <trkpt lat="45.40492" lon="5.82734">
        <ele>1142.199951172</ele>
        <time>2012-12-09T09:41:03Z</time>
      </trkpt>
      <trkpt lat="45.40492" lon="5.82731">
        <ele>1143.199951172</ele>
        <time>2012-12-09T09:41:08Z</time>
      </trkpt>
      <trkpt lat="45.40491" lon="5.82727">
        <ele>1144.199951172</ele>
        <time>2012-12-09T09:41:13Z</time>
      </trkpt>
      <trkpt lat="45.40487" lon="5.82721">
        <ele>1146.400024414</ele>
        <time>2012-12-09T09:41:19Z</time>
      </trkpt>
      <trkpt lat="45.40485" lon="5.82719">
        <ele>1147.199951172</ele>
        <time>2012-12-09T09:41:24Z</time>
      </trkpt>
      <trkpt lat="45.40478" lon="5.82711">
        <ele>1149.800048828</ele>
        <time>2012-12-09T09:41:31Z</time>
      </trkpt>
      <trkpt lat="45.40477" lon="5.82708">
        <ele>1150.400024414</ele>
        <time>2012-12-09T09:41:33Z</time>
      </trkpt>
      <trkpt lat="45.40477" lon="5.82706">
        <ele>1151</ele>
        <time>2012-12-09T09:41:35Z</time>
      </trkpt>
      <trkpt lat="45.40475" lon="5.82702">
        <ele>1152</ele>
        <time>2012-12-09T09:41:38Z</time>
      </trkpt>
      <trkpt lat="45.40474" lon="5.82696">
        <ele>1153.400024414</ele>
        <time>2012-12-09T09:41:42Z</time>
      </trkpt>
      <trkpt lat="45.40473" lon="5.82689">
        <ele>1154.800048828</ele>
        <time>2012-12-09T09:41:47Z</time>
      </trkpt>
      <trkpt lat="45.4047" lon="5.82682">
        <ele>1156.199951172</ele>
        <time>2012-12-09T09:41:53Z</time>
      </trkpt>
      <trkpt lat="45.40469" lon="5.82681">
        <ele>1156.400024414</ele>
        <time>2012-12-09T09:41:55Z</time>
      </trkpt>
      <trkpt lat="45.40468" lon="5.82678">
        <ele>1157</ele>
        <time>2012-12-09T09:41:57Z</time>
      </trkpt>
      <trkpt lat="45.40468" lon="5.82675">
        <ele>1157.599975586</ele>
        <time>2012-12-09T09:41:59Z</time>
      </trkpt>
      <trkpt lat="45.40466" lon="5.82671">
        <ele>1158.199951172</ele>
        <time>2012-12-09T09:42:03Z</time>
      </trkpt>
      <trkpt lat="45.40464" lon="5.82666">
        <ele>1159</ele>
        <time>2012-12-09T09:42:07Z</time>
      </trkpt>
      <trkpt lat="45.40461" lon="5.8266">
        <ele>1159.800048828</ele>
        <time>2012-12-09T09:42:13Z</time>
      </trkpt>
      <trkpt lat="45.40461" lon="5.82659">
        <ele>1160</ele>
        <time>2012-12-09T09:42:14Z</time>
      </trkpt>
      <trkpt lat="45.4046" lon="5.82656">
        <ele>1160.400024414</ele>
        <time>2012-12-09T09:42:18Z</time>
      </trkpt>
      <trkpt lat="45.40459" lon="5.82656">
        <ele>1160.400024414</ele>
        <time>2012-12-09T09:42:19Z</time>
      </trkpt>
      <trkpt lat="45.40454" lon="5.82654">
        <ele>1160.199951172</ele>
        <time>2012-12-09T09:42:23Z</time>
      </trkpt>
      <trkpt lat="45.40451" lon="5.82649">
        <ele>1160.800048828</ele>
        <time>2012-12-09T09:42:27Z</time>
      </trkpt>
      <trkpt lat="45.40445" lon="5.82643">
        <ele>1161</ele>
        <time>2012-12-09T09:42:33Z</time>
      </trkpt>
      <trkpt lat="45.4044" lon="5.82636">
        <ele>1161.599975586</ele>
        <time>2012-12-09T09:42:38Z</time>
      </trkpt>
      <trkpt lat="45.40435" lon="5.82631">
        <ele>1161.599975586</ele>
        <time>2012-12-09T09:42:43Z</time>
      </trkpt>
      <trkpt lat="45.40432" lon="5.82627">
        <ele>1161.800048828</ele>
        <time>2012-12-09T09:42:47Z</time>
      </trkpt>
      <trkpt lat="45.40428" lon="5.82623">
        <ele>1161.800048828</ele>
        <time>2012-12-09T09:42:52Z</time>
      </trkpt>
      <trkpt lat="45.40426" lon="5.82623">
        <ele>1161.599975586</ele>
        <time>2012-12-09T09:42:53Z</time>
      </trkpt>
      <trkpt lat="45.40425" lon="5.82621">
        <ele>1161.599975586</ele>
        <time>2012-12-09T09:42:58Z</time>
      </trkpt>
      <trkpt lat="45.40424" lon="5.8262">
        <ele>1161.599975586</ele>
        <time>2012-12-09T09:42:59Z</time>
      </trkpt>
      <trkpt lat="45.40421" lon="5.82617">
        <ele>1161.599975586</ele>
        <time>2012-12-09T09:43:05Z</time>
      </trkpt>
      <trkpt lat="45.4042" lon="5.82614">
        <ele>1161.599975586</ele>
        <time>2012-12-09T09:43:09Z</time>
      </trkpt>
      <trkpt lat="45.40417" lon="5.82611">
        <ele>1161.599975586</ele>
        <time>2012-12-09T09:43:17Z</time>
      </trkpt>
      <trkpt lat="45.40416" lon="5.82609">
        <ele>1162.199951172</ele>
        <time>2012-12-09T09:43:20Z</time>
      </trkpt>
      <trkpt lat="45.40414" lon="5.82608">
        <ele>1162.800048828</ele>
        <time>2012-12-09T09:43:22Z</time>
      </trkpt>
      <trkpt lat="45.40413" lon="5.82609">
        <ele>1163</ele>
        <time>2012-12-09T09:43:28Z</time>
      </trkpt>
      <trkpt lat="45.40411" lon="5.82607">
        <ele>1164</ele>
        <time>2012-12-09T09:43:37Z</time>
      </trkpt>
      <trkpt lat="45.40407" lon="5.82604">
        <ele>1165.599975586</ele>
        <time>2012-12-09T09:43:40Z</time>
      </trkpt>
      <trkpt lat="45.40405" lon="5.82604">
        <ele>1166</ele>
        <time>2012-12-09T09:43:42Z</time>
      </trkpt>
      <trkpt lat="45.40401" lon="5.82601">
        <ele>1167.800048828</ele>
        <time>2012-12-09T09:43:47Z</time>
      </trkpt>
      <trkpt lat="45.40399" lon="5.826">
        <ele>1168.400024414</ele>
        <time>2012-12-09T09:43:50Z</time>
      </trkpt>
      <trkpt lat="45.40396" lon="5.82599">
        <ele>1169.400024414</ele>
        <time>2012-12-09T09:43:54Z</time>
      </trkpt>
      <trkpt lat="45.40396" lon="5.82598">
        <ele>1169.599975586</ele>
        <time>2012-12-09T09:43:55Z</time>
      </trkpt>
      <trkpt lat="45.40394" lon="5.82597">
        <ele>1170.199951172</ele>
        <time>2012-12-09T09:43:59Z</time>
      </trkpt>
      <trkpt lat="45.40391" lon="5.82595">
        <ele>1171.199951172</ele>
        <time>2012-12-09T09:44:03Z</time>
      </trkpt>
      <trkpt lat="45.4039" lon="5.82594">
        <ele>1171.599975586</ele>
        <time>2012-12-09T09:44:07Z</time>
      </trkpt>
      <trkpt lat="45.4039" lon="5.82592">
        <ele>1171.599975586</ele>
        <time>2012-12-09T09:44:11Z</time>
      </trkpt>
      <trkpt lat="45.40387" lon="5.82589">
        <ele>1172.599975586</ele>
        <time>2012-12-09T09:44:16Z</time>
      </trkpt>
      <trkpt lat="45.40383" lon="5.82587">
        <ele>1173.800048828</ele>
        <time>2012-12-09T09:44:21Z</time>
      </trkpt>
      <trkpt lat="45.4038" lon="5.82584">
        <ele>1174.599975586</ele>
        <time>2012-12-09T09:44:24Z</time>
      </trkpt>
      <trkpt lat="45.40379" lon="5.82585">
        <ele>1174.800048828</ele>
        <time>2012-12-09T09:44:25Z</time>
      </trkpt>
      <trkpt lat="45.40378" lon="5.82583">
        <ele>1175.199951172</ele>
        <time>2012-12-09T09:44:28Z</time>
      </trkpt>
      <trkpt lat="45.40375" lon="5.82583">
        <ele>1176</ele>
        <time>2012-12-09T09:44:33Z</time>
      </trkpt>
      <trkpt lat="45.40373" lon="5.82582">
        <ele>1176.800048828</ele>
        <time>2012-12-09T09:44:37Z</time>
      </trkpt>
      <trkpt lat="45.40368" lon="5.82581">
        <ele>1178</ele>
        <time>2012-12-09T09:44:41Z</time>
      </trkpt>
      <trkpt lat="45.40366" lon="5.82582">
        <ele>1178.599975586</ele>
        <time>2012-12-09T09:44:47Z</time>
      </trkpt>
      <trkpt lat="45.40362" lon="5.82584">
        <ele>1179.400024414</ele>
        <time>2012-12-09T09:44:52Z</time>
      </trkpt>
      <trkpt lat="45.40359" lon="5.82583">
        <ele>1180</ele>
        <time>2012-12-09T09:44:57Z</time>
      </trkpt>
      <trkpt lat="45.40358" lon="5.82583">
        <ele>1180.599975586</ele>
        <time>2012-12-09T09:45:01Z</time>
      </trkpt>
      <trkpt lat="45.40355" lon="5.82583">
        <ele>1181.199951172</ele>
        <time>2012-12-09T09:45:05Z</time>
      </trkpt>
      <trkpt lat="45.40351" lon="5.8258">
        <ele>1182.599975586</ele>
        <time>2012-12-09T09:45:14Z</time>
      </trkpt>
      <trkpt lat="45.4035" lon="5.82579">
        <ele>1183</ele>
        <time>2012-12-09T09:45:17Z</time>
      </trkpt>
      <trkpt lat="45.40347" lon="5.82576">
        <ele>1183.800048828</ele>
        <time>2012-12-09T09:45:22Z</time>
      </trkpt>
      <trkpt lat="45.40345" lon="5.82574">
        <ele>1184.400024414</ele>
        <time>2012-12-09T09:45:26Z</time>
      </trkpt>
      <trkpt lat="45.40343" lon="5.82573">
        <ele>1185</ele>
        <time>2012-12-09T09:45:30Z</time>
      </trkpt>
      <trkpt lat="45.4034" lon="5.82572">
        <ele>1186</ele>
        <time>2012-12-09T09:45:35Z</time>
      </trkpt>
      <trkpt lat="45.40337" lon="5.8257">
        <ele>1186.800048828</ele>
        <time>2012-12-09T09:45:41Z</time>
      </trkpt>
      <trkpt lat="45.40333" lon="5.82569">
        <ele>1187.599975586</ele>
        <time>2012-12-09T09:45:46Z</time>
      </trkpt>
      <trkpt lat="45.40331" lon="5.82567">
        <ele>1189</ele>
        <time>2012-12-09T09:45:50Z</time>
      </trkpt>
      <trkpt lat="45.40329" lon="5.82564">
        <ele>1190.199951172</ele>
        <time>2012-12-09T09:45:54Z</time>
      </trkpt>
      <trkpt lat="45.40326" lon="5.8256">
        <ele>1192</ele>
        <time>2012-12-09T09:46:00Z</time>
      </trkpt>
      <trkpt lat="45.40325" lon="5.82559">
        <ele>1192.400024414</ele>
        <time>2012-12-09T09:46:01Z</time>
      </trkpt>
      <trkpt lat="45.40323" lon="5.82555">
        <ele>1193.400024414</ele>
        <time>2012-12-09T09:46:06Z</time>
      </trkpt>
      <trkpt lat="45.4032" lon="5.82552">
        <ele>1194.800048828</ele>
        <time>2012-12-09T09:46:11Z</time>
      </trkpt>
      <trkpt lat="45.40319" lon="5.82549">
        <ele>1195.599975586</ele>
        <time>2012-12-09T09:46:15Z</time>
      </trkpt>
      <trkpt lat="45.40315" lon="5.82547">
        <ele>1197.199951172</ele>
        <time>2012-12-09T09:46:21Z</time>
      </trkpt>
      <trkpt lat="45.40313" lon="5.82544">
        <ele>1198.400024414</ele>
        <time>2012-12-09T09:46:25Z</time>
      </trkpt>
      <trkpt lat="45.4031" lon="5.82539">
        <ele>1199.599975586</ele>
        <time>2012-12-09T09:46:30Z</time>
      </trkpt>
      <trkpt lat="45.40309" lon="5.82537">
        <ele>1200</ele>
        <time>2012-12-09T09:46:32Z</time>
      </trkpt>
      <trkpt lat="45.40307" lon="5.82535">
        <ele>1200.599975586</ele>
        <time>2012-12-09T09:46:35Z</time>
      </trkpt>
      <trkpt lat="45.40306" lon="5.82535">
        <ele>1201.199951172</ele>
        <time>2012-12-09T09:46:36Z</time>
      </trkpt>
      <trkpt lat="45.40304" lon="5.82533">
        <ele>1202</ele>
        <time>2012-12-09T09:46:39Z</time>
      </trkpt>
      <trkpt lat="45.40301" lon="5.82532">
        <ele>1203</ele>
        <time>2012-12-09T09:46:43Z</time>
      </trkpt>
      <trkpt lat="45.403" lon="5.82531">
        <ele>1203.400024414</ele>
        <time>2012-12-09T09:46:44Z</time>
      </trkpt>
      <trkpt lat="45.40297" lon="5.82528">
        <ele>1204.400024414</ele>
        <time>2012-12-09T09:46:49Z</time>
      </trkpt>
      <trkpt lat="45.40294" lon="5.82524">
        <ele>1205.400024414</ele>
        <time>2012-12-09T09:46:54Z</time>
      </trkpt>
      <trkpt lat="45.40292" lon="5.82521">
        <ele>1206.199951172</ele>
        <time>2012-12-09T09:46:57Z</time>
      </trkpt>
      <trkpt lat="45.4029" lon="5.82518">
        <ele>1206.800048828</ele>
        <time>2012-12-09T09:47:00Z</time>
      </trkpt>
      <trkpt lat="45.40287" lon="5.82516">
        <ele>1207.199951172</ele>
        <time>2012-12-09T09:47:03Z</time>
      </trkpt>
      <trkpt lat="45.40286" lon="5.82514">
        <ele>1207.599975586</ele>
        <time>2012-12-09T09:47:06Z</time>
      </trkpt>
      <trkpt lat="45.40285" lon="5.82512">
        <ele>1207.599975586</ele>
        <time>2012-12-09T09:47:07Z</time>
      </trkpt>
      <trkpt lat="45.40284" lon="5.82508">
        <ele>1207.800048828</ele>
        <time>2012-12-09T09:47:10Z</time>
      </trkpt>
      <trkpt lat="45.4028" lon="5.82504">
        <ele>1208.800048828</ele>
        <time>2012-12-09T09:47:15Z</time>
      </trkpt>
      <trkpt lat="45.40277" lon="5.82503">
        <ele>1209.400024414</ele>
        <time>2012-12-09T09:47:18Z</time>
      </trkpt>
      <trkpt lat="45.40276" lon="5.82502">
        <ele>1209.599975586</ele>
        <time>2012-12-09T09:47:19Z</time>
      </trkpt>
      <trkpt lat="45.40275" lon="5.825">
        <ele>1209.599975586</ele>
        <time>2012-12-09T09:47:20Z</time>
      </trkpt>
      <trkpt lat="45.40275" lon="5.82499">
        <ele>1210</ele>
        <time>2012-12-09T09:47:21Z</time>
      </trkpt>
      <trkpt lat="45.40271" lon="5.82495">
        <ele>1211.199951172</ele>
        <time>2012-12-09T09:47:25Z</time>
      </trkpt>
      <trkpt lat="45.40267" lon="5.82489">
        <ele>1212.800048828</ele>
        <time>2012-12-09T09:47:29Z</time>
      </trkpt>
      <trkpt lat="45.40265" lon="5.82486">
        <ele>1213.199951172</ele>
        <time>2012-12-09T09:47:31Z</time>
      </trkpt>
      <trkpt lat="45.40264" lon="5.82482">
        <ele>1213.599975586</ele>
        <time>2012-12-09T09:47:34Z</time>
      </trkpt>
      <trkpt lat="45.40263" lon="5.82477">
        <ele>1214</ele>
        <time>2012-12-09T09:47:37Z</time>
      </trkpt>
      <trkpt lat="45.40263" lon="5.82477">
        <ele>1214.199951172</ele>
        <time>2012-12-09T09:47:38Z</time>
      </trkpt>
      <trkpt lat="45.40261" lon="5.82475">
        <ele>1214.599975586</ele>
        <time>2012-12-09T09:47:40Z</time>
      </trkpt>
      <trkpt lat="45.40259" lon="5.8247">
        <ele>1215</ele>
        <time>2012-12-09T09:47:45Z</time>
      </trkpt>
      <trkpt lat="45.40257" lon="5.82468">
        <ele>1215.199951172</ele>
        <time>2012-12-09T09:47:48Z</time>
      </trkpt>
      <trkpt lat="45.40256" lon="5.82465">
        <ele>1215.599975586</ele>
        <time>2012-12-09T09:47:51Z</time>
      </trkpt>
      <trkpt lat="45.40252" lon="5.82458">
        <ele>1216</ele>
        <time>2012-12-09T09:47:56Z</time>
      </trkpt>
      <trkpt lat="45.40252" lon="5.82456">
        <ele>1216</ele>
        <time>2012-12-09T09:47:57Z</time>
      </trkpt>
      <trkpt lat="45.40247" lon="5.82453">
        <ele>1216.599975586</ele>
        <time>2012-12-09T09:48:01Z</time>
      </trkpt>
      <trkpt lat="45.40247" lon="5.82452">
        <ele>1216.599975586</ele>
        <time>2012-12-09T09:48:02Z</time>
      </trkpt>
      <trkpt lat="45.40242" lon="5.8245">
        <ele>1217</ele>
        <time>2012-12-09T09:48:07Z</time>
      </trkpt>
      <trkpt lat="45.40238" lon="5.82445">
        <ele>1217</ele>
        <time>2012-12-09T09:48:12Z</time>
      </trkpt>
      <trkpt lat="45.40237" lon="5.82444">
        <ele>1217.199951172</ele>
        <time>2012-12-09T09:48:13Z</time>
      </trkpt>
      <trkpt lat="45.40234" lon="5.82439">
        <ele>1217</ele>
        <time>2012-12-09T09:48:17Z</time>
      </trkpt>
      <trkpt lat="45.40233" lon="5.82438">
        <ele>1217</ele>
        <time>2012-12-09T09:48:18Z</time>
      </trkpt>
      <trkpt lat="45.40224" lon="5.8243">
        <ele>1216.800048828</ele>
        <time>2012-12-09T09:48:25Z</time>
      </trkpt>
      <trkpt lat="45.40219" lon="5.82425">
        <ele>1216.400024414</ele>
        <time>2012-12-09T09:48:30Z</time>
      </trkpt>
      <trkpt lat="45.40213" lon="5.8242">
        <ele>1215.800048828</ele>
        <time>2012-12-09T09:48:36Z</time>
      </trkpt>
      <trkpt lat="45.40212" lon="5.82419">
        <ele>1215.800048828</ele>
        <time>2012-12-09T09:48:37Z</time>
      </trkpt>
      <trkpt lat="45.4021" lon="5.82417">
        <ele>1215.400024414</ele>
        <time>2012-12-09T09:48:40Z</time>
      </trkpt>
      <trkpt lat="45.40205" lon="5.82415">
        <ele>1215.800048828</ele>
        <time>2012-12-09T09:48:44Z</time>
      </trkpt>
      <trkpt lat="45.40204" lon="5.82414">
        <ele>1215.800048828</ele>
        <time>2012-12-09T09:48:45Z</time>
      </trkpt>
      <trkpt lat="45.402" lon="5.82407">
        <ele>1216.800048828</ele>
        <time>2012-12-09T09:48:50Z</time>
      </trkpt>
      <trkpt lat="45.40197" lon="5.82401">
        <ele>1217.400024414</ele>
        <time>2012-12-09T09:48:54Z</time>
      </trkpt>
      <trkpt lat="45.40196" lon="5.824">
        <ele>1217.400024414</ele>
        <time>2012-12-09T09:48:55Z</time>
      </trkpt>
      <trkpt lat="45.40189" lon="5.82395">
        <ele>1217.800048828</ele>
        <time>2012-12-09T09:49:01Z</time>
      </trkpt>
      <trkpt lat="45.40184" lon="5.82389">
        <ele>1218</ele>
        <time>2012-12-09T09:49:06Z</time>
      </trkpt>
      <trkpt lat="45.40183" lon="5.82388">
        <ele>1218</ele>
        <time>2012-12-09T09:49:07Z</time>
      </trkpt>
      <trkpt lat="45.40181" lon="5.82384">
        <ele>1218.199951172</ele>
        <time>2012-12-09T09:49:11Z</time>
      </trkpt>
      <trkpt lat="45.40173" lon="5.82378">
        <ele>1218</ele>
        <time>2012-12-09T09:49:16Z</time>
      </trkpt>
      <trkpt lat="45.40169" lon="5.82372">
        <ele>1217.800048828</ele>
        <time>2012-12-09T09:49:20Z</time>
      </trkpt>
      <trkpt lat="45.40167" lon="5.8237">
        <ele>1217.599975586</ele>
        <time>2012-12-09T09:49:21Z</time>
      </trkpt>
      <trkpt lat="45.40162" lon="5.82366">
        <ele>1218.599975586</ele>
        <time>2012-12-09T09:49:26Z</time>
      </trkpt>
      <trkpt lat="45.40162" lon="5.82364">
        <ele>1218.800048828</ele>
        <time>2012-12-09T09:49:27Z</time>
      </trkpt>
      <trkpt lat="45.40158" lon="5.8236">
        <ele>1219.599975586</ele>
        <time>2012-12-09T09:49:31Z</time>
      </trkpt>
      <trkpt lat="45.40152" lon="5.82355">
        <ele>1220.800048828</ele>
        <time>2012-12-09T09:49:37Z</time>
      </trkpt>
      <trkpt lat="45.40146" lon="5.82351">
        <ele>1221.800048828</ele>
        <time>2012-12-09T09:49:43Z</time>
      </trkpt>
      <trkpt lat="45.40141" lon="5.8235">
        <ele>1222.599975586</ele>
        <time>2012-12-09T09:49:48Z</time>
      </trkpt>
      <trkpt lat="45.40139" lon="5.82344">
        <ele>1222.599975586</ele>
        <time>2012-12-09T09:49:53Z</time>
      </trkpt>
      <trkpt lat="45.40138" lon="5.82341">
        <ele>1222.599975586</ele>
        <time>2012-12-09T09:49:55Z</time>
      </trkpt>
      <trkpt lat="45.40137" lon="5.82337">
        <ele>1222.599975586</ele>
        <time>2012-12-09T09:49:58Z</time>
      </trkpt>
      <trkpt lat="45.40136" lon="5.82335">
        <ele>1222.800048828</ele>
        <time>2012-12-09T09:49:59Z</time>
      </trkpt>
      <trkpt lat="45.40132" lon="5.82332">
        <ele>1223.400024414</ele>
        <time>2012-12-09T09:50:04Z</time>
      </trkpt>
      <trkpt lat="45.40129" lon="5.82327">
        <ele>1224.599975586</ele>
        <time>2012-12-09T09:50:08Z</time>
      </trkpt>
      <trkpt lat="45.40128" lon="5.82325">
        <ele>1225</ele>
        <time>2012-12-09T09:50:10Z</time>
      </trkpt>
      <trkpt lat="45.40127" lon="5.82322">
        <ele>1225.599975586</ele>
        <time>2012-12-09T09:50:12Z</time>
      </trkpt>
      <trkpt lat="45.40124" lon="5.82316">
        <ele>1226.800048828</ele>
        <time>2012-12-09T09:50:16Z</time>
      </trkpt>
      <trkpt lat="45.40123" lon="5.82311">
        <ele>1227.800048828</ele>
        <time>2012-12-09T09:50:20Z</time>
      </trkpt>
      <trkpt lat="45.40123" lon="5.8231">
        <ele>1228</ele>
        <time>2012-12-09T09:50:21Z</time>
      </trkpt>
      <trkpt lat="45.4012" lon="5.82302">
        <ele>1229.400024414</ele>
        <time>2012-12-09T09:50:26Z</time>
      </trkpt>
      <trkpt lat="45.4012" lon="5.82301">
        <ele>1229.599975586</ele>
        <time>2012-12-09T09:50:27Z</time>
      </trkpt>
      <trkpt lat="45.4012" lon="5.823">
        <ele>1229.800048828</ele>
        <time>2012-12-09T09:50:28Z</time>
      </trkpt>
      <trkpt lat="45.40119" lon="5.82296">
        <ele>1230.400024414</ele>
        <time>2012-12-09T09:50:31Z</time>
      </trkpt>
      <trkpt lat="45.40116" lon="5.82287">
        <ele>1231.800048828</ele>
        <time>2012-12-09T09:50:37Z</time>
      </trkpt>
      <trkpt lat="45.40113" lon="5.82283">
        <ele>1232.400024414</ele>
        <time>2012-12-09T09:50:41Z</time>
      </trkpt>
      <trkpt lat="45.40112" lon="5.82282">
        <ele>1232.599975586</ele>
        <time>2012-12-09T09:50:42Z</time>
      </trkpt>
      <trkpt lat="45.4011" lon="5.82279">
        <ele>1233</ele>
        <time>2012-12-09T09:50:46Z</time>
      </trkpt>
      <trkpt lat="45.40109" lon="5.82278">
        <ele>1233.199951172</ele>
        <time>2012-12-09T09:50:47Z</time>
      </trkpt>
      <trkpt lat="45.40108" lon="5.82271">
        <ele>1234</ele>
        <time>2012-12-09T09:50:51Z</time>
      </trkpt>
      <trkpt lat="45.40108" lon="5.82267">
        <ele>1234.400024414</ele>
        <time>2012-12-09T09:50:55Z</time>
      </trkpt>
      <trkpt lat="45.40109" lon="5.82264">
        <ele>1235</ele>
        <time>2012-12-09T09:50:59Z</time>
      </trkpt>
      <trkpt lat="45.40108" lon="5.82263">
        <ele>1235</ele>
        <time>2012-12-09T09:51:00Z</time>
      </trkpt>
      <trkpt lat="45.40106" lon="5.82258">
        <ele>1235.599975586</ele>
        <time>2012-12-09T09:51:04Z</time>
      </trkpt>
      <trkpt lat="45.40104" lon="5.82256">
        <ele>1235.800048828</ele>
        <time>2012-12-09T09:51:06Z</time>
      </trkpt>
      <trkpt lat="45.40101" lon="5.82254">
        <ele>1235.800048828</ele>
        <time>2012-12-09T09:51:09Z</time>
      </trkpt>
      <trkpt lat="45.40097" lon="5.82252">
        <ele>1235.800048828</ele>
        <time>2012-12-09T09:51:13Z</time>
      </trkpt>
      <trkpt lat="45.40096" lon="5.82249">
        <ele>1236</ele>
        <time>2012-12-09T09:51:15Z</time>
      </trkpt>
      <trkpt lat="45.40094" lon="5.82249">
        <ele>1236.199951172</ele>
        <time>2012-12-09T09:51:18Z</time>
      </trkpt>
      <trkpt lat="45.40093" lon="5.82248">
        <ele>1236.400024414</ele>
        <time>2012-12-09T09:51:19Z</time>
      </trkpt>
      <trkpt lat="45.40091" lon="5.82245">
        <ele>1237.199951172</ele>
        <time>2012-12-09T09:51:23Z</time>
      </trkpt>
      <trkpt lat="45.40086" lon="5.82242">
        <ele>1238.199951172</ele>
        <time>2012-12-09T09:51:30Z</time>
      </trkpt>
      <trkpt lat="45.40084" lon="5.8224">
        <ele>1238.800048828</ele>
        <time>2012-12-09T09:51:34Z</time>
      </trkpt>
      <trkpt lat="45.4008" lon="5.82238">
        <ele>1239.800048828</ele>
        <time>2012-12-09T09:51:38Z</time>
      </trkpt>
      <trkpt lat="45.40079" lon="5.82238">
        <ele>1240.400024414</ele>
        <time>2012-12-09T09:51:40Z</time>
      </trkpt>
      <trkpt lat="45.40077" lon="5.82237">
        <ele>1241</ele>
        <time>2012-12-09T09:51:42Z</time>
      </trkpt>
      <trkpt lat="45.40074" lon="5.82235">
        <ele>1242.199951172</ele>
        <time>2012-12-09T09:51:46Z</time>
      </trkpt>
      <trkpt lat="45.40071" lon="5.82235">
        <ele>1243.199951172</ele>
        <time>2012-12-09T09:51:50Z</time>
      </trkpt>
      <trkpt lat="45.40065" lon="5.82233">
        <ele>1245</ele>
        <time>2012-12-09T09:51:58Z</time>
      </trkpt>
      <trkpt lat="45.4006" lon="5.82232">
        <ele>1246.199951172</ele>
        <time>2012-12-09T09:52:04Z</time>
      </trkpt>
      <trkpt lat="45.40057" lon="5.82232">
        <ele>1246.800048828</ele>
        <time>2012-12-09T09:52:08Z</time>
      </trkpt>
      <trkpt lat="45.40057" lon="5.82231">
        <ele>1247.199951172</ele>
        <time>2012-12-09T09:52:09Z</time>
      </trkpt>
      <trkpt lat="45.40055" lon="5.82228">
        <ele>1248.599975586</ele>
        <time>2012-12-09T09:52:12Z</time>
      </trkpt>
      <trkpt lat="45.40053" lon="5.82227">
        <ele>1249</ele>
        <time>2012-12-09T09:52:16Z</time>
      </trkpt>
      <trkpt lat="45.40052" lon="5.82226">
        <ele>1249.599975586</ele>
        <time>2012-12-09T09:52:21Z</time>
      </trkpt>
      <trkpt lat="45.4005" lon="5.82224">
        <ele>1250.400024414</ele>
        <time>2012-12-09T09:52:24Z</time>
      </trkpt>
      <trkpt lat="45.40049" lon="5.82224">
        <ele>1250.599975586</ele>
        <time>2012-12-09T09:52:25Z</time>
      </trkpt>
      <trkpt lat="45.40049" lon="5.82223">
        <ele>1251</ele>
        <time>2012-12-09T09:52:26Z</time>
      </trkpt>
      <trkpt lat="45.40047" lon="5.82221">
        <ele>1251.800048828</ele>
        <time>2012-12-09T09:52:29Z</time>
      </trkpt>
      <trkpt lat="45.40046" lon="5.8222">
        <ele>1252</ele>
        <time>2012-12-09T09:52:30Z</time>
      </trkpt>
      <trkpt lat="45.40044" lon="5.82218">
        <ele>1253.199951172</ele>
        <time>2012-12-09T09:52:34Z</time>
      </trkpt>
      <trkpt lat="45.40042" lon="5.82216">
        <ele>1253.800048828</ele>
        <time>2012-12-09T09:52:38Z</time>
      </trkpt>
      <trkpt lat="45.4004" lon="5.82214">
        <ele>1254.800048828</ele>
        <time>2012-12-09T09:52:42Z</time>
      </trkpt>
      <trkpt lat="45.40038" lon="5.82212">
        <ele>1255.599975586</ele>
        <time>2012-12-09T09:52:47Z</time>
      </trkpt>
      <trkpt lat="45.40035" lon="5.82208">
        <ele>1256.800048828</ele>
        <time>2012-12-09T09:52:53Z</time>
      </trkpt>
      <trkpt lat="45.40034" lon="5.82209">
        <ele>1256.800048828</ele>
        <time>2012-12-09T09:52:55Z</time>
      </trkpt>
      <trkpt lat="45.40031" lon="5.82209">
        <ele>1257.199951172</ele>
        <time>2012-12-09T09:52:58Z</time>
      </trkpt>
      <trkpt lat="45.40027" lon="5.82209">
        <ele>1257.599975586</ele>
        <time>2012-12-09T09:53:02Z</time>
      </trkpt>
      <trkpt lat="45.40025" lon="5.82209">
        <ele>1258</ele>
        <time>2012-12-09T09:53:06Z</time>
      </trkpt>
      <trkpt lat="45.40024" lon="5.82208">
        <ele>1258.400024414</ele>
        <time>2012-12-09T09:53:08Z</time>
      </trkpt>
      <trkpt lat="45.40023" lon="5.82206">
        <ele>1258.800048828</ele>
        <time>2012-12-09T09:53:10Z</time>
      </trkpt>
      <trkpt lat="45.40019" lon="5.82204">
        <ele>1259.800048828</ele>
        <time>2012-12-09T09:53:15Z</time>
      </trkpt>
      <trkpt lat="45.40017" lon="5.82203">
        <ele>1260.199951172</ele>
        <time>2012-12-09T09:53:19Z</time>
      </trkpt>
      <trkpt lat="45.40014" lon="5.82201">
        <ele>1260.800048828</ele>
        <time>2012-12-09T09:53:23Z</time>
      </trkpt>
      <trkpt lat="45.4001" lon="5.82201">
        <ele>1261.199951172</ele>
        <time>2012-12-09T09:53:30Z</time>
      </trkpt>
      <trkpt lat="45.40008" lon="5.82199">
        <ele>1261.800048828</ele>
        <time>2012-12-09T09:53:34Z</time>
      </trkpt>
      <trkpt lat="45.40006" lon="5.82198">
        <ele>1262.199951172</ele>
        <time>2012-12-09T09:53:38Z</time>
      </trkpt>
      <trkpt lat="45.40003" lon="5.82196">
        <ele>1262.800048828</ele>
        <time>2012-12-09T09:53:44Z</time>
      </trkpt>
      <trkpt lat="45.40001" lon="5.82193">
        <ele>1263.199951172</ele>
        <time>2012-12-09T09:53:50Z</time>
      </trkpt>
      <trkpt lat="45.39999" lon="5.82191">
        <ele>1264</ele>
        <time>2012-12-09T09:53:55Z</time>
      </trkpt>
      <trkpt lat="45.39998" lon="5.82188">
        <ele>1264.800048828</ele>
        <time>2012-12-09T09:53:59Z</time>
      </trkpt>
      <trkpt lat="45.39996" lon="5.82186">
        <ele>1265.599975586</ele>
        <time>2012-12-09T09:54:03Z</time>
      </trkpt>
      <trkpt lat="45.39993" lon="5.82184">
        <ele>1266.800048828</ele>
        <time>2012-12-09T09:54:08Z</time>
      </trkpt>
      <trkpt lat="45.39991" lon="5.82183">
        <ele>1267.800048828</ele>
        <time>2012-12-09T09:54:12Z</time>
      </trkpt>
      <trkpt lat="45.39989" lon="5.82182">
        <ele>1268.400024414</ele>
        <time>2012-12-09T09:54:16Z</time>
      </trkpt>
      <trkpt lat="45.39987" lon="5.82179">
        <ele>1269.400024414</ele>
        <time>2012-12-09T09:54:21Z</time>
      </trkpt>
      <trkpt lat="45.39984" lon="5.82179">
        <ele>1270.400024414</ele>
        <time>2012-12-09T09:54:26Z</time>
      </trkpt>
      <trkpt lat="45.3998" lon="5.82175">
        <ele>1271.599975586</ele>
        <time>2012-12-09T09:54:46Z</time>
      </trkpt>
      <trkpt lat="45.39977" lon="5.82177">
        <ele>1272.400024414</ele>
        <time>2012-12-09T09:54:51Z</time>
      </trkpt>
      <trkpt lat="45.39974" lon="5.82174">
        <ele>1273.599975586</ele>
        <time>2012-12-09T09:54:56Z</time>
      </trkpt>
      <trkpt lat="45.39971" lon="5.82174">
        <ele>1274.199951172</ele>
        <time>2012-12-09T09:55:02Z</time>
      </trkpt>
      <trkpt lat="45.39967" lon="5.82171">
        <ele>1275.400024414</ele>
        <time>2012-12-09T09:55:08Z</time>
      </trkpt>
      <trkpt lat="45.39965" lon="5.8217">
        <ele>1276</ele>
        <time>2012-12-09T09:55:11Z</time>
      </trkpt>
      <trkpt lat="45.39965" lon="5.82169">
        <ele>1276.199951172</ele>
        <time>2012-12-09T09:55:12Z</time>
      </trkpt>
      <trkpt lat="45.39963" lon="5.82168">
        <ele>1276.800048828</ele>
        <time>2012-12-09T09:55:16Z</time>
      </trkpt>
      <trkpt lat="45.39957" lon="5.8217">
        <ele>1278.199951172</ele>
        <time>2012-12-09T09:55:23Z</time>
      </trkpt>
      <trkpt lat="45.39954" lon="5.82167">
        <ele>1279.199951172</ele>
        <time>2012-12-09T09:55:31Z</time>
      </trkpt>
      <trkpt lat="45.39951" lon="5.82166">
        <ele>1280</ele>
        <time>2012-12-09T09:55:38Z</time>
      </trkpt>
      <trkpt lat="45.39947" lon="5.82165">
        <ele>1281.599975586</ele>
        <time>2012-12-09T09:55:46Z</time>
      </trkpt>
      <trkpt lat="45.39945" lon="5.82164">
        <ele>1282.599975586</ele>
        <time>2012-12-09T09:55:51Z</time>
      </trkpt>
      <trkpt lat="45.39943" lon="5.82165">
        <ele>1282.599975586</ele>
        <time>2012-12-09T09:55:55Z</time>
      </trkpt>
      <trkpt lat="45.39942" lon="5.82165">
        <ele>1282.599975586</ele>
        <time>2012-12-09T09:55:56Z</time>
      </trkpt>
      <trkpt lat="45.39939" lon="5.82166">
        <ele>1283.199951172</ele>
        <time>2012-12-09T09:56:02Z</time>
      </trkpt>
      <trkpt lat="45.39936" lon="5.82167">
        <ele>1283.800048828</ele>
        <time>2012-12-09T09:56:08Z</time>
      </trkpt>
      <trkpt lat="45.39934" lon="5.82163">
        <ele>1285.599975586</ele>
        <time>2012-12-09T09:56:14Z</time>
      </trkpt>
      <trkpt lat="45.39931" lon="5.82164">
        <ele>1286.199951172</ele>
        <time>2012-12-09T09:56:18Z</time>
      </trkpt>
      <trkpt lat="45.39929" lon="5.82162">
        <ele>1287.400024414</ele>
        <time>2012-12-09T09:56:23Z</time>
      </trkpt>
      <trkpt lat="45.39927" lon="5.82159">
        <ele>1289.199951172</ele>
        <time>2012-12-09T09:56:28Z</time>
      </trkpt>
      <trkpt lat="45.39924" lon="5.82157">
        <ele>1290.599975586</ele>
        <time>2012-12-09T09:56:34Z</time>
      </trkpt>
      <trkpt lat="45.39922" lon="5.82154">
        <ele>1292.199951172</ele>
        <time>2012-12-09T09:56:39Z</time>
      </trkpt>
      <trkpt lat="45.39921" lon="5.82151">
        <ele>1293.599975586</ele>
        <time>2012-12-09T09:56:43Z</time>
      </trkpt>
      <trkpt lat="45.39917" lon="5.8215">
        <ele>1294.599975586</ele>
        <time>2012-12-09T09:56:49Z</time>
      </trkpt>
      <trkpt lat="45.39915" lon="5.82148">
        <ele>1296</ele>
        <time>2012-12-09T09:56:54Z</time>
      </trkpt>
      <trkpt lat="45.39913" lon="5.82146">
        <ele>1297.599975586</ele>
        <time>2012-12-09T09:56:59Z</time>
      </trkpt>
      <trkpt lat="45.39911" lon="5.82145">
        <ele>1298.800048828</ele>
        <time>2012-12-09T09:57:04Z</time>
      </trkpt>
      <trkpt lat="45.39908" lon="5.82143">
        <ele>1300.199951172</ele>
        <time>2012-12-09T09:57:09Z</time>
      </trkpt>
      <trkpt lat="45.39906" lon="5.82142">
        <ele>1301.599975586</ele>
        <time>2012-12-09T09:57:14Z</time>
      </trkpt>
      <trkpt lat="45.39903" lon="5.82139">
        <ele>1303.199951172</ele>
        <time>2012-12-09T09:57:20Z</time>
      </trkpt>
      <trkpt lat="45.399" lon="5.82139">
        <ele>1304.199951172</ele>
        <time>2012-12-09T09:57:25Z</time>
      </trkpt>
      <trkpt lat="45.39897" lon="5.82138">
        <ele>1305.400024414</ele>
        <time>2012-12-09T09:57:30Z</time>
      </trkpt>
      <trkpt lat="45.39895" lon="5.82138">
        <ele>1306</ele>
        <time>2012-12-09T09:57:35Z</time>
      </trkpt>
      <trkpt lat="45.39891" lon="5.8214">
        <ele>1306.800048828</ele>
        <time>2012-12-09T09:57:43Z</time>
      </trkpt>
      <trkpt lat="45.39886" lon="5.82141">
        <ele>1308.199951172</ele>
        <time>2012-12-09T09:57:51Z</time>
      </trkpt>
      <trkpt lat="45.39883" lon="5.8214">
        <ele>1309.599975586</ele>
        <time>2012-12-09T09:57:57Z</time>
      </trkpt>
      <trkpt lat="45.3988" lon="5.82138">
        <ele>1310.599975586</ele>
        <time>2012-12-09T09:58:00Z</time>
      </trkpt>
      <trkpt lat="45.39881" lon="5.82139">
        <ele>1310.400024414</ele>
        <time>2012-12-09T09:58:02Z</time>
      </trkpt>
      <trkpt lat="45.39878" lon="5.82135">
        <ele>1312</ele>
        <time>2012-12-09T09:58:08Z</time>
      </trkpt>
      <trkpt lat="45.39876" lon="5.82133">
        <ele>1313</ele>
        <time>2012-12-09T09:58:13Z</time>
      </trkpt>
      <trkpt lat="45.39874" lon="5.82132">
        <ele>1313.800048828</ele>
        <time>2012-12-09T09:58:17Z</time>
      </trkpt>
      <trkpt lat="45.39874" lon="5.82132">
        <ele>1314</ele>
        <time>2012-12-09T09:58:18Z</time>
      </trkpt>
      <trkpt lat="45.39871" lon="5.8213">
        <ele>1315</ele>
        <time>2012-12-09T09:58:24Z</time>
      </trkpt>
      <trkpt lat="45.3987" lon="5.82129">
        <ele>1315.599975586</ele>
        <time>2012-12-09T09:58:29Z</time>
      </trkpt>
      <trkpt lat="45.39868" lon="5.82128">
        <ele>1316.199951172</ele>
        <time>2012-12-09T09:58:30Z</time>
      </trkpt>
      <trkpt lat="45.39867" lon="5.82126">
        <ele>1317</ele>
        <time>2012-12-09T09:58:33Z</time>
      </trkpt>
      <trkpt lat="45.39864" lon="5.82122">
        <ele>1318</ele>
        <time>2012-12-09T09:58:37Z</time>
      </trkpt>
      <trkpt lat="45.39861" lon="5.82121">
        <ele>1319</ele>
        <time>2012-12-09T09:58:41Z</time>
      </trkpt>
      <trkpt lat="45.39859" lon="5.8212">
        <ele>1319.800048828</ele>
        <time>2012-12-09T09:58:45Z</time>
      </trkpt>
      <trkpt lat="45.39856" lon="5.82117">
        <ele>1320.800048828</ele>
        <time>2012-12-09T09:58:49Z</time>
      </trkpt>
      <trkpt lat="45.39854" lon="5.82113">
        <ele>1321.800048828</ele>
        <time>2012-12-09T09:58:54Z</time>
      </trkpt>
      <trkpt lat="45.39851" lon="5.82111">
        <ele>1322.599975586</ele>
        <time>2012-12-09T09:58:59Z</time>
      </trkpt>
      <trkpt lat="45.39847" lon="5.82109">
        <ele>1323.599975586</ele>
        <time>2012-12-09T09:59:05Z</time>
      </trkpt>
      <trkpt lat="45.39844" lon="5.82107">
        <ele>1324.400024414</ele>
        <time>2012-12-09T09:59:09Z</time>
      </trkpt>
      <trkpt lat="45.39841" lon="5.82107">
        <ele>1324.800048828</ele>
        <time>2012-12-09T09:59:13Z</time>
      </trkpt>
      <trkpt lat="45.39839" lon="5.82105">
        <ele>1325.400024414</ele>
        <time>2012-12-09T09:59:17Z</time>
      </trkpt>
      <trkpt lat="45.39836" lon="5.82102">
        <ele>1326</ele>
        <time>2012-12-09T09:59:21Z</time>
      </trkpt>
      <trkpt lat="45.39833" lon="5.82099">
        <ele>1326.599975586</ele>
        <time>2012-12-09T09:59:26Z</time>
      </trkpt>
      <trkpt lat="45.39831" lon="5.82098">
        <ele>1327.199951172</ele>
        <time>2012-12-09T09:59:30Z</time>
      </trkpt>
      <trkpt lat="45.39827" lon="5.82095">
        <ele>1328.400024414</ele>
        <time>2012-12-09T09:59:37Z</time>
      </trkpt>
      <trkpt lat="45.39825" lon="5.82095">
        <ele>1329</ele>
        <time>2012-12-09T09:59:41Z</time>
      </trkpt>
      <trkpt lat="45.39823" lon="5.82094">
        <ele>1329.400024414</ele>
        <time>2012-12-09T09:59:45Z</time>
      </trkpt>
      <trkpt lat="45.39821" lon="5.82092">
        <ele>1330</ele>
        <time>2012-12-09T09:59:50Z</time>
      </trkpt>
      <trkpt lat="45.39818" lon="5.8209">
        <ele>1330.800048828</ele>
        <time>2012-12-09T09:59:56Z</time>
      </trkpt>
      <trkpt lat="45.39817" lon="5.82089">
        <ele>1331.199951172</ele>
        <time>2012-12-09T10:00:01Z</time>
      </trkpt>
      <trkpt lat="45.39813" lon="5.82087">
        <ele>1332</ele>
        <time>2012-12-09T10:00:07Z</time>
      </trkpt>
      <trkpt lat="45.39809" lon="5.82083">
        <ele>1333</ele>
        <time>2012-12-09T10:00:14Z</time>
      </trkpt>
      <trkpt lat="45.39805" lon="5.82081">
        <ele>1334.599975586</ele>
        <time>2012-12-09T10:00:19Z</time>
      </trkpt>
      <trkpt lat="45.39801" lon="5.82079">
        <ele>1335.800048828</ele>
        <time>2012-12-09T10:00:26Z</time>
      </trkpt>
      <trkpt lat="45.39796" lon="5.82076">
        <ele>1337.599975586</ele>
        <time>2012-12-09T10:00:32Z</time>
      </trkpt>
      <trkpt lat="45.3979" lon="5.82071">
        <ele>1339.800048828</ele>
        <time>2012-12-09T10:00:38Z</time>
      </trkpt>
      <trkpt lat="45.39782" lon="5.82067">
        <ele>1342</ele>
        <time>2012-12-09T10:00:44Z</time>
      </trkpt>
      <trkpt lat="45.39776" lon="5.82062">
        <ele>1344</ele>
        <time>2012-12-09T10:00:51Z</time>
      </trkpt>
      <trkpt lat="45.39776" lon="5.8206">
        <ele>1344.199951172</ele>
        <time>2012-12-09T10:00:52Z</time>
      </trkpt>
      <trkpt lat="45.39771" lon="5.82057">
        <ele>1345.400024414</ele>
        <time>2012-12-09T10:00:58Z</time>
      </trkpt>
      <trkpt lat="45.3977" lon="5.82057">
        <ele>1345.599975586</ele>
        <time>2012-12-09T10:00:59Z</time>
      </trkpt>
      <trkpt lat="45.39767" lon="5.82056">
        <ele>1346.199951172</ele>
        <time>2012-12-09T10:01:04Z</time>
      </trkpt>
      <trkpt lat="45.39764" lon="5.82055">
        <ele>1347</ele>
        <time>2012-12-09T10:01:09Z</time>
      </trkpt>
      <trkpt lat="45.39761" lon="5.82051">
        <ele>1347.800048828</ele>
        <time>2012-12-09T10:01:14Z</time>
      </trkpt>
      <trkpt lat="45.39758" lon="5.8205">
        <ele>1348.199951172</ele>
        <time>2012-12-09T10:01:18Z</time>
      </trkpt>
      <trkpt lat="45.39756" lon="5.82047">
        <ele>1348.800048828</ele>
        <time>2012-12-09T10:01:23Z</time>
      </trkpt>
      <trkpt lat="45.39755" lon="5.82046">
        <ele>1349</ele>
        <time>2012-12-09T10:01:29Z</time>
      </trkpt>
      <trkpt lat="45.39754" lon="5.82046">
        <ele>1349</ele>
        <time>2012-12-09T10:01:33Z</time>
      </trkpt>
      <trkpt lat="45.39752" lon="5.82044">
        <ele>1349.599975586</ele>
        <time>2012-12-09T10:01:37Z</time>
      </trkpt>
      <trkpt lat="45.39749" lon="5.82043">
        <ele>1350.199951172</ele>
        <time>2012-12-09T10:01:42Z</time>
      </trkpt>
      <trkpt lat="45.39744" lon="5.82042">
        <ele>1351.400024414</ele>
        <time>2012-12-09T10:01:49Z</time>
      </trkpt>
      <trkpt lat="45.3974" lon="5.82041">
        <ele>1352.199951172</ele>
        <time>2012-12-09T10:01:53Z</time>
      </trkpt>
      <trkpt lat="45.39737" lon="5.8204">
        <ele>1353</ele>
        <time>2012-12-09T10:01:57Z</time>
      </trkpt>
      <trkpt lat="45.39736" lon="5.82039">
        <ele>1353.199951172</ele>
        <time>2012-12-09T10:01:58Z</time>
      </trkpt>
      <trkpt lat="45.39733" lon="5.82036">
        <ele>1353.800048828</ele>
        <time>2012-12-09T10:02:03Z</time>
      </trkpt>
      <trkpt lat="45.39732" lon="5.82035">
        <ele>1354</ele>
        <time>2012-12-09T10:02:04Z</time>
      </trkpt>
      <trkpt lat="45.3973" lon="5.82033">
        <ele>1354.599975586</ele>
        <time>2012-12-09T10:02:08Z</time>
      </trkpt>
      <trkpt lat="45.39728" lon="5.82031">
        <ele>1355</ele>
        <time>2012-12-09T10:02:11Z</time>
      </trkpt>
      <trkpt lat="45.39726" lon="5.82029">
        <ele>1355.599975586</ele>
        <time>2012-12-09T10:02:15Z</time>
      </trkpt>
      <trkpt lat="45.39724" lon="5.82025">
        <ele>1356</ele>
        <time>2012-12-09T10:02:19Z</time>
      </trkpt>
      <trkpt lat="45.39721" lon="5.82022">
        <ele>1356.599975586</ele>
        <time>2012-12-09T10:02:23Z</time>
      </trkpt>
      <trkpt lat="45.39721" lon="5.82021">
        <ele>1356.599975586</ele>
        <time>2012-12-09T10:02:24Z</time>
      </trkpt>
      <trkpt lat="45.39718" lon="5.82018">
        <ele>1357.199951172</ele>
        <time>2012-12-09T10:02:28Z</time>
      </trkpt>
      <trkpt lat="45.39716" lon="5.82014">
        <ele>1357.599975586</ele>
        <time>2012-12-09T10:02:32Z</time>
      </trkpt>
      <trkpt lat="45.39712" lon="5.82009">
        <ele>1358.400024414</ele>
        <time>2012-12-09T10:02:38Z</time>
      </trkpt>
      <trkpt lat="45.39711" lon="5.82009">
        <ele>1358.599975586</ele>
        <time>2012-12-09T10:02:39Z</time>
      </trkpt>
      <trkpt lat="45.39709" lon="5.82006">
        <ele>1358.800048828</ele>
        <time>2012-12-09T10:02:42Z</time>
      </trkpt>
      <trkpt lat="45.39705" lon="5.82002">
        <ele>1359.400024414</ele>
        <time>2012-12-09T10:02:48Z</time>
      </trkpt>
      <trkpt lat="45.39704" lon="5.82002">
        <ele>1359.599975586</ele>
        <time>2012-12-09T10:02:49Z</time>
      </trkpt>
      <trkpt lat="45.39704" lon="5.82">
        <ele>1359.599975586</ele>
        <time>2012-12-09T10:02:50Z</time>
      </trkpt>
      <trkpt lat="45.39701" lon="5.81998">
        <ele>1360.400024414</ele>
        <time>2012-12-09T10:02:53Z</time>
      </trkpt>
      <trkpt lat="45.39701" lon="5.81999">
        <ele>1360.599975586</ele>
        <time>2012-12-09T10:02:54Z</time>
      </trkpt>
      <trkpt lat="45.39698" lon="5.81995">
        <ele>1361.800048828</ele>
        <time>2012-12-09T10:02:58Z</time>
      </trkpt>
      <trkpt lat="45.39695" lon="5.81995">
        <ele>1362.199951172</ele>
        <time>2012-12-09T10:03:01Z</time>
      </trkpt>
      <trkpt lat="45.39694" lon="5.81993">
        <ele>1363</ele>
        <time>2012-12-09T10:03:03Z</time>
      </trkpt>
      <trkpt lat="45.39693" lon="5.81992">
        <ele>1363.400024414</ele>
        <time>2012-12-09T10:03:05Z</time>
      </trkpt>
      <trkpt lat="45.39692" lon="5.81991">
        <ele>1363.800048828</ele>
        <time>2012-12-09T10:03:06Z</time>
      </trkpt>
      <trkpt lat="45.39692" lon="5.8199">
        <ele>1364</ele>
        <time>2012-12-09T10:03:07Z</time>
      </trkpt>
      <trkpt lat="45.39689" lon="5.81986">
        <ele>1365.599975586</ele>
        <time>2012-12-09T10:03:13Z</time>
      </trkpt>
      <trkpt lat="45.39687" lon="5.81984">
        <ele>1366.199951172</ele>
        <time>2012-12-09T10:03:18Z</time>
      </trkpt>
      <trkpt lat="45.39685" lon="5.81983">
        <ele>1366.599975586</ele>
        <time>2012-12-09T10:03:22Z</time>
      </trkpt>
      <trkpt lat="45.39682" lon="5.81982">
        <ele>1367.199951172</ele>
        <time>2012-12-09T10:03:27Z</time>
      </trkpt>
      <trkpt lat="45.39679" lon="5.81983">
        <ele>1367.199951172</ele>
        <time>2012-12-09T10:03:31Z</time>
      </trkpt>
      <trkpt lat="45.39676" lon="5.81983">
        <ele>1367.599975586</ele>
        <time>2012-12-09T10:03:37Z</time>
      </trkpt>
      <trkpt lat="45.39673" lon="5.8198">
        <ele>1368.400024414</ele>
        <time>2012-12-09T10:03:42Z</time>
      </trkpt>
      <trkpt lat="45.39671" lon="5.81981">
        <ele>1368.800048828</ele>
        <time>2012-12-09T10:03:47Z</time>
      </trkpt>
      <trkpt lat="45.39668" lon="5.8198">
        <ele>1369.199951172</ele>
        <time>2012-12-09T10:03:51Z</time>
      </trkpt>
      <trkpt lat="45.39665" lon="5.81978">
        <ele>1370.199951172</ele>
        <time>2012-12-09T10:03:56Z</time>
      </trkpt>
      <trkpt lat="45.39661" lon="5.81977">
        <ele>1371.400024414</ele>
        <time>2012-12-09T10:04:01Z</time>
      </trkpt>
      <trkpt lat="45.39659" lon="5.81975">
        <ele>1372.199951172</ele>
        <time>2012-12-09T10:04:05Z</time>
      </trkpt>
      <trkpt lat="45.39657" lon="5.81973">
        <ele>1373.199951172</ele>
        <time>2012-12-09T10:04:09Z</time>
      </trkpt>
      <trkpt lat="45.39655" lon="5.81972">
        <ele>1374</ele>
        <time>2012-12-09T10:04:13Z</time>
      </trkpt>
      <trkpt lat="45.39653" lon="5.81972">
        <ele>1374.400024414</ele>
        <time>2012-12-09T10:04:17Z</time>
      </trkpt>
      <trkpt lat="45.39651" lon="5.81971">
        <ele>1375</ele>
        <time>2012-12-09T10:04:21Z</time>
      </trkpt>
      <trkpt lat="45.39648" lon="5.81971">
        <ele>1376</ele>
        <time>2012-12-09T10:04:25Z</time>
      </trkpt>
      <trkpt lat="45.39646" lon="5.81971">
        <ele>1376.599975586</ele>
        <time>2012-12-09T10:04:29Z</time>
      </trkpt>
      <trkpt lat="45.39643" lon="5.81972">
        <ele>1377.199951172</ele>
        <time>2012-12-09T10:04:33Z</time>
      </trkpt>
      <trkpt lat="45.39639" lon="5.81972">
        <ele>1378.199951172</ele>
        <time>2012-12-09T10:04:37Z</time>
      </trkpt>
      <trkpt lat="45.39635" lon="5.8197">
        <ele>1379.800048828</ele>
        <time>2012-12-09T10:04:44Z</time>
      </trkpt>
      <trkpt lat="45.39633" lon="5.81968">
        <ele>1380.599975586</ele>
        <time>2012-12-09T10:04:48Z</time>
      </trkpt>
      <trkpt lat="45.39628" lon="5.81968">
        <ele>1382</ele>
        <time>2012-12-09T10:04:54Z</time>
      </trkpt>
      <trkpt lat="45.39625" lon="5.81969">
        <ele>1382.599975586</ele>
        <time>2012-12-09T10:04:58Z</time>
      </trkpt>
      <trkpt lat="45.39624" lon="5.81967">
        <ele>1383</ele>
        <time>2012-12-09T10:05:00Z</time>
      </trkpt>
      <trkpt lat="45.39623" lon="5.81966">
        <ele>1383.400024414</ele>
        <time>2012-12-09T10:05:02Z</time>
      </trkpt>
      <trkpt lat="45.39621" lon="5.81965">
        <ele>1384</ele>
        <time>2012-12-09T10:05:04Z</time>
      </trkpt>
      <trkpt lat="45.39618" lon="5.81963">
        <ele>1385</ele>
        <time>2012-12-09T10:05:08Z</time>
      </trkpt>
      <trkpt lat="45.39617" lon="5.81963">
        <ele>1385.199951172</ele>
        <time>2012-12-09T10:05:09Z</time>
      </trkpt>
      <trkpt lat="45.39614" lon="5.8196">
        <ele>1386.400024414</ele>
        <time>2012-12-09T10:05:13Z</time>
      </trkpt>
      <trkpt lat="45.39611" lon="5.81957">
        <ele>1387.400024414</ele>
        <time>2012-12-09T10:05:18Z</time>
      </trkpt>
      <trkpt lat="45.39609" lon="5.81957">
        <ele>1387.800048828</ele>
        <time>2012-12-09T10:05:20Z</time>
      </trkpt>
      <trkpt lat="45.39609" lon="5.81956">
        <ele>1388.199951172</ele>
        <time>2012-12-09T10:05:22Z</time>
      </trkpt>
      <trkpt lat="45.39607" lon="5.81957">
        <ele>1388.400024414</ele>
        <time>2012-12-09T10:05:23Z</time>
      </trkpt>
      <trkpt lat="45.39604" lon="5.81957">
        <ele>1389.199951172</ele>
        <time>2012-12-09T10:05:28Z</time>
      </trkpt>
      <trkpt lat="45.396" lon="5.81956">
        <ele>1390.199951172</ele>
        <time>2012-12-09T10:05:34Z</time>
      </trkpt>
      <trkpt lat="45.39597" lon="5.81956">
        <ele>1391</ele>
        <time>2012-12-09T10:05:39Z</time>
      </trkpt>
      <trkpt lat="45.39595" lon="5.81954">
        <ele>1391.800048828</ele>
        <time>2012-12-09T10:05:44Z</time>
      </trkpt>
      <trkpt lat="45.39592" lon="5.81953">
        <ele>1392.400024414</ele>
        <time>2012-12-09T10:05:48Z</time>
      </trkpt>
      <trkpt lat="45.3959" lon="5.81953">
        <ele>1393</ele>
        <time>2012-12-09T10:05:52Z</time>
      </trkpt>
      <trkpt lat="45.39588" lon="5.81951">
        <ele>1393.400024414</ele>
        <time>2012-12-09T10:05:56Z</time>
      </trkpt>
      <trkpt lat="45.39585" lon="5.81951">
        <ele>1394.199951172</ele>
        <time>2012-12-09T10:06:03Z</time>
      </trkpt>
      <trkpt lat="45.3958" lon="5.81949">
        <ele>1396.199951172</ele>
        <time>2012-12-09T10:06:09Z</time>
      </trkpt>
      <trkpt lat="45.39579" lon="5.81948">
        <ele>1396.599975586</ele>
        <time>2012-12-09T10:06:10Z</time>
      </trkpt>
      <trkpt lat="45.39578" lon="5.81948">
        <ele>1397.199951172</ele>
        <time>2012-12-09T10:06:14Z</time>
      </trkpt>
      <trkpt lat="45.39575" lon="5.81948">
        <ele>1398.400024414</ele>
        <time>2012-12-09T10:06:17Z</time>
      </trkpt>
      <trkpt lat="45.39575" lon="5.81947">
        <ele>1398.400024414</ele>
        <time>2012-12-09T10:06:18Z</time>
      </trkpt>
      <trkpt lat="45.39572" lon="5.81946">
        <ele>1399.599975586</ele>
        <time>2012-12-09T10:06:22Z</time>
      </trkpt>
      <trkpt lat="45.39567" lon="5.81943">
        <ele>1401.800048828</ele>
        <time>2012-12-09T10:06:29Z</time>
      </trkpt>
      <trkpt lat="45.39564" lon="5.81944">
        <ele>1403.400024414</ele>
        <time>2012-12-09T10:06:33Z</time>
      </trkpt>
      <trkpt lat="45.39562" lon="5.81946">
        <ele>1404</ele>
        <time>2012-12-09T10:06:38Z</time>
      </trkpt>
      <trkpt lat="45.3956" lon="5.81943">
        <ele>1405</ele>
        <time>2012-12-09T10:06:43Z</time>
      </trkpt>
      <trkpt lat="45.3956" lon="5.81941">
        <ele>1405</ele>
        <time>2012-12-09T10:06:48Z</time>
      </trkpt>
      <trkpt lat="45.3956" lon="5.81939">
        <ele>1405.199951172</ele>
        <time>2012-12-09T10:06:52Z</time>
      </trkpt>
      <trkpt lat="45.39561" lon="5.81935">
        <ele>1404.800048828</ele>
        <time>2012-12-09T10:06:59Z</time>
      </trkpt>
      <trkpt lat="45.39556" lon="5.81933">
        <ele>1407</ele>
        <time>2012-12-09T10:07:09Z</time>
      </trkpt>
      <trkpt lat="45.39553" lon="5.81933">
        <ele>1408.199951172</ele>
        <time>2012-12-09T10:07:13Z</time>
      </trkpt>
      <trkpt lat="45.39553" lon="5.81933">
        <ele>1408.400024414</ele>
        <time>2012-12-09T10:07:18Z</time>
      </trkpt>
      <trkpt lat="45.39551" lon="5.81935">
        <ele>1408.800048828</ele>
        <time>2012-12-09T10:07:22Z</time>
      </trkpt>
      <trkpt lat="45.39548" lon="5.81936">
        <ele>1410.400024414</ele>
        <time>2012-12-09T10:07:28Z</time>
      </trkpt>
      <trkpt lat="45.39549" lon="5.81938">
        <ele>1410</ele>
        <time>2012-12-09T10:07:34Z</time>
      </trkpt>
      <trkpt lat="45.39545" lon="5.81938">
        <ele>1411.800048828</ele>
        <time>2012-12-09T10:07:38Z</time>
      </trkpt>
      <trkpt lat="45.39544" lon="5.81938">
        <ele>1411.800048828</ele>
        <time>2012-12-09T10:07:39Z</time>
      </trkpt>
      <trkpt lat="45.39542" lon="5.81935">
        <ele>1413</ele>
        <time>2012-12-09T10:07:44Z</time>
      </trkpt>
      <trkpt lat="45.39538" lon="5.81933">
        <ele>1414.400024414</ele>
        <time>2012-12-09T10:07:48Z</time>
      </trkpt>
      <trkpt lat="45.39538" lon="5.81932">
        <ele>1414.599975586</ele>
        <time>2012-12-09T10:07:49Z</time>
      </trkpt>
      <trkpt lat="45.39536" lon="5.81931">
        <ele>1415.199951172</ele>
        <time>2012-12-09T10:07:53Z</time>
      </trkpt>
      <trkpt lat="45.39533" lon="5.81928">
        <ele>1416.400024414</ele>
        <time>2012-12-09T10:08:01Z</time>
      </trkpt>
      <trkpt lat="45.39531" lon="5.81932">
        <ele>1417.800048828</ele>
        <time>2012-12-09T10:08:08Z</time>
      </trkpt>
      <trkpt lat="45.39529" lon="5.81934">
        <ele>1418.400024414</ele>
        <time>2012-12-09T10:08:13Z</time>
      </trkpt>
      <trkpt lat="45.39527" lon="5.81931">
        <ele>1419.400024414</ele>
        <time>2012-12-09T10:08:19Z</time>
      </trkpt>
      <trkpt lat="45.39526" lon="5.81927">
        <ele>1419.400024414</ele>
        <time>2012-12-09T10:08:24Z</time>
      </trkpt>
      <trkpt lat="45.39526" lon="5.81929">
        <ele>1419.400024414</ele>
        <time>2012-12-09T10:08:30Z</time>
      </trkpt>
      <trkpt lat="45.39524" lon="5.81933">
        <ele>1420.599975586</ele>
        <time>2012-12-09T10:08:35Z</time>
      </trkpt>
      <trkpt lat="45.39521" lon="5.81937">
        <ele>1422</ele>
        <time>2012-12-09T10:08:40Z</time>
      </trkpt>
      <trkpt lat="45.39519" lon="5.81938">
        <ele>1422.800048828</ele>
        <time>2012-12-09T10:08:42Z</time>
      </trkpt>
      <trkpt lat="45.39517" lon="5.81939">
        <ele>1423.599975586</ele>
        <time>2012-12-09T10:08:45Z</time>
      </trkpt>
      <trkpt lat="45.39515" lon="5.81942">
        <ele>1424.400024414</ele>
        <time>2012-12-09T10:08:49Z</time>
      </trkpt>
      <trkpt lat="45.39514" lon="5.81945">
        <ele>1425</ele>
        <time>2012-12-09T10:08:53Z</time>
      </trkpt>
      <trkpt lat="45.39514" lon="5.8195">
        <ele>1425.400024414</ele>
        <time>2012-12-09T10:08:58Z</time>
      </trkpt>
      <trkpt lat="45.3951" lon="5.81952">
        <ele>1427.199951172</ele>
        <time>2012-12-09T10:09:03Z</time>
      </trkpt>
      <trkpt lat="45.3951" lon="5.81953">
        <ele>1427.400024414</ele>
        <time>2012-12-09T10:09:04Z</time>
      </trkpt>
      <trkpt lat="45.39508" lon="5.81956">
        <ele>1428</ele>
        <time>2012-12-09T10:09:08Z</time>
      </trkpt>
      <trkpt lat="45.39509" lon="5.81958">
        <ele>1428</ele>
        <time>2012-12-09T10:09:10Z</time>
      </trkpt>
      <trkpt lat="45.39509" lon="5.8196">
        <ele>1428</ele>
        <time>2012-12-09T10:09:13Z</time>
      </trkpt>
      <trkpt lat="45.39506" lon="5.81962">
        <ele>1429.400024414</ele>
        <time>2012-12-09T10:09:19Z</time>
      </trkpt>
      <trkpt lat="45.39505" lon="5.81962">
        <ele>1429.800048828</ele>
        <time>2012-12-09T10:09:24Z</time>
      </trkpt>
      <trkpt lat="45.39501" lon="5.81962">
        <ele>1431.599975586</ele>
        <time>2012-12-09T10:09:28Z</time>
      </trkpt>
      <trkpt lat="45.39499" lon="5.8196">
        <ele>1432.199951172</ele>
        <time>2012-12-09T10:09:29Z</time>
      </trkpt>
      <trkpt lat="45.39497" lon="5.81957">
        <ele>1433</ele>
        <time>2012-12-09T10:09:33Z</time>
      </trkpt>
      <trkpt lat="45.39498" lon="5.81958">
        <ele>1432.800048828</ele>
        <time>2012-12-09T10:09:34Z</time>
      </trkpt>
      <trkpt lat="45.39493" lon="5.81954">
        <ele>1434.400024414</ele>
        <time>2012-12-09T10:09:53Z</time>
      </trkpt>
      <trkpt lat="45.39493" lon="5.8195">
        <ele>1434.199951172</ele>
        <time>2012-12-09T10:10:00Z</time>
      </trkpt>
      <trkpt lat="45.39495" lon="5.81952">
        <ele>1433.400024414</ele>
        <time>2012-12-09T10:10:06Z</time>
      </trkpt>
      <trkpt lat="45.39499" lon="5.81957">
        <ele>1432.199951172</ele>
        <time>2012-12-09T10:10:18Z</time>
      </trkpt>
      <trkpt lat="45.39496" lon="5.81956">
        <ele>1433.199951172</ele>
        <time>2012-12-09T10:10:21Z</time>
      </trkpt>
      <trkpt lat="45.39493" lon="5.81956">
        <ele>1434.400024414</ele>
        <time>2012-12-09T10:10:27Z</time>
      </trkpt>
      <trkpt lat="45.39492" lon="5.81958">
        <ele>1434.800048828</ele>
        <time>2012-12-09T10:10:32Z</time>
      </trkpt>
      <trkpt lat="45.39493" lon="5.81955">
        <ele>1434.599975586</ele>
        <time>2012-12-09T10:10:37Z</time>
      </trkpt>
      <trkpt lat="45.39483" lon="5.8195">
        <ele>1437.800048828</ele>
        <time>2012-12-09T10:11:11Z</time>
      </trkpt>
      <trkpt lat="45.39482" lon="5.81948">
        <ele>1438.199951172</ele>
        <time>2012-12-09T10:11:19Z</time>
      </trkpt>
      <trkpt lat="45.3948" lon="5.81945">
        <ele>1439</ele>
        <time>2012-12-09T10:11:27Z</time>
      </trkpt>
      <trkpt lat="45.39479" lon="5.81944">
        <ele>1439</ele>
        <time>2012-12-09T10:11:35Z</time>
      </trkpt>
      <trkpt lat="45.39479" lon="5.8194">
        <ele>1438.800048828</ele>
        <time>2012-12-09T10:11:38Z</time>
      </trkpt>
      <trkpt lat="45.39479" lon="5.81939">
        <ele>1438.599975586</ele>
        <time>2012-12-09T10:11:40Z</time>
      </trkpt>
      <trkpt lat="45.3948" lon="5.81932">
        <ele>1438</ele>
        <time>2012-12-09T10:11:46Z</time>
      </trkpt>
      <trkpt lat="45.39478" lon="5.8193">
        <ele>1438.599975586</ele>
        <time>2012-12-09T10:11:51Z</time>
      </trkpt>
      <trkpt lat="45.39478" lon="5.81929">
        <ele>1438.599975586</ele>
        <time>2012-12-09T10:11:53Z</time>
      </trkpt>
      <trkpt lat="45.39477" lon="5.81928">
        <ele>1439</ele>
        <time>2012-12-09T10:11:57Z</time>
      </trkpt>
      <trkpt lat="45.39472" lon="5.81927">
        <ele>1440.599975586</ele>
        <time>2012-12-09T10:12:03Z</time>
      </trkpt>
      <trkpt lat="45.39469" lon="5.8193">
        <ele>1442</ele>
        <time>2012-12-09T10:12:07Z</time>
      </trkpt>
      <trkpt lat="45.39463" lon="5.81931">
        <ele>1444.199951172</ele>
        <time>2012-12-09T10:12:13Z</time>
      </trkpt>
      <trkpt lat="45.3946" lon="5.81931">
        <ele>1445.400024414</ele>
        <time>2012-12-09T10:12:18Z</time>
      </trkpt>
      <trkpt lat="45.39455" lon="5.8193">
        <ele>1447.199951172</ele>
        <time>2012-12-09T10:12:26Z</time>
      </trkpt>
      <trkpt lat="45.39452" lon="5.81931">
        <ele>1448.400024414</ele>
        <time>2012-12-09T10:12:30Z</time>
      </trkpt>
      <trkpt lat="45.39448" lon="5.81932">
        <ele>1449.800048828</ele>
        <time>2012-12-09T10:12:34Z</time>
      </trkpt>
      <trkpt lat="45.39446" lon="5.81932">
        <ele>1450.400024414</ele>
        <time>2012-12-09T10:12:38Z</time>
      </trkpt>
      <trkpt lat="45.39444" lon="5.81931">
        <ele>1451.199951172</ele>
        <time>2012-12-09T10:12:42Z</time>
      </trkpt>
      <trkpt lat="45.39443" lon="5.8193">
        <ele>1451.599975586</ele>
        <time>2012-12-09T10:12:48Z</time>
      </trkpt>
      <trkpt lat="45.39441" lon="5.81931">
        <ele>1452.400024414</ele>
        <time>2012-12-09T10:12:54Z</time>
      </trkpt>
      <trkpt lat="45.39438" lon="5.81933">
        <ele>1453.800048828</ele>
        <time>2012-12-09T10:13:01Z</time>
      </trkpt>
      <trkpt lat="45.39436" lon="5.81933">
        <ele>1454.199951172</ele>
        <time>2012-12-09T10:13:05Z</time>
      </trkpt>
      <trkpt lat="45.39428" lon="5.81927">
        <ele>1456.800048828</ele>
        <time>2012-12-09T10:13:15Z</time>
      </trkpt>
      <trkpt lat="45.39427" lon="5.81929">
        <ele>1457.199951172</ele>
        <time>2012-12-09T10:13:18Z</time>
      </trkpt>
      <trkpt lat="45.39426" lon="5.81929">
        <ele>1457.800048828</ele>
        <time>2012-12-09T10:13:22Z</time>
      </trkpt>
      <trkpt lat="45.3942" lon="5.81926">
        <ele>1459.800048828</ele>
        <time>2012-12-09T10:13:30Z</time>
      </trkpt>
      <trkpt lat="45.39417" lon="5.81926">
        <ele>1460.800048828</ele>
        <time>2012-12-09T10:13:33Z</time>
      </trkpt>
      <trkpt lat="45.39416" lon="5.81925">
        <ele>1460.800048828</ele>
        <time>2012-12-09T10:13:34Z</time>
      </trkpt>
      <trkpt lat="45.39415" lon="5.81926">
        <ele>1461.199951172</ele>
        <time>2012-12-09T10:13:36Z</time>
      </trkpt>
      <trkpt lat="45.39415" lon="5.81926">
        <ele>1461.199951172</ele>
        <time>2012-12-09T10:13:37Z</time>
      </trkpt>
      <trkpt lat="45.39411" lon="5.81927">
        <ele>1462.199951172</ele>
        <time>2012-12-09T10:13:41Z</time>
      </trkpt>
      <trkpt lat="45.3941" lon="5.81929">
        <ele>1462.400024414</ele>
        <time>2012-12-09T10:13:45Z</time>
      </trkpt>
      <trkpt lat="45.39408" lon="5.81929">
        <ele>1463</ele>
        <time>2012-12-09T10:13:50Z</time>
      </trkpt>
      <trkpt lat="45.39408" lon="5.81929">
        <ele>1463.199951172</ele>
        <time>2012-12-09T10:13:51Z</time>
      </trkpt>
      <trkpt lat="45.39406" lon="5.81933">
        <ele>1463.800048828</ele>
        <time>2012-12-09T10:13:56Z</time>
      </trkpt>
      <trkpt lat="45.39404" lon="5.81934">
        <ele>1464.400024414</ele>
        <time>2012-12-09T10:14:02Z</time>
      </trkpt>
      <trkpt lat="45.39401" lon="5.81933">
        <ele>1464.800048828</ele>
        <time>2012-12-09T10:14:05Z</time>
      </trkpt>
      <trkpt lat="45.394" lon="5.81932">
        <ele>1465</ele>
        <time>2012-12-09T10:14:07Z</time>
      </trkpt>
      <trkpt lat="45.39398" lon="5.81929">
        <ele>1465.400024414</ele>
        <time>2012-12-09T10:14:14Z</time>
      </trkpt>
      <trkpt lat="45.39395" lon="5.81929">
        <ele>1466</ele>
        <time>2012-12-09T10:14:23Z</time>
      </trkpt>
      <trkpt lat="45.39394" lon="5.81928">
        <ele>1466.199951172</ele>
        <time>2012-12-09T10:14:24Z</time>
      </trkpt>
      <trkpt lat="45.39391" lon="5.81929">
        <ele>1467</ele>
        <time>2012-12-09T10:14:27Z</time>
      </trkpt>
      <trkpt lat="45.39386" lon="5.81931">
        <ele>1468.199951172</ele>
        <time>2012-12-09T10:14:32Z</time>
      </trkpt>
      <trkpt lat="45.39383" lon="5.81931">
        <ele>1468.800048828</ele>
        <time>2012-12-09T10:14:35Z</time>
      </trkpt>
      <trkpt lat="45.39376" lon="5.81931">
        <ele>1470.400024414</ele>
        <time>2012-12-09T10:14:39Z</time>
      </trkpt>
      <trkpt lat="45.39366" lon="5.81933">
        <ele>1472.400024414</ele>
        <time>2012-12-09T10:14:45Z</time>
      </trkpt>
      <trkpt lat="45.39365" lon="5.81933">
        <ele>1472.800048828</ele>
        <time>2012-12-09T10:14:47Z</time>
      </trkpt>
      <trkpt lat="45.39362" lon="5.81936">
        <ele>1473.199951172</ele>
        <time>2012-12-09T10:14:50Z</time>
      </trkpt>
      <trkpt lat="45.39359" lon="5.81936">
        <ele>1473.800048828</ele>
        <time>2012-12-09T10:14:55Z</time>
      </trkpt>
      <trkpt lat="45.39356" lon="5.81935">
        <ele>1474.400024414</ele>
        <time>2012-12-09T10:14:59Z</time>
      </trkpt>
      <trkpt lat="45.39354" lon="5.81934">
        <ele>1475</ele>
        <time>2012-12-09T10:15:00Z</time>
      </trkpt>
      <trkpt lat="45.39351" lon="5.81934">
        <ele>1475.599975586</ele>
        <time>2012-12-09T10:15:03Z</time>
      </trkpt>
      <trkpt lat="45.39351" lon="5.81935">
        <ele>1475.599975586</ele>
        <time>2012-12-09T10:15:04Z</time>
      </trkpt>
      <trkpt lat="45.39346" lon="5.81933">
        <ele>1476.800048828</ele>
        <time>2012-12-09T10:15:07Z</time>
      </trkpt>
      <trkpt lat="45.39339" lon="5.81936">
        <ele>1477.800048828</ele>
        <time>2012-12-09T10:15:12Z</time>
      </trkpt>
      <trkpt lat="45.39338" lon="5.81936">
        <ele>1478.199951172</ele>
        <time>2012-12-09T10:15:14Z</time>
      </trkpt>
      <trkpt lat="45.39337" lon="5.81937">
        <ele>1478.199951172</ele>
        <time>2012-12-09T10:15:15Z</time>
      </trkpt>
      <trkpt lat="45.39333" lon="5.8194">
        <ele>1478.599975586</ele>
        <time>2012-12-09T10:15:19Z</time>
      </trkpt>
      <trkpt lat="45.39331" lon="5.81942">
        <ele>1478.800048828</ele>
        <time>2012-12-09T10:15:22Z</time>
      </trkpt>
      <trkpt lat="45.39328" lon="5.81943">
        <ele>1479</ele>
        <time>2012-12-09T10:15:25Z</time>
      </trkpt>
      <trkpt lat="45.39325" lon="5.81942">
        <ele>1479.800048828</ele>
        <time>2012-12-09T10:15:34Z</time>
      </trkpt>
      <trkpt lat="45.39322" lon="5.81941">
        <ele>1480.599975586</ele>
        <time>2012-12-09T10:15:36Z</time>
      </trkpt>
      <trkpt lat="45.3932" lon="5.81943">
        <ele>1480.599975586</ele>
        <time>2012-12-09T10:15:39Z</time>
      </trkpt>
      <trkpt lat="45.39319" lon="5.81944">
        <ele>1480.800048828</ele>
        <time>2012-12-09T10:15:41Z</time>
      </trkpt>
      <trkpt lat="45.39315" lon="5.81945">
        <ele>1481.199951172</ele>
        <time>2012-12-09T10:15:45Z</time>
      </trkpt>
      <trkpt lat="45.39309" lon="5.81946">
        <ele>1482.199951172</ele>
        <time>2012-12-09T10:15:51Z</time>
      </trkpt>
      <trkpt lat="45.39304" lon="5.81946">
        <ele>1483.199951172</ele>
        <time>2012-12-09T10:15:56Z</time>
      </trkpt>
      <trkpt lat="45.39298" lon="5.81945">
        <ele>1484.400024414</ele>
        <time>2012-12-09T10:16:00Z</time>
      </trkpt>
      <trkpt lat="45.39292" lon="5.81945">
        <ele>1485.599975586</ele>
        <time>2012-12-09T10:16:06Z</time>
      </trkpt>
      <trkpt lat="45.39287" lon="5.81944">
        <ele>1486.800048828</ele>
        <time>2012-12-09T10:16:11Z</time>
      </trkpt>
      <trkpt lat="45.39282" lon="5.81943">
        <ele>1488</ele>
        <time>2012-12-09T10:16:17Z</time>
      </trkpt>
      <trkpt lat="45.39273" lon="5.81941">
        <ele>1490</ele>
        <time>2012-12-09T10:16:25Z</time>
      </trkpt>
      <trkpt lat="45.3927" lon="5.81942">
        <ele>1490.400024414</ele>
        <time>2012-12-09T10:16:29Z</time>
      </trkpt>
      <trkpt lat="45.39268" lon="5.81943">
        <ele>1490.599975586</ele>
        <time>2012-12-09T10:16:34Z</time>
      </trkpt>
      <trkpt lat="45.39264" lon="5.81942">
        <ele>1491.400024414</ele>
        <time>2012-12-09T10:16:40Z</time>
      </trkpt>
      <trkpt lat="45.39261" lon="5.81941">
        <ele>1492.199951172</ele>
        <time>2012-12-09T10:16:45Z</time>
      </trkpt>
      <trkpt lat="45.39251" lon="5.81936">
        <ele>1495.599975586</ele>
        <time>2012-12-09T10:16:57Z</time>
      </trkpt>
      <trkpt lat="45.3925" lon="5.81937">
        <ele>1495.400024414</ele>
        <time>2012-12-09T10:17:00Z</time>
      </trkpt>
      <trkpt lat="45.39248" lon="5.81937">
        <ele>1495.599975586</ele>
        <time>2012-12-09T10:17:04Z</time>
      </trkpt>
      <trkpt lat="45.39244" lon="5.81937">
        <ele>1495.800048828</ele>
        <time>2012-12-09T10:17:10Z</time>
      </trkpt>
      <trkpt lat="45.39237" lon="5.8194">
        <ele>1495.400024414</ele>
        <time>2012-12-09T10:17:24Z</time>
      </trkpt>
      <trkpt lat="45.39232" lon="5.8194">
        <ele>1495.400024414</ele>
        <time>2012-12-09T10:17:32Z</time>
      </trkpt>
      <trkpt lat="45.39225" lon="5.81943">
        <ele>1495</ele>
        <time>2012-12-09T10:17:44Z</time>
      </trkpt>
      <trkpt lat="45.39216" lon="5.81947">
        <ele>1494</ele>
        <time>2012-12-09T10:18:02Z</time>
      </trkpt>
      <trkpt lat="45.39215" lon="5.81954">
        <ele>1491.800048828</ele>
        <time>2012-12-09T10:18:18Z</time>
      </trkpt>
      <trkpt lat="45.39216" lon="5.81958">
        <ele>1490.800048828</ele>
        <time>2012-12-09T10:18:52Z</time>
      </trkpt>
      <trkpt lat="45.39212" lon="5.81958">
        <ele>1490.800048828</ele>
        <time>2012-12-09T10:18:56Z</time>
      </trkpt>
      <trkpt lat="45.392" lon="5.81955">
        <ele>1491.800048828</ele>
        <time>2012-12-09T10:19:11Z</time>
      </trkpt>
      <trkpt lat="45.39193" lon="5.81961">
        <ele>1490</ele>
        <time>2012-12-09T10:19:17Z</time>
      </trkpt>
      <trkpt lat="45.39198" lon="5.81968">
        <ele>1487.599975586</ele>
        <time>2012-12-09T10:19:33Z</time>
      </trkpt>
      <trkpt lat="45.39196" lon="5.81973">
        <ele>1486</ele>
        <time>2012-12-09T10:19:36Z</time>
      </trkpt>
      <trkpt lat="45.39196" lon="5.81975">
        <ele>1485.199951172</ele>
        <time>2012-12-09T10:19:42Z</time>
      </trkpt>
      <trkpt lat="45.39195" lon="5.81977">
        <ele>1484.599975586</ele>
        <time>2012-12-09T10:19:46Z</time>
      </trkpt>
      <trkpt lat="45.39193" lon="5.81978">
        <ele>1484.400024414</ele>
        <time>2012-12-09T10:19:50Z</time>
      </trkpt>
      <trkpt lat="45.39193" lon="5.81981">
        <ele>1483.400024414</ele>
        <time>2012-12-09T10:19:54Z</time>
      </trkpt>
      <trkpt lat="45.39193" lon="5.81984">
        <ele>1482.400024414</ele>
        <time>2012-12-09T10:20:01Z</time>
      </trkpt>
      <trkpt lat="45.39193" lon="5.81979">
        <ele>1483.800048828</ele>
        <time>2012-12-09T10:20:03Z</time>
      </trkpt>
      <trkpt lat="45.39192" lon="5.81978">
        <ele>1484.400024414</ele>
        <time>2012-12-09T10:20:05Z</time>
      </trkpt>
      <trkpt lat="45.39191" lon="5.81977">
        <ele>1484.800048828</ele>
        <time>2012-12-09T10:20:07Z</time>
      </trkpt>
      <trkpt lat="45.39188" lon="5.81975">
        <ele>1485.199951172</ele>
        <time>2012-12-09T10:20:13Z</time>
      </trkpt>
      <trkpt lat="45.39184" lon="5.81973">
        <ele>1485.800048828</ele>
        <time>2012-12-09T10:20:19Z</time>
      </trkpt>
      <trkpt lat="45.39183" lon="5.81974">
        <ele>1485.400024414</ele>
        <time>2012-12-09T10:20:24Z</time>
      </trkpt>
      <trkpt lat="45.39183" lon="5.81978">
        <ele>1484.400024414</ele>
        <time>2012-12-09T10:20:29Z</time>
      </trkpt>
      <trkpt lat="45.3918" lon="5.81983">
        <ele>1482.400024414</ele>
        <time>2012-12-09T10:20:39Z</time>
      </trkpt>
      <trkpt lat="45.39178" lon="5.81982">
        <ele>1482.599975586</ele>
        <time>2012-12-09T10:20:43Z</time>
      </trkpt>
      <trkpt lat="45.39176" lon="5.8198">
        <ele>1483.199951172</ele>
        <time>2012-12-09T10:20:48Z</time>
      </trkpt>
      <trkpt lat="45.39173" lon="5.81978">
        <ele>1484.199951172</ele>
        <time>2012-12-09T10:20:54Z</time>
      </trkpt>
      <trkpt lat="45.39171" lon="5.81976">
        <ele>1484.800048828</ele>
        <time>2012-12-09T10:21:00Z</time>
      </trkpt>
      <trkpt lat="45.39168" lon="5.81976">
        <ele>1485</ele>
        <time>2012-12-09T10:21:05Z</time>
      </trkpt>
      <trkpt lat="45.39166" lon="5.81977">
        <ele>1484.400024414</ele>
        <time>2012-12-09T10:21:10Z</time>
      </trkpt>
      <trkpt lat="45.39165" lon="5.81979">
        <ele>1484.199951172</ele>
        <time>2012-12-09T10:21:15Z</time>
      </trkpt>
      <trkpt lat="45.39164" lon="5.81982">
        <ele>1483.599975586</ele>
        <time>2012-12-09T10:21:19Z</time>
      </trkpt>
      <trkpt lat="45.39162" lon="5.81985">
        <ele>1483</ele>
        <time>2012-12-09T10:21:24Z</time>
      </trkpt>
      <trkpt lat="45.39162" lon="5.81988">
        <ele>1482</ele>
        <time>2012-12-09T10:21:30Z</time>
      </trkpt>
      <trkpt lat="45.39161" lon="5.8199">
        <ele>1481.599975586</ele>
        <time>2012-12-09T10:21:34Z</time>
      </trkpt>
      <trkpt lat="45.3916" lon="5.81993">
        <ele>1481</ele>
        <time>2012-12-09T10:21:43Z</time>
      </trkpt>
      <trkpt lat="45.39159" lon="5.81994">
        <ele>1480.800048828</ele>
        <time>2012-12-09T10:21:44Z</time>
      </trkpt>
      <trkpt lat="45.39155" lon="5.81998">
        <ele>1480.800048828</ele>
        <time>2012-12-09T10:21:58Z</time>
      </trkpt>
      <trkpt lat="45.39152" lon="5.81998">
        <ele>1482.199951172</ele>
        <time>2012-12-09T10:22:04Z</time>
      </trkpt>
      <trkpt lat="45.39149" lon="5.81996">
        <ele>1483.800048828</ele>
        <time>2012-12-09T10:22:09Z</time>
      </trkpt>
      <trkpt lat="45.39148" lon="5.81995">
        <ele>1484.599975586</ele>
        <time>2012-12-09T10:22:13Z</time>
      </trkpt>
      <trkpt lat="45.39145" lon="5.81992">
        <ele>1486.599975586</ele>
        <time>2012-12-09T10:22:21Z</time>
      </trkpt>
      <trkpt lat="45.39143" lon="5.81991">
        <ele>1487.400024414</ele>
        <time>2012-12-09T10:22:26Z</time>
      </trkpt>
      <trkpt lat="45.39141" lon="5.81991">
        <ele>1488</ele>
        <time>2012-12-09T10:22:31Z</time>
      </trkpt>
      <trkpt lat="45.39137" lon="5.81989">
        <ele>1490</ele>
        <time>2012-12-09T10:22:36Z</time>
      </trkpt>
      <trkpt lat="45.39136" lon="5.81988">
        <ele>1490.800048828</ele>
        <time>2012-12-09T10:22:38Z</time>
      </trkpt>
      <trkpt lat="45.39134" lon="5.81986">
        <ele>1492.199951172</ele>
        <time>2012-12-09T10:22:43Z</time>
      </trkpt>
      <trkpt lat="45.39128" lon="5.81981">
        <ele>1495.400024414</ele>
        <time>2012-12-09T10:22:50Z</time>
      </trkpt>
      <trkpt lat="45.39125" lon="5.81978">
        <ele>1497</ele>
        <time>2012-12-09T10:22:55Z</time>
      </trkpt>
      <trkpt lat="45.39124" lon="5.8198">
        <ele>1514.400024414</ele>
        <time>2012-12-09T10:23:07Z</time>
      </trkpt>
      <trkpt lat="45.39119" lon="5.8198">
        <ele>1518</ele>
        <time>2012-12-09T10:23:13Z</time>
      </trkpt>
      <trkpt lat="45.39115" lon="5.81981">
        <ele>1521.199951172</ele>
        <time>2012-12-09T10:23:19Z</time>
      </trkpt>
      <trkpt lat="45.39111" lon="5.81984">
        <ele>1524.800048828</ele>
        <time>2012-12-09T10:23:24Z</time>
      </trkpt>
      <trkpt lat="45.39108" lon="5.81985">
        <ele>1527.199951172</ele>
        <time>2012-12-09T10:23:30Z</time>
      </trkpt>
      <trkpt lat="45.39104" lon="5.81986">
        <ele>1530</ele>
        <time>2012-12-09T10:23:36Z</time>
      </trkpt>
      <trkpt lat="45.391" lon="5.81985">
        <ele>1533.400024414</ele>
        <time>2012-12-09T10:23:43Z</time>
      </trkpt>
      <trkpt lat="45.39096" lon="5.81985">
        <ele>1536</ele>
        <time>2012-12-09T10:23:50Z</time>
      </trkpt>
      <trkpt lat="45.39094" lon="5.81985">
        <ele>1537.800048828</ele>
        <time>2012-12-09T10:23:55Z</time>
      </trkpt>
      <trkpt lat="45.39092" lon="5.81983">
        <ele>1539</ele>
        <time>2012-12-09T10:24:00Z</time>
      </trkpt>
      <trkpt lat="45.39086" lon="5.81983">
        <ele>1543.199951172</ele>
        <time>2012-12-09T10:24:07Z</time>
      </trkpt>
      <trkpt lat="45.39084" lon="5.81983">
        <ele>1545.199951172</ele>
        <time>2012-12-09T10:24:10Z</time>
      </trkpt>
      <trkpt lat="45.39081" lon="5.81983">
        <ele>1546.199951172</ele>
        <time>2012-12-09T10:24:13Z</time>
      </trkpt>
      <trkpt lat="45.39078" lon="5.81984">
        <ele>1547.800048828</ele>
        <time>2012-12-09T10:24:19Z</time>
      </trkpt>
      <trkpt lat="45.39075" lon="5.81985">
        <ele>1549.199951172</ele>
        <time>2012-12-09T10:24:23Z</time>
      </trkpt>
      <trkpt lat="45.39069" lon="5.81985">
        <ele>1551.400024414</ele>
        <time>2012-12-09T10:24:29Z</time>
      </trkpt>
      <trkpt lat="45.39066" lon="5.81981">
        <ele>1551</ele>
        <time>2012-12-09T10:24:36Z</time>
      </trkpt>
      <trkpt lat="45.39065" lon="5.8198">
        <ele>1550.599975586</ele>
        <time>2012-12-09T10:24:43Z</time>
      </trkpt>
      <trkpt lat="45.39057" lon="5.81978">
        <ele>1552.599975586</ele>
        <time>2012-12-09T10:24:52Z</time>
      </trkpt>
      <trkpt lat="45.39055" lon="5.81976">
        <ele>1552.599975586</ele>
        <time>2012-12-09T10:24:58Z</time>
      </trkpt>
      <trkpt lat="45.39051" lon="5.81976">
        <ele>1553.400024414</ele>
        <time>2012-12-09T10:25:03Z</time>
      </trkpt>
      <trkpt lat="45.39051" lon="5.81975">
        <ele>1553.199951172</ele>
        <time>2012-12-09T10:25:10Z</time>
      </trkpt>
      <trkpt lat="45.39051" lon="5.81975">
        <ele>1553.199951172</ele>
        <time>2012-12-09T10:25:16Z</time>
      </trkpt>
      <trkpt lat="45.39048" lon="5.81975">
        <ele>1553.800048828</ele>
        <time>2012-12-09T10:25:22Z</time>
      </trkpt>
      <trkpt lat="45.39045" lon="5.81973">
        <ele>1554.199951172</ele>
        <time>2012-12-09T10:25:25Z</time>
      </trkpt>
      <trkpt lat="45.39044" lon="5.81972">
        <ele>1554</ele>
        <time>2012-12-09T10:25:28Z</time>
      </trkpt>
      <trkpt lat="45.39043" lon="5.81972">
        <ele>1554</ele>
        <time>2012-12-09T10:25:33Z</time>
      </trkpt>
      <trkpt lat="45.3904" lon="5.81971">
        <ele>1554.400024414</ele>
        <time>2012-12-09T10:25:37Z</time>
      </trkpt>
      <trkpt lat="45.39037" lon="5.81969">
        <ele>1554.599975586</ele>
        <time>2012-12-09T10:25:46Z</time>
      </trkpt>
      <trkpt lat="45.39033" lon="5.8197">
        <ele>1556</ele>
        <time>2012-12-09T10:25:52Z</time>
      </trkpt>
      <trkpt lat="45.3903" lon="5.8197">
        <ele>1557.199951172</ele>
        <time>2012-12-09T10:25:57Z</time>
      </trkpt>
      <trkpt lat="45.39027" lon="5.81971">
        <ele>1558.400024414</ele>
        <time>2012-12-09T10:25:59Z</time>
      </trkpt>
      <trkpt lat="45.39025" lon="5.81971">
        <ele>1559.400024414</ele>
        <time>2012-12-09T10:26:01Z</time>
      </trkpt>
      <trkpt lat="45.39021" lon="5.81973">
        <ele>1561.800048828</ele>
        <time>2012-12-09T10:26:08Z</time>
      </trkpt>
      <trkpt lat="45.3902" lon="5.81973">
        <ele>1562.599975586</ele>
        <time>2012-12-09T10:26:12Z</time>
      </trkpt>
      <trkpt lat="45.39019" lon="5.81974">
        <ele>1563</ele>
        <time>2012-12-09T10:26:13Z</time>
      </trkpt>
      <trkpt lat="45.39018" lon="5.81974">
        <ele>1563.199951172</ele>
        <time>2012-12-09T10:26:17Z</time>
      </trkpt>
      <trkpt lat="45.39013" lon="5.81974">
        <ele>1564.800048828</ele>
        <time>2012-12-09T10:26:22Z</time>
      </trkpt>
      <trkpt lat="45.39003" lon="5.81974">
        <ele>1568.400024414</ele>
        <time>2012-12-09T10:26:30Z</time>
      </trkpt>
      <trkpt lat="45.38994" lon="5.81973">
        <ele>1571.800048828</ele>
        <time>2012-12-09T10:26:37Z</time>
      </trkpt>
      <trkpt lat="45.3899" lon="5.81971">
        <ele>1572.599975586</ele>
        <time>2012-12-09T10:26:41Z</time>
      </trkpt>
      <trkpt lat="45.38985" lon="5.81969">
        <ele>1573.199951172</ele>
        <time>2012-12-09T10:26:47Z</time>
      </trkpt>
      <trkpt lat="45.38982" lon="5.81966">
        <ele>1572.800048828</ele>
        <time>2012-12-09T10:26:52Z</time>
      </trkpt>
      <trkpt lat="45.3898" lon="5.81964">
        <ele>1572.199951172</ele>
        <time>2012-12-09T10:26:54Z</time>
      </trkpt>
      <trkpt lat="45.38978" lon="5.8196">
        <ele>1570</ele>
        <time>2012-12-09T10:27:01Z</time>
      </trkpt>
      <trkpt lat="45.38975" lon="5.81955">
        <ele>1567.400024414</ele>
        <time>2012-12-09T10:27:06Z</time>
      </trkpt>
      <trkpt lat="45.38968" lon="5.81949">
        <ele>1566.400024414</ele>
        <time>2012-12-09T10:27:10Z</time>
      </trkpt>
      <trkpt lat="45.38965" lon="5.81945">
        <ele>1565.199951172</ele>
        <time>2012-12-09T10:27:13Z</time>
      </trkpt>
      <trkpt lat="45.38964" lon="5.81944">
        <ele>1564.800048828</ele>
        <time>2012-12-09T10:27:15Z</time>
      </trkpt>
      <trkpt lat="45.38964" lon="5.81942">
        <ele>1563.400024414</ele>
        <time>2012-12-09T10:27:17Z</time>
      </trkpt>
      <trkpt lat="45.38962" lon="5.81941">
        <ele>1563.599975586</ele>
        <time>2012-12-09T10:27:21Z</time>
      </trkpt>
      <trkpt lat="45.38959" lon="5.81941">
        <ele>1565</ele>
        <time>2012-12-09T10:27:26Z</time>
      </trkpt>
      <trkpt lat="45.38958" lon="5.81937">
        <ele>1562.800048828</ele>
        <time>2012-12-09T10:27:32Z</time>
      </trkpt>
      <trkpt lat="45.38954" lon="5.81934">
        <ele>1562.599975586</ele>
        <time>2012-12-09T10:27:37Z</time>
      </trkpt>
      <trkpt lat="45.38953" lon="5.81934">
        <ele>1562.599975586</ele>
        <time>2012-12-09T10:27:38Z</time>
      </trkpt>
      <trkpt lat="45.38955" lon="5.81929">
        <ele>1557.599975586</ele>
        <time>2012-12-09T10:27:47Z</time>
      </trkpt>
      <trkpt lat="45.38953" lon="5.81926">
        <ele>1556.599975586</ele>
        <time>2012-12-09T10:27:51Z</time>
      </trkpt>
      <trkpt lat="45.38953" lon="5.81922">
        <ele>1553.199951172</ele>
        <time>2012-12-09T10:28:02Z</time>
      </trkpt>
      <trkpt lat="45.38948" lon="5.81918">
        <ele>1553</ele>
        <time>2012-12-09T10:28:10Z</time>
      </trkpt>
      <trkpt lat="45.3894" lon="5.81915">
        <ele>1556</ele>
        <time>2012-12-09T10:28:18Z</time>
      </trkpt>
      <trkpt lat="45.38934" lon="5.81911">
        <ele>1558.599975586</ele>
        <time>2012-12-09T10:28:24Z</time>
      </trkpt>
      <trkpt lat="45.38933" lon="5.8191">
        <ele>1558.800048828</ele>
        <time>2012-12-09T10:28:25Z</time>
      </trkpt>
      <trkpt lat="45.38934" lon="5.81907">
        <ele>1558.599975586</ele>
        <time>2012-12-09T10:28:32Z</time>
      </trkpt>
      <trkpt lat="45.38929" lon="5.81903">
        <ele>1561.199951172</ele>
        <time>2012-12-09T10:28:41Z</time>
      </trkpt>
      <trkpt lat="45.38927" lon="5.81902">
        <ele>1561.599975586</ele>
        <time>2012-12-09T10:28:47Z</time>
      </trkpt>
      <trkpt lat="45.38924" lon="5.819">
        <ele>1562.800048828</ele>
        <time>2012-12-09T10:28:52Z</time>
      </trkpt>
      <trkpt lat="45.38923" lon="5.81898">
        <ele>1563.400024414</ele>
        <time>2012-12-09T10:28:57Z</time>
      </trkpt>
      <trkpt lat="45.38918" lon="5.81896">
        <ele>1565.800048828</ele>
        <time>2012-12-09T10:29:04Z</time>
      </trkpt>
      <trkpt lat="45.38917" lon="5.81894">
        <ele>1566</ele>
        <time>2012-12-09T10:29:09Z</time>
      </trkpt>
      <trkpt lat="45.38915" lon="5.81891">
        <ele>1567.199951172</ele>
        <time>2012-12-09T10:29:15Z</time>
      </trkpt>
      <trkpt lat="45.38914" lon="5.81889">
        <ele>1567.599975586</ele>
        <time>2012-12-09T10:29:22Z</time>
      </trkpt>
      <trkpt lat="45.38911" lon="5.81887">
        <ele>1569</ele>
        <time>2012-12-09T10:29:29Z</time>
      </trkpt>
      <trkpt lat="45.38909" lon="5.81885">
        <ele>1570</ele>
        <time>2012-12-09T10:29:34Z</time>
      </trkpt>
      <trkpt lat="45.38906" lon="5.81881">
        <ele>1571.599975586</ele>
        <time>2012-12-09T10:29:40Z</time>
      </trkpt>
      <trkpt lat="45.38902" lon="5.81877">
        <ele>1573.400024414</ele>
        <time>2012-12-09T10:29:45Z</time>
      </trkpt>
      <trkpt lat="45.38899" lon="5.81872">
        <ele>1574.800048828</ele>
        <time>2012-12-09T10:29:53Z</time>
      </trkpt>
      <trkpt lat="45.38896" lon="5.81866">
        <ele>1576.599975586</ele>
        <time>2012-12-09T10:30:00Z</time>
      </trkpt>
      <trkpt lat="45.38893" lon="5.81861">
        <ele>1577.800048828</ele>
        <time>2012-12-09T10:30:07Z</time>
      </trkpt>
      <trkpt lat="45.3889" lon="5.81857">
        <ele>1579</ele>
        <time>2012-12-09T10:30:14Z</time>
      </trkpt>
      <trkpt lat="45.38887" lon="5.81854">
        <ele>1580.599975586</ele>
        <time>2012-12-09T10:30:19Z</time>
      </trkpt>
      <trkpt lat="45.38884" lon="5.81851">
        <ele>1581.800048828</ele>
        <time>2012-12-09T10:30:25Z</time>
      </trkpt>
      <trkpt lat="45.38881" lon="5.81847">
        <ele>1583.400024414</ele>
        <time>2012-12-09T10:30:31Z</time>
      </trkpt>
      <trkpt lat="45.38879" lon="5.81844">
        <ele>1584.199951172</ele>
        <time>2012-12-09T10:30:36Z</time>
      </trkpt>
      <trkpt lat="45.38876" lon="5.81838">
        <ele>1585.400024414</ele>
        <time>2012-12-09T10:30:43Z</time>
      </trkpt>
      <trkpt lat="45.38872" lon="5.81831">
        <ele>1586.800048828</ele>
        <time>2012-12-09T10:30:50Z</time>
      </trkpt>
      <trkpt lat="45.38869" lon="5.81823">
        <ele>1588</ele>
        <time>2012-12-09T10:30:58Z</time>
      </trkpt>
      <trkpt lat="45.38867" lon="5.81818">
        <ele>1588.599975586</ele>
        <time>2012-12-09T10:31:04Z</time>
      </trkpt>
      <trkpt lat="45.38864" lon="5.81814">
        <ele>1589.599975586</ele>
        <time>2012-12-09T10:31:11Z</time>
      </trkpt>
      <trkpt lat="45.38862" lon="5.81813">
        <ele>1590.400024414</ele>
        <time>2012-12-09T10:31:15Z</time>
      </trkpt>
      <trkpt lat="45.3886" lon="5.81811">
        <ele>1590.800048828</ele>
        <time>2012-12-09T10:31:19Z</time>
      </trkpt>
      <trkpt lat="45.3886" lon="5.81807">
        <ele>1590.400024414</ele>
        <time>2012-12-09T10:31:24Z</time>
      </trkpt>
      <trkpt lat="45.3886" lon="5.81799">
        <ele>1589.800048828</ele>
        <time>2012-12-09T10:31:31Z</time>
      </trkpt>
      <trkpt lat="45.3886" lon="5.81788">
        <ele>1588.800048828</ele>
        <time>2012-12-09T10:31:39Z</time>
      </trkpt>
      <trkpt lat="45.38859" lon="5.81779">
        <ele>1588.199951172</ele>
        <time>2012-12-09T10:31:46Z</time>
      </trkpt>
      <trkpt lat="45.38857" lon="5.81772">
        <ele>1587.800048828</ele>
        <time>2012-12-09T10:31:51Z</time>
      </trkpt>
      <trkpt lat="45.38853" lon="5.81765">
        <ele>1587.599975586</ele>
        <time>2012-12-09T10:31:57Z</time>
      </trkpt>
      <trkpt lat="45.38846" lon="5.81754">
        <ele>1587.199951172</ele>
        <time>2012-12-09T10:32:06Z</time>
      </trkpt>
      <trkpt lat="45.38841" lon="5.81746">
        <ele>1587.199951172</ele>
        <time>2012-12-09T10:32:13Z</time>
      </trkpt>
      <trkpt lat="45.38837" lon="5.81738">
        <ele>1587.599975586</ele>
        <time>2012-12-09T10:32:20Z</time>
      </trkpt>
      <trkpt lat="45.38834" lon="5.81728">
        <ele>1588</ele>
        <time>2012-12-09T10:32:27Z</time>
      </trkpt>
      <trkpt lat="45.38831" lon="5.81719">
        <ele>1588.599975586</ele>
        <time>2012-12-09T10:32:33Z</time>
      </trkpt>
      <trkpt lat="45.38823" lon="5.81712">
        <ele>1590</ele>
        <time>2012-12-09T10:32:40Z</time>
      </trkpt>
      <trkpt lat="45.38817" lon="5.8171">
        <ele>1591.199951172</ele>
        <time>2012-12-09T10:32:48Z</time>
      </trkpt>
      <trkpt lat="45.38809" lon="5.81709">
        <ele>1592.400024414</ele>
        <time>2012-12-09T10:32:54Z</time>
      </trkpt>
      <trkpt lat="45.38801" lon="5.81708">
        <ele>1593.599975586</ele>
        <time>2012-12-09T10:32:59Z</time>
      </trkpt>
      <trkpt lat="45.38799" lon="5.81708">
        <ele>1594</ele>
        <time>2012-12-09T10:33:03Z</time>
      </trkpt>
      <trkpt lat="45.38799" lon="5.81708">
        <ele>1594</ele>
        <time>2012-12-09T10:33:05Z</time>
      </trkpt>
      <trkpt lat="45.38796" lon="5.81708">
        <ele>1594.400024414</ele>
        <time>2012-12-09T10:33:10Z</time>
      </trkpt>
      <trkpt lat="45.38791" lon="5.81704">
        <ele>1594.800048828</ele>
        <time>2012-12-09T10:33:18Z</time>
      </trkpt>
      <trkpt lat="45.38785" lon="5.81699">
        <ele>1595</ele>
        <time>2012-12-09T10:33:25Z</time>
      </trkpt>
      <trkpt lat="45.38776" lon="5.81692">
        <ele>1595.199951172</ele>
        <time>2012-12-09T10:33:33Z</time>
      </trkpt>
      <trkpt lat="45.38769" lon="5.81687">
        <ele>1595.400024414</ele>
        <time>2012-12-09T10:33:40Z</time>
      </trkpt>
      <trkpt lat="45.38763" lon="5.81682">
        <ele>1595</ele>
        <time>2012-12-09T10:33:47Z</time>
      </trkpt>
      <trkpt lat="45.38757" lon="5.81678">
        <ele>1594.800048828</ele>
        <time>2012-12-09T10:33:54Z</time>
      </trkpt>
      <trkpt lat="45.3875" lon="5.81673">
        <ele>1594.400024414</ele>
        <time>2012-12-09T10:34:01Z</time>
      </trkpt>
      <trkpt lat="45.38745" lon="5.81669">
        <ele>1594.400024414</ele>
        <time>2012-12-09T10:34:07Z</time>
      </trkpt>
      <trkpt lat="45.38738" lon="5.81664">
        <ele>1595.599975586</ele>
        <time>2012-12-09T10:34:15Z</time>
      </trkpt>
      <trkpt lat="45.38733" lon="5.81661">
        <ele>1597</ele>
        <time>2012-12-09T10:34:21Z</time>
      </trkpt>
      <trkpt lat="45.38727" lon="5.81657">
        <ele>1598.400024414</ele>
        <time>2012-12-09T10:34:28Z</time>
      </trkpt>
      <trkpt lat="45.3872" lon="5.81654">
        <ele>1600</ele>
        <time>2012-12-09T10:34:35Z</time>
      </trkpt>
      <trkpt lat="45.38713" lon="5.81649">
        <ele>1601.400024414</ele>
        <time>2012-12-09T10:34:43Z</time>
      </trkpt>
      <trkpt lat="45.38707" lon="5.81646">
        <ele>1602.400024414</ele>
        <time>2012-12-09T10:34:50Z</time>
      </trkpt>
      <trkpt lat="45.387" lon="5.81642">
        <ele>1603.400024414</ele>
        <time>2012-12-09T10:34:58Z</time>
      </trkpt>
      <trkpt lat="45.38695" lon="5.81638">
        <ele>1604.199951172</ele>
        <time>2012-12-09T10:35:05Z</time>
      </trkpt>
      <trkpt lat="45.38689" lon="5.81632">
        <ele>1604.800048828</ele>
        <time>2012-12-09T10:35:13Z</time>
      </trkpt>
      <trkpt lat="45.38687" lon="5.81632">
        <ele>1605</ele>
        <time>2012-12-09T10:35:15Z</time>
      </trkpt>
      <trkpt lat="45.38682" lon="5.8163">
        <ele>1605.400024414</ele>
        <time>2012-12-09T10:35:21Z</time>
      </trkpt>
      <trkpt lat="45.38676" lon="5.81626">
        <ele>1605.800048828</ele>
        <time>2012-12-09T10:35:28Z</time>
      </trkpt>
      <trkpt lat="45.38675" lon="5.81625">
        <ele>1605.800048828</ele>
        <time>2012-12-09T10:35:30Z</time>
      </trkpt>
      <trkpt lat="45.38671" lon="5.81623">
        <ele>1606</ele>
        <time>2012-12-09T10:35:35Z</time>
      </trkpt>
      <trkpt lat="45.38664" lon="5.8162">
        <ele>1606.599975586</ele>
        <time>2012-12-09T10:35:43Z</time>
      </trkpt>
      <trkpt lat="45.38659" lon="5.81617">
        <ele>1607.400024414</ele>
        <time>2012-12-09T10:35:49Z</time>
      </trkpt>
      <trkpt lat="45.38656" lon="5.81614">
        <ele>1607.800048828</ele>
        <time>2012-12-09T10:35:53Z</time>
      </trkpt>
      <trkpt lat="45.38654" lon="5.81613">
        <ele>1608</ele>
        <time>2012-12-09T10:35:56Z</time>
      </trkpt>
      <trkpt lat="45.38649" lon="5.81609">
        <ele>1608.599975586</ele>
        <time>2012-12-09T10:36:03Z</time>
      </trkpt>
      <trkpt lat="45.38645" lon="5.81605">
        <ele>1609</ele>
        <time>2012-12-09T10:36:09Z</time>
      </trkpt>
      <trkpt lat="45.3864" lon="5.816">
        <ele>1609.400024414</ele>
        <time>2012-12-09T10:36:16Z</time>
      </trkpt>
      <trkpt lat="45.38636" lon="5.81597">
        <ele>1609.599975586</ele>
        <time>2012-12-09T10:36:23Z</time>
      </trkpt>
      <trkpt lat="45.38632" lon="5.81594">
        <ele>1610</ele>
        <time>2012-12-09T10:36:30Z</time>
      </trkpt>
      <trkpt lat="45.38628" lon="5.81591">
        <ele>1610.199951172</ele>
        <time>2012-12-09T10:36:36Z</time>
      </trkpt>
      <trkpt lat="45.38623" lon="5.81587">
        <ele>1610.599975586</ele>
        <time>2012-12-09T10:36:43Z</time>
      </trkpt>
      <trkpt lat="45.38619" lon="5.81584">
        <ele>1610.800048828</ele>
        <time>2012-12-09T10:36:49Z</time>
      </trkpt>
      <trkpt lat="45.38614" lon="5.8158">
        <ele>1612.199951172</ele>
        <time>2012-12-09T10:36:57Z</time>
      </trkpt>
      <trkpt lat="45.38611" lon="5.81577">
        <ele>1613.199951172</ele>
        <time>2012-12-09T10:37:03Z</time>
      </trkpt>
      <trkpt lat="45.38607" lon="5.81574">
        <ele>1614.400024414</ele>
        <time>2012-12-09T10:37:10Z</time>
      </trkpt>
      <trkpt lat="45.38603" lon="5.81571">
        <ele>1615.400024414</ele>
        <time>2012-12-09T10:37:16Z</time>
      </trkpt>
      <trkpt lat="45.386" lon="5.81569">
        <ele>1616.400024414</ele>
        <time>2012-12-09T10:37:21Z</time>
      </trkpt>
      <trkpt lat="45.38597" lon="5.81566">
        <ele>1617.199951172</ele>
        <time>2012-12-09T10:37:26Z</time>
      </trkpt>
      <trkpt lat="45.38594" lon="5.81562">
        <ele>1618.400024414</ele>
        <time>2012-12-09T10:37:33Z</time>
      </trkpt>
      <trkpt lat="45.38591" lon="5.81559">
        <ele>1619.400024414</ele>
        <time>2012-12-09T10:37:39Z</time>
      </trkpt>
      <trkpt lat="45.38588" lon="5.81556">
        <ele>1620.400024414</ele>
        <time>2012-12-09T10:37:45Z</time>
      </trkpt>
      <trkpt lat="45.38585" lon="5.81553">
        <ele>1621.199951172</ele>
        <time>2012-12-09T10:37:51Z</time>
      </trkpt>
      <trkpt lat="45.38584" lon="5.8155">
        <ele>1621.800048828</ele>
        <time>2012-12-09T10:37:56Z</time>
      </trkpt>
      <trkpt lat="45.38581" lon="5.81547">
        <ele>1623</ele>
        <time>2012-12-09T10:38:01Z</time>
      </trkpt>
      <trkpt lat="45.3858" lon="5.81546">
        <ele>1623.800048828</ele>
        <time>2012-12-09T10:38:05Z</time>
      </trkpt>
      <trkpt lat="45.38578" lon="5.81544">
        <ele>1624.800048828</ele>
        <time>2012-12-09T10:38:09Z</time>
      </trkpt>
      <trkpt lat="45.38576" lon="5.81542">
        <ele>1625.800048828</ele>
        <time>2012-12-09T10:38:14Z</time>
      </trkpt>
      <trkpt lat="45.38573" lon="5.8154">
        <ele>1626.800048828</ele>
        <time>2012-12-09T10:38:19Z</time>
      </trkpt>
      <trkpt lat="45.38571" lon="5.81539">
        <ele>1627.599975586</ele>
        <time>2012-12-09T10:38:23Z</time>
      </trkpt>
      <trkpt lat="45.38568" lon="5.81536">
        <ele>1628.800048828</ele>
        <time>2012-12-09T10:38:29Z</time>
      </trkpt>
      <trkpt lat="45.38566" lon="5.81535">
        <ele>1629.599975586</ele>
        <time>2012-12-09T10:38:33Z</time>
      </trkpt>
      <trkpt lat="45.38565" lon="5.81533">
        <ele>1630.199951172</ele>
        <time>2012-12-09T10:38:37Z</time>
      </trkpt>
      <trkpt lat="45.38563" lon="5.81531">
        <ele>1631</ele>
        <time>2012-12-09T10:38:41Z</time>
      </trkpt>
      <trkpt lat="45.38561" lon="5.8153">
        <ele>1631.800048828</ele>
        <time>2012-12-09T10:38:46Z</time>
      </trkpt>
      <trkpt lat="45.38559" lon="5.81529">
        <ele>1632.400024414</ele>
        <time>2012-12-09T10:38:50Z</time>
      </trkpt>
      <trkpt lat="45.38558" lon="5.81529">
        <ele>1632.800048828</ele>
        <time>2012-12-09T10:38:54Z</time>
      </trkpt>
      <trkpt lat="45.38555" lon="5.81528">
        <ele>1633.400024414</ele>
        <time>2012-12-09T10:39:02Z</time>
      </trkpt>
      <trkpt lat="45.38554" lon="5.81527">
        <ele>1634</ele>
        <time>2012-12-09T10:39:06Z</time>
      </trkpt>
      <trkpt lat="45.38552" lon="5.81527">
        <ele>1634.400024414</ele>
        <time>2012-12-09T10:39:11Z</time>
      </trkpt>
      <trkpt lat="45.3855" lon="5.81526">
        <ele>1635</ele>
        <time>2012-12-09T10:39:15Z</time>
      </trkpt>
      <trkpt lat="45.38548" lon="5.81526">
        <ele>1635.400024414</ele>
        <time>2012-12-09T10:39:19Z</time>
      </trkpt>
      <trkpt lat="45.38546" lon="5.81525">
        <ele>1636</ele>
        <time>2012-12-09T10:39:23Z</time>
      </trkpt>
      <trkpt lat="45.38544" lon="5.81524">
        <ele>1636.599975586</ele>
        <time>2012-12-09T10:39:28Z</time>
      </trkpt>
      <trkpt lat="45.38542" lon="5.81523">
        <ele>1637.199951172</ele>
        <time>2012-12-09T10:39:32Z</time>
      </trkpt>
      <trkpt lat="45.38539" lon="5.81523">
        <ele>1637.800048828</ele>
        <time>2012-12-09T10:39:36Z</time>
      </trkpt>
      <trkpt lat="45.38537" lon="5.81522">
        <ele>1638.400024414</ele>
        <time>2012-12-09T10:39:41Z</time>
      </trkpt>
      <trkpt lat="45.38535" lon="5.81521">
        <ele>1638.800048828</ele>
        <time>2012-12-09T10:39:45Z</time>
      </trkpt>
      <trkpt lat="45.38534" lon="5.8152">
        <ele>1639.199951172</ele>
        <time>2012-12-09T10:39:49Z</time>
      </trkpt>
      <trkpt lat="45.38532" lon="5.81519">
        <ele>1639.599975586</ele>
        <time>2012-12-09T10:39:53Z</time>
      </trkpt>
      <trkpt lat="45.3853" lon="5.81518">
        <ele>1640.199951172</ele>
        <time>2012-12-09T10:39:59Z</time>
      </trkpt>
      <trkpt lat="45.38528" lon="5.81516">
        <ele>1640.400024414</ele>
        <time>2012-12-09T10:40:04Z</time>
      </trkpt>
      <trkpt lat="45.38527" lon="5.81515">
        <ele>1640.800048828</ele>
        <time>2012-12-09T10:40:08Z</time>
      </trkpt>
      <trkpt lat="45.38524" lon="5.81514">
        <ele>1641.199951172</ele>
        <time>2012-12-09T10:40:14Z</time>
      </trkpt>
      <trkpt lat="45.38523" lon="5.81514">
        <ele>1641.599975586</ele>
        <time>2012-12-09T10:40:19Z</time>
      </trkpt>
      <trkpt lat="45.38521" lon="5.81513">
        <ele>1642</ele>
        <time>2012-12-09T10:40:24Z</time>
      </trkpt>
      <trkpt lat="45.38519" lon="5.81512">
        <ele>1642.199951172</ele>
        <time>2012-12-09T10:40:29Z</time>
      </trkpt>
      <trkpt lat="45.38517" lon="5.81511">
        <ele>1642.599975586</ele>
        <time>2012-12-09T10:40:34Z</time>
      </trkpt>
      <trkpt lat="45.38515" lon="5.8151">
        <ele>1643</ele>
        <time>2012-12-09T10:40:40Z</time>
      </trkpt>
      <trkpt lat="45.38513" lon="5.81508">
        <ele>1643.199951172</ele>
        <time>2012-12-09T10:40:44Z</time>
      </trkpt>
      <trkpt lat="45.38511" lon="5.81507">
        <ele>1643.599975586</ele>
        <time>2012-12-09T10:40:49Z</time>
      </trkpt>
      <trkpt lat="45.38508" lon="5.81506">
        <ele>1644</ele>
        <time>2012-12-09T10:40:54Z</time>
      </trkpt>
      <trkpt lat="45.38505" lon="5.81504">
        <ele>1644.400024414</ele>
        <time>2012-12-09T10:41:00Z</time>
      </trkpt>
      <trkpt lat="45.38501" lon="5.81502">
        <ele>1645</ele>
        <time>2012-12-09T10:41:07Z</time>
      </trkpt>
      <trkpt lat="45.38496" lon="5.815">
        <ele>1646.400024414</ele>
        <time>2012-12-09T10:41:15Z</time>
      </trkpt>
      <trkpt lat="45.38494" lon="5.81498">
        <ele>1647.400024414</ele>
        <time>2012-12-09T10:41:20Z</time>
      </trkpt>
      <trkpt lat="45.38491" lon="5.81494">
        <ele>1648.800048828</ele>
        <time>2012-12-09T10:41:25Z</time>
      </trkpt>
      <trkpt lat="45.38489" lon="5.8149">
        <ele>1649.599975586</ele>
        <time>2012-12-09T10:41:31Z</time>
      </trkpt>
      <trkpt lat="45.38487" lon="5.81486">
        <ele>1650.400024414</ele>
        <time>2012-12-09T10:41:36Z</time>
      </trkpt>
      <trkpt lat="45.38484" lon="5.81479">
        <ele>1651.400024414</ele>
        <time>2012-12-09T10:41:43Z</time>
      </trkpt>
      <trkpt lat="45.38481" lon="5.81473">
        <ele>1652.400024414</ele>
        <time>2012-12-09T10:41:49Z</time>
      </trkpt>
      <trkpt lat="45.38479" lon="5.81466">
        <ele>1653</ele>
        <time>2012-12-09T10:41:56Z</time>
      </trkpt>
      <trkpt lat="45.38476" lon="5.8146">
        <ele>1653.199951172</ele>
        <time>2012-12-09T10:42:03Z</time>
      </trkpt>
      <trkpt lat="45.38474" lon="5.81454">
        <ele>1653.599975586</ele>
        <time>2012-12-09T10:42:09Z</time>
      </trkpt>
      <trkpt lat="45.38472" lon="5.81449">
        <ele>1653.599975586</ele>
        <time>2012-12-09T10:42:14Z</time>
      </trkpt>
      <trkpt lat="45.3847" lon="5.81444">
        <ele>1653.599975586</ele>
        <time>2012-12-09T10:42:20Z</time>
      </trkpt>
      <trkpt lat="45.38469" lon="5.8144">
        <ele>1653.599975586</ele>
        <time>2012-12-09T10:42:24Z</time>
      </trkpt>
      <trkpt lat="45.38466" lon="5.81434">
        <ele>1653.400024414</ele>
        <time>2012-12-09T10:42:31Z</time>
      </trkpt>
      <trkpt lat="45.38464" lon="5.81429">
        <ele>1653</ele>
        <time>2012-12-09T10:42:37Z</time>
      </trkpt>
      <trkpt lat="45.38462" lon="5.81426">
        <ele>1652.800048828</ele>
        <time>2012-12-09T10:42:42Z</time>
      </trkpt>
      <trkpt lat="45.38459" lon="5.81419">
        <ele>1652.199951172</ele>
        <time>2012-12-09T10:42:49Z</time>
      </trkpt>
      <trkpt lat="45.38457" lon="5.81414">
        <ele>1652.400024414</ele>
        <time>2012-12-09T10:42:55Z</time>
      </trkpt>
      <trkpt lat="45.38455" lon="5.81408">
        <ele>1653.199951172</ele>
        <time>2012-12-09T10:43:00Z</time>
      </trkpt>
      <trkpt lat="45.38455" lon="5.81407">
        <ele>1653.400024414</ele>
        <time>2012-12-09T10:43:01Z</time>
      </trkpt>
      <trkpt lat="45.38453" lon="5.81401">
        <ele>1654.199951172</ele>
        <time>2012-12-09T10:43:07Z</time>
      </trkpt>
      <trkpt lat="45.3845" lon="5.81394">
        <ele>1655</ele>
        <time>2012-12-09T10:43:14Z</time>
      </trkpt>
      <trkpt lat="45.38448" lon="5.81386">
        <ele>1656</ele>
        <time>2012-12-09T10:43:22Z</time>
      </trkpt>
      <trkpt lat="45.38446" lon="5.81379">
        <ele>1656.800048828</ele>
        <time>2012-12-09T10:43:28Z</time>
      </trkpt>
      <trkpt lat="45.38443" lon="5.81371">
        <ele>1657.599975586</ele>
        <time>2012-12-09T10:43:35Z</time>
      </trkpt>
      <trkpt lat="45.3844" lon="5.81364">
        <ele>1658.199951172</ele>
        <time>2012-12-09T10:43:42Z</time>
      </trkpt>
      <trkpt lat="45.38437" lon="5.81357">
        <ele>1658.800048828</ele>
        <time>2012-12-09T10:43:50Z</time>
      </trkpt>
      <trkpt lat="45.38434" lon="5.8135">
        <ele>1659</ele>
        <time>2012-12-09T10:43:58Z</time>
      </trkpt>
      <trkpt lat="45.38431" lon="5.81344">
        <ele>1659.400024414</ele>
        <time>2012-12-09T10:44:05Z</time>
      </trkpt>
      <trkpt lat="45.38429" lon="5.81338">
        <ele>1659.599975586</ele>
        <time>2012-12-09T10:44:12Z</time>
      </trkpt>
      <trkpt lat="45.38428" lon="5.81335">
        <ele>1659.800048828</ele>
        <time>2012-12-09T10:44:16Z</time>
      </trkpt>
      <trkpt lat="45.38426" lon="5.8133">
        <ele>1660.599975586</ele>
        <time>2012-12-09T10:44:22Z</time>
      </trkpt>
      <trkpt lat="45.38426" lon="5.81326">
        <ele>1661.199951172</ele>
        <time>2012-12-09T10:44:27Z</time>
      </trkpt>
      <trkpt lat="45.38428" lon="5.81324">
        <ele>1662</ele>
        <time>2012-12-09T10:45:19Z</time>
      </trkpt>
      <trkpt lat="45.38425" lon="5.81318">
        <ele>1663</ele>
        <time>2012-12-09T10:45:31Z</time>
      </trkpt>
      <trkpt lat="45.38425" lon="5.81314">
        <ele>1664</ele>
        <time>2012-12-09T10:45:37Z</time>
      </trkpt>
      <trkpt lat="45.38424" lon="5.81311">
        <ele>1664.599975586</ele>
        <time>2012-12-09T10:45:41Z</time>
      </trkpt>
      <trkpt lat="45.38424" lon="5.81306">
        <ele>1665.800048828</ele>
        <time>2012-12-09T10:45:47Z</time>
      </trkpt>
      <trkpt lat="45.38424" lon="5.81302">
        <ele>1666.599975586</ele>
        <time>2012-12-09T10:45:51Z</time>
      </trkpt>
      <trkpt lat="45.38423" lon="5.81299">
        <ele>1667.199951172</ele>
        <time>2012-12-09T10:45:55Z</time>
      </trkpt>
      <trkpt lat="45.38423" lon="5.81293">
        <ele>1668.400024414</ele>
        <time>2012-12-09T10:46:02Z</time>
      </trkpt>
      <trkpt lat="45.38422" lon="5.81289">
        <ele>1669.400024414</ele>
        <time>2012-12-09T10:46:07Z</time>
      </trkpt>
      <trkpt lat="45.38421" lon="5.81285">
        <ele>1670.199951172</ele>
        <time>2012-12-09T10:46:13Z</time>
      </trkpt>
      <trkpt lat="45.38421" lon="5.81282">
        <ele>1670.800048828</ele>
        <time>2012-12-09T10:46:18Z</time>
      </trkpt>
      <trkpt lat="45.3842" lon="5.81279">
        <ele>1671.400024414</ele>
        <time>2012-12-09T10:46:22Z</time>
      </trkpt>
      <trkpt lat="45.38419" lon="5.81275">
        <ele>1672.199951172</ele>
        <time>2012-12-09T10:46:28Z</time>
      </trkpt>
      <trkpt lat="45.38418" lon="5.81272">
        <ele>1673</ele>
        <time>2012-12-09T10:46:33Z</time>
      </trkpt>
      <trkpt lat="45.38417" lon="5.81269">
        <ele>1673.599975586</ele>
        <time>2012-12-09T10:46:38Z</time>
      </trkpt>
      <trkpt lat="45.38416" lon="5.81265">
        <ele>1674.199951172</ele>
        <time>2012-12-09T10:46:43Z</time>
      </trkpt>
      <trkpt lat="45.38415" lon="5.81263">
        <ele>1674.599975586</ele>
        <time>2012-12-09T10:46:47Z</time>
      </trkpt>
      <trkpt lat="45.38415" lon="5.8126">
        <ele>1675.199951172</ele>
        <time>2012-12-09T10:46:51Z</time>
      </trkpt>
      <trkpt lat="45.38417" lon="5.81259">
        <ele>1675.800048828</ele>
        <time>2012-12-09T10:46:56Z</time>
      </trkpt>
      <trkpt lat="45.38421" lon="5.81258">
        <ele>1676.599975586</ele>
        <time>2012-12-09T10:47:03Z</time>
      </trkpt>
      <trkpt lat="45.38425" lon="5.81257">
        <ele>1677.599975586</ele>
        <time>2012-12-09T10:47:11Z</time>
      </trkpt>
      <trkpt lat="45.38429" lon="5.81256">
        <ele>1678.400024414</ele>
        <time>2012-12-09T10:47:17Z</time>
      </trkpt>
      <trkpt lat="45.38432" lon="5.81255">
        <ele>1679.199951172</ele>
        <time>2012-12-09T10:47:22Z</time>
      </trkpt>
      <trkpt lat="45.38436" lon="5.81255">
        <ele>1679.800048828</ele>
        <time>2012-12-09T10:47:28Z</time>
      </trkpt>
      <trkpt lat="45.38441" lon="5.81254">
        <ele>1680.599975586</ele>
        <time>2012-12-09T10:47:35Z</time>
      </trkpt>
      <trkpt lat="45.38445" lon="5.81255">
        <ele>1681.199951172</ele>
        <time>2012-12-09T10:47:41Z</time>
      </trkpt>
      <trkpt lat="45.38449" lon="5.81255">
        <ele>1681.599975586</ele>
        <time>2012-12-09T10:47:47Z</time>
      </trkpt>
      <trkpt lat="45.3845" lon="5.81255">
        <ele>1682</ele>
        <time>2012-12-09T10:47:51Z</time>
      </trkpt>
      <trkpt lat="45.38452" lon="5.81253">
        <ele>1682.800048828</ele>
        <time>2012-12-09T10:47:56Z</time>
      </trkpt>
      <trkpt lat="45.38453" lon="5.81248">
        <ele>1684</ele>
        <time>2012-12-09T10:48:03Z</time>
      </trkpt>
      <trkpt lat="45.38452" lon="5.81245">
        <ele>1684.599975586</ele>
        <time>2012-12-09T10:48:10Z</time>
      </trkpt>
      <trkpt lat="45.38451" lon="5.81243">
        <ele>1685</ele>
        <time>2012-12-09T10:48:17Z</time>
      </trkpt>
      <trkpt lat="45.38451" lon="5.81238">
        <ele>1686</ele>
        <time>2012-12-09T10:48:30Z</time>
      </trkpt>
      <trkpt lat="45.38453" lon="5.81237">
        <ele>1686.800048828</ele>
        <time>2012-12-09T10:48:34Z</time>
      </trkpt>
      <trkpt lat="45.38455" lon="5.81237">
        <ele>1687</ele>
        <time>2012-12-09T10:48:40Z</time>
      </trkpt>
      <trkpt lat="45.38452" lon="5.81233">
        <ele>1687.599975586</ele>
        <time>2012-12-09T10:48:47Z</time>
      </trkpt>
      <trkpt lat="45.3845" lon="5.8123">
        <ele>1688</ele>
        <time>2012-12-09T10:48:53Z</time>
      </trkpt>
      <trkpt lat="45.38448" lon="5.81227">
        <ele>1688.400024414</ele>
        <time>2012-12-09T10:49:01Z</time>
      </trkpt>
      <trkpt lat="45.38448" lon="5.81228">
        <ele>1688</ele>
        <time>2012-12-09T10:49:07Z</time>
      </trkpt>
      <trkpt lat="45.38444" lon="5.81223">
        <ele>1688.400024414</ele>
        <time>2012-12-09T10:49:14Z</time>
      </trkpt>
      <trkpt lat="45.38442" lon="5.8122">
        <ele>1689</ele>
        <time>2012-12-09T10:49:21Z</time>
      </trkpt>
      <trkpt lat="45.3844" lon="5.81216">
        <ele>1689.400024414</ele>
        <time>2012-12-09T10:49:27Z</time>
      </trkpt>
      <trkpt lat="45.38437" lon="5.81211">
        <ele>1690.199951172</ele>
        <time>2012-12-09T10:49:34Z</time>
      </trkpt>
      <trkpt lat="45.38435" lon="5.81207">
        <ele>1690.800048828</ele>
        <time>2012-12-09T10:49:40Z</time>
      </trkpt>
      <trkpt lat="45.38436" lon="5.81205">
        <ele>1691.400024414</ele>
        <time>2012-12-09T10:49:45Z</time>
      </trkpt>
      <trkpt lat="45.38442" lon="5.81205">
        <ele>1692.599975586</ele>
        <time>2012-12-09T10:49:53Z</time>
      </trkpt>
      <trkpt lat="45.38444" lon="5.81204">
        <ele>1693</ele>
        <time>2012-12-09T10:50:00Z</time>
      </trkpt>
      <trkpt lat="45.38448" lon="5.81202">
        <ele>1694.199951172</ele>
        <time>2012-12-09T10:50:07Z</time>
      </trkpt>
      <trkpt lat="45.38451" lon="5.81201">
        <ele>1695</ele>
        <time>2012-12-09T10:50:12Z</time>
      </trkpt>
      <trkpt lat="45.38455" lon="5.81198">
        <ele>1696.199951172</ele>
        <time>2012-12-09T10:50:20Z</time>
      </trkpt>
      <trkpt lat="45.3846" lon="5.81197">
        <ele>1697.599975586</ele>
        <time>2012-12-09T10:50:27Z</time>
      </trkpt>
      <trkpt lat="45.38463" lon="5.81193">
        <ele>1698.800048828</ele>
        <time>2012-12-09T10:50:33Z</time>
      </trkpt>
      <trkpt lat="45.38466" lon="5.81191">
        <ele>1700</ele>
        <time>2012-12-09T10:50:39Z</time>
      </trkpt>
      <trkpt lat="45.38469" lon="5.81188">
        <ele>1701</ele>
        <time>2012-12-09T10:50:44Z</time>
      </trkpt>
      <trkpt lat="45.38471" lon="5.81185">
        <ele>1702.199951172</ele>
        <time>2012-12-09T10:50:49Z</time>
      </trkpt>
      <trkpt lat="45.38471" lon="5.81183">
        <ele>1702.800048828</ele>
        <time>2012-12-09T10:50:53Z</time>
      </trkpt>
      <trkpt lat="45.38469" lon="5.81179">
        <ele>1703.199951172</ele>
        <time>2012-12-09T10:50:59Z</time>
      </trkpt>
      <trkpt lat="45.38467" lon="5.81178">
        <ele>1703.400024414</ele>
        <time>2012-12-09T10:51:03Z</time>
      </trkpt>
      <trkpt lat="45.38465" lon="5.81173">
        <ele>1704</ele>
        <time>2012-12-09T10:51:09Z</time>
      </trkpt>
      <trkpt lat="45.38463" lon="5.81169">
        <ele>1704.599975586</ele>
        <time>2012-12-09T10:51:15Z</time>
      </trkpt>
      <trkpt lat="45.38463" lon="5.81165">
        <ele>1705.599975586</ele>
        <time>2012-12-09T10:51:19Z</time>
      </trkpt>
      <trkpt lat="45.38464" lon="5.81164">
        <ele>1706.400024414</ele>
        <time>2012-12-09T10:51:23Z</time>
      </trkpt>
      <trkpt lat="45.38467" lon="5.81162">
        <ele>1707.400024414</ele>
        <time>2012-12-09T10:51:28Z</time>
      </trkpt>
      <trkpt lat="45.3847" lon="5.8116">
        <ele>1708.599975586</ele>
        <time>2012-12-09T10:51:33Z</time>
      </trkpt>
      <trkpt lat="45.38473" lon="5.81156">
        <ele>1710.199951172</ele>
        <time>2012-12-09T10:51:39Z</time>
      </trkpt>
      <trkpt lat="45.38473" lon="5.81153">
        <ele>1711.199951172</ele>
        <time>2012-12-09T10:51:45Z</time>
      </trkpt>
      <trkpt lat="45.38471" lon="5.81151">
        <ele>1711.599975586</ele>
        <time>2012-12-09T10:51:49Z</time>
      </trkpt>
      <trkpt lat="45.38468" lon="5.81146">
        <ele>1712.400024414</ele>
        <time>2012-12-09T10:51:56Z</time>
      </trkpt>
      <trkpt lat="45.38466" lon="5.81144">
        <ele>1712.800048828</ele>
        <time>2012-12-09T10:52:01Z</time>
      </trkpt>
      <trkpt lat="45.38462" lon="5.81138">
        <ele>1714</ele>
        <time>2012-12-09T10:52:09Z</time>
      </trkpt>
      <trkpt lat="45.3846" lon="5.81134">
        <ele>1714.800048828</ele>
        <time>2012-12-09T10:52:15Z</time>
      </trkpt>
      <trkpt lat="45.38459" lon="5.81131">
        <ele>1715.400024414</ele>
        <time>2012-12-09T10:52:19Z</time>
      </trkpt>
      <trkpt lat="45.38456" lon="5.81126">
        <ele>1716.400024414</ele>
        <time>2012-12-09T10:52:26Z</time>
      </trkpt>
      <trkpt lat="45.38454" lon="5.81123">
        <ele>1717</ele>
        <time>2012-12-09T10:52:30Z</time>
      </trkpt>
      <trkpt lat="45.38452" lon="5.81118">
        <ele>1718.199951172</ele>
        <time>2012-12-09T10:52:38Z</time>
      </trkpt>
      <trkpt lat="45.38453" lon="5.81116">
        <ele>1718.800048828</ele>
        <time>2012-12-09T10:52:44Z</time>
      </trkpt>
      <trkpt lat="45.38457" lon="5.81115">
        <ele>1720</ele>
        <time>2012-12-09T10:52:51Z</time>
      </trkpt>
      <trkpt lat="45.3846" lon="5.81113">
        <ele>1721.199951172</ele>
        <time>2012-12-09T10:52:58Z</time>
      </trkpt>
      <trkpt lat="45.38465" lon="5.81111">
        <ele>1722.800048828</ele>
        <time>2012-12-09T10:53:05Z</time>
      </trkpt>
      <trkpt lat="45.38467" lon="5.8111">
        <ele>1723.400024414</ele>
        <time>2012-12-09T10:53:09Z</time>
      </trkpt>
      <trkpt lat="45.3847" lon="5.81109">
        <ele>1724.199951172</ele>
        <time>2012-12-09T10:53:14Z</time>
      </trkpt>
      <trkpt lat="45.38474" lon="5.81108">
        <ele>1725.400024414</ele>
        <time>2012-12-09T10:53:23Z</time>
      </trkpt>
      <trkpt lat="45.38473" lon="5.81104">
        <ele>1726.400024414</ele>
        <time>2012-12-09T10:53:29Z</time>
      </trkpt>
      <trkpt lat="45.38474" lon="5.81098">
        <ele>1728.400024414</ele>
        <time>2012-12-09T10:53:36Z</time>
      </trkpt>
      <trkpt lat="45.38478" lon="5.81097">
        <ele>1729.599975586</ele>
        <time>2012-12-09T10:53:44Z</time>
      </trkpt>
      <trkpt lat="45.38481" lon="5.81097">
        <ele>1730</ele>
        <time>2012-12-09T10:53:50Z</time>
      </trkpt>
      <trkpt lat="45.38485" lon="5.81097">
        <ele>1730.800048828</ele>
        <time>2012-12-09T10:53:57Z</time>
      </trkpt>
      <trkpt lat="45.38489" lon="5.81095">
        <ele>1732.199951172</ele>
        <time>2012-12-09T10:54:03Z</time>
      </trkpt>
      <trkpt lat="45.38495" lon="5.8109">
        <ele>1734.800048828</ele>
        <time>2012-12-09T10:54:13Z</time>
      </trkpt>
      <trkpt lat="45.38499" lon="5.81088">
        <ele>1736.199951172</ele>
        <time>2012-12-09T10:54:20Z</time>
      </trkpt>
      <trkpt lat="45.38502" lon="5.81085">
        <ele>1737.199951172</ele>
        <time>2012-12-09T10:54:27Z</time>
      </trkpt>
      <trkpt lat="45.38505" lon="5.81082">
        <ele>1737.599975586</ele>
        <time>2012-12-09T10:54:34Z</time>
      </trkpt>
      <trkpt lat="45.38507" lon="5.81081">
        <ele>1737.599975586</ele>
        <time>2012-12-09T10:54:41Z</time>
      </trkpt>
      <trkpt lat="45.3851" lon="5.81079">
        <ele>1737.599975586</ele>
        <time>2012-12-09T10:54:48Z</time>
      </trkpt>
      <trkpt lat="45.38514" lon="5.81076">
        <ele>1737.599975586</ele>
        <time>2012-12-09T10:54:55Z</time>
      </trkpt>
      <trkpt lat="45.38518" lon="5.81073">
        <ele>1737.400024414</ele>
        <time>2012-12-09T10:55:02Z</time>
      </trkpt>
      <trkpt lat="45.38523" lon="5.81071">
        <ele>1737.199951172</ele>
        <time>2012-12-09T10:55:09Z</time>
      </trkpt>
      <trkpt lat="45.38527" lon="5.81068">
        <ele>1737</ele>
        <time>2012-12-09T10:55:17Z</time>
      </trkpt>
      <trkpt lat="45.38526" lon="5.81068">
        <ele>1737.199951172</ele>
        <time>2012-12-09T10:55:22Z</time>
      </trkpt>
      <trkpt lat="45.38523" lon="5.81066">
        <ele>1737.599975586</ele>
        <time>2012-12-09T10:55:27Z</time>
      </trkpt>
      <trkpt lat="45.38521" lon="5.81064">
        <ele>1738</ele>
        <time>2012-12-09T10:55:34Z</time>
      </trkpt>
      <trkpt lat="45.38526" lon="5.81062">
        <ele>1737.599975586</ele>
        <time>2012-12-09T10:55:44Z</time>
      </trkpt>
      <trkpt lat="45.3853" lon="5.8106">
        <ele>1737.199951172</ele>
        <time>2012-12-09T10:55:50Z</time>
      </trkpt>
      <trkpt lat="45.38535" lon="5.81057">
        <ele>1736.800048828</ele>
        <time>2012-12-09T10:55:58Z</time>
      </trkpt>
      <trkpt lat="45.38538" lon="5.81057">
        <ele>1736.400024414</ele>
        <time>2012-12-09T10:56:03Z</time>
      </trkpt>
      <trkpt lat="45.3854" lon="5.81056">
        <ele>1736.199951172</ele>
        <time>2012-12-09T10:56:07Z</time>
      </trkpt>
      <trkpt lat="45.38544" lon="5.81055">
        <ele>1735.800048828</ele>
        <time>2012-12-09T10:56:14Z</time>
      </trkpt>
      <trkpt lat="45.38546" lon="5.81054">
        <ele>1735.599975586</ele>
        <time>2012-12-09T10:56:18Z</time>
      </trkpt>
      <trkpt lat="45.38549" lon="5.81053">
        <ele>1735.199951172</ele>
        <time>2012-12-09T10:56:24Z</time>
      </trkpt>
      <trkpt lat="45.38551" lon="5.81053">
        <ele>1735</ele>
        <time>2012-12-09T10:56:29Z</time>
      </trkpt>
      <trkpt lat="45.38556" lon="5.81051">
        <ele>1734.400024414</ele>
        <time>2012-12-09T10:56:37Z</time>
      </trkpt>
      <trkpt lat="45.38561" lon="5.81051">
        <ele>1733.599975586</ele>
        <time>2012-12-09T10:56:43Z</time>
      </trkpt>
      <trkpt lat="45.38565" lon="5.81049">
        <ele>1733.199951172</ele>
        <time>2012-12-09T10:56:49Z</time>
      </trkpt>
      <trkpt lat="45.38568" lon="5.81048">
        <ele>1732.800048828</ele>
        <time>2012-12-09T10:56:54Z</time>
      </trkpt>
      <trkpt lat="45.38568" lon="5.81051">
        <ele>1732.800048828</ele>
        <time>2012-12-09T10:57:01Z</time>
      </trkpt>
      <trkpt lat="45.38567" lon="5.81066">
        <ele>1733</ele>
        <time>2012-12-09T10:57:05Z</time>
      </trkpt>
      <trkpt lat="45.38569" lon="5.81072">
        <ele>1732.800048828</ele>
        <time>2012-12-09T10:57:06Z</time>
      </trkpt>
      <trkpt lat="45.38575" lon="5.81081">
        <ele>1732.400024414</ele>
        <time>2012-12-09T10:57:08Z</time>
      </trkpt>
      <trkpt lat="45.3858" lon="5.81082">
        <ele>1732</ele>
        <time>2012-12-09T10:57:11Z</time>
      </trkpt>
      <trkpt lat="45.38581" lon="5.81081">
        <ele>1732</ele>
        <time>2012-12-09T10:57:12Z</time>
      </trkpt>
      <trkpt lat="45.38583" lon="5.8108">
        <ele>1731.800048828</ele>
        <time>2012-12-09T10:57:15Z</time>
      </trkpt>
      <trkpt lat="45.38585" lon="5.81079">
        <ele>1731.800048828</ele>
        <time>2012-12-09T10:57:17Z</time>
      </trkpt>
      <trkpt lat="45.38589" lon="5.81076">
        <ele>1732</ele>
        <time>2012-12-09T10:57:23Z</time>
      </trkpt>
      <trkpt lat="45.38591" lon="5.81076">
        <ele>1732</ele>
        <time>2012-12-09T10:57:25Z</time>
      </trkpt>
      <trkpt lat="45.38594" lon="5.81074">
        <ele>1732</ele>
        <time>2012-12-09T10:57:32Z</time>
      </trkpt>
      <trkpt lat="45.38598" lon="5.81071">
        <ele>1732.199951172</ele>
        <time>2012-12-09T10:57:37Z</time>
      </trkpt>
      <trkpt lat="45.38605" lon="5.81068">
        <ele>1732.199951172</ele>
        <time>2012-12-09T10:57:44Z</time>
      </trkpt>
      <trkpt lat="45.38613" lon="5.81064">
        <ele>1732.199951172</ele>
        <time>2012-12-09T10:57:52Z</time>
      </trkpt>
      <trkpt lat="45.3862" lon="5.81063">
        <ele>1732.199951172</ele>
        <time>2012-12-09T10:58:00Z</time>
      </trkpt>
      <trkpt lat="45.3862" lon="5.81063">
        <ele>1732.199951172</ele>
        <time>2012-12-09T10:58:06Z</time>
      </trkpt>
      <trkpt lat="45.38618" lon="5.81061">
        <ele>1732</ele>
        <time>2012-12-09T10:58:17Z</time>
      </trkpt>
      <trkpt lat="45.38614" lon="5.81061">
        <ele>1731.800048828</ele>
        <time>2012-12-09T10:58:23Z</time>
      </trkpt>
      <trkpt lat="45.38608" lon="5.81061">
        <ele>1731.599975586</ele>
        <time>2012-12-09T10:58:30Z</time>
      </trkpt>
      <trkpt lat="45.38603" lon="5.81061">
        <ele>1731.599975586</ele>
        <time>2012-12-09T10:58:37Z</time>
      </trkpt>
      <trkpt lat="45.38599" lon="5.81061">
        <ele>1731.400024414</ele>
        <time>2012-12-09T10:58:43Z</time>
      </trkpt>
      <trkpt lat="45.38594" lon="5.81061">
        <ele>1731.400024414</ele>
        <time>2012-12-09T10:58:50Z</time>
      </trkpt>
      <trkpt lat="45.3859" lon="5.81059">
        <ele>1731.199951172</ele>
        <time>2012-12-09T10:58:56Z</time>
      </trkpt>
      <trkpt lat="45.3859" lon="5.81059">
        <ele>1731.199951172</ele>
        <time>2012-12-09T10:59:04Z</time>
      </trkpt>
      <trkpt lat="45.38583" lon="5.81055">
        <ele>1731</ele>
        <time>2012-12-09T10:59:15Z</time>
      </trkpt>
      <trkpt lat="45.38581" lon="5.81055">
        <ele>1731.199951172</ele>
        <time>2012-12-09T10:59:19Z</time>
      </trkpt>
      <trkpt lat="45.3858" lon="5.81054">
        <ele>1731.199951172</ele>
        <time>2012-12-09T10:59:20Z</time>
      </trkpt>
      <trkpt lat="45.38579" lon="5.81052">
        <ele>1731.400024414</ele>
        <time>2012-12-09T10:59:23Z</time>
      </trkpt>
      <trkpt lat="45.38576" lon="5.8105">
        <ele>1731.599975586</ele>
        <time>2012-12-09T10:59:29Z</time>
      </trkpt>
      <trkpt lat="45.38574" lon="5.81051">
        <ele>1732</ele>
        <time>2012-12-09T10:59:34Z</time>
      </trkpt>
      <trkpt lat="45.38571" lon="5.8105">
        <ele>1732.400024414</ele>
        <time>2012-12-09T10:59:38Z</time>
      </trkpt>
      <trkpt lat="45.38569" lon="5.8105">
        <ele>1732.599975586</ele>
        <time>2012-12-09T10:59:42Z</time>
      </trkpt>
      <trkpt lat="45.38567" lon="5.81052">
        <ele>1733</ele>
        <time>2012-12-09T10:59:47Z</time>
      </trkpt>
      <trkpt lat="45.38565" lon="5.81053">
        <ele>1733.199951172</ele>
        <time>2012-12-09T10:59:51Z</time>
      </trkpt>
      <trkpt lat="45.3856" lon="5.81054">
        <ele>1733.800048828</ele>
        <time>2012-12-09T10:59:58Z</time>
      </trkpt>
      <trkpt lat="45.38557" lon="5.81053">
        <ele>1734.199951172</ele>
        <time>2012-12-09T11:00:03Z</time>
      </trkpt>
      <trkpt lat="45.38554" lon="5.81053">
        <ele>1734.599975586</ele>
        <time>2012-12-09T11:00:08Z</time>
      </trkpt>
      <trkpt lat="45.38552" lon="5.81052">
        <ele>1734.800048828</ele>
        <time>2012-12-09T11:00:13Z</time>
      </trkpt>
      <trkpt lat="45.38549" lon="5.81051">
        <ele>1735.199951172</ele>
        <time>2012-12-09T11:00:18Z</time>
      </trkpt>
      <trkpt lat="45.38547" lon="5.81051">
        <ele>1735.599975586</ele>
        <time>2012-12-09T11:00:23Z</time>
      </trkpt>
      <trkpt lat="45.38545" lon="5.8105">
        <ele>1735.800048828</ele>
        <time>2012-12-09T11:00:27Z</time>
      </trkpt>
      <trkpt lat="45.38545" lon="5.8105">
        <ele>1735.800048828</ele>
        <time>2012-12-09T11:00:28Z</time>
      </trkpt>
      <trkpt lat="45.3854" lon="5.81047">
        <ele>1736.599975586</ele>
        <time>2012-12-09T11:00:35Z</time>
      </trkpt>
      <trkpt lat="45.38538" lon="5.81046">
        <ele>1737</ele>
        <time>2012-12-09T11:00:40Z</time>
      </trkpt>
      <trkpt lat="45.38536" lon="5.81043">
        <ele>1737.400024414</ele>
        <time>2012-12-09T11:00:46Z</time>
      </trkpt>
      <trkpt lat="45.38536" lon="5.81041">
        <ele>1737.599975586</ele>
        <time>2012-12-09T11:00:51Z</time>
      </trkpt>
      <trkpt lat="45.38534" lon="5.81038">
        <ele>1738</ele>
        <time>2012-12-09T11:00:55Z</time>
      </trkpt>
      <trkpt lat="45.38533" lon="5.81035">
        <ele>1738.400024414</ele>
        <time>2012-12-09T11:01:00Z</time>
      </trkpt>
      <trkpt lat="45.38535" lon="5.81034">
        <ele>1738</ele>
        <time>2012-12-09T11:01:06Z</time>
      </trkpt>
      <trkpt lat="45.38538" lon="5.81033">
        <ele>1737.599975586</ele>
        <time>2012-12-09T11:01:12Z</time>
      </trkpt>
      <trkpt lat="45.38541" lon="5.81032">
        <ele>1737.199951172</ele>
        <time>2012-12-09T11:01:18Z</time>
      </trkpt>
      <trkpt lat="45.38543" lon="5.81031">
        <ele>1737</ele>
        <time>2012-12-09T11:01:22Z</time>
      </trkpt>
      <trkpt lat="45.38545" lon="5.81028">
        <ele>1736.599975586</ele>
        <time>2012-12-09T11:01:29Z</time>
      </trkpt>
      <trkpt lat="45.38544" lon="5.81025">
        <ele>1737</ele>
        <time>2012-12-09T11:01:38Z</time>
      </trkpt>
      <trkpt lat="45.38543" lon="5.81024">
        <ele>1737.199951172</ele>
        <time>2012-12-09T11:01:45Z</time>
      </trkpt>
      <trkpt lat="45.38543" lon="5.81024">
        <ele>1737</ele>
        <time>2012-12-09T11:02:44Z</time>
      </trkpt>
      <trkpt lat="45.38544" lon="5.81023">
        <ele>1737</ele>
        <time>2012-12-09T11:03:10Z</time>
      </trkpt>
      <trkpt lat="45.38544" lon="5.81023">
        <ele>1737</ele>
        <time>2012-12-09T11:03:35Z</time>
      </trkpt>
      <trkpt lat="45.38545" lon="5.81023">
        <ele>1736.800048828</ele>
        <time>2012-12-09T11:11:14Z</time>
      </trkpt>
      <trkpt lat="45.38546" lon="5.81023">
        <ele>1736.599975586</ele>
        <time>2012-12-09T11:16:47Z</time>
      </trkpt>
      <trkpt lat="45.38545" lon="5.81024">
        <ele>1736.800048828</ele>
        <time>2012-12-09T11:18:47Z</time>
      </trkpt>
      <trkpt lat="45.38545" lon="5.81023">
        <ele>1736.800048828</ele>
        <time>2012-12-09T11:19:42Z</time>
      </trkpt>
      <trkpt lat="45.38545" lon="5.81024">
        <ele>1736.800048828</ele>
        <time>2012-12-09T11:20:20Z</time>
      </trkpt>
      <trkpt lat="45.38544" lon="5.81023">
        <ele>1737</ele>
        <time>2012-12-09T11:20:41Z</time>
      </trkpt>
      <trkpt lat="45.38544" lon="5.81023">
        <ele>1737</ele>
        <time>2012-12-09T11:21:00Z</time>
      </trkpt>
      <trkpt lat="45.38544" lon="5.81022">
        <ele>1737</ele>
        <time>2012-12-09T11:21:20Z</time>
      </trkpt>
      <trkpt lat="45.38543" lon="5.81022">
        <ele>1737.199951172</ele>
        <time>2012-12-09T11:21:26Z</time>
      </trkpt>
      <trkpt lat="45.38543" lon="5.81022">
        <ele>1737.199951172</ele>
        <time>2012-12-09T11:21:36Z</time>
      </trkpt>
      <trkpt lat="45.38544" lon="5.81023">
        <ele>1737</ele>
        <time>2012-12-09T11:23:36Z</time>
      </trkpt>
      <trkpt lat="45.38544" lon="5.81023">
        <ele>1737</ele>
        <time>2012-12-09T11:24:05Z</time>
      </trkpt>
      <trkpt lat="45.38543" lon="5.81022">
        <ele>1737.199951172</ele>
        <time>2012-12-09T11:24:48Z</time>
      </trkpt>
      <trkpt lat="45.38543" lon="5.81023">
        <ele>1737.199951172</ele>
        <time>2012-12-09T11:24:56Z</time>
      </trkpt>
      <trkpt lat="45.38544" lon="5.81022">
        <ele>1737</ele>
        <time>2012-12-09T11:25:51Z</time>
      </trkpt>
      <trkpt lat="45.38544" lon="5.81022">
        <ele>1737</ele>
        <time>2012-12-09T11:25:59Z</time>
      </trkpt>
      <trkpt lat="45.38544" lon="5.81022">
        <ele>1737.199951172</ele>
        <time>2012-12-09T11:26:29Z</time>
      </trkpt>
      <trkpt lat="45.38544" lon="5.81023">
        <ele>1737</ele>
        <time>2012-12-09T11:27:02Z</time>
      </trkpt>
      <trkpt lat="45.38542" lon="5.81023">
        <ele>1737.400024414</ele>
        <time>2012-12-09T11:27:37Z</time>
      </trkpt>
      <trkpt lat="45.38544" lon="5.81031">
        <ele>1736.800048828</ele>
        <time>2012-12-09T11:29:06Z</time>
      </trkpt>
      <trkpt lat="45.38549" lon="5.81047">
        <ele>1735.400024414</ele>
        <time>2012-12-09T11:29:10Z</time>
      </trkpt>
      <trkpt lat="45.38566" lon="5.81064">
        <ele>1733</ele>
        <time>2012-12-09T11:29:14Z</time>
      </trkpt>
      <trkpt lat="45.3857" lon="5.81067">
        <ele>1732.599975586</ele>
        <time>2012-12-09T11:29:15Z</time>
      </trkpt>
      <trkpt lat="45.38573" lon="5.81074">
        <ele>1732.400024414</ele>
        <time>2012-12-09T11:29:16Z</time>
      </trkpt>
      <trkpt lat="45.38578" lon="5.81082">
        <ele>1732.199951172</ele>
        <time>2012-12-09T11:29:17Z</time>
      </trkpt>
      <trkpt lat="45.38585" lon="5.81083">
        <ele>1732</ele>
        <time>2012-12-09T11:29:19Z</time>
      </trkpt>
      <trkpt lat="45.38585" lon="5.81083">
        <ele>1732</ele>
        <time>2012-12-09T11:29:20Z</time>
      </trkpt>
      <trkpt lat="45.38583" lon="5.81085">
        <ele>1731.599975586</ele>
        <time>2012-12-09T11:29:22Z</time>
      </trkpt>
      <trkpt lat="45.38582" lon="5.81085">
        <ele>1731.599975586</ele>
        <time>2012-12-09T11:29:37Z</time>
      </trkpt>
      <trkpt lat="45.38582" lon="5.81097">
        <ele>1728.599975586</ele>
        <time>2012-12-09T11:29:50Z</time>
      </trkpt>
      <trkpt lat="45.38579" lon="5.81121">
        <ele>1723</ele>
        <time>2012-12-09T11:29:54Z</time>
      </trkpt>
      <trkpt lat="45.3858" lon="5.8113">
        <ele>1720.800048828</ele>
        <time>2012-12-09T11:29:55Z</time>
      </trkpt>
      <trkpt lat="45.38574" lon="5.81146">
        <ele>1717.199951172</ele>
        <time>2012-12-09T11:29:57Z</time>
      </trkpt>
      <trkpt lat="45.3857" lon="5.8116">
        <ele>1713.599975586</ele>
        <time>2012-12-09T11:29:59Z</time>
      </trkpt>
      <trkpt lat="45.38566" lon="5.81177">
        <ele>1709.599975586</ele>
        <time>2012-12-09T11:30:01Z</time>
      </trkpt>
      <trkpt lat="45.38562" lon="5.81182">
        <ele>1708.400024414</ele>
        <time>2012-12-09T11:30:03Z</time>
      </trkpt>
      <trkpt lat="45.38563" lon="5.81181">
        <ele>1708.800048828</ele>
        <time>2012-12-09T11:30:05Z</time>
      </trkpt>
      <trkpt lat="45.38564" lon="5.81181">
        <ele>1708.800048828</ele>
        <time>2012-12-09T11:30:06Z</time>
      </trkpt>
      <trkpt lat="45.38564" lon="5.81179">
        <ele>1709.199951172</ele>
        <time>2012-12-09T11:30:10Z</time>
      </trkpt>
      <trkpt lat="45.38558" lon="5.81188">
        <ele>1707.199951172</ele>
        <time>2012-12-09T11:31:35Z</time>
      </trkpt>
      <trkpt lat="45.38545" lon="5.81216">
        <ele>1700.800048828</ele>
        <time>2012-12-09T11:31:39Z</time>
      </trkpt>
      <trkpt lat="45.38541" lon="5.81235">
        <ele>1696.400024414</ele>
        <time>2012-12-09T11:31:41Z</time>
      </trkpt>
      <trkpt lat="45.38544" lon="5.81247">
        <ele>1693.800048828</ele>
        <time>2012-12-09T11:31:42Z</time>
      </trkpt>
      <trkpt lat="45.38555" lon="5.81268">
        <ele>1689.800048828</ele>
        <time>2012-12-09T11:31:45Z</time>
      </trkpt>
      <trkpt lat="45.38558" lon="5.81285">
        <ele>1686.400024414</ele>
        <time>2012-12-09T11:31:48Z</time>
      </trkpt>
      <trkpt lat="45.38557" lon="5.81293">
        <ele>1684.800048828</ele>
        <time>2012-12-09T11:31:49Z</time>
      </trkpt>
      <trkpt lat="45.38559" lon="5.81311">
        <ele>1681.199951172</ele>
        <time>2012-12-09T11:31:51Z</time>
      </trkpt>
      <trkpt lat="45.38563" lon="5.81338">
        <ele>1675.400024414</ele>
        <time>2012-12-09T11:31:54Z</time>
      </trkpt>
      <trkpt lat="45.38564" lon="5.81348">
        <ele>1672.400024414</ele>
        <time>2012-12-09T11:31:55Z</time>
      </trkpt>
      <trkpt lat="45.38562" lon="5.81355">
        <ele>1670.199951172</ele>
        <time>2012-12-09T11:31:56Z</time>
      </trkpt>
      <trkpt lat="45.38559" lon="5.81353">
        <ele>1670.800048828</ele>
        <time>2012-12-09T11:31:58Z</time>
      </trkpt>
      <trkpt lat="45.38557" lon="5.81349">
        <ele>1671.599975586</ele>
        <time>2012-12-09T11:33:16Z</time>
      </trkpt>
      <trkpt lat="45.38556" lon="5.81352">
        <ele>1670.800048828</ele>
        <time>2012-12-09T11:33:21Z</time>
      </trkpt>
      <trkpt lat="45.38549" lon="5.81365">
        <ele>1667</ele>
        <time>2012-12-09T11:33:25Z</time>
      </trkpt>
      <trkpt lat="45.38545" lon="5.81386">
        <ele>1660.800048828</ele>
        <time>2012-12-09T11:33:28Z</time>
      </trkpt>
      <trkpt lat="45.38538" lon="5.81407">
        <ele>1655</ele>
        <time>2012-12-09T11:33:31Z</time>
      </trkpt>
      <trkpt lat="45.38537" lon="5.81415">
        <ele>1652.800048828</ele>
        <time>2012-12-09T11:33:32Z</time>
      </trkpt>
      <trkpt lat="45.38538" lon="5.8143">
        <ele>1650.199951172</ele>
        <time>2012-12-09T11:33:34Z</time>
      </trkpt>
      <trkpt lat="45.38539" lon="5.81459">
        <ele>1645.199951172</ele>
        <time>2012-12-09T11:33:38Z</time>
      </trkpt>
      <trkpt lat="45.38539" lon="5.81477">
        <ele>1642.199951172</ele>
        <time>2012-12-09T11:33:40Z</time>
      </trkpt>
      <trkpt lat="45.38537" lon="5.81484">
        <ele>1641.400024414</ele>
        <time>2012-12-09T11:33:41Z</time>
      </trkpt>
      <trkpt lat="45.38535" lon="5.81489">
        <ele>1640.800048828</ele>
        <time>2012-12-09T11:33:43Z</time>
      </trkpt>
      <trkpt lat="45.38536" lon="5.81488">
        <ele>1640.800048828</ele>
        <time>2012-12-09T11:33:44Z</time>
      </trkpt>
      <trkpt lat="45.38536" lon="5.81485">
        <ele>1641.400024414</ele>
        <time>2012-12-09T11:33:52Z</time>
      </trkpt>
      <trkpt lat="45.38536" lon="5.81484">
        <ele>1641.599975586</ele>
        <time>2012-12-09T11:34:01Z</time>
      </trkpt>
      <trkpt lat="45.38536" lon="5.81484">
        <ele>1641.400024414</ele>
        <time>2012-12-09T11:34:06Z</time>
      </trkpt>
      <trkpt lat="45.38537" lon="5.81485">
        <ele>1641</ele>
        <time>2012-12-09T11:38:04Z</time>
      </trkpt>
      <trkpt lat="45.38535" lon="5.81484">
        <ele>1641.599975586</ele>
        <time>2012-12-09T11:39:33Z</time>
      </trkpt>
      <trkpt lat="45.38533" lon="5.81484">
        <ele>1642</ele>
        <time>2012-12-09T11:40:15Z</time>
      </trkpt>
      <trkpt lat="45.38534" lon="5.81485">
        <ele>1641.599975586</ele>
        <time>2012-12-09T11:40:53Z</time>
      </trkpt>
      <trkpt lat="45.38536" lon="5.81486">
        <ele>1641</ele>
        <time>2012-12-09T11:42:31Z</time>
      </trkpt>
      <trkpt lat="45.38536" lon="5.81487">
        <ele>1641</ele>
        <time>2012-12-09T11:42:45Z</time>
      </trkpt>
      <trkpt lat="45.38533" lon="5.81489">
        <ele>1641.199951172</ele>
        <time>2012-12-09T11:43:02Z</time>
      </trkpt>
      <trkpt lat="45.3853" lon="5.81489">
        <ele>1641.599975586</ele>
        <time>2012-12-09T11:43:10Z</time>
      </trkpt>
      <trkpt lat="45.38527" lon="5.8149">
        <ele>1641.800048828</ele>
        <time>2012-12-09T11:43:15Z</time>
      </trkpt>
      <trkpt lat="45.38523" lon="5.81492">
        <ele>1642.199951172</ele>
        <time>2012-12-09T11:43:21Z</time>
      </trkpt>
      <trkpt lat="45.38521" lon="5.81494">
        <ele>1642.199951172</ele>
        <time>2012-12-09T11:43:25Z</time>
      </trkpt>
      <trkpt lat="45.38517" lon="5.81497">
        <ele>1642.400024414</ele>
        <time>2012-12-09T11:43:32Z</time>
      </trkpt>
      <trkpt lat="45.38515" lon="5.81499">
        <ele>1642.400024414</ele>
        <time>2012-12-09T11:43:36Z</time>
      </trkpt>
      <trkpt lat="45.38513" lon="5.81501">
        <ele>1642.800048828</ele>
        <time>2012-12-09T11:43:40Z</time>
      </trkpt>
      <trkpt lat="45.38509" lon="5.81502">
        <ele>1643.599975586</ele>
        <time>2012-12-09T11:43:47Z</time>
      </trkpt>
      <trkpt lat="45.38505" lon="5.81502">
        <ele>1644.199951172</ele>
        <time>2012-12-09T11:43:52Z</time>
      </trkpt>
      <trkpt lat="45.38501" lon="5.81501">
        <ele>1645</ele>
        <time>2012-12-09T11:43:59Z</time>
      </trkpt>
      <trkpt lat="45.38497" lon="5.815">
        <ele>1646.199951172</ele>
        <time>2012-12-09T11:44:04Z</time>
      </trkpt>
      <trkpt lat="45.38494" lon="5.81498">
        <ele>1647.400024414</ele>
        <time>2012-12-09T11:44:09Z</time>
      </trkpt>
      <trkpt lat="45.38492" lon="5.81494">
        <ele>1648.599975586</ele>
        <time>2012-12-09T11:44:15Z</time>
      </trkpt>
      <trkpt lat="45.38489" lon="5.81487">
        <ele>1650</ele>
        <time>2012-12-09T11:44:23Z</time>
      </trkpt>
      <trkpt lat="45.38486" lon="5.8148">
        <ele>1651</ele>
        <time>2012-12-09T11:44:30Z</time>
      </trkpt>
      <trkpt lat="45.38483" lon="5.81472">
        <ele>1652</ele>
        <time>2012-12-09T11:44:38Z</time>
      </trkpt>
      <trkpt lat="45.3848" lon="5.81464">
        <ele>1652.800048828</ele>
        <time>2012-12-09T11:44:46Z</time>
      </trkpt>
      <trkpt lat="45.38477" lon="5.81457">
        <ele>1653.199951172</ele>
        <time>2012-12-09T11:44:53Z</time>
      </trkpt>
      <trkpt lat="45.38475" lon="5.81451">
        <ele>1653.400024414</ele>
        <time>2012-12-09T11:45:00Z</time>
      </trkpt>
      <trkpt lat="45.38473" lon="5.81446">
        <ele>1653.400024414</ele>
        <time>2012-12-09T11:45:06Z</time>
      </trkpt>
      <trkpt lat="45.3847" lon="5.8144">
        <ele>1653.400024414</ele>
        <time>2012-12-09T11:45:13Z</time>
      </trkpt>
      <trkpt lat="45.38469" lon="5.81437">
        <ele>1653.400024414</ele>
        <time>2012-12-09T11:45:19Z</time>
      </trkpt>
      <trkpt lat="45.38468" lon="5.81434">
        <ele>1653.199951172</ele>
        <time>2012-12-09T11:45:24Z</time>
      </trkpt>
      <trkpt lat="45.38464" lon="5.81432">
        <ele>1653.400024414</ele>
        <time>2012-12-09T11:45:30Z</time>
      </trkpt>
      <trkpt lat="45.38456" lon="5.81434">
        <ele>1654</ele>
        <time>2012-12-09T11:45:39Z</time>
      </trkpt>
      <trkpt lat="45.38452" lon="5.81436">
        <ele>1654.599975586</ele>
        <time>2012-12-09T11:45:46Z</time>
      </trkpt>
      <trkpt lat="45.38446" lon="5.81436">
        <ele>1655.199951172</ele>
        <time>2012-12-09T11:45:55Z</time>
      </trkpt>
      <trkpt lat="45.38439" lon="5.81435">
        <ele>1655.400024414</ele>
        <time>2012-12-09T11:46:03Z</time>
      </trkpt>
      <trkpt lat="45.38435" lon="5.81434">
        <ele>1655.400024414</ele>
        <time>2012-12-09T11:46:10Z</time>
      </trkpt>
      <trkpt lat="45.3843" lon="5.81433">
        <ele>1655.400024414</ele>
        <time>2012-12-09T11:46:17Z</time>
      </trkpt>
      <trkpt lat="45.38427" lon="5.81432">
        <ele>1655.199951172</ele>
        <time>2012-12-09T11:46:24Z</time>
      </trkpt>
      <trkpt lat="45.38422" lon="5.81433">
        <ele>1655.800048828</ele>
        <time>2012-12-09T11:46:31Z</time>
      </trkpt>
      <trkpt lat="45.38421" lon="5.81434">
        <ele>1656.199951172</ele>
        <time>2012-12-09T11:46:36Z</time>
      </trkpt>
      <trkpt lat="45.38423" lon="5.8144">
        <ele>1657.800048828</ele>
        <time>2012-12-09T11:46:43Z</time>
      </trkpt>
      <trkpt lat="45.38424" lon="5.81444">
        <ele>1658.800048828</ele>
        <time>2012-12-09T11:46:47Z</time>
      </trkpt>
      <trkpt lat="45.38425" lon="5.81448">
        <ele>1659.800048828</ele>
        <time>2012-12-09T11:46:52Z</time>
      </trkpt>
      <trkpt lat="45.38426" lon="5.81452">
        <ele>1660.800048828</ele>
        <time>2012-12-09T11:46:57Z</time>
      </trkpt>
      <trkpt lat="45.38427" lon="5.81455">
        <ele>1661.599975586</ele>
        <time>2012-12-09T11:47:01Z</time>
      </trkpt>
      <trkpt lat="45.38427" lon="5.8146">
        <ele>1663</ele>
        <time>2012-12-09T11:47:06Z</time>
      </trkpt>
      <trkpt lat="45.38424" lon="5.81464">
        <ele>1664.599975586</ele>
        <time>2012-12-09T11:47:12Z</time>
      </trkpt>
      <trkpt lat="45.3842" lon="5.81466">
        <ele>1666</ele>
        <time>2012-12-09T11:47:17Z</time>
      </trkpt>
      <trkpt lat="45.38415" lon="5.81467">
        <ele>1667.599975586</ele>
        <time>2012-12-09T11:47:24Z</time>
      </trkpt>
      <trkpt lat="45.3841" lon="5.8147">
        <ele>1669.599975586</ele>
        <time>2012-12-09T11:47:32Z</time>
      </trkpt>
      <trkpt lat="45.38406" lon="5.81471">
        <ele>1671.400024414</ele>
        <time>2012-12-09T11:47:40Z</time>
      </trkpt>
      <trkpt lat="45.38402" lon="5.81472">
        <ele>1673</ele>
        <time>2012-12-09T11:47:48Z</time>
      </trkpt>
      <trkpt lat="45.38397" lon="5.81473">
        <ele>1674.400024414</ele>
        <time>2012-12-09T11:47:55Z</time>
      </trkpt>
      <trkpt lat="45.38393" lon="5.81475">
        <ele>1676</ele>
        <time>2012-12-09T11:48:02Z</time>
      </trkpt>
      <trkpt lat="45.3839" lon="5.81476">
        <ele>1677.199951172</ele>
        <time>2012-12-09T11:48:07Z</time>
      </trkpt>
      <trkpt lat="45.38387" lon="5.81476">
        <ele>1678.199951172</ele>
        <time>2012-12-09T11:48:13Z</time>
      </trkpt>
      <trkpt lat="45.38385" lon="5.81476">
        <ele>1679</ele>
        <time>2012-12-09T11:48:18Z</time>
      </trkpt>
      <trkpt lat="45.38382" lon="5.81477">
        <ele>1680</ele>
        <time>2012-12-09T11:48:24Z</time>
      </trkpt>
      <trkpt lat="45.38378" lon="5.8148">
        <ele>1682.199951172</ele>
        <time>2012-12-09T11:48:30Z</time>
      </trkpt>
      <trkpt lat="45.38376" lon="5.81483">
        <ele>1683.800048828</ele>
        <time>2012-12-09T11:48:35Z</time>
      </trkpt>
      <trkpt lat="45.38373" lon="5.81489">
        <ele>1686.599975586</ele>
        <time>2012-12-09T11:48:43Z</time>
      </trkpt>
      <trkpt lat="45.38371" lon="5.81493">
        <ele>1688.800048828</ele>
        <time>2012-12-09T11:48:50Z</time>
      </trkpt>
      <trkpt lat="45.3837" lon="5.81497">
        <ele>1690.800048828</ele>
        <time>2012-12-09T11:48:55Z</time>
      </trkpt>
      <trkpt lat="45.38369" lon="5.81503">
        <ele>1693</ele>
        <time>2012-12-09T11:49:02Z</time>
      </trkpt>
      <trkpt lat="45.38368" lon="5.8151">
        <ele>1694.800048828</ele>
        <time>2012-12-09T11:49:09Z</time>
      </trkpt>
      <trkpt lat="45.38366" lon="5.81516">
        <ele>1696.599975586</ele>
        <time>2012-12-09T11:49:16Z</time>
      </trkpt>
      <trkpt lat="45.38366" lon="5.81523">
        <ele>1698</ele>
        <time>2012-12-09T11:49:23Z</time>
      </trkpt>
      <trkpt lat="45.38368" lon="5.8153">
        <ele>1699</ele>
        <time>2012-12-09T11:49:30Z</time>
      </trkpt>
      <trkpt lat="45.3837" lon="5.81535">
        <ele>1699.800048828</ele>
        <time>2012-12-09T11:49:37Z</time>
      </trkpt>
      <trkpt lat="45.38372" lon="5.81538">
        <ele>1699.800048828</ele>
        <time>2012-12-09T11:49:43Z</time>
      </trkpt>
      <trkpt lat="45.38374" lon="5.81542">
        <ele>1700</ele>
        <time>2012-12-09T11:49:49Z</time>
      </trkpt>
      <trkpt lat="45.38377" lon="5.81546">
        <ele>1699.800048828</ele>
        <time>2012-12-09T11:49:55Z</time>
      </trkpt>
      <trkpt lat="45.3838" lon="5.8155">
        <ele>1700</ele>
        <time>2012-12-09T11:50:02Z</time>
      </trkpt>
      <trkpt lat="45.38382" lon="5.81553">
        <ele>1700.199951172</ele>
        <time>2012-12-09T11:50:08Z</time>
      </trkpt>
      <trkpt lat="45.38385" lon="5.81555">
        <ele>1699.800048828</ele>
        <time>2012-12-09T11:50:14Z</time>
      </trkpt>
      <trkpt lat="45.38387" lon="5.81558">
        <ele>1699.599975586</ele>
        <time>2012-12-09T11:50:19Z</time>
      </trkpt>
      <trkpt lat="45.3839" lon="5.81559">
        <ele>1699.199951172</ele>
        <time>2012-12-09T11:50:25Z</time>
      </trkpt>
      <trkpt lat="45.38391" lon="5.81561">
        <ele>1699.199951172</ele>
        <time>2012-12-09T11:50:30Z</time>
      </trkpt>
      <trkpt lat="45.38391" lon="5.81563">
        <ele>1699.800048828</ele>
        <time>2012-12-09T11:50:35Z</time>
      </trkpt>
      <trkpt lat="45.38389" lon="5.81564">
        <ele>1700.599975586</ele>
        <time>2012-12-09T11:50:40Z</time>
      </trkpt>
      <trkpt lat="45.38387" lon="5.81566">
        <ele>1701.599975586</ele>
        <time>2012-12-09T11:50:47Z</time>
      </trkpt>
      <trkpt lat="45.38386" lon="5.81567">
        <ele>1702</ele>
        <time>2012-12-09T11:50:53Z</time>
      </trkpt>
      <trkpt lat="45.38383" lon="5.81568">
        <ele>1703.199951172</ele>
        <time>2012-12-09T11:50:59Z</time>
      </trkpt>
      <trkpt lat="45.38382" lon="5.8157">
        <ele>1703.800048828</ele>
        <time>2012-12-09T11:51:05Z</time>
      </trkpt>
      <trkpt lat="45.38385" lon="5.81572">
        <ele>1703.400024414</ele>
        <time>2012-12-09T11:51:16Z</time>
      </trkpt>
      <trkpt lat="45.38388" lon="5.81573">
        <ele>1703</ele>
        <time>2012-12-09T11:51:21Z</time>
      </trkpt>
      <trkpt lat="45.38389" lon="5.81574">
        <ele>1702.800048828</ele>
        <time>2012-12-09T11:51:29Z</time>
      </trkpt>
      <trkpt lat="45.3839" lon="5.81576">
        <ele>1702.800048828</ele>
        <time>2012-12-09T11:51:34Z</time>
      </trkpt>
      <trkpt lat="45.38393" lon="5.81576">
        <ele>1702.199951172</ele>
        <time>2012-12-09T11:51:39Z</time>
      </trkpt>
      <trkpt lat="45.38394" lon="5.81577">
        <ele>1702</ele>
        <time>2012-12-09T11:51:43Z</time>
      </trkpt>
      <trkpt lat="45.38395" lon="5.81578">
        <ele>1702.199951172</ele>
        <time>2012-12-09T11:51:47Z</time>
      </trkpt>
      <trkpt lat="45.38397" lon="5.81582">
        <ele>1702.400024414</ele>
        <time>2012-12-09T11:51:51Z</time>
      </trkpt>
      <trkpt lat="45.38398" lon="5.81589">
        <ele>1704.199951172</ele>
        <time>2012-12-09T11:51:57Z</time>
      </trkpt>
      <trkpt lat="45.38397" lon="5.81595">
        <ele>1706.400024414</ele>
        <time>2012-12-09T11:52:03Z</time>
      </trkpt>
      <trkpt lat="45.38396" lon="5.81595">
        <ele>1706.800048828</ele>
        <time>2012-12-09T11:52:07Z</time>
      </trkpt>
      <trkpt lat="45.38392" lon="5.81596">
        <ele>1708.199951172</ele>
        <time>2012-12-09T11:52:14Z</time>
      </trkpt>
      <trkpt lat="45.3839" lon="5.81597">
        <ele>1709.400024414</ele>
        <time>2012-12-09T11:52:19Z</time>
      </trkpt>
      <trkpt lat="45.38389" lon="5.81599">
        <ele>1710.400024414</ele>
        <time>2012-12-09T11:52:24Z</time>
      </trkpt>
      <trkpt lat="45.38389" lon="5.81604">
        <ele>1711.800048828</ele>
        <time>2012-12-09T11:52:31Z</time>
      </trkpt>
      <trkpt lat="45.38389" lon="5.81608">
        <ele>1713.800048828</ele>
        <time>2012-12-09T11:52:38Z</time>
      </trkpt>
      <trkpt lat="45.38388" lon="5.81613">
        <ele>1716</ele>
        <time>2012-12-09T11:52:45Z</time>
      </trkpt>
      <trkpt lat="45.38386" lon="5.81618">
        <ele>1718</ele>
        <time>2012-12-09T11:52:51Z</time>
      </trkpt>
      <trkpt lat="45.38384" lon="5.81619">
        <ele>1719</ele>
        <time>2012-12-09T11:52:55Z</time>
      </trkpt>
      <trkpt lat="45.3838" lon="5.81619">
        <ele>1720.599975586</ele>
        <time>2012-12-09T11:53:02Z</time>
      </trkpt>
      <trkpt lat="45.38377" lon="5.81618">
        <ele>1721.400024414</ele>
        <time>2012-12-09T11:53:07Z</time>
      </trkpt>
      <trkpt lat="45.38375" lon="5.81618">
        <ele>1722</ele>
        <time>2012-12-09T11:53:12Z</time>
      </trkpt>
      <trkpt lat="45.38372" lon="5.8162">
        <ele>1723.800048828</ele>
        <time>2012-12-09T11:53:20Z</time>
      </trkpt>
      <trkpt lat="45.38371" lon="5.81621">
        <ele>1724.800048828</ele>
        <time>2012-12-09T11:53:24Z</time>
      </trkpt>
      <trkpt lat="45.3837" lon="5.81624">
        <ele>1726</ele>
        <time>2012-12-09T11:53:28Z</time>
      </trkpt>
      <trkpt lat="45.3837" lon="5.81626">
        <ele>1726.800048828</ele>
        <time>2012-12-09T11:53:32Z</time>
      </trkpt>
      <trkpt lat="45.3837" lon="5.8163">
        <ele>1728.199951172</ele>
        <time>2012-12-09T11:53:38Z</time>
      </trkpt>
      <trkpt lat="45.38371" lon="5.81633">
        <ele>1729.400024414</ele>
        <time>2012-12-09T11:53:43Z</time>
      </trkpt>
      <trkpt lat="45.38371" lon="5.81636">
        <ele>1730.199951172</ele>
        <time>2012-12-09T11:53:48Z</time>
      </trkpt>
      <trkpt lat="45.38372" lon="5.81638">
        <ele>1730.400024414</ele>
        <time>2012-12-09T11:53:52Z</time>
      </trkpt>
      <trkpt lat="45.38373" lon="5.81642">
        <ele>1731.599975586</ele>
        <time>2012-12-09T11:53:57Z</time>
      </trkpt>
      <trkpt lat="45.38373" lon="5.81643">
        <ele>1732</ele>
        <time>2012-12-09T11:53:59Z</time>
      </trkpt>
      <trkpt lat="45.38374" lon="5.81644">
        <ele>1732.400024414</ele>
        <time>2012-12-09T11:54:01Z</time>
      </trkpt>
      <trkpt lat="45.38374" lon="5.81647">
        <ele>1733.599975586</ele>
        <time>2012-12-09T11:54:06Z</time>
      </trkpt>
      <trkpt lat="45.38374" lon="5.8165">
        <ele>1734.800048828</ele>
        <time>2012-12-09T11:54:11Z</time>
      </trkpt>
      <trkpt lat="45.38374" lon="5.81653">
        <ele>1735.599975586</ele>
        <time>2012-12-09T11:54:15Z</time>
      </trkpt>
      <trkpt lat="45.38375" lon="5.81656">
        <ele>1736.400024414</ele>
        <time>2012-12-09T11:54:19Z</time>
      </trkpt>
      <trkpt lat="45.38373" lon="5.81657">
        <ele>1737.400024414</ele>
        <time>2012-12-09T11:54:24Z</time>
      </trkpt>
      <trkpt lat="45.38371" lon="5.81656">
        <ele>1738</ele>
        <time>2012-12-09T11:54:28Z</time>
      </trkpt>
      <trkpt lat="45.38368" lon="5.81655">
        <ele>1739</ele>
        <time>2012-12-09T11:54:33Z</time>
      </trkpt>
      <trkpt lat="45.38366" lon="5.81655">
        <ele>1739.800048828</ele>
        <time>2012-12-09T11:54:38Z</time>
      </trkpt>
      <trkpt lat="45.38363" lon="5.81654">
        <ele>1740.599975586</ele>
        <time>2012-12-09T11:54:44Z</time>
      </trkpt>
      <trkpt lat="45.3836" lon="5.81652">
        <ele>1741.199951172</ele>
        <time>2012-12-09T11:54:51Z</time>
      </trkpt>
      <trkpt lat="45.38357" lon="5.81651">
        <ele>1742</ele>
        <time>2012-12-09T11:54:58Z</time>
      </trkpt>
      <trkpt lat="45.38354" lon="5.81649">
        <ele>1742.599975586</ele>
        <time>2012-12-09T11:55:05Z</time>
      </trkpt>
      <trkpt lat="45.3835" lon="5.81647">
        <ele>1743.199951172</ele>
        <time>2012-12-09T11:55:11Z</time>
      </trkpt>
      <trkpt lat="45.38349" lon="5.81647">
        <ele>1743.800048828</ele>
        <time>2012-12-09T11:55:15Z</time>
      </trkpt>
      <trkpt lat="45.38346" lon="5.81645">
        <ele>1743.800048828</ele>
        <time>2012-12-09T11:55:20Z</time>
      </trkpt>
      <trkpt lat="45.38345" lon="5.81643">
        <ele>1743.400024414</ele>
        <time>2012-12-09T11:55:24Z</time>
      </trkpt>
      <trkpt lat="45.38343" lon="5.81642">
        <ele>1743.400024414</ele>
        <time>2012-12-09T11:55:29Z</time>
      </trkpt>
      <trkpt lat="45.38342" lon="5.81641">
        <ele>1743.800048828</ele>
        <time>2012-12-09T11:55:34Z</time>
      </trkpt>
      <trkpt lat="45.3834" lon="5.8164">
        <ele>1744</ele>
        <time>2012-12-09T11:55:38Z</time>
      </trkpt>
      <trkpt lat="45.38337" lon="5.81638">
        <ele>1744.400024414</ele>
        <time>2012-12-09T11:55:43Z</time>
      </trkpt>
      <trkpt lat="45.38336" lon="5.81637">
        <ele>1744.199951172</ele>
        <time>2012-12-09T11:55:47Z</time>
      </trkpt>
      <trkpt lat="45.38334" lon="5.81635">
        <ele>1744.199951172</ele>
        <time>2012-12-09T11:55:52Z</time>
      </trkpt>
      <trkpt lat="45.38332" lon="5.81633">
        <ele>1744.199951172</ele>
        <time>2012-12-09T11:55:57Z</time>
      </trkpt>
      <trkpt lat="45.38331" lon="5.81632">
        <ele>1744.400024414</ele>
        <time>2012-12-09T11:56:05Z</time>
      </trkpt>
      <trkpt lat="45.38331" lon="5.81634">
        <ele>1745.199951172</ele>
        <time>2012-12-09T11:56:10Z</time>
      </trkpt>
      <trkpt lat="45.3833" lon="5.81637">
        <ele>1746.599975586</ele>
        <time>2012-12-09T11:56:14Z</time>
      </trkpt>
      <trkpt lat="45.3833" lon="5.81639">
        <ele>1747.800048828</ele>
        <time>2012-12-09T11:56:18Z</time>
      </trkpt>
      <trkpt lat="45.3833" lon="5.81642">
        <ele>1749.400024414</ele>
        <time>2012-12-09T11:56:24Z</time>
      </trkpt>
      <trkpt lat="45.38328" lon="5.81639">
        <ele>1749</ele>
        <time>2012-12-09T11:56:29Z</time>
      </trkpt>
      <trkpt lat="45.38325" lon="5.81636">
        <ele>1748.599975586</ele>
        <time>2012-12-09T11:56:34Z</time>
      </trkpt>
      <trkpt lat="45.38323" lon="5.81632">
        <ele>1748</ele>
        <time>2012-12-09T11:56:40Z</time>
      </trkpt>
      <trkpt lat="45.38321" lon="5.81631">
        <ele>1748.400024414</ele>
        <time>2012-12-09T11:56:45Z</time>
      </trkpt>
      <trkpt lat="45.38318" lon="5.81631">
        <ele>1749.800048828</ele>
        <time>2012-12-09T11:56:52Z</time>
      </trkpt>
      <trkpt lat="45.38316" lon="5.8163">
        <ele>1750.400024414</ele>
        <time>2012-12-09T11:56:56Z</time>
      </trkpt>
      <trkpt lat="45.38314" lon="5.8163">
        <ele>1751</ele>
        <time>2012-12-09T11:57:00Z</time>
      </trkpt>
      <trkpt lat="45.38311" lon="5.81629">
        <ele>1752</ele>
        <time>2012-12-09T11:57:05Z</time>
      </trkpt>
      <trkpt lat="45.38306" lon="5.81625">
        <ele>1753.199951172</ele>
        <time>2012-12-09T11:57:15Z</time>
      </trkpt>
      <trkpt lat="45.38303" lon="5.81622">
        <ele>1753.599975586</ele>
        <time>2012-12-09T11:57:21Z</time>
      </trkpt>
      <trkpt lat="45.38301" lon="5.81621">
        <ele>1753.800048828</ele>
        <time>2012-12-09T11:57:25Z</time>
      </trkpt>
      <trkpt lat="45.383" lon="5.81619">
        <ele>1753.599975586</ele>
        <time>2012-12-09T11:57:29Z</time>
      </trkpt>
      <trkpt lat="45.38298" lon="5.81615">
        <ele>1753</ele>
        <time>2012-12-09T11:57:34Z</time>
      </trkpt>
      <trkpt lat="45.38298" lon="5.81613">
        <ele>1752.599975586</ele>
        <time>2012-12-09T11:57:38Z</time>
      </trkpt>
      <trkpt lat="45.38297" lon="5.8161">
        <ele>1752</ele>
        <time>2012-12-09T11:57:42Z</time>
      </trkpt>
      <trkpt lat="45.38296" lon="5.81608">
        <ele>1751.800048828</ele>
        <time>2012-12-09T11:57:46Z</time>
      </trkpt>
      <trkpt lat="45.38294" lon="5.81605">
        <ele>1751.400024414</ele>
        <time>2012-12-09T11:57:50Z</time>
      </trkpt>
      <trkpt lat="45.38292" lon="5.81603">
        <ele>1751.599975586</ele>
        <time>2012-12-09T11:57:54Z</time>
      </trkpt>
      <trkpt lat="45.38291" lon="5.81602">
        <ele>1752</ele>
        <time>2012-12-09T11:57:58Z</time>
      </trkpt>
      <trkpt lat="45.38289" lon="5.816">
        <ele>1752.400024414</ele>
        <time>2012-12-09T11:58:03Z</time>
      </trkpt>
      <trkpt lat="45.38285" lon="5.81595">
        <ele>1752.800048828</ele>
        <time>2012-12-09T11:58:10Z</time>
      </trkpt>
      <trkpt lat="45.38282" lon="5.81592">
        <ele>1753.599975586</ele>
        <time>2012-12-09T11:58:17Z</time>
      </trkpt>
      <trkpt lat="45.3828" lon="5.81591">
        <ele>1754.400024414</ele>
        <time>2012-12-09T11:58:21Z</time>
      </trkpt>
      <trkpt lat="45.38278" lon="5.81589">
        <ele>1755</ele>
        <time>2012-12-09T11:58:25Z</time>
      </trkpt>
      <trkpt lat="45.38276" lon="5.81588">
        <ele>1755.599975586</ele>
        <time>2012-12-09T11:58:29Z</time>
      </trkpt>
      <trkpt lat="45.38274" lon="5.81586">
        <ele>1756.199951172</ele>
        <time>2012-12-09T11:58:34Z</time>
      </trkpt>
      <trkpt lat="45.38271" lon="5.81584">
        <ele>1757</ele>
        <time>2012-12-09T11:58:39Z</time>
      </trkpt>
      <trkpt lat="45.38268" lon="5.81583">
        <ele>1758</ele>
        <time>2012-12-09T11:58:45Z</time>
      </trkpt>
      <trkpt lat="45.38266" lon="5.81582">
        <ele>1759.199951172</ele>
        <time>2012-12-09T11:58:50Z</time>
      </trkpt>
      <trkpt lat="45.38263" lon="5.81581">
        <ele>1760.400024414</ele>
        <time>2012-12-09T11:58:55Z</time>
      </trkpt>
      <trkpt lat="45.38261" lon="5.8158">
        <ele>1761.199951172</ele>
        <time>2012-12-09T11:58:59Z</time>
      </trkpt>
      <trkpt lat="45.38259" lon="5.81578">
        <ele>1762</ele>
        <time>2012-12-09T11:59:04Z</time>
      </trkpt>
      <trkpt lat="45.38256" lon="5.81576">
        <ele>1762.400024414</ele>
        <time>2012-12-09T11:59:09Z</time>
      </trkpt>
      <trkpt lat="45.38254" lon="5.81573">
        <ele>1762.599975586</ele>
        <time>2012-12-09T11:59:15Z</time>
      </trkpt>
      <trkpt lat="45.38251" lon="5.81571">
        <ele>1763.599975586</ele>
        <time>2012-12-09T11:59:20Z</time>
      </trkpt>
      <trkpt lat="45.38249" lon="5.8157">
        <ele>1763.800048828</ele>
        <time>2012-12-09T11:59:25Z</time>
      </trkpt>
      <trkpt lat="45.38248" lon="5.81572">
        <ele>1764.199951172</ele>
        <time>2012-12-09T11:59:31Z</time>
      </trkpt>
      <trkpt lat="45.38247" lon="5.81572">
        <ele>1764.199951172</ele>
        <time>2012-12-09T11:59:39Z</time>
      </trkpt>
      <trkpt lat="45.38247" lon="5.81575">
        <ele>1765.599975586</ele>
        <time>2012-12-09T11:59:44Z</time>
      </trkpt>
      <trkpt lat="45.38246" lon="5.81579">
        <ele>1766.599975586</ele>
        <time>2012-12-09T11:59:49Z</time>
      </trkpt>
      <trkpt lat="45.38246" lon="5.81581">
        <ele>1767.599975586</ele>
        <time>2012-12-09T11:59:53Z</time>
      </trkpt>
      <trkpt lat="45.38245" lon="5.81584">
        <ele>1768.599975586</ele>
        <time>2012-12-09T11:59:57Z</time>
      </trkpt>
      <trkpt lat="45.38245" lon="5.81587">
        <ele>1769.400024414</ele>
        <time>2012-12-09T12:00:02Z</time>
      </trkpt>
      <trkpt lat="45.38245" lon="5.81594">
        <ele>1771.199951172</ele>
        <time>2012-12-09T12:00:10Z</time>
      </trkpt>
      <trkpt lat="45.38245" lon="5.81599">
        <ele>1772.400024414</ele>
        <time>2012-12-09T12:00:16Z</time>
      </trkpt>
      <trkpt lat="45.38245" lon="5.81602">
        <ele>1773.199951172</ele>
        <time>2012-12-09T12:00:20Z</time>
      </trkpt>
      <trkpt lat="45.38244" lon="5.81604">
        <ele>1774</ele>
        <time>2012-12-09T12:00:24Z</time>
      </trkpt>
      <trkpt lat="45.38244" lon="5.8161">
        <ele>1775.400024414</ele>
        <time>2012-12-09T12:00:31Z</time>
      </trkpt>
      <trkpt lat="45.38244" lon="5.81614">
        <ele>1776.599975586</ele>
        <time>2012-12-09T12:00:38Z</time>
      </trkpt>
      <trkpt lat="45.38245" lon="5.81617">
        <ele>1777.400024414</ele>
        <time>2012-12-09T12:00:43Z</time>
      </trkpt>
      <trkpt lat="45.38246" lon="5.81624">
        <ele>1779.400024414</ele>
        <time>2012-12-09T12:00:52Z</time>
      </trkpt>
      <trkpt lat="45.3825" lon="5.8163">
        <ele>1781.199951172</ele>
        <time>2012-12-09T12:01:00Z</time>
      </trkpt>
      <trkpt lat="45.38253" lon="5.81634">
        <ele>1780.800048828</ele>
        <time>2012-12-09T12:01:06Z</time>
      </trkpt>
      <trkpt lat="45.38254" lon="5.81638">
        <ele>1781.400024414</ele>
        <time>2012-12-09T12:01:13Z</time>
      </trkpt>
      <trkpt lat="45.38255" lon="5.81641">
        <ele>1782</ele>
        <time>2012-12-09T12:01:17Z</time>
      </trkpt>
      <trkpt lat="45.38255" lon="5.81645">
        <ele>1783</ele>
        <time>2012-12-09T12:01:23Z</time>
      </trkpt>
      <trkpt lat="45.38255" lon="5.81651">
        <ele>1784.800048828</ele>
        <time>2012-12-09T12:01:31Z</time>
      </trkpt>
      <trkpt lat="45.38255" lon="5.81653">
        <ele>1785.400024414</ele>
        <time>2012-12-09T12:01:35Z</time>
      </trkpt>
      <trkpt lat="45.38253" lon="5.81656">
        <ele>1787</ele>
        <time>2012-12-09T12:01:40Z</time>
      </trkpt>
      <trkpt lat="45.38252" lon="5.81657">
        <ele>1787.599975586</ele>
        <time>2012-12-09T12:01:44Z</time>
      </trkpt>
      <trkpt lat="45.38251" lon="5.81659">
        <ele>1788.400024414</ele>
        <time>2012-12-09T12:01:49Z</time>
      </trkpt>
      <trkpt lat="45.38249" lon="5.81661">
        <ele>1789.199951172</ele>
        <time>2012-12-09T12:01:53Z</time>
      </trkpt>
      <trkpt lat="45.38248" lon="5.81662">
        <ele>1789.400024414</ele>
        <time>2012-12-09T12:01:57Z</time>
      </trkpt>
      <trkpt lat="45.38247" lon="5.81661">
        <ele>1789.400024414</ele>
        <time>2012-12-09T12:02:04Z</time>
      </trkpt>
      <trkpt lat="45.38246" lon="5.81661">
        <ele>1789.199951172</ele>
        <time>2012-12-09T12:02:12Z</time>
      </trkpt>
      <trkpt lat="45.38244" lon="5.81663">
        <ele>1789.800048828</ele>
        <time>2012-12-09T12:02:23Z</time>
      </trkpt>
      <trkpt lat="45.38241" lon="5.8166">
        <ele>1788.800048828</ele>
        <time>2012-12-09T12:02:28Z</time>
      </trkpt>
      <trkpt lat="45.38241" lon="5.8166">
        <ele>1788.800048828</ele>
        <time>2012-12-09T12:02:37Z</time>
      </trkpt>
      <trkpt lat="45.38238" lon="5.81658">
        <ele>1788</ele>
        <time>2012-12-09T12:03:15Z</time>
      </trkpt>
      <trkpt lat="45.38235" lon="5.81654">
        <ele>1786.800048828</ele>
        <time>2012-12-09T12:03:21Z</time>
      </trkpt>
      <trkpt lat="45.38233" lon="5.81649">
        <ele>1785.199951172</ele>
        <time>2012-12-09T12:03:28Z</time>
      </trkpt>
      <trkpt lat="45.38232" lon="5.81646">
        <ele>1784.400024414</ele>
        <time>2012-12-09T12:03:32Z</time>
      </trkpt>
      <trkpt lat="45.3823" lon="5.81644">
        <ele>1783.800048828</ele>
        <time>2012-12-09T12:03:36Z</time>
      </trkpt>
      <trkpt lat="45.38226" lon="5.81641">
        <ele>1782.800048828</ele>
        <time>2012-12-09T12:03:43Z</time>
      </trkpt>
      <trkpt lat="45.3822" lon="5.81637">
        <ele>1781.199951172</ele>
        <time>2012-12-09T12:03:50Z</time>
      </trkpt>
      <trkpt lat="45.38217" lon="5.81635">
        <ele>1780.400024414</ele>
        <time>2012-12-09T12:03:55Z</time>
      </trkpt>
      <trkpt lat="45.38213" lon="5.81633">
        <ele>1779.599975586</ele>
        <time>2012-12-09T12:04:02Z</time>
      </trkpt>
      <trkpt lat="45.38208" lon="5.81632">
        <ele>1778.800048828</ele>
        <time>2012-12-09T12:04:11Z</time>
      </trkpt>
      <trkpt lat="45.38206" lon="5.8163">
        <ele>1778.199951172</ele>
        <time>2012-12-09T12:04:17Z</time>
      </trkpt>
      <trkpt lat="45.38204" lon="5.81626">
        <ele>1777</ele>
        <time>2012-12-09T12:04:24Z</time>
      </trkpt>
      <trkpt lat="45.38198" lon="5.81624">
        <ele>1775.800048828</ele>
        <time>2012-12-09T12:04:34Z</time>
      </trkpt>
      <trkpt lat="45.38198" lon="5.81624">
        <ele>1775.800048828</ele>
        <time>2012-12-09T12:04:42Z</time>
      </trkpt>
      <trkpt lat="45.38193" lon="5.81623">
        <ele>1775.199951172</ele>
        <time>2012-12-09T12:04:51Z</time>
      </trkpt>
      <trkpt lat="45.38189" lon="5.81621">
        <ele>1774.199951172</ele>
        <time>2012-12-09T12:04:56Z</time>
      </trkpt>
      <trkpt lat="45.38185" lon="5.81618">
        <ele>1773</ele>
        <time>2012-12-09T12:05:01Z</time>
      </trkpt>
      <trkpt lat="45.38182" lon="5.81615">
        <ele>1772</ele>
        <time>2012-12-09T12:05:06Z</time>
      </trkpt>
      <trkpt lat="45.3818" lon="5.81613">
        <ele>1770.800048828</ele>
        <time>2012-12-09T12:05:11Z</time>
      </trkpt>
      <trkpt lat="45.38177" lon="5.81609">
        <ele>1769.400024414</ele>
        <time>2012-12-09T12:05:16Z</time>
      </trkpt>
      <trkpt lat="45.38175" lon="5.81606">
        <ele>1768.400024414</ele>
        <time>2012-12-09T12:05:21Z</time>
      </trkpt>
      <trkpt lat="45.38169" lon="5.81601">
        <ele>1766</ele>
        <time>2012-12-09T12:05:30Z</time>
      </trkpt>
      <trkpt lat="45.38162" lon="5.81598">
        <ele>1765</ele>
        <time>2012-12-09T12:05:39Z</time>
      </trkpt>
      <trkpt lat="45.38155" lon="5.81594">
        <ele>1764.400024414</ele>
        <time>2012-12-09T12:05:48Z</time>
      </trkpt>
      <trkpt lat="45.38146" lon="5.81593">
        <ele>1764.800048828</ele>
        <time>2012-12-09T12:05:55Z</time>
      </trkpt>
      <trkpt lat="45.38142" lon="5.81591">
        <ele>1764.599975586</ele>
        <time>2012-12-09T12:06:01Z</time>
      </trkpt>
      <trkpt lat="45.38139" lon="5.81588">
        <ele>1764.199951172</ele>
        <time>2012-12-09T12:06:06Z</time>
      </trkpt>
      <trkpt lat="45.38135" lon="5.81584">
        <ele>1764</ele>
        <time>2012-12-09T12:06:13Z</time>
      </trkpt>
      <trkpt lat="45.3813" lon="5.81582">
        <ele>1764</ele>
        <time>2012-12-09T12:06:20Z</time>
      </trkpt>
      <trkpt lat="45.38124" lon="5.8158">
        <ele>1764.199951172</ele>
        <time>2012-12-09T12:06:25Z</time>
      </trkpt>
      <trkpt lat="45.38123" lon="5.81579">
        <ele>1764.199951172</ele>
        <time>2012-12-09T12:06:26Z</time>
      </trkpt>
      <trkpt lat="45.38122" lon="5.81579">
        <ele>1764.199951172</ele>
        <time>2012-12-09T12:06:28Z</time>
      </trkpt>
      <trkpt lat="45.38118" lon="5.81578">
        <ele>1764.400024414</ele>
        <time>2012-12-09T12:06:33Z</time>
      </trkpt>
      <trkpt lat="45.38111" lon="5.81578">
        <ele>1765.400024414</ele>
        <time>2012-12-09T12:06:41Z</time>
      </trkpt>
      <trkpt lat="45.38105" lon="5.81575">
        <ele>1765.400024414</ele>
        <time>2012-12-09T12:06:47Z</time>
      </trkpt>
      <trkpt lat="45.38098" lon="5.8157">
        <ele>1765.199951172</ele>
        <time>2012-12-09T12:06:55Z</time>
      </trkpt>
      <trkpt lat="45.38096" lon="5.8157">
        <ele>1765.400024414</ele>
        <time>2012-12-09T12:06:59Z</time>
      </trkpt>
      <trkpt lat="45.38095" lon="5.81569">
        <ele>1765.400024414</ele>
        <time>2012-12-09T12:07:00Z</time>
      </trkpt>
      <trkpt lat="45.3809" lon="5.81568">
        <ele>1765.800048828</ele>
        <time>2012-12-09T12:07:07Z</time>
      </trkpt>
      <trkpt lat="45.38084" lon="5.81567">
        <ele>1766.199951172</ele>
        <time>2012-12-09T12:07:14Z</time>
      </trkpt>
      <trkpt lat="45.38079" lon="5.81566">
        <ele>1766.599975586</ele>
        <time>2012-12-09T12:07:20Z</time>
      </trkpt>
      <trkpt lat="45.38074" lon="5.81564">
        <ele>1767</ele>
        <time>2012-12-09T12:07:28Z</time>
      </trkpt>
      <trkpt lat="45.38068" lon="5.81562">
        <ele>1767.199951172</ele>
        <time>2012-12-09T12:07:35Z</time>
      </trkpt>
      <trkpt lat="45.38061" lon="5.81559">
        <ele>1767.400024414</ele>
        <time>2012-12-09T12:07:43Z</time>
      </trkpt>
      <trkpt lat="45.38056" lon="5.81556">
        <ele>1767.599975586</ele>
        <time>2012-12-09T12:07:50Z</time>
      </trkpt>
      <trkpt lat="45.38051" lon="5.81554">
        <ele>1767.599975586</ele>
        <time>2012-12-09T12:07:57Z</time>
      </trkpt>
      <trkpt lat="45.38049" lon="5.81553">
        <ele>1767.800048828</ele>
        <time>2012-12-09T12:08:02Z</time>
      </trkpt>
      <trkpt lat="45.38042" lon="5.81552">
        <ele>1768.400024414</ele>
        <time>2012-12-09T12:08:10Z</time>
      </trkpt>
      <trkpt lat="45.38035" lon="5.81548">
        <ele>1768.599975586</ele>
        <time>2012-12-09T12:08:20Z</time>
      </trkpt>
      <trkpt lat="45.3803" lon="5.81545">
        <ele>1768.800048828</ele>
        <time>2012-12-09T12:08:28Z</time>
      </trkpt>
      <trkpt lat="45.38022" lon="5.81541">
        <ele>1769.199951172</ele>
        <time>2012-12-09T12:08:36Z</time>
      </trkpt>
      <trkpt lat="45.38016" lon="5.81538">
        <ele>1769.599975586</ele>
        <time>2012-12-09T12:08:45Z</time>
      </trkpt>
      <trkpt lat="45.38008" lon="5.81535">
        <ele>1770.199951172</ele>
        <time>2012-12-09T12:08:55Z</time>
      </trkpt>
      <trkpt lat="45.38" lon="5.8153">
        <ele>1770.599975586</ele>
        <time>2012-12-09T12:09:03Z</time>
      </trkpt>
      <trkpt lat="45.37994" lon="5.81526">
        <ele>1771.199951172</ele>
        <time>2012-12-09T12:09:10Z</time>
      </trkpt>
      <trkpt lat="45.37987" lon="5.81524">
        <ele>1772.400024414</ele>
        <time>2012-12-09T12:09:16Z</time>
      </trkpt>
      <trkpt lat="45.37978" lon="5.81521">
        <ele>1773.599975586</ele>
        <time>2012-12-09T12:09:25Z</time>
      </trkpt>
      <trkpt lat="45.3797" lon="5.81518">
        <ele>1775</ele>
        <time>2012-12-09T12:09:30Z</time>
      </trkpt>
      <trkpt lat="45.37969" lon="5.81518">
        <ele>1775.199951172</ele>
        <time>2012-12-09T12:09:33Z</time>
      </trkpt>
      <trkpt lat="45.37968" lon="5.81517">
        <ele>1775.199951172</ele>
        <time>2012-12-09T12:09:35Z</time>
      </trkpt>
      <trkpt lat="45.37966" lon="5.81516">
        <ele>1775.400024414</ele>
        <time>2012-12-09T12:09:38Z</time>
      </trkpt>
      <trkpt lat="45.37961" lon="5.81511">
        <ele>1775.400024414</ele>
        <time>2012-12-09T12:09:45Z</time>
      </trkpt>
      <trkpt lat="45.37954" lon="5.81507">
        <ele>1775.800048828</ele>
        <time>2012-12-09T12:09:54Z</time>
      </trkpt>
      <trkpt lat="45.37946" lon="5.81503">
        <ele>1776.199951172</ele>
        <time>2012-12-09T12:10:04Z</time>
      </trkpt>
      <trkpt lat="45.37939" lon="5.81499">
        <ele>1776.599975586</ele>
        <time>2012-12-09T12:10:14Z</time>
      </trkpt>
      <trkpt lat="45.37931" lon="5.81494">
        <ele>1776.800048828</ele>
        <time>2012-12-09T12:10:24Z</time>
      </trkpt>
      <trkpt lat="45.37924" lon="5.81491">
        <ele>1777.199951172</ele>
        <time>2012-12-09T12:10:32Z</time>
      </trkpt>
      <trkpt lat="45.37916" lon="5.81486">
        <ele>1777.400024414</ele>
        <time>2012-12-09T12:10:38Z</time>
      </trkpt>
      <trkpt lat="45.37907" lon="5.8148">
        <ele>1777.199951172</ele>
        <time>2012-12-09T12:10:44Z</time>
      </trkpt>
      <trkpt lat="45.379" lon="5.81477">
        <ele>1777.800048828</ele>
        <time>2012-12-09T12:10:52Z</time>
      </trkpt>
      <trkpt lat="45.37887" lon="5.81474">
        <ele>1779.599975586</ele>
        <time>2012-12-09T12:11:01Z</time>
      </trkpt>
      <trkpt lat="45.37878" lon="5.81472">
        <ele>1780.800048828</ele>
        <time>2012-12-09T12:11:09Z</time>
      </trkpt>
      <trkpt lat="45.3787" lon="5.81471">
        <ele>1781.800048828</ele>
        <time>2012-12-09T12:11:18Z</time>
      </trkpt>
      <trkpt lat="45.37862" lon="5.81466">
        <ele>1782.199951172</ele>
        <time>2012-12-09T12:11:28Z</time>
      </trkpt>
      <trkpt lat="45.37856" lon="5.81462">
        <ele>1782.400024414</ele>
        <time>2012-12-09T12:11:38Z</time>
      </trkpt>
      <trkpt lat="45.37854" lon="5.81463">
        <ele>1782.800048828</ele>
        <time>2012-12-09T12:11:42Z</time>
      </trkpt>
      <trkpt lat="45.3785" lon="5.81463">
        <ele>1783.599975586</ele>
        <time>2012-12-09T12:11:48Z</time>
      </trkpt>
      <trkpt lat="45.37847" lon="5.81462">
        <ele>1784</ele>
        <time>2012-12-09T12:11:55Z</time>
      </trkpt>
      <trkpt lat="45.37841" lon="5.8146">
        <ele>1784.800048828</ele>
        <time>2012-12-09T12:12:06Z</time>
      </trkpt>
      <trkpt lat="45.37839" lon="5.81459">
        <ele>1784.800048828</ele>
        <time>2012-12-09T12:12:12Z</time>
      </trkpt>
      <trkpt lat="45.37842" lon="5.81455">
        <ele>1783.400024414</ele>
        <time>2012-12-09T12:12:22Z</time>
      </trkpt>
      <trkpt lat="45.37841" lon="5.81452">
        <ele>1783</ele>
        <time>2012-12-09T12:12:28Z</time>
      </trkpt>
      <trkpt lat="45.37838" lon="5.81449">
        <ele>1783</ele>
        <time>2012-12-09T12:12:37Z</time>
      </trkpt>
      <trkpt lat="45.37835" lon="5.81446">
        <ele>1783</ele>
        <time>2012-12-09T12:12:46Z</time>
      </trkpt>
      <trkpt lat="45.37832" lon="5.81447">
        <ele>1783.800048828</ele>
        <time>2012-12-09T12:12:53Z</time>
      </trkpt>
      <trkpt lat="45.37826" lon="5.81449">
        <ele>1785.199951172</ele>
        <time>2012-12-09T12:13:03Z</time>
      </trkpt>
      <trkpt lat="45.37822" lon="5.8145">
        <ele>1786.400024414</ele>
        <time>2012-12-09T12:13:12Z</time>
      </trkpt>
      <trkpt lat="45.3782" lon="5.81448">
        <ele>1786.199951172</ele>
        <time>2012-12-09T12:13:17Z</time>
      </trkpt>
      <trkpt lat="45.37816" lon="5.81446">
        <ele>1786.599975586</ele>
        <time>2012-12-09T12:13:29Z</time>
      </trkpt>
      <trkpt lat="45.37809" lon="5.81444">
        <ele>1787.400024414</ele>
        <time>2012-12-09T12:13:41Z</time>
      </trkpt>
      <trkpt lat="45.37805" lon="5.81443">
        <ele>1788</ele>
        <time>2012-12-09T12:13:51Z</time>
      </trkpt>
      <trkpt lat="45.37802" lon="5.81443">
        <ele>1788.800048828</ele>
        <time>2012-12-09T12:13:59Z</time>
      </trkpt>
      <trkpt lat="45.37798" lon="5.81442">
        <ele>1789.199951172</ele>
        <time>2012-12-09T12:14:07Z</time>
      </trkpt>
      <trkpt lat="45.37796" lon="5.81441">
        <ele>1789.400024414</ele>
        <time>2012-12-09T12:14:12Z</time>
      </trkpt>
      <trkpt lat="45.37793" lon="5.8144">
        <ele>1789.800048828</ele>
        <time>2012-12-09T12:14:18Z</time>
      </trkpt>
      <trkpt lat="45.3779" lon="5.81436">
        <ele>1789.599975586</ele>
        <time>2012-12-09T12:14:27Z</time>
      </trkpt>
      <trkpt lat="45.37787" lon="5.81435">
        <ele>1790</ele>
        <time>2012-12-09T12:14:34Z</time>
      </trkpt>
      <trkpt lat="45.37785" lon="5.81434">
        <ele>1790.199951172</ele>
        <time>2012-12-09T12:14:39Z</time>
      </trkpt>
      <trkpt lat="45.37782" lon="5.81432">
        <ele>1790.199951172</ele>
        <time>2012-12-09T12:14:48Z</time>
      </trkpt>
      <trkpt lat="45.37778" lon="5.8143">
        <ele>1790.800048828</ele>
        <time>2012-12-09T12:14:57Z</time>
      </trkpt>
      <trkpt lat="45.37776" lon="5.81427">
        <ele>1790.599975586</ele>
        <time>2012-12-09T12:15:05Z</time>
      </trkpt>
      <trkpt lat="45.37774" lon="5.81424">
        <ele>1790.400024414</ele>
        <time>2012-12-09T12:15:14Z</time>
      </trkpt>
      <trkpt lat="45.37771" lon="5.81423">
        <ele>1791</ele>
        <time>2012-12-09T12:15:24Z</time>
      </trkpt>
      <trkpt lat="45.37769" lon="5.81422">
        <ele>1791</ele>
        <time>2012-12-09T12:15:31Z</time>
      </trkpt>
      <trkpt lat="45.37765" lon="5.81418">
        <ele>1791</ele>
        <time>2012-12-09T12:15:48Z</time>
      </trkpt>
      <trkpt lat="45.37763" lon="5.81416">
        <ele>1791.199951172</ele>
        <time>2012-12-09T12:15:57Z</time>
      </trkpt>
      <trkpt lat="45.3776" lon="5.81417">
        <ele>1792</ele>
        <time>2012-12-09T12:16:06Z</time>
      </trkpt>
      <trkpt lat="45.37757" lon="5.81418">
        <ele>1792.599975586</ele>
        <time>2012-12-09T12:16:12Z</time>
      </trkpt>
      <trkpt lat="45.37753" lon="5.81418">
        <ele>1793.599975586</ele>
        <time>2012-12-09T12:16:20Z</time>
      </trkpt>
      <trkpt lat="45.37749" lon="5.81418">
        <ele>1794.199951172</ele>
        <time>2012-12-09T12:16:28Z</time>
      </trkpt>
      <trkpt lat="45.37745" lon="5.81417">
        <ele>1795</ele>
        <time>2012-12-09T12:16:37Z</time>
      </trkpt>
      <trkpt lat="45.37742" lon="5.81417">
        <ele>1795.599975586</ele>
        <time>2012-12-09T12:16:43Z</time>
      </trkpt>
      <trkpt lat="45.37739" lon="5.81414">
        <ele>1795.400024414</ele>
        <time>2012-12-09T12:16:52Z</time>
      </trkpt>
      <trkpt lat="45.37737" lon="5.81412">
        <ele>1795.199951172</ele>
        <time>2012-12-09T12:16:58Z</time>
      </trkpt>
      <trkpt lat="45.37735" lon="5.81412">
        <ele>1795.599975586</ele>
        <time>2012-12-09T12:17:03Z</time>
      </trkpt>
      <trkpt lat="45.37732" lon="5.81411">
        <ele>1796</ele>
        <time>2012-12-09T12:17:09Z</time>
      </trkpt>
      <trkpt lat="45.37734" lon="5.81407">
        <ele>1794.800048828</ele>
        <time>2012-12-09T12:17:17Z</time>
      </trkpt>
      <trkpt lat="45.37737" lon="5.81401">
        <ele>1792.599975586</ele>
        <time>2012-12-09T12:17:26Z</time>
      </trkpt>
      <trkpt lat="45.37736" lon="5.814">
        <ele>1792.400024414</ele>
        <time>2012-12-09T12:17:31Z</time>
      </trkpt>
      <trkpt lat="45.37732" lon="5.81397">
        <ele>1792.599975586</ele>
        <time>2012-12-09T12:17:40Z</time>
      </trkpt>
      <trkpt lat="45.3773" lon="5.81395">
        <ele>1792.599975586</ele>
        <time>2012-12-09T12:17:46Z</time>
      </trkpt>
      <trkpt lat="45.37726" lon="5.81394">
        <ele>1793.199951172</ele>
        <time>2012-12-09T12:17:52Z</time>
      </trkpt>
      <trkpt lat="45.37724" lon="5.81394">
        <ele>1793.400024414</ele>
        <time>2012-12-09T12:17:57Z</time>
      </trkpt>
      <trkpt lat="45.37718" lon="5.81392">
        <ele>1794.199951172</ele>
        <time>2012-12-09T12:18:04Z</time>
      </trkpt>
      <trkpt lat="45.37711" lon="5.81393">
        <ele>1796</ele>
        <time>2012-12-09T12:18:12Z</time>
      </trkpt>
      <trkpt lat="45.37706" lon="5.81394">
        <ele>1797</ele>
        <time>2012-12-09T12:18:17Z</time>
      </trkpt>
      <trkpt lat="45.37703" lon="5.81392">
        <ele>1797.400024414</ele>
        <time>2012-12-09T12:18:22Z</time>
      </trkpt>
      <trkpt lat="45.37701" lon="5.81391">
        <ele>1797.599975586</ele>
        <time>2012-12-09T12:18:26Z</time>
      </trkpt>
      <trkpt lat="45.37698" lon="5.81389">
        <ele>1797.800048828</ele>
        <time>2012-12-09T12:18:31Z</time>
      </trkpt>
      <trkpt lat="45.37694" lon="5.81385">
        <ele>1797.599975586</ele>
        <time>2012-12-09T12:18:38Z</time>
      </trkpt>
      <trkpt lat="45.37692" lon="5.81382">
        <ele>1797.400024414</ele>
        <time>2012-12-09T12:18:43Z</time>
      </trkpt>
      <trkpt lat="45.37684" lon="5.8138">
        <ele>1798.599975586</ele>
        <time>2012-12-09T12:18:49Z</time>
      </trkpt>
      <trkpt lat="45.37679" lon="5.81381">
        <ele>1800</ele>
        <time>2012-12-09T12:18:56Z</time>
      </trkpt>
      <trkpt lat="45.37675" lon="5.81381">
        <ele>1800.800048828</ele>
        <time>2012-12-09T12:19:03Z</time>
      </trkpt>
      <trkpt lat="45.37672" lon="5.81379">
        <ele>1801</ele>
        <time>2012-12-09T12:19:10Z</time>
      </trkpt>
      <trkpt lat="45.37672" lon="5.81376">
        <ele>1800.400024414</ele>
        <time>2012-12-09T12:19:15Z</time>
      </trkpt>
      <trkpt lat="45.3767" lon="5.81374">
        <ele>1800.400024414</ele>
        <time>2012-12-09T12:19:20Z</time>
      </trkpt>
      <trkpt lat="45.37666" lon="5.81374">
        <ele>1801.400024414</ele>
        <time>2012-12-09T12:19:28Z</time>
      </trkpt>
      <trkpt lat="45.37666" lon="5.81374">
        <ele>1801.400024414</ele>
        <time>2012-12-09T12:19:29Z</time>
      </trkpt>
      <trkpt lat="45.37666" lon="5.81374">
        <ele>1801.400024414</ele>
        <time>2012-12-09T12:19:38Z</time>
      </trkpt>
      <trkpt lat="45.37666" lon="5.81374">
        <ele>1801.400024414</ele>
        <time>2012-12-09T12:19:51Z</time>
      </trkpt>
      <trkpt lat="45.37666" lon="5.81374">
        <ele>1801.400024414</ele>
        <time>2012-12-09T12:19:57Z</time>
      </trkpt>
      <trkpt lat="45.37666" lon="5.81374">
        <ele>1801.400024414</ele>
        <time>2012-12-09T12:20:16Z</time>
      </trkpt>
      <trkpt lat="45.37665" lon="5.81374">
        <ele>1801.599975586</ele>
        <time>2012-12-09T12:20:34Z</time>
      </trkpt>
      <trkpt lat="45.37665" lon="5.81375">
        <ele>1801.599975586</ele>
        <time>2012-12-09T12:20:40Z</time>
      </trkpt>
      <trkpt lat="45.37665" lon="5.81375">
        <ele>1801.800048828</ele>
        <time>2012-12-09T12:20:55Z</time>
      </trkpt>
      <trkpt lat="45.37665" lon="5.81375">
        <ele>1801.800048828</ele>
        <time>2012-12-09T12:21:01Z</time>
      </trkpt>
      <trkpt lat="45.37663" lon="5.81376">
        <ele>1802.199951172</ele>
        <time>2012-12-09T12:21:17Z</time>
      </trkpt>
      <trkpt lat="45.37662" lon="5.81376">
        <ele>1802.599975586</ele>
        <time>2012-12-09T12:21:22Z</time>
      </trkpt>
      <trkpt lat="45.37662" lon="5.81374">
        <ele>1802.199951172</ele>
        <time>2012-12-09T12:21:36Z</time>
      </trkpt>
      <trkpt lat="45.37658" lon="5.81376">
        <ele>1803</ele>
        <time>2012-12-09T12:21:42Z</time>
      </trkpt>
      <trkpt lat="45.37656" lon="5.81377">
        <ele>1803.800048828</ele>
        <time>2012-12-09T12:21:46Z</time>
      </trkpt>
      <trkpt lat="45.37656" lon="5.81376">
        <ele>1803.800048828</ele>
        <time>2012-12-09T12:21:52Z</time>
      </trkpt>
      <trkpt lat="45.37655" lon="5.81377">
        <ele>1804</ele>
        <time>2012-12-09T12:22:00Z</time>
      </trkpt>
      <trkpt lat="45.37654" lon="5.81377">
        <ele>1804.199951172</ele>
        <time>2012-12-09T12:22:05Z</time>
      </trkpt>
      <trkpt lat="45.37651" lon="5.81376">
        <ele>1804.599975586</ele>
        <time>2012-12-09T12:22:13Z</time>
      </trkpt>
      <trkpt lat="45.37647" lon="5.81375">
        <ele>1805</ele>
        <time>2012-12-09T12:22:19Z</time>
      </trkpt>
      <trkpt lat="45.37644" lon="5.81374">
        <ele>1805.199951172</ele>
        <time>2012-12-09T12:22:26Z</time>
      </trkpt>
      <trkpt lat="45.37644" lon="5.81373">
        <ele>1805.199951172</ele>
        <time>2012-12-09T12:22:27Z</time>
      </trkpt>
      <trkpt lat="45.37642" lon="5.81371">
        <ele>1805.199951172</ele>
        <time>2012-12-09T12:22:33Z</time>
      </trkpt>
      <trkpt lat="45.37638" lon="5.8137">
        <ele>1805.800048828</ele>
        <time>2012-12-09T12:22:39Z</time>
      </trkpt>
      <trkpt lat="45.37636" lon="5.8137">
        <ele>1806.199951172</ele>
        <time>2012-12-09T12:22:44Z</time>
      </trkpt>
      <trkpt lat="45.37635" lon="5.81372">
        <ele>1806.599975586</ele>
        <time>2012-12-09T12:22:50Z</time>
      </trkpt>
      <trkpt lat="45.37631" lon="5.81371">
        <ele>1807.199951172</ele>
        <time>2012-12-09T12:22:55Z</time>
      </trkpt>
      <trkpt lat="45.37629" lon="5.8137">
        <ele>1807.400024414</ele>
        <time>2012-12-09T12:23:01Z</time>
      </trkpt>
      <trkpt lat="45.37629" lon="5.81369">
        <ele>1807.400024414</ele>
        <time>2012-12-09T12:23:08Z</time>
      </trkpt>
      <trkpt lat="45.37628" lon="5.8137">
        <ele>1807.599975586</ele>
        <time>2012-12-09T12:23:16Z</time>
      </trkpt>
      <trkpt lat="45.37628" lon="5.8137">
        <ele>1807.599975586</ele>
        <time>2012-12-09T12:23:22Z</time>
      </trkpt>
      <trkpt lat="45.37626" lon="5.81365">
        <ele>1807.199951172</ele>
        <time>2012-12-09T12:23:42Z</time>
      </trkpt>
      <trkpt lat="45.37623" lon="5.81362">
        <ele>1807</ele>
        <time>2012-12-09T12:23:48Z</time>
      </trkpt>
      <trkpt lat="45.37619" lon="5.81361">
        <ele>1807.599975586</ele>
        <time>2012-12-09T12:24:09Z</time>
      </trkpt>
      <trkpt lat="45.37617" lon="5.8136">
        <ele>1807.800048828</ele>
        <time>2012-12-09T12:24:13Z</time>
      </trkpt>
      <trkpt lat="45.37614" lon="5.81358">
        <ele>1808</ele>
        <time>2012-12-09T12:24:18Z</time>
      </trkpt>
      <trkpt lat="45.37609" lon="5.81355">
        <ele>1808.599975586</ele>
        <time>2012-12-09T12:24:25Z</time>
      </trkpt>
      <trkpt lat="45.37603" lon="5.81352">
        <ele>1809.199951172</ele>
        <time>2012-12-09T12:24:32Z</time>
      </trkpt>
      <trkpt lat="45.37602" lon="5.81352">
        <ele>1809.199951172</ele>
        <time>2012-12-09T12:24:33Z</time>
      </trkpt>
      <trkpt lat="45.376" lon="5.81351">
        <ele>1809.599975586</ele>
        <time>2012-12-09T12:24:37Z</time>
      </trkpt>
      <trkpt lat="45.37596" lon="5.81351">
        <ele>1810.400024414</ele>
        <time>2012-12-09T12:24:44Z</time>
      </trkpt>
      <trkpt lat="45.37592" lon="5.81351">
        <ele>1811</ele>
        <time>2012-12-09T12:24:51Z</time>
      </trkpt>
      <trkpt lat="45.37588" lon="5.8135">
        <ele>1811.800048828</ele>
        <time>2012-12-09T12:25:01Z</time>
      </trkpt>
      <trkpt lat="45.37583" lon="5.81349">
        <ele>1812.599975586</ele>
        <time>2012-12-09T12:25:07Z</time>
      </trkpt>
      <trkpt lat="45.37576" lon="5.81348">
        <ele>1813.400024414</ele>
        <time>2012-12-09T12:25:14Z</time>
      </trkpt>
      <trkpt lat="45.37568" lon="5.81346">
        <ele>1814.599975586</ele>
        <time>2012-12-09T12:25:23Z</time>
      </trkpt>
      <trkpt lat="45.37559" lon="5.81346">
        <ele>1815.800048828</ele>
        <time>2012-12-09T12:25:32Z</time>
      </trkpt>
      <trkpt lat="45.37552" lon="5.81344">
        <ele>1817</ele>
        <time>2012-12-09T12:25:41Z</time>
      </trkpt>
      <trkpt lat="45.37548" lon="5.81343">
        <ele>1817.400024414</ele>
        <time>2012-12-09T12:25:45Z</time>
      </trkpt>
      <trkpt lat="45.37545" lon="5.81342">
        <ele>1817.599975586</ele>
        <time>2012-12-09T12:25:48Z</time>
      </trkpt>
      <trkpt lat="45.37536" lon="5.81338">
        <ele>1818.400024414</ele>
        <time>2012-12-09T12:25:56Z</time>
      </trkpt>
      <trkpt lat="45.37527" lon="5.81335">
        <ele>1819.599975586</ele>
        <time>2012-12-09T12:26:03Z</time>
      </trkpt>
      <trkpt lat="45.37518" lon="5.81329">
        <ele>1820.400024414</ele>
        <time>2012-12-09T12:26:11Z</time>
      </trkpt>
      <trkpt lat="45.37509" lon="5.81325">
        <ele>1821.400024414</ele>
        <time>2012-12-09T12:26:20Z</time>
      </trkpt>
      <trkpt lat="45.375" lon="5.81321">
        <ele>1822.199951172</ele>
        <time>2012-12-09T12:26:28Z</time>
      </trkpt>
      <trkpt lat="45.3749" lon="5.81315">
        <ele>1823</ele>
        <time>2012-12-09T12:26:38Z</time>
      </trkpt>
      <trkpt lat="45.37481" lon="5.81311">
        <ele>1824</ele>
        <time>2012-12-09T12:26:48Z</time>
      </trkpt>
      <trkpt lat="45.37472" lon="5.81311">
        <ele>1825.199951172</ele>
        <time>2012-12-09T12:26:58Z</time>
      </trkpt>
      <trkpt lat="45.37465" lon="5.81311">
        <ele>1826</ele>
        <time>2012-12-09T12:27:05Z</time>
      </trkpt>
      <trkpt lat="45.37458" lon="5.81312">
        <ele>1827.199951172</ele>
        <time>2012-12-09T12:27:13Z</time>
      </trkpt>
      <trkpt lat="45.37457" lon="5.81313">
        <ele>1827.400024414</ele>
        <time>2012-12-09T12:27:19Z</time>
      </trkpt>
      <trkpt lat="45.37456" lon="5.81312">
        <ele>1827.400024414</ele>
        <time>2012-12-09T12:28:01Z</time>
      </trkpt>
      <trkpt lat="45.3745" lon="5.81314">
        <ele>1828.400024414</ele>
        <time>2012-12-09T12:28:09Z</time>
      </trkpt>
      <trkpt lat="45.37448" lon="5.81315">
        <ele>1828.800048828</ele>
        <time>2012-12-09T12:28:14Z</time>
      </trkpt>
      <trkpt lat="45.37445" lon="5.81316">
        <ele>1829.400024414</ele>
        <time>2012-12-09T12:28:17Z</time>
      </trkpt>
      <trkpt lat="45.37441" lon="5.81317">
        <ele>1830</ele>
        <time>2012-12-09T12:28:21Z</time>
      </trkpt>
      <trkpt lat="45.37438" lon="5.81318">
        <ele>1830.599975586</ele>
        <time>2012-12-09T12:28:25Z</time>
      </trkpt>
      <trkpt lat="45.37435" lon="5.81319">
        <ele>1831</ele>
        <time>2012-12-09T12:28:29Z</time>
      </trkpt>
      <trkpt lat="45.37428" lon="5.81321">
        <ele>1832.199951172</ele>
        <time>2012-12-09T12:28:38Z</time>
      </trkpt>
      <trkpt lat="45.37421" lon="5.81323">
        <ele>1833.199951172</ele>
        <time>2012-12-09T12:28:46Z</time>
      </trkpt>
      <trkpt lat="45.37415" lon="5.81325">
        <ele>1834.199951172</ele>
        <time>2012-12-09T12:28:54Z</time>
      </trkpt>
      <trkpt lat="45.37405" lon="5.81327">
        <ele>1835.400024414</ele>
        <time>2012-12-09T12:29:05Z</time>
      </trkpt>
      <trkpt lat="45.37397" lon="5.81329">
        <ele>1836.599975586</ele>
        <time>2012-12-09T12:29:14Z</time>
      </trkpt>
      <trkpt lat="45.37389" lon="5.8133">
        <ele>1837.400024414</ele>
        <time>2012-12-09T12:29:23Z</time>
      </trkpt>
      <trkpt lat="45.37383" lon="5.81331">
        <ele>1838.400024414</ele>
        <time>2012-12-09T12:29:30Z</time>
      </trkpt>
      <trkpt lat="45.37376" lon="5.81333">
        <ele>1839.400024414</ele>
        <time>2012-12-09T12:29:38Z</time>
      </trkpt>
      <trkpt lat="45.37368" lon="5.81334">
        <ele>1840.199951172</ele>
        <time>2012-12-09T12:29:45Z</time>
      </trkpt>
      <trkpt lat="45.3736" lon="5.81336">
        <ele>1841.199951172</ele>
        <time>2012-12-09T12:29:53Z</time>
      </trkpt>
      <trkpt lat="45.37352" lon="5.81336">
        <ele>1842.199951172</ele>
        <time>2012-12-09T12:30:00Z</time>
      </trkpt>
      <trkpt lat="45.37351" lon="5.81336">
        <ele>1842.199951172</ele>
        <time>2012-12-09T12:30:01Z</time>
      </trkpt>
      <trkpt lat="45.37343" lon="5.81336">
        <ele>1843</ele>
        <time>2012-12-09T12:30:07Z</time>
      </trkpt>
      <trkpt lat="45.37331" lon="5.81336">
        <ele>1844.199951172</ele>
        <time>2012-12-09T12:30:15Z</time>
      </trkpt>
      <trkpt lat="45.37322" lon="5.81335">
        <ele>1844.800048828</ele>
        <time>2012-12-09T12:30:22Z</time>
      </trkpt>
      <trkpt lat="45.37314" lon="5.81335">
        <ele>1845.199951172</ele>
        <time>2012-12-09T12:30:29Z</time>
      </trkpt>
      <trkpt lat="45.37312" lon="5.81335">
        <ele>1845.199951172</ele>
        <time>2012-12-09T12:30:30Z</time>
      </trkpt>
      <trkpt lat="45.37308" lon="5.81334">
        <ele>1845.400024414</ele>
        <time>2012-12-09T12:30:34Z</time>
      </trkpt>
      <trkpt lat="45.37303" lon="5.81333">
        <ele>1845.599975586</ele>
        <time>2012-12-09T12:30:40Z</time>
      </trkpt>
      <trkpt lat="45.37294" lon="5.81331">
        <ele>1846</ele>
        <time>2012-12-09T12:30:50Z</time>
      </trkpt>
      <trkpt lat="45.37289" lon="5.8133">
        <ele>1846.199951172</ele>
        <time>2012-12-09T12:30:57Z</time>
      </trkpt>
      <trkpt lat="45.37282" lon="5.81331">
        <ele>1846.800048828</ele>
        <time>2012-12-09T12:31:05Z</time>
      </trkpt>
      <trkpt lat="45.3728" lon="5.81331">
        <ele>1847</ele>
        <time>2012-12-09T12:31:08Z</time>
      </trkpt>
      <trkpt lat="45.37277" lon="5.81331">
        <ele>1847.199951172</ele>
        <time>2012-12-09T12:31:12Z</time>
      </trkpt>
      <trkpt lat="45.37274" lon="5.81332">
        <ele>1847.400024414</ele>
        <time>2012-12-09T12:31:17Z</time>
      </trkpt>
      <trkpt lat="45.3727" lon="5.81332">
        <ele>1847.599975586</ele>
        <time>2012-12-09T12:31:23Z</time>
      </trkpt>
      <trkpt lat="45.37266" lon="5.8133">
        <ele>1847.599975586</ele>
        <time>2012-12-09T12:31:30Z</time>
      </trkpt>
      <trkpt lat="45.37264" lon="5.81329">
        <ele>1847.599975586</ele>
        <time>2012-12-09T12:31:34Z</time>
      </trkpt>
      <trkpt lat="45.37262" lon="5.81325">
        <ele>1847.400024414</ele>
        <time>2012-12-09T12:31:40Z</time>
      </trkpt>
      <trkpt lat="45.37261" lon="5.8132">
        <ele>1847</ele>
        <time>2012-12-09T12:31:46Z</time>
      </trkpt>
      <trkpt lat="45.3726" lon="5.81318">
        <ele>1846.800048828</ele>
        <time>2012-12-09T12:31:51Z</time>
      </trkpt>
      <trkpt lat="45.37259" lon="5.81315">
        <ele>1846.599975586</ele>
        <time>2012-12-09T12:31:57Z</time>
      </trkpt>
      <trkpt lat="45.37257" lon="5.81313">
        <ele>1846.599975586</ele>
        <time>2012-12-09T12:32:01Z</time>
      </trkpt>
      <trkpt lat="45.37256" lon="5.81311">
        <ele>1846.400024414</ele>
        <time>2012-12-09T12:32:05Z</time>
      </trkpt>
      <trkpt lat="45.37254" lon="5.8131">
        <ele>1846.400024414</ele>
        <time>2012-12-09T12:32:09Z</time>
      </trkpt>
      <trkpt lat="45.37251" lon="5.81306">
        <ele>1846.199951172</ele>
        <time>2012-12-09T12:32:16Z</time>
      </trkpt>
      <trkpt lat="45.3725" lon="5.81304">
        <ele>1846</ele>
        <time>2012-12-09T12:32:20Z</time>
      </trkpt>
      <trkpt lat="45.37248" lon="5.813">
        <ele>1845.800048828</ele>
        <time>2012-12-09T12:32:26Z</time>
      </trkpt>
      <trkpt lat="45.37246" lon="5.81298">
        <ele>1845.599975586</ele>
        <time>2012-12-09T12:32:30Z</time>
      </trkpt>
      <trkpt lat="45.37244" lon="5.81298">
        <ele>1845.599975586</ele>
        <time>2012-12-09T12:32:34Z</time>
      </trkpt>
      <trkpt lat="45.37242" lon="5.81297">
        <ele>1845.599975586</ele>
        <time>2012-12-09T12:32:38Z</time>
      </trkpt>
      <trkpt lat="45.3724" lon="5.81295">
        <ele>1845.599975586</ele>
        <time>2012-12-09T12:32:43Z</time>
      </trkpt>
      <trkpt lat="45.37239" lon="5.81293">
        <ele>1845.400024414</ele>
        <time>2012-12-09T12:32:47Z</time>
      </trkpt>
      <trkpt lat="45.37237" lon="5.81288">
        <ele>1844.800048828</ele>
        <time>2012-12-09T12:32:53Z</time>
      </trkpt>
      <trkpt lat="45.37234" lon="5.81279">
        <ele>1844.199951172</ele>
        <time>2012-12-09T12:33:02Z</time>
      </trkpt>
      <trkpt lat="45.37232" lon="5.81274">
        <ele>1843.800048828</ele>
        <time>2012-12-09T12:33:08Z</time>
      </trkpt>
      <trkpt lat="45.3723" lon="5.8127">
        <ele>1843.400024414</ele>
        <time>2012-12-09T12:33:14Z</time>
      </trkpt>
      <trkpt lat="45.37228" lon="5.81265">
        <ele>1842.800048828</ele>
        <time>2012-12-09T12:33:21Z</time>
      </trkpt>
      <trkpt lat="45.37227" lon="5.81261">
        <ele>1842.599975586</ele>
        <time>2012-12-09T12:33:25Z</time>
      </trkpt>
      <trkpt lat="45.37225" lon="5.81257">
        <ele>1842.199951172</ele>
        <time>2012-12-09T12:33:30Z</time>
      </trkpt>
      <trkpt lat="45.37223" lon="5.81254">
        <ele>1842</ele>
        <time>2012-12-09T12:33:36Z</time>
      </trkpt>
      <trkpt lat="45.37221" lon="5.81251">
        <ele>1841.599975586</ele>
        <time>2012-12-09T12:33:41Z</time>
      </trkpt>
      <trkpt lat="45.3722" lon="5.81248">
        <ele>1841.400024414</ele>
        <time>2012-12-09T12:33:45Z</time>
      </trkpt>
      <trkpt lat="45.37217" lon="5.81247">
        <ele>1841.199951172</ele>
        <time>2012-12-09T12:33:50Z</time>
      </trkpt>
      <trkpt lat="45.37212" lon="5.81245">
        <ele>1841</ele>
        <time>2012-12-09T12:33:59Z</time>
      </trkpt>
      <trkpt lat="45.37208" lon="5.81244">
        <ele>1841</ele>
        <time>2012-12-09T12:34:06Z</time>
      </trkpt>
      <trkpt lat="45.37206" lon="5.81243">
        <ele>1840.800048828</ele>
        <time>2012-12-09T12:34:10Z</time>
      </trkpt>
      <trkpt lat="45.37203" lon="5.81242">
        <ele>1840.800048828</ele>
        <time>2012-12-09T12:34:16Z</time>
      </trkpt>
      <trkpt lat="45.372" lon="5.81241">
        <ele>1840.800048828</ele>
        <time>2012-12-09T12:34:20Z</time>
      </trkpt>
      <trkpt lat="45.37197" lon="5.81239">
        <ele>1840.400024414</ele>
        <time>2012-12-09T12:34:25Z</time>
      </trkpt>
      <trkpt lat="45.37195" lon="5.81237">
        <ele>1840.199951172</ele>
        <time>2012-12-09T12:34:29Z</time>
      </trkpt>
      <trkpt lat="45.37193" lon="5.81236">
        <ele>1840</ele>
        <time>2012-12-09T12:34:33Z</time>
      </trkpt>
      <trkpt lat="45.37191" lon="5.81235">
        <ele>1840</ele>
        <time>2012-12-09T12:34:38Z</time>
      </trkpt>
      <trkpt lat="45.37188" lon="5.81236">
        <ele>1840</ele>
        <time>2012-12-09T12:34:42Z</time>
      </trkpt>
      <trkpt lat="45.37186" lon="5.81236">
        <ele>1840.199951172</ele>
        <time>2012-12-09T12:34:46Z</time>
      </trkpt>
      <trkpt lat="45.37183" lon="5.81235">
        <ele>1840.199951172</ele>
        <time>2012-12-09T12:34:51Z</time>
      </trkpt>
      <trkpt lat="45.37179" lon="5.81234">
        <ele>1840</ele>
        <time>2012-12-09T12:34:58Z</time>
      </trkpt>
      <trkpt lat="45.37174" lon="5.81232">
        <ele>1839.800048828</ele>
        <time>2012-12-09T12:35:05Z</time>
      </trkpt>
      <trkpt lat="45.37169" lon="5.8123">
        <ele>1839.400024414</ele>
        <time>2012-12-09T12:35:12Z</time>
      </trkpt>
      <trkpt lat="45.37164" lon="5.81227">
        <ele>1839</ele>
        <time>2012-12-09T12:35:19Z</time>
      </trkpt>
      <trkpt lat="45.3716" lon="5.81225">
        <ele>1838.599975586</ele>
        <time>2012-12-09T12:35:25Z</time>
      </trkpt>
      <trkpt lat="45.37155" lon="5.81222">
        <ele>1838</ele>
        <time>2012-12-09T12:35:31Z</time>
      </trkpt>
      <trkpt lat="45.3715" lon="5.8122">
        <ele>1837.400024414</ele>
        <time>2012-12-09T12:35:37Z</time>
      </trkpt>
      <trkpt lat="45.37144" lon="5.81217">
        <ele>1836.800048828</ele>
        <time>2012-12-09T12:35:44Z</time>
      </trkpt>
      <trkpt lat="45.37138" lon="5.81214">
        <ele>1836.199951172</ele>
        <time>2012-12-09T12:35:51Z</time>
      </trkpt>
      <trkpt lat="45.3713" lon="5.81212">
        <ele>1835.599975586</ele>
        <time>2012-12-09T12:35:59Z</time>
      </trkpt>
      <trkpt lat="45.37123" lon="5.8121">
        <ele>1835.199951172</ele>
        <time>2012-12-09T12:36:07Z</time>
      </trkpt>
      <trkpt lat="45.37116" lon="5.81209">
        <ele>1834.800048828</ele>
        <time>2012-12-09T12:36:14Z</time>
      </trkpt>
      <trkpt lat="45.37111" lon="5.81208">
        <ele>1834.400024414</ele>
        <time>2012-12-09T12:36:20Z</time>
      </trkpt>
      <trkpt lat="45.37106" lon="5.81206">
        <ele>1834.199951172</ele>
        <time>2012-12-09T12:36:26Z</time>
      </trkpt>
      <trkpt lat="45.37101" lon="5.81206">
        <ele>1833.800048828</ele>
        <time>2012-12-09T12:36:33Z</time>
      </trkpt>
      <trkpt lat="45.37094" lon="5.81206">
        <ele>1833.599975586</ele>
        <time>2012-12-09T12:36:40Z</time>
      </trkpt>
      <trkpt lat="45.37087" lon="5.81207">
        <ele>1833.800048828</ele>
        <time>2012-12-09T12:36:47Z</time>
      </trkpt>
      <trkpt lat="45.3708" lon="5.8121">
        <ele>1833.800048828</ele>
        <time>2012-12-09T12:36:54Z</time>
      </trkpt>
      <trkpt lat="45.37071" lon="5.81212">
        <ele>1833.599975586</ele>
        <time>2012-12-09T12:37:02Z</time>
      </trkpt>
      <trkpt lat="45.37061" lon="5.81213">
        <ele>1833</ele>
        <time>2012-12-09T12:37:09Z</time>
      </trkpt>
      <trkpt lat="45.37055" lon="5.81212">
        <ele>1832.199951172</ele>
        <time>2012-12-09T12:37:17Z</time>
      </trkpt>
      <trkpt lat="45.37052" lon="5.81211">
        <ele>1831.800048828</ele>
        <time>2012-12-09T12:37:22Z</time>
      </trkpt>
      <trkpt lat="45.37048" lon="5.8121">
        <ele>1831.400024414</ele>
        <time>2012-12-09T12:37:28Z</time>
      </trkpt>
      <trkpt lat="45.37043" lon="5.81207">
        <ele>1830.199951172</ele>
        <time>2012-12-09T12:37:36Z</time>
      </trkpt>
      <trkpt lat="45.37041" lon="5.81207">
        <ele>1830</ele>
        <time>2012-12-09T12:37:41Z</time>
      </trkpt>
      <trkpt lat="45.37041" lon="5.81207">
        <ele>1830.199951172</ele>
        <time>2012-12-09T12:38:27Z</time>
      </trkpt>
      <trkpt lat="45.37041" lon="5.81206">
        <ele>1829.800048828</ele>
        <time>2012-12-09T12:38:55Z</time>
      </trkpt>
      <trkpt lat="45.3704" lon="5.81205">
        <ele>1829.599975586</ele>
        <time>2012-12-09T12:40:17Z</time>
      </trkpt>
      <trkpt lat="45.37041" lon="5.81207">
        <ele>1830</ele>
        <time>2012-12-09T12:41:38Z</time>
      </trkpt>
      <trkpt lat="45.37041" lon="5.81207">
        <ele>1830.199951172</ele>
        <time>2012-12-09T12:41:51Z</time>
      </trkpt>
      <trkpt lat="45.37041" lon="5.81203">
        <ele>1829.400024414</ele>
        <time>2012-12-09T12:42:50Z</time>
      </trkpt>
      <trkpt lat="45.37042" lon="5.81207">
        <ele>1830</ele>
        <time>2012-12-09T12:44:13Z</time>
      </trkpt>
      <trkpt lat="45.3704" lon="5.81204">
        <ele>1829.400024414</ele>
        <time>2012-12-09T12:44:21Z</time>
      </trkpt>
      <trkpt lat="45.37042" lon="5.81204">
        <ele>1829.599975586</ele>
        <time>2012-12-09T12:44:46Z</time>
      </trkpt>
      <trkpt lat="45.37042" lon="5.81204">
        <ele>1829.599975586</ele>
        <time>2012-12-09T12:45:15Z</time>
      </trkpt>
      <trkpt lat="45.37042" lon="5.81206">
        <ele>1829.800048828</ele>
        <time>2012-12-09T12:45:56Z</time>
      </trkpt>
      <trkpt lat="45.37044" lon="5.81208">
        <ele>1830.400024414</ele>
        <time>2012-12-09T12:46:15Z</time>
      </trkpt>
      <trkpt lat="45.37043" lon="5.81206">
        <ele>1830.199951172</ele>
        <time>2012-12-09T12:46:26Z</time>
      </trkpt>
      <trkpt lat="45.37043" lon="5.81208">
        <ele>1830.599975586</ele>
        <time>2012-12-09T12:46:36Z</time>
      </trkpt>
      <trkpt lat="45.37045" lon="5.81206">
        <ele>1830.199951172</ele>
        <time>2012-12-09T12:46:56Z</time>
      </trkpt>
      <trkpt lat="45.37042" lon="5.81207">
        <ele>1830.199951172</ele>
        <time>2012-12-09T12:47:49Z</time>
      </trkpt>
      <trkpt lat="45.37043" lon="5.81205">
        <ele>1829.800048828</ele>
        <time>2012-12-09T12:47:54Z</time>
      </trkpt>
      <trkpt lat="45.37043" lon="5.81204">
        <ele>1829.599975586</ele>
        <time>2012-12-09T12:48:17Z</time>
      </trkpt>
      <trkpt lat="45.37045" lon="5.81204">
        <ele>1829.800048828</ele>
        <time>2012-12-09T12:48:46Z</time>
      </trkpt>
      <trkpt lat="45.37046" lon="5.81206">
        <ele>1830.400024414</ele>
        <time>2012-12-09T12:49:45Z</time>
      </trkpt>
      <trkpt lat="45.37056" lon="5.81209">
        <ele>1831.800048828</ele>
        <time>2012-12-09T12:49:49Z</time>
      </trkpt>
      <trkpt lat="45.37075" lon="5.81208">
        <ele>1833</ele>
        <time>2012-12-09T12:49:52Z</time>
      </trkpt>
      <trkpt lat="45.37088" lon="5.81204">
        <ele>1833.199951172</ele>
        <time>2012-12-09T12:49:56Z</time>
      </trkpt>
      <trkpt lat="45.371" lon="5.812">
        <ele>1832.800048828</ele>
        <time>2012-12-09T12:50:00Z</time>
      </trkpt>
      <trkpt lat="45.37109" lon="5.81201">
        <ele>1833.199951172</ele>
        <time>2012-12-09T12:50:03Z</time>
      </trkpt>
      <trkpt lat="45.3713" lon="5.81205">
        <ele>1834.400024414</ele>
        <time>2012-12-09T12:50:08Z</time>
      </trkpt>
      <trkpt lat="45.37149" lon="5.81212">
        <ele>1836.199951172</ele>
        <time>2012-12-09T12:50:12Z</time>
      </trkpt>
      <trkpt lat="45.37154" lon="5.81217">
        <ele>1837</ele>
        <time>2012-12-09T12:50:13Z</time>
      </trkpt>
      <trkpt lat="45.37158" lon="5.81222">
        <ele>1838</ele>
        <time>2012-12-09T12:50:14Z</time>
      </trkpt>
      <trkpt lat="45.37167" lon="5.81232">
        <ele>1839.800048828</ele>
        <time>2012-12-09T12:50:16Z</time>
      </trkpt>
      <trkpt lat="45.37179" lon="5.81236">
        <ele>1840.400024414</ele>
        <time>2012-12-09T12:50:18Z</time>
      </trkpt>
      <trkpt lat="45.3719" lon="5.81242">
        <ele>1841.199951172</ele>
        <time>2012-12-09T12:50:20Z</time>
      </trkpt>
      <trkpt lat="45.37202" lon="5.81246">
        <ele>1841.400024414</ele>
        <time>2012-12-09T12:50:22Z</time>
      </trkpt>
      <trkpt lat="45.37213" lon="5.8125">
        <ele>1841.800048828</ele>
        <time>2012-12-09T12:50:24Z</time>
      </trkpt>
      <trkpt lat="45.37232" lon="5.81258">
        <ele>1842.199951172</ele>
        <time>2012-12-09T12:50:27Z</time>
      </trkpt>
      <trkpt lat="45.37245" lon="5.81281">
        <ele>1844</ele>
        <time>2012-12-09T12:50:30Z</time>
      </trkpt>
      <trkpt lat="45.37259" lon="5.81301">
        <ele>1845.199951172</ele>
        <time>2012-12-09T12:50:33Z</time>
      </trkpt>
      <trkpt lat="45.37263" lon="5.81308">
        <ele>1845.599975586</ele>
        <time>2012-12-09T12:50:34Z</time>
      </trkpt>
      <trkpt lat="45.37275" lon="5.81328">
        <ele>1846.800048828</ele>
        <time>2012-12-09T12:50:37Z</time>
      </trkpt>
      <trkpt lat="45.3728" lon="5.81333">
        <ele>1847</ele>
        <time>2012-12-09T12:50:38Z</time>
      </trkpt>
      <trkpt lat="45.37294" lon="5.81331">
        <ele>1846</ele>
        <time>2012-12-09T12:50:40Z</time>
      </trkpt>
      <trkpt lat="45.37319" lon="5.81333">
        <ele>1844.800048828</ele>
        <time>2012-12-09T12:50:43Z</time>
      </trkpt>
      <trkpt lat="45.37327" lon="5.81333">
        <ele>1844.199951172</ele>
        <time>2012-12-09T12:50:44Z</time>
      </trkpt>
      <trkpt lat="45.37347" lon="5.81335">
        <ele>1842.599975586</ele>
        <time>2012-12-09T12:50:47Z</time>
      </trkpt>
      <trkpt lat="45.37352" lon="5.81334">
        <ele>1842</ele>
        <time>2012-12-09T12:50:48Z</time>
      </trkpt>
      <trkpt lat="45.37369" lon="5.81331">
        <ele>1839.800048828</ele>
        <time>2012-12-09T12:50:52Z</time>
      </trkpt>
      <trkpt lat="45.37391" lon="5.81328">
        <ele>1837.199951172</ele>
        <time>2012-12-09T12:50:57Z</time>
      </trkpt>
      <trkpt lat="45.37409" lon="5.81324">
        <ele>1834.800048828</ele>
        <time>2012-12-09T12:51:01Z</time>
      </trkpt>
      <trkpt lat="45.37424" lon="5.8132">
        <ele>1832.599975586</ele>
        <time>2012-12-09T12:51:05Z</time>
      </trkpt>
      <trkpt lat="45.37443" lon="5.81314">
        <ele>1829.400024414</ele>
        <time>2012-12-09T12:51:11Z</time>
      </trkpt>
      <trkpt lat="45.3745" lon="5.81313">
        <ele>1828.400024414</ele>
        <time>2012-12-09T12:51:13Z</time>
      </trkpt>
      <trkpt lat="45.37472" lon="5.81309">
        <ele>1824.800048828</ele>
        <time>2012-12-09T12:51:18Z</time>
      </trkpt>
      <trkpt lat="45.37477" lon="5.8131">
        <ele>1824.199951172</ele>
        <time>2012-12-09T12:51:19Z</time>
      </trkpt>
      <trkpt lat="45.37496" lon="5.81314">
        <ele>1822.199951172</ele>
        <time>2012-12-09T12:51:23Z</time>
      </trkpt>
      <trkpt lat="45.37504" lon="5.81319">
        <ele>1821.599975586</ele>
        <time>2012-12-09T12:51:25Z</time>
      </trkpt>
      <trkpt lat="45.37523" lon="5.81329">
        <ele>1819.599975586</ele>
        <time>2012-12-09T12:51:30Z</time>
      </trkpt>
      <trkpt lat="45.37526" lon="5.81331">
        <ele>1819.199951172</ele>
        <time>2012-12-09T12:51:31Z</time>
      </trkpt>
      <trkpt lat="45.3753" lon="5.81332">
        <ele>1818.800048828</ele>
        <time>2012-12-09T12:51:32Z</time>
      </trkpt>
      <trkpt lat="45.3754" lon="5.81335">
        <ele>1817.599975586</ele>
        <time>2012-12-09T12:51:36Z</time>
      </trkpt>
      <trkpt lat="45.37545" lon="5.81338">
        <ele>1817.199951172</ele>
        <time>2012-12-09T12:51:40Z</time>
      </trkpt>
      <trkpt lat="45.37553" lon="5.81341">
        <ele>1816.199951172</ele>
        <time>2012-12-09T12:51:45Z</time>
      </trkpt>
      <trkpt lat="45.37571" lon="5.81345">
        <ele>1814</ele>
        <time>2012-12-09T12:51:50Z</time>
      </trkpt>
      <trkpt lat="45.37589" lon="5.8135">
        <ele>1811.400024414</ele>
        <time>2012-12-09T12:51:54Z</time>
      </trkpt>
      <trkpt lat="45.37608" lon="5.81352">
        <ele>1808.199951172</ele>
        <time>2012-12-09T12:51:58Z</time>
      </trkpt>
      <trkpt lat="45.37611" lon="5.81353">
        <ele>1807.800048828</ele>
        <time>2012-12-09T12:51:59Z</time>
      </trkpt>
      <trkpt lat="45.37627" lon="5.81366">
        <ele>1807.199951172</ele>
        <time>2012-12-09T12:52:03Z</time>
      </trkpt>
      <trkpt lat="45.37632" lon="5.81368">
        <ele>1806.400024414</ele>
        <time>2012-12-09T12:52:06Z</time>
      </trkpt>
      <trkpt lat="45.37634" lon="5.81368">
        <ele>1806.199951172</ele>
        <time>2012-12-09T12:52:08Z</time>
      </trkpt>
      <trkpt lat="45.37634" lon="5.81368">
        <ele>1806.199951172</ele>
        <time>2012-12-09T12:52:10Z</time>
      </trkpt>
      <trkpt lat="45.37633" lon="5.81369">
        <ele>1806.599975586</ele>
        <time>2012-12-09T12:52:26Z</time>
      </trkpt>
      <trkpt lat="45.37633" lon="5.81372">
        <ele>1807</ele>
        <time>2012-12-09T12:52:41Z</time>
      </trkpt>
      <trkpt lat="45.37632" lon="5.81372">
        <ele>1807.199951172</ele>
        <time>2012-12-09T12:52:48Z</time>
      </trkpt>
      <trkpt lat="45.37632" lon="5.8137">
        <ele>1806.800048828</ele>
        <time>2012-12-09T12:52:55Z</time>
      </trkpt>
      <trkpt lat="45.37633" lon="5.81369">
        <ele>1806.599975586</ele>
        <time>2012-12-09T12:53:02Z</time>
      </trkpt>
      <trkpt lat="45.37635" lon="5.81366">
        <ele>1805.599975586</ele>
        <time>2012-12-09T12:53:11Z</time>
      </trkpt>
      <trkpt lat="45.37639" lon="5.81366">
        <ele>1804.800048828</ele>
        <time>2012-12-09T12:53:20Z</time>
      </trkpt>
      <trkpt lat="45.37641" lon="5.81368">
        <ele>1804.800048828</ele>
        <time>2012-12-09T12:53:27Z</time>
      </trkpt>
      <trkpt lat="45.37643" lon="5.81369">
        <ele>1804.599975586</ele>
        <time>2012-12-09T12:53:34Z</time>
      </trkpt>
      <trkpt lat="45.37645" lon="5.8137">
        <ele>1804.599975586</ele>
        <time>2012-12-09T12:53:40Z</time>
      </trkpt>
      <trkpt lat="45.37647" lon="5.81369">
        <ele>1803.800048828</ele>
        <time>2012-12-09T12:53:50Z</time>
      </trkpt>
      <trkpt lat="45.37651" lon="5.81371">
        <ele>1803.599975586</ele>
        <time>2012-12-09T12:53:57Z</time>
      </trkpt>
      <trkpt lat="45.37652" lon="5.81371">
        <ele>1803.400024414</ele>
        <time>2012-12-09T12:54:02Z</time>
      </trkpt>
      <trkpt lat="45.37654" lon="5.81371">
        <ele>1803</ele>
        <time>2012-12-09T12:54:08Z</time>
      </trkpt>
      <trkpt lat="45.37656" lon="5.81372">
        <ele>1802.800048828</ele>
        <time>2012-12-09T12:54:15Z</time>
      </trkpt>
      <trkpt lat="45.37659" lon="5.81371">
        <ele>1802</ele>
        <time>2012-12-09T12:54:21Z</time>
      </trkpt>
      <trkpt lat="45.3766" lon="5.81371">
        <ele>1801.800048828</ele>
        <time>2012-12-09T12:54:28Z</time>
      </trkpt>
      <trkpt lat="45.37661" lon="5.81371">
        <ele>1801.400024414</ele>
        <time>2012-12-09T12:54:33Z</time>
      </trkpt>
      <trkpt lat="45.37664" lon="5.81371">
        <ele>1801</ele>
        <time>2012-12-09T12:54:43Z</time>
      </trkpt>
      <trkpt lat="45.37666" lon="5.81371">
        <ele>1800.599975586</ele>
        <time>2012-12-09T12:54:48Z</time>
      </trkpt>
      <trkpt lat="45.37667" lon="5.8137">
        <ele>1800.400024414</ele>
        <time>2012-12-09T12:54:52Z</time>
      </trkpt>
      <trkpt lat="45.37667" lon="5.81372">
        <ele>1800.599975586</ele>
        <time>2012-12-09T12:56:03Z</time>
      </trkpt>
      <trkpt lat="45.37674" lon="5.8138">
        <ele>1800.800048828</ele>
        <time>2012-12-09T12:56:28Z</time>
      </trkpt>
      <trkpt lat="45.37691" lon="5.81382">
        <ele>1797.800048828</ele>
        <time>2012-12-09T12:56:31Z</time>
      </trkpt>
      <trkpt lat="45.37708" lon="5.81393">
        <ele>1796.599975586</ele>
        <time>2012-12-09T12:56:35Z</time>
      </trkpt>
      <trkpt lat="45.37713" lon="5.81393">
        <ele>1795.599975586</ele>
        <time>2012-12-09T12:56:36Z</time>
      </trkpt>
      <trkpt lat="45.37722" lon="5.81392">
        <ele>1793.599975586</ele>
        <time>2012-12-09T12:56:39Z</time>
      </trkpt>
      <trkpt lat="45.37738" lon="5.81401">
        <ele>1792.400024414</ele>
        <time>2012-12-09T12:56:44Z</time>
      </trkpt>
      <trkpt lat="45.37747" lon="5.81408">
        <ele>1792.199951172</ele>
        <time>2012-12-09T12:56:48Z</time>
      </trkpt>
      <trkpt lat="45.37749" lon="5.8141">
        <ele>1792.400024414</ele>
        <time>2012-12-09T12:56:49Z</time>
      </trkpt>
      <trkpt lat="45.37756" lon="5.81415">
        <ele>1792.400024414</ele>
        <time>2012-12-09T12:56:52Z</time>
      </trkpt>
      <trkpt lat="45.37758" lon="5.81416">
        <ele>1792.199951172</ele>
        <time>2012-12-09T12:56:53Z</time>
      </trkpt>
      <trkpt lat="45.37764" lon="5.8142">
        <ele>1791.599975586</ele>
        <time>2012-12-09T12:56:56Z</time>
      </trkpt>
      <trkpt lat="45.3777" lon="5.81423">
        <ele>1790.800048828</ele>
        <time>2012-12-09T12:56:59Z</time>
      </trkpt>
      <trkpt lat="45.37774" lon="5.81426">
        <ele>1790.599975586</ele>
        <time>2012-12-09T12:57:00Z</time>
      </trkpt>
      <trkpt lat="45.37786" lon="5.81431">
        <ele>1789.400024414</ele>
        <time>2012-12-09T12:57:03Z</time>
      </trkpt>
      <trkpt lat="45.37788" lon="5.81431">
        <ele>1789</ele>
        <time>2012-12-09T12:57:04Z</time>
      </trkpt>
      <trkpt lat="45.3779" lon="5.81432">
        <ele>1789</ele>
        <time>2012-12-09T12:57:08Z</time>
      </trkpt>
      <trkpt lat="45.37796" lon="5.81445">
        <ele>1790</ele>
        <time>2012-12-09T12:57:21Z</time>
      </trkpt>
      <trkpt lat="45.37802" lon="5.81443">
        <ele>1788.599975586</ele>
        <time>2012-12-09T12:57:22Z</time>
      </trkpt>
      <trkpt lat="45.3781" lon="5.81443">
        <ele>1787</ele>
        <time>2012-12-09T12:57:24Z</time>
      </trkpt>
      <trkpt lat="45.37825" lon="5.81448">
        <ele>1785.199951172</ele>
        <time>2012-12-09T12:57:28Z</time>
      </trkpt>
      <trkpt lat="45.37838" lon="5.81449">
        <ele>1783</ele>
        <time>2012-12-09T12:57:31Z</time>
      </trkpt>
      <trkpt lat="45.3785" lon="5.81453">
        <ele>1781.599975586</ele>
        <time>2012-12-09T12:57:34Z</time>
      </trkpt>
      <trkpt lat="45.37854" lon="5.81456">
        <ele>1781.400024414</ele>
        <time>2012-12-09T12:57:35Z</time>
      </trkpt>
      <trkpt lat="45.37876" lon="5.81469">
        <ele>1780.199951172</ele>
        <time>2012-12-09T12:57:38Z</time>
      </trkpt>
      <trkpt lat="45.37884" lon="5.8147">
        <ele>1779</ele>
        <time>2012-12-09T12:57:39Z</time>
      </trkpt>
      <trkpt lat="45.379" lon="5.81472">
        <ele>1776.800048828</ele>
        <time>2012-12-09T12:57:41Z</time>
      </trkpt>
      <trkpt lat="45.37905" lon="5.81474">
        <ele>1776.400024414</ele>
        <time>2012-12-09T12:57:42Z</time>
      </trkpt>
      <trkpt lat="45.37912" lon="5.81477">
        <ele>1775.800048828</ele>
        <time>2012-12-09T12:57:44Z</time>
      </trkpt>
      <trkpt lat="45.37922" lon="5.81486">
        <ele>1776.400024414</ele>
        <time>2012-12-09T12:57:48Z</time>
      </trkpt>
      <trkpt lat="45.37921" lon="5.81485">
        <ele>1776.400024414</ele>
        <time>2012-12-09T12:57:51Z</time>
      </trkpt>
      <trkpt lat="45.37923" lon="5.81487">
        <ele>1776.400024414</ele>
        <time>2012-12-09T12:57:59Z</time>
      </trkpt>
      <trkpt lat="45.37924" lon="5.81487">
        <ele>1776</ele>
        <time>2012-12-09T12:58:07Z</time>
      </trkpt>
      <trkpt lat="45.37926" lon="5.81488">
        <ele>1776</ele>
        <time>2012-12-09T12:58:18Z</time>
      </trkpt>
      <trkpt lat="45.37934" lon="5.81493">
        <ele>1775.800048828</ele>
        <time>2012-12-09T12:58:21Z</time>
      </trkpt>
      <trkpt lat="45.37951" lon="5.81502">
        <ele>1775.199951172</ele>
        <time>2012-12-09T12:58:25Z</time>
      </trkpt>
      <trkpt lat="45.37956" lon="5.81505">
        <ele>1774.800048828</ele>
        <time>2012-12-09T12:58:26Z</time>
      </trkpt>
      <trkpt lat="45.37972" lon="5.81516">
        <ele>1774</ele>
        <time>2012-12-09T12:58:29Z</time>
      </trkpt>
      <trkpt lat="45.37979" lon="5.81517">
        <ele>1772.800048828</ele>
        <time>2012-12-09T12:58:30Z</time>
      </trkpt>
      <trkpt lat="45.37984" lon="5.81517">
        <ele>1772</ele>
        <time>2012-12-09T12:58:31Z</time>
      </trkpt>
      <trkpt lat="45.37986" lon="5.81519">
        <ele>1771.800048828</ele>
        <time>2012-12-09T12:58:32Z</time>
      </trkpt>
      <trkpt lat="45.37983" lon="5.81516">
        <ele>1771.800048828</ele>
        <time>2012-12-09T12:58:34Z</time>
      </trkpt>
      <trkpt lat="45.37983" lon="5.81517">
        <ele>1772</ele>
        <time>2012-12-09T12:58:38Z</time>
      </trkpt>
      <trkpt lat="45.37984" lon="5.81518">
        <ele>1772</ele>
        <time>2012-12-09T12:58:43Z</time>
      </trkpt>
      <trkpt lat="45.37994" lon="5.81519">
        <ele>1770.199951172</ele>
        <time>2012-12-09T12:58:48Z</time>
      </trkpt>
      <trkpt lat="45.37996" lon="5.8152">
        <ele>1770</ele>
        <time>2012-12-09T12:58:50Z</time>
      </trkpt>
      <trkpt lat="45.37996" lon="5.81522">
        <ele>1770.199951172</ele>
        <time>2012-12-09T12:58:52Z</time>
      </trkpt>
      <trkpt lat="45.38005" lon="5.8153">
        <ele>1769.800048828</ele>
        <time>2012-12-09T12:58:58Z</time>
      </trkpt>
      <trkpt lat="45.38008" lon="5.81531">
        <ele>1769.599975586</ele>
        <time>2012-12-09T12:59:02Z</time>
      </trkpt>
      <trkpt lat="45.38012" lon="5.81533">
        <ele>1769.400024414</ele>
        <time>2012-12-09T12:59:05Z</time>
      </trkpt>
      <trkpt lat="45.38017" lon="5.81536">
        <ele>1769.199951172</ele>
        <time>2012-12-09T12:59:07Z</time>
      </trkpt>
      <trkpt lat="45.3803" lon="5.81542">
        <ele>1768.400024414</ele>
        <time>2012-12-09T12:59:11Z</time>
      </trkpt>
      <trkpt lat="45.3803" lon="5.81544">
        <ele>1768.599975586</ele>
        <time>2012-12-09T12:59:12Z</time>
      </trkpt>
      <trkpt lat="45.38031" lon="5.81543">
        <ele>1768.400024414</ele>
        <time>2012-12-09T12:59:14Z</time>
      </trkpt>
      <trkpt lat="45.38032" lon="5.81544">
        <ele>1768.199951172</ele>
        <time>2012-12-09T12:59:22Z</time>
      </trkpt>
      <trkpt lat="45.38033" lon="5.81543">
        <ele>1768.199951172</ele>
        <time>2012-12-09T12:59:43Z</time>
      </trkpt>
      <trkpt lat="45.38034" lon="5.81543">
        <ele>1768</ele>
        <time>2012-12-09T12:59:50Z</time>
      </trkpt>
      <trkpt lat="45.38042" lon="5.81548">
        <ele>1767.800048828</ele>
        <time>2012-12-09T12:59:55Z</time>
      </trkpt>
      <trkpt lat="45.38061" lon="5.81556">
        <ele>1766.800048828</ele>
        <time>2012-12-09T12:59:59Z</time>
      </trkpt>
      <trkpt lat="45.38084" lon="5.81564">
        <ele>1765.800048828</ele>
        <time>2012-12-09T13:00:03Z</time>
      </trkpt>
      <trkpt lat="45.3809" lon="5.81566">
        <ele>1765.199951172</ele>
        <time>2012-12-09T13:00:04Z</time>
      </trkpt>
      <trkpt lat="45.38111" lon="5.81574">
        <ele>1764.599975586</ele>
        <time>2012-12-09T13:00:07Z</time>
      </trkpt>
      <trkpt lat="45.38117" lon="5.81576">
        <ele>1764.199951172</ele>
        <time>2012-12-09T13:00:08Z</time>
      </trkpt>
      <trkpt lat="45.38139" lon="5.81582">
        <ele>1762.800048828</ele>
        <time>2012-12-09T13:00:12Z</time>
      </trkpt>
      <trkpt lat="45.38144" lon="5.81586">
        <ele>1763.199951172</ele>
        <time>2012-12-09T13:00:13Z</time>
      </trkpt>
      <trkpt lat="45.38156" lon="5.8159">
        <ele>1763</ele>
        <time>2012-12-09T13:00:15Z</time>
      </trkpt>
      <trkpt lat="45.38171" lon="5.81598">
        <ele>1765</ele>
        <time>2012-12-09T13:00:18Z</time>
      </trkpt>
      <trkpt lat="45.38181" lon="5.81606">
        <ele>1768.800048828</ele>
        <time>2012-12-09T13:00:21Z</time>
      </trkpt>
      <trkpt lat="45.38186" lon="5.81609">
        <ele>1770.199951172</ele>
        <time>2012-12-09T13:00:22Z</time>
      </trkpt>
      <trkpt lat="45.38189" lon="5.81613">
        <ele>1771.800048828</ele>
        <time>2012-12-09T13:00:23Z</time>
      </trkpt>
      <trkpt lat="45.38198" lon="5.81622">
        <ele>1775.199951172</ele>
        <time>2012-12-09T13:00:25Z</time>
      </trkpt>
      <trkpt lat="45.38204" lon="5.81623">
        <ele>1776</ele>
        <time>2012-12-09T13:00:26Z</time>
      </trkpt>
      <trkpt lat="45.38217" lon="5.81632">
        <ele>1779.400024414</ele>
        <time>2012-12-09T13:00:29Z</time>
      </trkpt>
      <trkpt lat="45.38221" lon="5.81634">
        <ele>1780.400024414</ele>
        <time>2012-12-09T13:00:30Z</time>
      </trkpt>
      <trkpt lat="45.38225" lon="5.81638">
        <ele>1781.800048828</ele>
        <time>2012-12-09T13:00:31Z</time>
      </trkpt>
      <trkpt lat="45.38232" lon="5.81642">
        <ele>1783.400024414</ele>
        <time>2012-12-09T13:00:33Z</time>
      </trkpt>
      <trkpt lat="45.38238" lon="5.81649">
        <ele>1785.599975586</ele>
        <time>2012-12-09T13:00:35Z</time>
      </trkpt>
      <trkpt lat="45.38242" lon="5.81655">
        <ele>1787.599975586</ele>
        <time>2012-12-09T13:00:37Z</time>
      </trkpt>
      <trkpt lat="45.38243" lon="5.81657">
        <ele>1788</ele>
        <time>2012-12-09T13:00:38Z</time>
      </trkpt>
      <trkpt lat="45.38251" lon="5.81665">
        <ele>1790</ele>
        <time>2012-12-09T13:00:42Z</time>
      </trkpt>
      <trkpt lat="45.38251" lon="5.81665">
        <ele>1790.199951172</ele>
        <time>2012-12-09T13:00:43Z</time>
      </trkpt>
      <trkpt lat="45.3825" lon="5.81665">
        <ele>1790.199951172</ele>
        <time>2012-12-09T13:00:45Z</time>
      </trkpt>
      <trkpt lat="45.3825" lon="5.8166">
        <ele>1789.199951172</ele>
        <time>2012-12-09T13:01:18Z</time>
      </trkpt>
      <trkpt lat="45.38252" lon="5.81648">
        <ele>1785</ele>
        <time>2012-12-09T13:01:20Z</time>
      </trkpt>
      <trkpt lat="45.38267" lon="5.81627">
        <ele>1772.199951172</ele>
        <time>2012-12-09T13:01:24Z</time>
      </trkpt>
      <trkpt lat="45.3828" lon="5.81614">
        <ele>1761.800048828</ele>
        <time>2012-12-09T13:01:28Z</time>
      </trkpt>
      <trkpt lat="45.38291" lon="5.816">
        <ele>1751.599975586</ele>
        <time>2012-12-09T13:01:31Z</time>
      </trkpt>
      <trkpt lat="45.38296" lon="5.81598">
        <ele>1747.800048828</ele>
        <time>2012-12-09T13:01:32Z</time>
      </trkpt>
      <trkpt lat="45.38307" lon="5.81591">
        <ele>1739.199951172</ele>
        <time>2012-12-09T13:01:35Z</time>
      </trkpt>
      <trkpt lat="45.3832" lon="5.81598">
        <ele>1734.800048828</ele>
        <time>2012-12-09T13:01:38Z</time>
      </trkpt>
      <trkpt lat="45.38325" lon="5.81597">
        <ele>1732</ele>
        <time>2012-12-09T13:01:39Z</time>
      </trkpt>
      <trkpt lat="45.3833" lon="5.81602">
        <ele>1731.199951172</ele>
        <time>2012-12-09T13:01:40Z</time>
      </trkpt>
      <trkpt lat="45.38333" lon="5.81608">
        <ele>1732.199951172</ele>
        <time>2012-12-09T13:01:41Z</time>
      </trkpt>
      <trkpt lat="45.38342" lon="5.81615">
        <ele>1732.400024414</ele>
        <time>2012-12-09T13:01:43Z</time>
      </trkpt>
      <trkpt lat="45.38347" lon="5.81614">
        <ele>1730</ele>
        <time>2012-12-09T13:01:45Z</time>
      </trkpt>
      <trkpt lat="45.38347" lon="5.81603">
        <ele>1725.400024414</ele>
        <time>2012-12-09T13:01:46Z</time>
      </trkpt>
      <trkpt lat="45.38347" lon="5.81587">
        <ele>1718.800048828</ele>
        <time>2012-12-09T13:01:48Z</time>
      </trkpt>
      <trkpt lat="45.38344" lon="5.81587">
        <ele>1719.400024414</ele>
        <time>2012-12-09T13:01:50Z</time>
      </trkpt>
      <trkpt lat="45.38343" lon="5.81587">
        <ele>1719.800048828</ele>
        <time>2012-12-09T13:01:51Z</time>
      </trkpt>
      <trkpt lat="45.38338" lon="5.81587">
        <ele>1721</ele>
        <time>2012-12-09T13:01:58Z</time>
      </trkpt>
      <trkpt lat="45.38339" lon="5.81581">
        <ele>1719</ele>
        <time>2012-12-09T13:02:11Z</time>
      </trkpt>
      <trkpt lat="45.38343" lon="5.81578">
        <ele>1717</ele>
        <time>2012-12-09T13:02:13Z</time>
      </trkpt>
      <trkpt lat="45.38343" lon="5.81579">
        <ele>1717</ele>
        <time>2012-12-09T13:02:14Z</time>
      </trkpt>
      <trkpt lat="45.38353" lon="5.81581">
        <ele>1714.800048828</ele>
        <time>2012-12-09T13:02:18Z</time>
      </trkpt>
      <trkpt lat="45.38368" lon="5.81588">
        <ele>1712.599975586</ele>
        <time>2012-12-09T13:02:20Z</time>
      </trkpt>
      <trkpt lat="45.38374" lon="5.81591">
        <ele>1712</ele>
        <time>2012-12-09T13:02:21Z</time>
      </trkpt>
      <trkpt lat="45.38371" lon="5.81592">
        <ele>1713.400024414</ele>
        <time>2012-12-09T13:02:23Z</time>
      </trkpt>
      <trkpt lat="45.3837" lon="5.81592">
        <ele>1713.800048828</ele>
        <time>2012-12-09T13:02:24Z</time>
      </trkpt>
      <trkpt lat="45.38367" lon="5.81592">
        <ele>1714.400024414</ele>
        <time>2012-12-09T13:02:32Z</time>
      </trkpt>
      <trkpt lat="45.3837" lon="5.81584">
        <ele>1710.599975586</ele>
        <time>2012-12-09T13:02:49Z</time>
      </trkpt>
      <trkpt lat="45.38371" lon="5.81559">
        <ele>1704.400024414</ele>
        <time>2012-12-09T13:02:53Z</time>
      </trkpt>
      <trkpt lat="45.38371" lon="5.81533">
        <ele>1699</ele>
        <time>2012-12-09T13:02:56Z</time>
      </trkpt>
      <trkpt lat="45.3837" lon="5.81523">
        <ele>1696.800048828</ele>
        <time>2012-12-09T13:02:57Z</time>
      </trkpt>
      <trkpt lat="45.38372" lon="5.81491">
        <ele>1688</ele>
        <time>2012-12-09T13:02:59Z</time>
      </trkpt>
      <trkpt lat="45.38374" lon="5.81478">
        <ele>1682.400024414</ele>
        <time>2012-12-09T13:03:00Z</time>
      </trkpt>
      <trkpt lat="45.3839" lon="5.81461">
        <ele>1671.800048828</ele>
        <time>2012-12-09T13:03:03Z</time>
      </trkpt>
      <trkpt lat="45.38403" lon="5.81457">
        <ele>1667.400024414</ele>
        <time>2012-12-09T13:03:05Z</time>
      </trkpt>
      <trkpt lat="45.3841" lon="5.81457">
        <ele>1665.599975586</ele>
        <time>2012-12-09T13:03:06Z</time>
      </trkpt>
      <trkpt lat="45.38419" lon="5.8146">
        <ele>1664.599975586</ele>
        <time>2012-12-09T13:03:08Z</time>
      </trkpt>
      <trkpt lat="45.38416" lon="5.8146">
        <ele>1665</ele>
        <time>2012-12-09T13:03:11Z</time>
      </trkpt>
      <trkpt lat="45.38413" lon="5.81459">
        <ele>1665.599975586</ele>
        <time>2012-12-09T13:03:17Z</time>
      </trkpt>
      <trkpt lat="45.38414" lon="5.8146">
        <ele>1665.400024414</ele>
        <time>2012-12-09T13:03:21Z</time>
      </trkpt>
      <trkpt lat="45.38421" lon="5.81464">
        <ele>1665.599975586</ele>
        <time>2012-12-09T13:03:52Z</time>
      </trkpt>
      <trkpt lat="45.38436" lon="5.81473">
        <ele>1664</ele>
        <time>2012-12-09T13:03:56Z</time>
      </trkpt>
      <trkpt lat="45.38437" lon="5.81478">
        <ele>1664.800048828</ele>
        <time>2012-12-09T13:03:58Z</time>
      </trkpt>
      <trkpt lat="45.38437" lon="5.81478">
        <ele>1665</ele>
        <time>2012-12-09T13:03:59Z</time>
      </trkpt>
      <trkpt lat="45.38436" lon="5.81478">
        <ele>1665.199951172</ele>
        <time>2012-12-09T13:04:08Z</time>
      </trkpt>
      <trkpt lat="45.38436" lon="5.81479">
        <ele>1665.400024414</ele>
        <time>2012-12-09T13:04:21Z</time>
      </trkpt>
      <trkpt lat="45.38433" lon="5.81478">
        <ele>1666</ele>
        <time>2012-12-09T13:05:48Z</time>
      </trkpt>
      <trkpt lat="45.38434" lon="5.81477">
        <ele>1665.599975586</ele>
        <time>2012-12-09T13:05:52Z</time>
      </trkpt>
      <trkpt lat="45.38439" lon="5.81482">
        <ele>1665.400024414</ele>
        <time>2012-12-09T13:06:14Z</time>
      </trkpt>
      <trkpt lat="45.38442" lon="5.81483">
        <ele>1664.599975586</ele>
        <time>2012-12-09T13:06:15Z</time>
      </trkpt>
      <trkpt lat="45.38458" lon="5.81489">
        <ele>1660.400024414</ele>
        <time>2012-12-09T13:06:18Z</time>
      </trkpt>
      <trkpt lat="45.3848" lon="5.81498">
        <ele>1653</ele>
        <time>2012-12-09T13:06:21Z</time>
      </trkpt>
      <trkpt lat="45.38487" lon="5.815">
        <ele>1650</ele>
        <time>2012-12-09T13:06:22Z</time>
      </trkpt>
      <trkpt lat="45.38498" lon="5.81501">
        <ele>1645.800048828</ele>
        <time>2012-12-09T13:06:24Z</time>
      </trkpt>
      <trkpt lat="45.38504" lon="5.81504">
        <ele>1644.800048828</ele>
        <time>2012-12-09T13:06:25Z</time>
      </trkpt>
      <trkpt lat="45.38523" lon="5.81516">
        <ele>1641.800048828</ele>
        <time>2012-12-09T13:06:28Z</time>
      </trkpt>
      <trkpt lat="45.38531" lon="5.8152">
        <ele>1640</ele>
        <time>2012-12-09T13:06:29Z</time>
      </trkpt>
      <trkpt lat="45.3855" lon="5.81531">
        <ele>1634.599975586</ele>
        <time>2012-12-09T13:06:31Z</time>
      </trkpt>
      <trkpt lat="45.38568" lon="5.81544">
        <ele>1628.199951172</ele>
        <time>2012-12-09T13:06:33Z</time>
      </trkpt>
      <trkpt lat="45.38588" lon="5.81558">
        <ele>1620</ele>
        <time>2012-12-09T13:06:35Z</time>
      </trkpt>
      <trkpt lat="45.38597" lon="5.81567">
        <ele>1617</ele>
        <time>2012-12-09T13:06:36Z</time>
      </trkpt>
      <trkpt lat="45.38606" lon="5.81575">
        <ele>1614.400024414</ele>
        <time>2012-12-09T13:06:37Z</time>
      </trkpt>
      <trkpt lat="45.38625" lon="5.81592">
        <ele>1611</ele>
        <time>2012-12-09T13:06:39Z</time>
      </trkpt>
      <trkpt lat="45.38644" lon="5.81608">
        <ele>1609.400024414</ele>
        <time>2012-12-09T13:06:41Z</time>
      </trkpt>
      <trkpt lat="45.38654" lon="5.81616">
        <ele>1608.199951172</ele>
        <time>2012-12-09T13:06:42Z</time>
      </trkpt>
      <trkpt lat="45.38674" lon="5.81627">
        <ele>1606</ele>
        <time>2012-12-09T13:06:44Z</time>
      </trkpt>
      <trkpt lat="45.38693" lon="5.81638">
        <ele>1604.400024414</ele>
        <time>2012-12-09T13:06:46Z</time>
      </trkpt>
      <trkpt lat="45.387" lon="5.81645">
        <ele>1603.400024414</ele>
        <time>2012-12-09T13:06:47Z</time>
      </trkpt>
      <trkpt lat="45.38723" lon="5.81662">
        <ele>1598.599975586</ele>
        <time>2012-12-09T13:06:50Z</time>
      </trkpt>
      <trkpt lat="45.38743" lon="5.81672">
        <ele>1595.400024414</ele>
        <time>2012-12-09T13:06:53Z</time>
      </trkpt>
      <trkpt lat="45.38749" lon="5.81676">
        <ele>1595.199951172</ele>
        <time>2012-12-09T13:06:54Z</time>
      </trkpt>
      <trkpt lat="45.38754" lon="5.81681">
        <ele>1595.599975586</ele>
        <time>2012-12-09T13:06:55Z</time>
      </trkpt>
      <trkpt lat="45.38772" lon="5.81695">
        <ele>1596.199951172</ele>
        <time>2012-12-09T13:06:59Z</time>
      </trkpt>
      <trkpt lat="45.38782" lon="5.81701">
        <ele>1595.800048828</ele>
        <time>2012-12-09T13:07:02Z</time>
      </trkpt>
      <trkpt lat="45.38783" lon="5.81703">
        <ele>1596</ele>
        <time>2012-12-09T13:07:03Z</time>
      </trkpt>
      <trkpt lat="45.38786" lon="5.81707">
        <ele>1596</ele>
        <time>2012-12-09T13:07:05Z</time>
      </trkpt>
      <trkpt lat="45.38786" lon="5.81705">
        <ele>1595.800048828</ele>
        <time>2012-12-09T13:07:08Z</time>
      </trkpt>
      <trkpt lat="45.38787" lon="5.81706">
        <ele>1595.599975586</ele>
        <time>2012-12-09T13:07:17Z</time>
      </trkpt>
      <trkpt lat="45.38791" lon="5.81708">
        <ele>1595.199951172</ele>
        <time>2012-12-09T13:07:20Z</time>
      </trkpt>
      <trkpt lat="45.38793" lon="5.8171">
        <ele>1595</ele>
        <time>2012-12-09T13:07:21Z</time>
      </trkpt>
      <trkpt lat="45.38799" lon="5.81711">
        <ele>1594</ele>
        <time>2012-12-09T13:07:24Z</time>
      </trkpt>
      <trkpt lat="45.38801" lon="5.81711">
        <ele>1593.800048828</ele>
        <time>2012-12-09T13:07:28Z</time>
      </trkpt>
      <trkpt lat="45.38801" lon="5.81708">
        <ele>1593.599975586</ele>
        <time>2012-12-09T13:07:37Z</time>
      </trkpt>
      <trkpt lat="45.38798" lon="5.81708">
        <ele>1594</ele>
        <time>2012-12-09T13:08:47Z</time>
      </trkpt>
      <trkpt lat="45.38798" lon="5.81708">
        <ele>1594.199951172</ele>
        <time>2012-12-09T13:08:54Z</time>
      </trkpt>
      <trkpt lat="45.38799" lon="5.8171">
        <ele>1594.199951172</ele>
        <time>2012-12-09T13:09:11Z</time>
      </trkpt>
      <trkpt lat="45.38797" lon="5.8171">
        <ele>1594.400024414</ele>
        <time>2012-12-09T13:09:20Z</time>
      </trkpt>
      <trkpt lat="45.388" lon="5.81705">
        <ele>1593.599975586</ele>
        <time>2012-12-09T13:10:10Z</time>
      </trkpt>
      <trkpt lat="45.38804" lon="5.81705">
        <ele>1593</ele>
        <time>2012-12-09T13:10:19Z</time>
      </trkpt>
      <trkpt lat="45.38805" lon="5.81707">
        <ele>1592.800048828</ele>
        <time>2012-12-09T13:10:23Z</time>
      </trkpt>
      <trkpt lat="45.38806" lon="5.81709">
        <ele>1592.800048828</ele>
        <time>2012-12-09T13:10:29Z</time>
      </trkpt>
      <trkpt lat="45.38805" lon="5.81711">
        <ele>1593.199951172</ele>
        <time>2012-12-09T13:12:57Z</time>
      </trkpt>
      <trkpt lat="45.38804" lon="5.81717">
        <ele>1593.800048828</ele>
        <time>2012-12-09T13:13:04Z</time>
      </trkpt>
      <trkpt lat="45.388" lon="5.81715">
        <ele>1594.199951172</ele>
        <time>2012-12-09T13:14:58Z</time>
      </trkpt>
      <trkpt lat="45.38798" lon="5.8171">
        <ele>1594.199951172</ele>
        <time>2012-12-09T13:16:36Z</time>
      </trkpt>
      <trkpt lat="45.38804" lon="5.81712">
        <ele>1593.400024414</ele>
        <time>2012-12-09T13:18:14Z</time>
      </trkpt>
      <trkpt lat="45.38798" lon="5.81709">
        <ele>1594.199951172</ele>
        <time>2012-12-09T13:18:38Z</time>
      </trkpt>
      <trkpt lat="45.38805" lon="5.81713">
        <ele>1593.400024414</ele>
        <time>2012-12-09T13:20:14Z</time>
      </trkpt>
      <trkpt lat="45.38803" lon="5.8171">
        <ele>1593.400024414</ele>
        <time>2012-12-09T13:20:19Z</time>
      </trkpt>
      <trkpt lat="45.38804" lon="5.81708">
        <ele>1593.199951172</ele>
        <time>2012-12-09T13:22:35Z</time>
      </trkpt>
      <trkpt lat="45.38805" lon="5.81712">
        <ele>1593.199951172</ele>
        <time>2012-12-09T13:23:35Z</time>
      </trkpt>
      <trkpt lat="45.38803" lon="5.81712">
        <ele>1593.599975586</ele>
        <time>2012-12-09T13:23:48Z</time>
      </trkpt>
      <trkpt lat="45.38804" lon="5.81713">
        <ele>1593.400024414</ele>
        <time>2012-12-09T13:24:19Z</time>
      </trkpt>
      <trkpt lat="45.38801" lon="5.81714">
        <ele>1594.199951172</ele>
        <time>2012-12-09T13:25:00Z</time>
      </trkpt>
      <trkpt lat="45.38801" lon="5.81711">
        <ele>1593.800048828</ele>
        <time>2012-12-09T13:25:01Z</time>
      </trkpt>
      <trkpt lat="45.38802" lon="5.81711">
        <ele>1593.599975586</ele>
        <time>2012-12-09T13:25:03Z</time>
      </trkpt>
      <trkpt lat="45.38805" lon="5.8171">
        <ele>1593.199951172</ele>
        <time>2012-12-09T13:25:10Z</time>
      </trkpt>
      <trkpt lat="45.38814" lon="5.81709">
        <ele>1591.599975586</ele>
        <time>2012-12-09T13:26:03Z</time>
      </trkpt>
      <trkpt lat="45.38815" lon="5.81711">
        <ele>1591.400024414</ele>
        <time>2012-12-09T13:26:08Z</time>
      </trkpt>
      <trkpt lat="45.38815" lon="5.81711">
        <ele>1591.599975586</ele>
        <time>2012-12-09T13:26:14Z</time>
      </trkpt>
      <trkpt lat="45.38813" lon="5.81713">
        <ele>1591.800048828</ele>
        <time>2012-12-09T13:27:16Z</time>
      </trkpt>
      <trkpt lat="45.38811" lon="5.81713">
        <ele>1592.199951172</ele>
        <time>2012-12-09T13:27:23Z</time>
      </trkpt>
      <trkpt lat="45.38811" lon="5.81714">
        <ele>1592.199951172</ele>
        <time>2012-12-09T13:27:42Z</time>
      </trkpt>
      <trkpt lat="45.38807" lon="5.81713">
        <ele>1593</ele>
        <time>2012-12-09T13:28:23Z</time>
      </trkpt>
      <trkpt lat="45.38806" lon="5.81711">
        <ele>1593</ele>
        <time>2012-12-09T13:28:26Z</time>
      </trkpt>
      <trkpt lat="45.38805" lon="5.8171">
        <ele>1593.199951172</ele>
        <time>2012-12-09T13:28:31Z</time>
      </trkpt>
      <trkpt lat="45.38805" lon="5.81712">
        <ele>1593.199951172</ele>
        <time>2012-12-09T13:28:46Z</time>
      </trkpt>
      <trkpt lat="45.38805" lon="5.81713">
        <ele>1593.400024414</ele>
        <time>2012-12-09T13:28:53Z</time>
      </trkpt>
      <trkpt lat="45.38803" lon="5.81715">
        <ele>1593.800048828</ele>
        <time>2012-12-09T13:30:37Z</time>
      </trkpt>
      <trkpt lat="45.38805" lon="5.81715">
        <ele>1593.400024414</ele>
        <time>2012-12-09T13:32:19Z</time>
      </trkpt>
      <trkpt lat="45.38802" lon="5.81711">
        <ele>1593.599975586</ele>
        <time>2012-12-09T13:32:25Z</time>
      </trkpt>
      <trkpt lat="45.38806" lon="5.81707">
        <ele>1592.800048828</ele>
        <time>2012-12-09T13:34:19Z</time>
      </trkpt>
      <trkpt lat="45.38808" lon="5.81707">
        <ele>1592.400024414</ele>
        <time>2012-12-09T13:35:19Z</time>
      </trkpt>
      <trkpt lat="45.38809" lon="5.81708">
        <ele>1592.199951172</ele>
        <time>2012-12-09T13:35:33Z</time>
      </trkpt>
      <trkpt lat="45.38811" lon="5.81708">
        <ele>1592</ele>
        <time>2012-12-09T13:37:00Z</time>
      </trkpt>
      <trkpt lat="45.38812" lon="5.81709">
        <ele>1592</ele>
        <time>2012-12-09T13:37:11Z</time>
      </trkpt>
      <trkpt lat="45.38813" lon="5.81709">
        <ele>1591.599975586</ele>
        <time>2012-12-09T13:37:15Z</time>
      </trkpt>
      <trkpt lat="45.38815" lon="5.81708">
        <ele>1591.400024414</ele>
        <time>2012-12-09T13:37:20Z</time>
      </trkpt>
      <trkpt lat="45.38817" lon="5.81707">
        <ele>1591</ele>
        <time>2012-12-09T13:37:25Z</time>
      </trkpt>
      <trkpt lat="45.38821" lon="5.81711">
        <ele>1590.400024414</ele>
        <time>2012-12-09T13:37:31Z</time>
      </trkpt>
      <trkpt lat="45.38825" lon="5.8171">
        <ele>1589.800048828</ele>
        <time>2012-12-09T13:37:36Z</time>
      </trkpt>
      <trkpt lat="45.38828" lon="5.81712">
        <ele>1589.199951172</ele>
        <time>2012-12-09T13:37:42Z</time>
      </trkpt>
      <trkpt lat="45.38831" lon="5.81713">
        <ele>1588.800048828</ele>
        <time>2012-12-09T13:37:45Z</time>
      </trkpt>
      <trkpt lat="45.38832" lon="5.81716">
        <ele>1588.599975586</ele>
        <time>2012-12-09T13:37:50Z</time>
      </trkpt>
      <trkpt lat="45.38834" lon="5.81719">
        <ele>1588.199951172</ele>
        <time>2012-12-09T13:37:54Z</time>
      </trkpt>
      <trkpt lat="45.38835" lon="5.81723">
        <ele>1588</ele>
        <time>2012-12-09T13:37:59Z</time>
      </trkpt>
      <trkpt lat="45.38836" lon="5.81727">
        <ele>1588</ele>
        <time>2012-12-09T13:38:03Z</time>
      </trkpt>
      <trkpt lat="45.38837" lon="5.81733">
        <ele>1587.800048828</ele>
        <time>2012-12-09T13:38:09Z</time>
      </trkpt>
      <trkpt lat="45.38839" lon="5.81741">
        <ele>1587.400024414</ele>
        <time>2012-12-09T13:38:13Z</time>
      </trkpt>
      <trkpt lat="45.38844" lon="5.81749">
        <ele>1586.800048828</ele>
        <time>2012-12-09T13:38:18Z</time>
      </trkpt>
      <trkpt lat="45.38854" lon="5.81764">
        <ele>1587.599975586</ele>
        <time>2012-12-09T13:38:24Z</time>
      </trkpt>
      <trkpt lat="45.38856" lon="5.81776">
        <ele>1588.400024414</ele>
        <time>2012-12-09T13:38:28Z</time>
      </trkpt>
      <trkpt lat="45.38856" lon="5.81785">
        <ele>1589.400024414</ele>
        <time>2012-12-09T13:38:32Z</time>
      </trkpt>
      <trkpt lat="45.38857" lon="5.8179">
        <ele>1589.800048828</ele>
        <time>2012-12-09T13:38:37Z</time>
      </trkpt>
      <trkpt lat="45.38861" lon="5.81801">
        <ele>1589.800048828</ele>
        <time>2012-12-09T13:38:45Z</time>
      </trkpt>
      <trkpt lat="45.38869" lon="5.81821">
        <ele>1587.800048828</ele>
        <time>2012-12-09T13:38:48Z</time>
      </trkpt>
      <trkpt lat="45.38881" lon="5.81843">
        <ele>1583</ele>
        <time>2012-12-09T13:38:51Z</time>
      </trkpt>
      <trkpt lat="45.38884" lon="5.81849">
        <ele>1581.599975586</ele>
        <time>2012-12-09T13:38:52Z</time>
      </trkpt>
      <trkpt lat="45.38887" lon="5.81852">
        <ele>1580.400024414</ele>
        <time>2012-12-09T13:38:53Z</time>
      </trkpt>
      <trkpt lat="45.38895" lon="5.8186">
        <ele>1576.400024414</ele>
        <time>2012-12-09T13:38:55Z</time>
      </trkpt>
      <trkpt lat="45.38907" lon="5.81879">
        <ele>1571</ele>
        <time>2012-12-09T13:38:58Z</time>
      </trkpt>
      <trkpt lat="45.38914" lon="5.81888">
        <ele>1567.199951172</ele>
        <time>2012-12-09T13:39:01Z</time>
      </trkpt>
      <trkpt lat="45.38921" lon="5.81893">
        <ele>1564.400024414</ele>
        <time>2012-12-09T13:39:03Z</time>
      </trkpt>
      <trkpt lat="45.38922" lon="5.81895">
        <ele>1563.800048828</ele>
        <time>2012-12-09T13:39:05Z</time>
      </trkpt>
      <trkpt lat="45.38926" lon="5.81904">
        <ele>1562.199951172</ele>
        <time>2012-12-09T13:39:14Z</time>
      </trkpt>
      <trkpt lat="45.38941" lon="5.81921">
        <ele>1558.800048828</ele>
        <time>2012-12-09T13:39:17Z</time>
      </trkpt>
      <trkpt lat="45.38954" lon="5.81939">
        <ele>1565.800048828</ele>
        <time>2012-12-09T13:39:19Z</time>
      </trkpt>
      <trkpt lat="45.3896" lon="5.81946">
        <ele>1568.199951172</ele>
        <time>2012-12-09T13:39:20Z</time>
      </trkpt>
      <trkpt lat="45.3897" lon="5.81955">
        <ele>1570.400024414</ele>
        <time>2012-12-09T13:39:22Z</time>
      </trkpt>
      <trkpt lat="45.38975" lon="5.81959">
        <ele>1570.800048828</ele>
        <time>2012-12-09T13:39:23Z</time>
      </trkpt>
      <trkpt lat="45.38989" lon="5.81968">
        <ele>1570.400024414</ele>
        <time>2012-12-09T13:39:25Z</time>
      </trkpt>
      <trkpt lat="45.38996" lon="5.81969">
        <ele>1568</ele>
        <time>2012-12-09T13:39:26Z</time>
      </trkpt>
      <trkpt lat="45.39014" lon="5.81966">
        <ele>1559.199951172</ele>
        <time>2012-12-09T13:39:29Z</time>
      </trkpt>
      <trkpt lat="45.39024" lon="5.81964">
        <ele>1555.400024414</ele>
        <time>2012-12-09T13:39:30Z</time>
      </trkpt>
      <trkpt lat="45.39028" lon="5.81965">
        <ele>1555</ele>
        <time>2012-12-09T13:39:31Z</time>
      </trkpt>
      <trkpt lat="45.3904" lon="5.81967">
        <ele>1552.400024414</ele>
        <time>2012-12-09T13:39:34Z</time>
      </trkpt>
      <trkpt lat="45.39044" lon="5.81968">
        <ele>1552</ele>
        <time>2012-12-09T13:39:35Z</time>
      </trkpt>
      <trkpt lat="45.39062" lon="5.81974">
        <ele>1548.800048828</ele>
        <time>2012-12-09T13:39:39Z</time>
      </trkpt>
      <trkpt lat="45.39081" lon="5.81983">
        <ele>1546</ele>
        <time>2012-12-09T13:39:42Z</time>
      </trkpt>
      <trkpt lat="45.39086" lon="5.81984">
        <ele>1543.800048828</ele>
        <time>2012-12-09T13:39:43Z</time>
      </trkpt>
      <trkpt lat="45.39093" lon="5.81984">
        <ele>1538.599975586</ele>
        <time>2012-12-09T13:39:45Z</time>
      </trkpt>
      <trkpt lat="45.39098" lon="5.8198">
        <ele>1533.800048828</ele>
        <time>2012-12-09T13:39:48Z</time>
      </trkpt>
      <trkpt lat="45.39096" lon="5.8198">
        <ele>1534.800048828</ele>
        <time>2012-12-09T13:39:52Z</time>
      </trkpt>
      <trkpt lat="45.39097" lon="5.81982">
        <ele>1534.800048828</ele>
        <time>2012-12-09T13:40:06Z</time>
      </trkpt>
      <trkpt lat="45.39099" lon="5.81984">
        <ele>1533.599975586</ele>
        <time>2012-12-09T13:40:13Z</time>
      </trkpt>
      <trkpt lat="45.39109" lon="5.81985">
        <ele>1526.199951172</ele>
        <time>2012-12-09T13:40:18Z</time>
      </trkpt>
      <trkpt lat="45.39123" lon="5.81979">
        <ele>1515.599975586</ele>
        <time>2012-12-09T13:40:23Z</time>
      </trkpt>
      <trkpt lat="45.39127" lon="5.81978">
        <ele>1512.400024414</ele>
        <time>2012-12-09T13:40:27Z</time>
      </trkpt>
      <trkpt lat="45.39134" lon="5.81978">
        <ele>1507.599975586</ele>
        <time>2012-12-09T13:40:31Z</time>
      </trkpt>
      <trkpt lat="45.39148" lon="5.81987">
        <ele>1495.599975586</ele>
        <time>2012-12-09T13:40:34Z</time>
      </trkpt>
      <trkpt lat="45.39152" lon="5.8199">
        <ele>1492.199951172</ele>
        <time>2012-12-09T13:40:35Z</time>
      </trkpt>
      <trkpt lat="45.39158" lon="5.81988">
        <ele>1487.199951172</ele>
        <time>2012-12-09T13:40:37Z</time>
      </trkpt>
      <trkpt lat="45.39168" lon="5.81978">
        <ele>1484.199951172</ele>
        <time>2012-12-09T13:40:41Z</time>
      </trkpt>
      <trkpt lat="45.39169" lon="5.8198">
        <ele>1483.400024414</ele>
        <time>2012-12-09T13:40:43Z</time>
      </trkpt>
      <trkpt lat="45.39169" lon="5.8198">
        <ele>1483.199951172</ele>
        <time>2012-12-09T13:40:44Z</time>
      </trkpt>
      <trkpt lat="45.39171" lon="5.8198">
        <ele>1483.400024414</ele>
        <time>2012-12-09T13:40:50Z</time>
      </trkpt>
      <trkpt lat="45.39181" lon="5.81974">
        <ele>1485.400024414</ele>
        <time>2012-12-09T13:40:54Z</time>
      </trkpt>
      <trkpt lat="45.39183" lon="5.81972">
        <ele>1486.199951172</ele>
        <time>2012-12-09T13:40:56Z</time>
      </trkpt>
      <trkpt lat="45.39185" lon="5.81973">
        <ele>1486</ele>
        <time>2012-12-09T13:40:57Z</time>
      </trkpt>
      <trkpt lat="45.39189" lon="5.81977">
        <ele>1484.800048828</ele>
        <time>2012-12-09T13:41:02Z</time>
      </trkpt>
      <trkpt lat="45.3919" lon="5.81975">
        <ele>1485.400024414</ele>
        <time>2012-12-09T13:41:03Z</time>
      </trkpt>
      <trkpt lat="45.3919" lon="5.81972">
        <ele>1486.400024414</ele>
        <time>2012-12-09T13:41:07Z</time>
      </trkpt>
      <trkpt lat="45.39194" lon="5.81961">
        <ele>1490</ele>
        <time>2012-12-09T13:41:10Z</time>
      </trkpt>
      <trkpt lat="45.39204" lon="5.81944">
        <ele>1495.400024414</ele>
        <time>2012-12-09T13:41:14Z</time>
      </trkpt>
      <trkpt lat="45.39208" lon="5.81941">
        <ele>1496.400024414</ele>
        <time>2012-12-09T13:41:15Z</time>
      </trkpt>
      <trkpt lat="45.39218" lon="5.81935">
        <ele>1497.599975586</ele>
        <time>2012-12-09T13:41:18Z</time>
      </trkpt>
      <trkpt lat="45.39219" lon="5.81936">
        <ele>1497.400024414</ele>
        <time>2012-12-09T13:41:20Z</time>
      </trkpt>
      <trkpt lat="45.39222" lon="5.81928">
        <ele>1499.400024414</ele>
        <time>2012-12-09T13:41:36Z</time>
      </trkpt>
      <trkpt lat="45.39237" lon="5.81929">
        <ele>1498.400024414</ele>
        <time>2012-12-09T13:41:39Z</time>
      </trkpt>
      <trkpt lat="45.39257" lon="5.81936">
        <ele>1494.400024414</ele>
        <time>2012-12-09T13:41:43Z</time>
      </trkpt>
      <trkpt lat="45.39274" lon="5.81946">
        <ele>1488.599975586</ele>
        <time>2012-12-09T13:41:46Z</time>
      </trkpt>
      <trkpt lat="45.39286" lon="5.81949">
        <ele>1485.800048828</ele>
        <time>2012-12-09T13:41:48Z</time>
      </trkpt>
      <trkpt lat="45.3931" lon="5.81943">
        <ele>1482.599975586</ele>
        <time>2012-12-09T13:41:52Z</time>
      </trkpt>
      <trkpt lat="45.3933" lon="5.81936">
        <ele>1479.800048828</ele>
        <time>2012-12-09T13:41:55Z</time>
      </trkpt>
      <trkpt lat="45.39338" lon="5.81933">
        <ele>1478.400024414</ele>
        <time>2012-12-09T13:41:56Z</time>
      </trkpt>
      <trkpt lat="45.39347" lon="5.8193">
        <ele>1477</ele>
        <time>2012-12-09T13:41:57Z</time>
      </trkpt>
      <trkpt lat="45.39365" lon="5.81925">
        <ele>1473</ele>
        <time>2012-12-09T13:41:59Z</time>
      </trkpt>
      <trkpt lat="45.39373" lon="5.81924">
        <ele>1471.199951172</ele>
        <time>2012-12-09T13:42:00Z</time>
      </trkpt>
      <trkpt lat="45.39392" lon="5.81919">
        <ele>1466.400024414</ele>
        <time>2012-12-09T13:42:03Z</time>
      </trkpt>
      <trkpt lat="45.39395" lon="5.81919">
        <ele>1465.800048828</ele>
        <time>2012-12-09T13:42:04Z</time>
      </trkpt>
      <trkpt lat="45.39396" lon="5.81919">
        <ele>1465.400024414</ele>
        <time>2012-12-09T13:42:05Z</time>
      </trkpt>
      <trkpt lat="45.39401" lon="5.81915">
        <ele>1464.400024414</ele>
        <time>2012-12-09T13:42:08Z</time>
      </trkpt>
      <trkpt lat="45.394" lon="5.81913">
        <ele>1465.199951172</ele>
        <time>2012-12-09T13:42:17Z</time>
      </trkpt>
      <trkpt lat="45.39402" lon="5.81913">
        <ele>1464.800048828</ele>
        <time>2012-12-09T13:42:18Z</time>
      </trkpt>
      <trkpt lat="45.39412" lon="5.81914">
        <ele>1461.800048828</ele>
        <time>2012-12-09T13:42:21Z</time>
      </trkpt>
      <trkpt lat="45.39427" lon="5.81907">
        <ele>1458.400024414</ele>
        <time>2012-12-09T13:42:25Z</time>
      </trkpt>
      <trkpt lat="45.39437" lon="5.81897">
        <ele>1456.199951172</ele>
        <time>2012-12-09T13:42:29Z</time>
      </trkpt>
      <trkpt lat="45.39435" lon="5.81899">
        <ele>1456.599975586</ele>
        <time>2012-12-09T13:42:30Z</time>
      </trkpt>
      <trkpt lat="45.39435" lon="5.819">
        <ele>1456.400024414</ele>
        <time>2012-12-09T13:42:33Z</time>
      </trkpt>
      <trkpt lat="45.39436" lon="5.81901">
        <ele>1455.800048828</ele>
        <time>2012-12-09T13:42:34Z</time>
      </trkpt>
      <trkpt lat="45.39446" lon="5.81906">
        <ele>1451.400024414</ele>
        <time>2012-12-09T13:42:37Z</time>
      </trkpt>
      <trkpt lat="45.39464" lon="5.81915">
        <ele>1443</ele>
        <time>2012-12-09T13:42:41Z</time>
      </trkpt>
      <trkpt lat="45.39475" lon="5.81911">
        <ele>1439.400024414</ele>
        <time>2012-12-09T13:42:43Z</time>
      </trkpt>
      <trkpt lat="45.39476" lon="5.81909">
        <ele>1439.199951172</ele>
        <time>2012-12-09T13:42:44Z</time>
      </trkpt>
      <trkpt lat="45.39478" lon="5.8191">
        <ele>1438.400024414</ele>
        <time>2012-12-09T13:42:45Z</time>
      </trkpt>
      <trkpt lat="45.39479" lon="5.81911">
        <ele>1437.800048828</ele>
        <time>2012-12-09T13:42:47Z</time>
      </trkpt>
      <trkpt lat="45.39479" lon="5.81911">
        <ele>1438</ele>
        <time>2012-12-09T13:42:48Z</time>
      </trkpt>
      <trkpt lat="45.3948" lon="5.81915">
        <ele>1437.199951172</ele>
        <time>2012-12-09T13:42:53Z</time>
      </trkpt>
      <trkpt lat="45.39483" lon="5.8192">
        <ele>1436</ele>
        <time>2012-12-09T13:42:55Z</time>
      </trkpt>
      <trkpt lat="45.39488" lon="5.81921">
        <ele>1434.400024414</ele>
        <time>2012-12-09T13:42:57Z</time>
      </trkpt>
      <trkpt lat="45.39497" lon="5.81935">
        <ele>1431.800048828</ele>
        <time>2012-12-09T13:43:01Z</time>
      </trkpt>
      <trkpt lat="45.39503" lon="5.81934">
        <ele>1429.599975586</ele>
        <time>2012-12-09T13:43:04Z</time>
      </trkpt>
      <trkpt lat="45.39514" lon="5.81931">
        <ele>1424.599975586</ele>
        <time>2012-12-09T13:43:09Z</time>
      </trkpt>
      <trkpt lat="45.39519" lon="5.81927">
        <ele>1422.400024414</ele>
        <time>2012-12-09T13:43:10Z</time>
      </trkpt>
      <trkpt lat="45.39524" lon="5.81932">
        <ele>1420.400024414</ele>
        <time>2012-12-09T13:43:12Z</time>
      </trkpt>
      <trkpt lat="45.39523" lon="5.81935">
        <ele>1421.199951172</ele>
        <time>2012-12-09T13:43:14Z</time>
      </trkpt>
      <trkpt lat="45.39523" lon="5.81934">
        <ele>1421</ele>
        <time>2012-12-09T13:43:15Z</time>
      </trkpt>
      <trkpt lat="45.39527" lon="5.81932">
        <ele>1419.400024414</ele>
        <time>2012-12-09T13:43:19Z</time>
      </trkpt>
      <trkpt lat="45.39534" lon="5.81929">
        <ele>1416.400024414</ele>
        <time>2012-12-09T13:43:21Z</time>
      </trkpt>
      <trkpt lat="45.39536" lon="5.81936">
        <ele>1415.400024414</ele>
        <time>2012-12-09T13:43:24Z</time>
      </trkpt>
      <trkpt lat="45.39535" lon="5.81936">
        <ele>1415.599975586</ele>
        <time>2012-12-09T13:43:28Z</time>
      </trkpt>
      <trkpt lat="45.39536" lon="5.81938">
        <ele>1415.199951172</ele>
        <time>2012-12-09T13:43:29Z</time>
      </trkpt>
      <trkpt lat="45.39543" lon="5.81943">
        <ele>1412.599975586</ele>
        <time>2012-12-09T13:43:31Z</time>
      </trkpt>
      <trkpt lat="45.39546" lon="5.8195">
        <ele>1411.199951172</ele>
        <time>2012-12-09T13:43:34Z</time>
      </trkpt>
      <trkpt lat="45.39546" lon="5.81953">
        <ele>1411</ele>
        <time>2012-12-09T13:43:44Z</time>
      </trkpt>
      <trkpt lat="45.39551" lon="5.81954">
        <ele>1409.199951172</ele>
        <time>2012-12-09T13:43:46Z</time>
      </trkpt>
      <trkpt lat="45.39566" lon="5.81943">
        <ele>1402.599975586</ele>
        <time>2012-12-09T13:43:49Z</time>
      </trkpt>
      <trkpt lat="45.39578" lon="5.81945">
        <ele>1397.400024414</ele>
        <time>2012-12-09T13:43:51Z</time>
      </trkpt>
      <trkpt lat="45.39585" lon="5.81949">
        <ele>1394.400024414</ele>
        <time>2012-12-09T13:43:52Z</time>
      </trkpt>
      <trkpt lat="45.39605" lon="5.81955">
        <ele>1389.199951172</ele>
        <time>2012-12-09T13:43:55Z</time>
      </trkpt>
      <trkpt lat="45.39612" lon="5.81956">
        <ele>1387.199951172</ele>
        <time>2012-12-09T13:43:56Z</time>
      </trkpt>
      <trkpt lat="45.39624" lon="5.8196">
        <ele>1383.599975586</ele>
        <time>2012-12-09T13:43:58Z</time>
      </trkpt>
      <trkpt lat="45.39635" lon="5.81965">
        <ele>1380.400024414</ele>
        <time>2012-12-09T13:44:00Z</time>
      </trkpt>
      <trkpt lat="45.3964" lon="5.81968">
        <ele>1378.599975586</ele>
        <time>2012-12-09T13:44:01Z</time>
      </trkpt>
      <trkpt lat="45.39655" lon="5.81974">
        <ele>1373.400024414</ele>
        <time>2012-12-09T13:44:04Z</time>
      </trkpt>
      <trkpt lat="45.39666" lon="5.81982">
        <ele>1369</ele>
        <time>2012-12-09T13:44:06Z</time>
      </trkpt>
      <trkpt lat="45.39671" lon="5.81985">
        <ele>1368</ele>
        <time>2012-12-09T13:44:07Z</time>
      </trkpt>
      <trkpt lat="45.39676" lon="5.81985">
        <ele>1367.199951172</ele>
        <time>2012-12-09T13:44:08Z</time>
      </trkpt>
      <trkpt lat="45.39688" lon="5.8199">
        <ele>1364.599975586</ele>
        <time>2012-12-09T13:44:10Z</time>
      </trkpt>
      <trkpt lat="45.39699" lon="5.81997">
        <ele>1361.199951172</ele>
        <time>2012-12-09T13:44:12Z</time>
      </trkpt>
      <trkpt lat="45.39708" lon="5.82008">
        <ele>1359</ele>
        <time>2012-12-09T13:44:14Z</time>
      </trkpt>
      <trkpt lat="45.3972" lon="5.82023">
        <ele>1357</ele>
        <time>2012-12-09T13:44:16Z</time>
      </trkpt>
      <trkpt lat="45.39726" lon="5.8203">
        <ele>1355.599975586</ele>
        <time>2012-12-09T13:44:17Z</time>
      </trkpt>
      <trkpt lat="45.39738" lon="5.82042">
        <ele>1352.599975586</ele>
        <time>2012-12-09T13:44:20Z</time>
      </trkpt>
      <trkpt lat="45.39739" lon="5.82042">
        <ele>1352.400024414</ele>
        <time>2012-12-09T13:44:23Z</time>
      </trkpt>
      <trkpt lat="45.39741" lon="5.82048">
        <ele>1351.599975586</ele>
        <time>2012-12-09T13:44:43Z</time>
      </trkpt>
      <trkpt lat="45.39745" lon="5.82066">
        <ele>1350</ele>
        <time>2012-12-09T13:44:47Z</time>
      </trkpt>
      <trkpt lat="45.39745" lon="5.82065">
        <ele>1350.199951172</ele>
        <time>2012-12-09T13:44:51Z</time>
      </trkpt>
      <trkpt lat="45.39754" lon="5.82061">
        <ele>1348.199951172</ele>
        <time>2012-12-09T13:44:57Z</time>
      </trkpt>
      <trkpt lat="45.39762" lon="5.82061">
        <ele>1346.800048828</ele>
        <time>2012-12-09T13:45:00Z</time>
      </trkpt>
      <trkpt lat="45.39764" lon="5.8206">
        <ele>1346.599975586</ele>
        <time>2012-12-09T13:45:01Z</time>
      </trkpt>
      <trkpt lat="45.39774" lon="5.82062">
        <ele>1344.400024414</ele>
        <time>2012-12-09T13:45:04Z</time>
      </trkpt>
      <trkpt lat="45.39779" lon="5.82064">
        <ele>1343.199951172</ele>
        <time>2012-12-09T13:45:05Z</time>
      </trkpt>
      <trkpt lat="45.39791" lon="5.82073">
        <ele>1339.199951172</ele>
        <time>2012-12-09T13:45:08Z</time>
      </trkpt>
      <trkpt lat="45.3981" lon="5.82084">
        <ele>1332.800048828</ele>
        <time>2012-12-09T13:45:13Z</time>
      </trkpt>
      <trkpt lat="45.39819" lon="5.82089">
        <ele>1330.400024414</ele>
        <time>2012-12-09T13:45:15Z</time>
      </trkpt>
      <trkpt lat="45.39827" lon="5.82096">
        <ele>1328.199951172</ele>
        <time>2012-12-09T13:45:17Z</time>
      </trkpt>
      <trkpt lat="45.39845" lon="5.82109">
        <ele>1324</ele>
        <time>2012-12-09T13:45:21Z</time>
      </trkpt>
      <trkpt lat="45.39859" lon="5.82119">
        <ele>1319.800048828</ele>
        <time>2012-12-09T13:45:25Z</time>
      </trkpt>
      <trkpt lat="45.39865" lon="5.82122">
        <ele>1318</ele>
        <time>2012-12-09T13:45:27Z</time>
      </trkpt>
      <trkpt lat="45.39872" lon="5.82123">
        <ele>1316.199951172</ele>
        <time>2012-12-09T13:45:29Z</time>
      </trkpt>
      <trkpt lat="45.39878" lon="5.82128">
        <ele>1313.599975586</ele>
        <time>2012-12-09T13:45:32Z</time>
      </trkpt>
      <trkpt lat="45.39878" lon="5.82133">
        <ele>1312.400024414</ele>
        <time>2012-12-09T13:45:42Z</time>
      </trkpt>
      <trkpt lat="45.39875" lon="5.82135">
        <ele>1313</ele>
        <time>2012-12-09T13:46:14Z</time>
      </trkpt>
      <trkpt lat="45.39878" lon="5.82137">
        <ele>1311.800048828</ele>
        <time>2012-12-09T13:46:15Z</time>
      </trkpt>
      <trkpt lat="45.39885" lon="5.82138">
        <ele>1309.199951172</ele>
        <time>2012-12-09T13:46:17Z</time>
      </trkpt>
      <trkpt lat="45.39894" lon="5.8214">
        <ele>1305.800048828</ele>
        <time>2012-12-09T13:46:19Z</time>
      </trkpt>
      <trkpt lat="45.39899" lon="5.82142">
        <ele>1303.599975586</ele>
        <time>2012-12-09T13:46:20Z</time>
      </trkpt>
      <trkpt lat="45.39912" lon="5.8215">
        <ele>1296.599975586</ele>
        <time>2012-12-09T13:46:24Z</time>
      </trkpt>
      <trkpt lat="45.39931" lon="5.82159">
        <ele>1288</ele>
        <time>2012-12-09T13:46:28Z</time>
      </trkpt>
      <trkpt lat="45.39935" lon="5.82163">
        <ele>1285.599975586</ele>
        <time>2012-12-09T13:46:29Z</time>
      </trkpt>
      <trkpt lat="45.39942" lon="5.82166">
        <ele>1282.400024414</ele>
        <time>2012-12-09T13:46:31Z</time>
      </trkpt>
      <trkpt lat="45.39951" lon="5.82165">
        <ele>1280.400024414</ele>
        <time>2012-12-09T13:46:33Z</time>
      </trkpt>
      <trkpt lat="45.39955" lon="5.82166">
        <ele>1279.199951172</ele>
        <time>2012-12-09T13:46:34Z</time>
      </trkpt>
      <trkpt lat="45.3996" lon="5.82171">
        <ele>1277.400024414</ele>
        <time>2012-12-09T13:46:36Z</time>
      </trkpt>
      <trkpt lat="45.3997" lon="5.82176">
        <ele>1274.400024414</ele>
        <time>2012-12-09T13:46:39Z</time>
      </trkpt>
      <trkpt lat="45.39978" lon="5.8218">
        <ele>1271.800048828</ele>
        <time>2012-12-09T13:46:41Z</time>
      </trkpt>
      <trkpt lat="45.39988" lon="5.82187">
        <ele>1268</ele>
        <time>2012-12-09T13:46:43Z</time>
      </trkpt>
      <trkpt lat="45.39993" lon="5.82192">
        <ele>1266</ele>
        <time>2012-12-09T13:46:44Z</time>
      </trkpt>
      <trkpt lat="45.39998" lon="5.82197">
        <ele>1263.599975586</ele>
        <time>2012-12-09T13:46:45Z</time>
      </trkpt>
      <trkpt lat="45.40011" lon="5.82211">
        <ele>1259.599975586</ele>
        <time>2012-12-09T13:46:48Z</time>
      </trkpt>
      <trkpt lat="45.40015" lon="5.82213">
        <ele>1258.599975586</ele>
        <time>2012-12-09T13:46:49Z</time>
      </trkpt>
      <trkpt lat="45.40029" lon="5.82215">
        <ele>1256.199951172</ele>
        <time>2012-12-09T13:46:52Z</time>
      </trkpt>
      <trkpt lat="45.40042" lon="5.82215">
        <ele>1254.400024414</ele>
        <time>2012-12-09T13:46:55Z</time>
      </trkpt>
      <trkpt lat="45.40046" lon="5.82214">
        <ele>1253.800048828</ele>
        <time>2012-12-09T13:46:57Z</time>
      </trkpt>
      <trkpt lat="45.40047" lon="5.82212">
        <ele>1254.199951172</ele>
        <time>2012-12-09T13:47:01Z</time>
      </trkpt>
      <trkpt lat="45.40044" lon="5.82211">
        <ele>1254.800048828</ele>
        <time>2012-12-09T13:47:14Z</time>
      </trkpt>
      <trkpt lat="45.40044" lon="5.82213">
        <ele>1254.199951172</ele>
        <time>2012-12-09T13:47:21Z</time>
      </trkpt>
      <trkpt lat="45.40048" lon="5.82221">
        <ele>1251.599975586</ele>
        <time>2012-12-09T13:47:23Z</time>
      </trkpt>
      <trkpt lat="45.40064" lon="5.82232">
        <ele>1245.599975586</ele>
        <time>2012-12-09T13:47:26Z</time>
      </trkpt>
      <trkpt lat="45.40084" lon="5.82238">
        <ele>1239.400024414</ele>
        <time>2012-12-09T13:47:29Z</time>
      </trkpt>
      <trkpt lat="45.40088" lon="5.82241">
        <ele>1238.599975586</ele>
        <time>2012-12-09T13:47:30Z</time>
      </trkpt>
      <trkpt lat="45.40103" lon="5.82256">
        <ele>1235.599975586</ele>
        <time>2012-12-09T13:47:33Z</time>
      </trkpt>
      <trkpt lat="45.40107" lon="5.82261">
        <ele>1235.199951172</ele>
        <time>2012-12-09T13:47:34Z</time>
      </trkpt>
      <trkpt lat="45.40116" lon="5.82287">
        <ele>1231.800048828</ele>
        <time>2012-12-09T13:47:37Z</time>
      </trkpt>
      <trkpt lat="45.40119" lon="5.82294">
        <ele>1230.599975586</ele>
        <time>2012-12-09T13:47:38Z</time>
      </trkpt>
      <trkpt lat="45.40122" lon="5.82306">
        <ele>1228.599975586</ele>
        <time>2012-12-09T13:47:40Z</time>
      </trkpt>
      <trkpt lat="45.40123" lon="5.82312">
        <ele>1227.599975586</ele>
        <time>2012-12-09T13:47:42Z</time>
      </trkpt>
      <trkpt lat="45.40125" lon="5.82314">
        <ele>1227.199951172</ele>
        <time>2012-12-09T13:47:45Z</time>
      </trkpt>
      <trkpt lat="45.40126" lon="5.82313">
        <ele>1227.199951172</ele>
        <time>2012-12-09T13:47:47Z</time>
      </trkpt>
      <trkpt lat="45.40131" lon="5.82316">
        <ele>1226.199951172</ele>
        <time>2012-12-09T13:48:15Z</time>
      </trkpt>
      <trkpt lat="45.40127" lon="5.82325">
        <ele>1225.199951172</ele>
        <time>2012-12-09T13:48:43Z</time>
      </trkpt>
      <trkpt lat="45.4013" lon="5.82327">
        <ele>1224.400024414</ele>
        <time>2012-12-09T13:48:44Z</time>
      </trkpt>
      <trkpt lat="45.40138" lon="5.82335">
        <ele>1222.400024414</ele>
        <time>2012-12-09T13:48:47Z</time>
      </trkpt>
      <trkpt lat="45.40151" lon="5.82352">
        <ele>1221</ele>
        <time>2012-12-09T13:48:52Z</time>
      </trkpt>
      <trkpt lat="45.40171" lon="5.82368">
        <ele>1218.199951172</ele>
        <time>2012-12-09T13:48:57Z</time>
      </trkpt>
      <trkpt lat="45.40175" lon="5.82372">
        <ele>1218.400024414</ele>
        <time>2012-12-09T13:48:58Z</time>
      </trkpt>
      <trkpt lat="45.40182" lon="5.82379">
        <ele>1218.599975586</ele>
        <time>2012-12-09T13:49:00Z</time>
      </trkpt>
      <trkpt lat="45.40183" lon="5.82383">
        <ele>1218.400024414</ele>
        <time>2012-12-09T13:49:01Z</time>
      </trkpt>
      <trkpt lat="45.40188" lon="5.82389">
        <ele>1218.199951172</ele>
        <time>2012-12-09T13:49:04Z</time>
      </trkpt>
      <trkpt lat="45.40189" lon="5.8239">
        <ele>1218.199951172</ele>
        <time>2012-12-09T13:49:05Z</time>
      </trkpt>
      <trkpt lat="45.40198" lon="5.82404">
        <ele>1217.199951172</ele>
        <time>2012-12-09T13:49:10Z</time>
      </trkpt>
      <trkpt lat="45.40206" lon="5.82417">
        <ele>1215.400024414</ele>
        <time>2012-12-09T13:49:14Z</time>
      </trkpt>
      <trkpt lat="45.40214" lon="5.82423">
        <ele>1216.199951172</ele>
        <time>2012-12-09T13:49:18Z</time>
      </trkpt>
      <trkpt lat="45.40224" lon="5.82433">
        <ele>1217.199951172</ele>
        <time>2012-12-09T13:49:23Z</time>
      </trkpt>
      <trkpt lat="45.40233" lon="5.82438">
        <ele>1217</ele>
        <time>2012-12-09T13:49:27Z</time>
      </trkpt>
      <trkpt lat="45.40243" lon="5.82446">
        <ele>1216.599975586</ele>
        <time>2012-12-09T13:49:32Z</time>
      </trkpt>
      <trkpt lat="45.40247" lon="5.82449">
        <ele>1216.400024414</ele>
        <time>2012-12-09T13:49:36Z</time>
      </trkpt>
      <trkpt lat="45.40252" lon="5.82461">
        <ele>1216.199951172</ele>
        <time>2012-12-09T13:49:41Z</time>
      </trkpt>
      <trkpt lat="45.40255" lon="5.82468">
        <ele>1215.599975586</ele>
        <time>2012-12-09T13:49:44Z</time>
      </trkpt>
      <trkpt lat="45.40257" lon="5.82469">
        <ele>1215.400024414</ele>
        <time>2012-12-09T13:49:45Z</time>
      </trkpt>
      <trkpt lat="45.40262" lon="5.82479">
        <ele>1214.199951172</ele>
        <time>2012-12-09T13:49:49Z</time>
      </trkpt>
      <trkpt lat="45.40265" lon="5.82482">
        <ele>1213.400024414</ele>
        <time>2012-12-09T13:49:51Z</time>
      </trkpt>
      <trkpt lat="45.40268" lon="5.82485">
        <ele>1212.599975586</ele>
        <time>2012-12-09T13:49:54Z</time>
      </trkpt>
      <trkpt lat="45.40273" lon="5.82494">
        <ele>1210.599975586</ele>
        <time>2012-12-09T13:50:01Z</time>
      </trkpt>
      <trkpt lat="45.40275" lon="5.82498">
        <ele>1210</ele>
        <time>2012-12-09T13:50:05Z</time>
      </trkpt>
      <trkpt lat="45.40275" lon="5.82498">
        <ele>1209.800048828</ele>
        <time>2012-12-09T13:50:06Z</time>
      </trkpt>
      <trkpt lat="45.40277" lon="5.82503">
        <ele>1209.800048828</ele>
        <time>2012-12-09T13:50:12Z</time>
      </trkpt>
      <trkpt lat="45.40286" lon="5.82511">
        <ele>1207.400024414</ele>
        <time>2012-12-09T13:50:17Z</time>
      </trkpt>
      <trkpt lat="45.40306" lon="5.82526">
        <ele>1200.800048828</ele>
        <time>2012-12-09T13:50:22Z</time>
      </trkpt>
      <trkpt lat="45.4031" lon="5.82531">
        <ele>1199</ele>
        <time>2012-12-09T13:50:23Z</time>
      </trkpt>
      <trkpt lat="45.40325" lon="5.82554">
        <ele>1192.199951172</ele>
        <time>2012-12-09T13:50:27Z</time>
      </trkpt>
      <trkpt lat="45.40341" lon="5.82569">
        <ele>1185.800048828</ele>
        <time>2012-12-09T13:50:31Z</time>
      </trkpt>
      <trkpt lat="45.40345" lon="5.82571">
        <ele>1184.800048828</ele>
        <time>2012-12-09T13:50:32Z</time>
      </trkpt>
      <trkpt lat="45.40352" lon="5.82575">
        <ele>1182.800048828</ele>
        <time>2012-12-09T13:50:34Z</time>
      </trkpt>
      <trkpt lat="45.4036" lon="5.82578">
        <ele>1180.599975586</ele>
        <time>2012-12-09T13:50:36Z</time>
      </trkpt>
      <trkpt lat="45.40385" lon="5.82582">
        <ele>1173.599975586</ele>
        <time>2012-12-09T13:50:40Z</time>
      </trkpt>
      <trkpt lat="45.40391" lon="5.82584">
        <ele>1171.599975586</ele>
        <time>2012-12-09T13:50:41Z</time>
      </trkpt>
      <trkpt lat="45.40416" lon="5.82602">
        <ele>1162.800048828</ele>
        <time>2012-12-09T13:50:44Z</time>
      </trkpt>
      <trkpt lat="45.40424" lon="5.8261">
        <ele>1162.800048828</ele>
        <time>2012-12-09T13:50:45Z</time>
      </trkpt>
      <trkpt lat="45.40441" lon="5.82625">
        <ele>1163.400024414</ele>
        <time>2012-12-09T13:50:47Z</time>
      </trkpt>
      <trkpt lat="45.40446" lon="5.82634">
        <ele>1162.599975586</ele>
        <time>2012-12-09T13:50:48Z</time>
      </trkpt>
      <trkpt lat="45.40457" lon="5.82649">
        <ele>1161.400024414</ele>
        <time>2012-12-09T13:50:51Z</time>
      </trkpt>
      <trkpt lat="45.40462" lon="5.82654">
        <ele>1161</ele>
        <time>2012-12-09T13:50:53Z</time>
      </trkpt>
      <trkpt lat="45.40464" lon="5.82661">
        <ele>1159.800048828</ele>
        <time>2012-12-09T13:50:55Z</time>
      </trkpt>
      <trkpt lat="45.40471" lon="5.8269">
        <ele>1154.599975586</ele>
        <time>2012-12-09T13:51:00Z</time>
      </trkpt>
      <trkpt lat="45.40481" lon="5.8272">
        <ele>1147.400024414</ele>
        <time>2012-12-09T13:51:04Z</time>
      </trkpt>
      <trkpt lat="45.40487" lon="5.82724">
        <ele>1145.400024414</ele>
        <time>2012-12-09T13:51:05Z</time>
      </trkpt>
      <trkpt lat="45.40507" lon="5.82734">
        <ele>1141.800048828</ele>
        <time>2012-12-09T13:51:09Z</time>
      </trkpt>
      <trkpt lat="45.40511" lon="5.82737">
        <ele>1141.400024414</ele>
        <time>2012-12-09T13:51:10Z</time>
      </trkpt>
      <trkpt lat="45.40518" lon="5.8274">
        <ele>1140.800048828</ele>
        <time>2012-12-09T13:51:12Z</time>
      </trkpt>
      <trkpt lat="45.40519" lon="5.82742">
        <ele>1140.400024414</ele>
        <time>2012-12-09T13:51:13Z</time>
      </trkpt>
      <trkpt lat="45.40521" lon="5.82755">
        <ele>1136.599975586</ele>
        <time>2012-12-09T13:51:17Z</time>
      </trkpt>
      <trkpt lat="45.40522" lon="5.82779">
        <ele>1130</ele>
        <time>2012-12-09T13:51:20Z</time>
      </trkpt>
      <trkpt lat="45.40525" lon="5.82812">
        <ele>1120.599975586</ele>
        <time>2012-12-09T13:51:23Z</time>
      </trkpt>
      <trkpt lat="45.40525" lon="5.82821">
        <ele>1118</ele>
        <time>2012-12-09T13:51:24Z</time>
      </trkpt>
      <trkpt lat="45.40517" lon="5.8285">
        <ele>1113.800048828</ele>
        <time>2012-12-09T13:51:27Z</time>
      </trkpt>
      <trkpt lat="45.40508" lon="5.82865">
        <ele>1114.400024414</ele>
        <time>2012-12-09T13:51:29Z</time>
      </trkpt>
      <trkpt lat="45.40506" lon="5.82874">
        <ele>1114.599975586</ele>
        <time>2012-12-09T13:51:30Z</time>
      </trkpt>
      <trkpt lat="45.40508" lon="5.82887">
        <ele>1113.199951172</ele>
        <time>2012-12-09T13:51:33Z</time>
      </trkpt>
      <trkpt lat="45.40528" lon="5.82876">
        <ele>1108.800048828</ele>
        <time>2012-12-09T13:51:35Z</time>
      </trkpt>
      <trkpt lat="45.40551" lon="5.82872">
        <ele>1104</ele>
        <time>2012-12-09T13:51:39Z</time>
      </trkpt>
      <trkpt lat="45.40556" lon="5.82871">
        <ele>1103</ele>
        <time>2012-12-09T13:51:40Z</time>
      </trkpt>
      <trkpt lat="45.40574" lon="5.82872">
        <ele>1098.599975586</ele>
        <time>2012-12-09T13:51:43Z</time>
      </trkpt>
      <trkpt lat="45.40584" lon="5.82869">
        <ele>1097.400024414</ele>
        <time>2012-12-09T13:51:45Z</time>
      </trkpt>
      <trkpt lat="45.4059" lon="5.82865">
        <ele>1097.400024414</ele>
        <time>2012-12-09T13:51:46Z</time>
      </trkpt>
      <trkpt lat="45.40595" lon="5.82862">
        <ele>1097.800048828</ele>
        <time>2012-12-09T13:51:47Z</time>
      </trkpt>
      <trkpt lat="45.40599" lon="5.8286">
        <ele>1098</ele>
        <time>2012-12-09T13:51:48Z</time>
      </trkpt>
      <trkpt lat="45.40602" lon="5.82857">
        <ele>1098</ele>
        <time>2012-12-09T13:51:49Z</time>
      </trkpt>
      <trkpt lat="45.40607" lon="5.82857">
        <ele>1097.400024414</ele>
        <time>2012-12-09T13:51:50Z</time>
      </trkpt>
      <trkpt lat="45.40625" lon="5.82853">
        <ele>1095.599975586</ele>
        <time>2012-12-09T13:51:55Z</time>
      </trkpt>
      <trkpt lat="45.40647" lon="5.82853">
        <ele>1091.800048828</ele>
        <time>2012-12-09T13:51:58Z</time>
      </trkpt>
      <trkpt lat="45.40657" lon="5.82855">
        <ele>1089.800048828</ele>
        <time>2012-12-09T13:51:59Z</time>
      </trkpt>
      <trkpt lat="45.4068" lon="5.82858">
        <ele>1088</ele>
        <time>2012-12-09T13:52:02Z</time>
      </trkpt>
      <trkpt lat="45.40687" lon="5.82859">
        <ele>1087.800048828</ele>
        <time>2012-12-09T13:52:03Z</time>
      </trkpt>
      <trkpt lat="45.40697" lon="5.82858">
        <ele>1088</ele>
        <time>2012-12-09T13:52:05Z</time>
      </trkpt>
      <trkpt lat="45.40708" lon="5.82859">
        <ele>1088</ele>
        <time>2012-12-09T13:52:07Z</time>
      </trkpt>
      <trkpt lat="45.40723" lon="5.82865">
        <ele>1087.400024414</ele>
        <time>2012-12-09T13:52:10Z</time>
      </trkpt>
      <trkpt lat="45.40732" lon="5.82869">
        <ele>1086.800048828</ele>
        <time>2012-12-09T13:52:12Z</time>
      </trkpt>
      <trkpt lat="45.4074" lon="5.82874">
        <ele>1086.400024414</ele>
        <time>2012-12-09T13:52:14Z</time>
      </trkpt>
      <trkpt lat="45.40743" lon="5.82877">
        <ele>1086</ele>
        <time>2012-12-09T13:52:15Z</time>
      </trkpt>
      <trkpt lat="45.40747" lon="5.82881">
        <ele>1085.400024414</ele>
        <time>2012-12-09T13:52:17Z</time>
      </trkpt>
      <trkpt lat="45.4075" lon="5.82884">
        <ele>1085.199951172</ele>
        <time>2012-12-09T13:52:18Z</time>
      </trkpt>
      <trkpt lat="45.40761" lon="5.82898">
        <ele>1084.199951172</ele>
        <time>2012-12-09T13:52:23Z</time>
      </trkpt>
      <trkpt lat="45.40767" lon="5.82909">
        <ele>1082.599975586</ele>
        <time>2012-12-09T13:52:28Z</time>
      </trkpt>
      <trkpt lat="45.40773" lon="5.82916">
        <ele>1081.599975586</ele>
        <time>2012-12-09T13:52:32Z</time>
      </trkpt>
      <trkpt lat="45.40774" lon="5.82917">
        <ele>1081.400024414</ele>
        <time>2012-12-09T13:52:33Z</time>
      </trkpt>
      <trkpt lat="45.40787" lon="5.82927">
        <ele>1080</ele>
        <time>2012-12-09T13:52:38Z</time>
      </trkpt>
      <trkpt lat="45.40788" lon="5.82932">
        <ele>1079.199951172</ele>
        <time>2012-12-09T13:52:39Z</time>
      </trkpt>
      <trkpt lat="45.4079" lon="5.8294">
        <ele>1077.599975586</ele>
        <time>2012-12-09T13:52:41Z</time>
      </trkpt>
      <trkpt lat="45.40794" lon="5.8295">
        <ele>1075.800048828</ele>
        <time>2012-12-09T13:52:44Z</time>
      </trkpt>
      <trkpt lat="45.40796" lon="5.82953">
        <ele>1075.199951172</ele>
        <time>2012-12-09T13:52:45Z</time>
      </trkpt>
      <trkpt lat="45.40809" lon="5.82961">
        <ele>1073.199951172</ele>
        <time>2012-12-09T13:52:49Z</time>
      </trkpt>
      <trkpt lat="45.4081" lon="5.8296">
        <ele>1073.400024414</ele>
        <time>2012-12-09T13:52:51Z</time>
      </trkpt>
      <trkpt lat="45.40809" lon="5.82957">
        <ele>1074</ele>
        <time>2012-12-09T13:52:52Z</time>
      </trkpt>
      <trkpt lat="45.40809" lon="5.82956">
        <ele>1074.199951172</ele>
        <time>2012-12-09T13:52:53Z</time>
      </trkpt>
      <trkpt lat="45.40813" lon="5.82953">
        <ele>1074.800048828</ele>
        <time>2012-12-09T13:52:56Z</time>
      </trkpt>
      <trkpt lat="45.4082" lon="5.82951">
        <ele>1075</ele>
        <time>2012-12-09T13:53:04Z</time>
      </trkpt>
      <trkpt lat="45.40825" lon="5.82957">
        <ele>1073.599975586</ele>
        <time>2012-12-09T13:53:07Z</time>
      </trkpt>
      <trkpt lat="45.40833" lon="5.82966">
        <ele>1071.199951172</ele>
        <time>2012-12-09T13:53:10Z</time>
      </trkpt>
      <trkpt lat="45.40836" lon="5.82969">
        <ele>1070.400024414</ele>
        <time>2012-12-09T13:53:11Z</time>
      </trkpt>
      <trkpt lat="45.40851" lon="5.82989">
        <ele>1066.400024414</ele>
        <time>2012-12-09T13:53:15Z</time>
      </trkpt>
      <trkpt lat="45.4086" lon="5.82998">
        <ele>1064.199951172</ele>
        <time>2012-12-09T13:53:17Z</time>
      </trkpt>
      <trkpt lat="45.40873" lon="5.8301">
        <ele>1062.199951172</ele>
        <time>2012-12-09T13:53:19Z</time>
      </trkpt>
      <trkpt lat="45.40883" lon="5.8302">
        <ele>1060.599975586</ele>
        <time>2012-12-09T13:53:21Z</time>
      </trkpt>
      <trkpt lat="45.40887" lon="5.83023">
        <ele>1060</ele>
        <time>2012-12-09T13:53:22Z</time>
      </trkpt>
      <trkpt lat="45.4089" lon="5.83026">
        <ele>1059.400024414</ele>
        <time>2012-12-09T13:53:23Z</time>
      </trkpt>
      <trkpt lat="45.40894" lon="5.83033">
        <ele>1058.199951172</ele>
        <time>2012-12-09T13:53:25Z</time>
      </trkpt>
      <trkpt lat="45.40901" lon="5.83039">
        <ele>1057</ele>
        <time>2012-12-09T13:53:28Z</time>
      </trkpt>
      <trkpt lat="45.40902" lon="5.83042">
        <ele>1056.199951172</ele>
        <time>2012-12-09T13:53:29Z</time>
      </trkpt>
      <trkpt lat="45.40906" lon="5.83047">
        <ele>1055</ele>
        <time>2012-12-09T13:53:32Z</time>
      </trkpt>
      <trkpt lat="45.40908" lon="5.83049">
        <ele>1054.599975586</ele>
        <time>2012-12-09T13:53:33Z</time>
      </trkpt>
      <trkpt lat="45.4091" lon="5.83055">
        <ele>1053.400024414</ele>
        <time>2012-12-09T13:53:36Z</time>
      </trkpt>
      <trkpt lat="45.40916" lon="5.83062">
        <ele>1051.599975586</ele>
        <time>2012-12-09T13:53:40Z</time>
      </trkpt>
      <trkpt lat="45.4092" lon="5.83081">
        <ele>1047.800048828</ele>
        <time>2012-12-09T13:53:45Z</time>
      </trkpt>
      <trkpt lat="45.40922" lon="5.83099">
        <ele>1046.400024414</ele>
        <time>2012-12-09T13:53:49Z</time>
      </trkpt>
      <trkpt lat="45.40928" lon="5.83124">
        <ele>1045.199951172</ele>
        <time>2012-12-09T13:53:52Z</time>
      </trkpt>
      <trkpt lat="45.40931" lon="5.83132">
        <ele>1044.599975586</ele>
        <time>2012-12-09T13:53:53Z</time>
      </trkpt>
      <trkpt lat="45.40935" lon="5.8314">
        <ele>1043.800048828</ele>
        <time>2012-12-09T13:53:54Z</time>
      </trkpt>
      <trkpt lat="45.40947" lon="5.83159">
        <ele>1041.599975586</ele>
        <time>2012-12-09T13:53:56Z</time>
      </trkpt>
      <trkpt lat="45.40953" lon="5.83169">
        <ele>1039.800048828</ele>
        <time>2012-12-09T13:53:57Z</time>
      </trkpt>
      <trkpt lat="45.40959" lon="5.83194">
        <ele>1034.400024414</ele>
        <time>2012-12-09T13:53:59Z</time>
      </trkpt>
      <trkpt lat="45.40952" lon="5.8322">
        <ele>1030</ele>
        <time>2012-12-09T13:54:01Z</time>
      </trkpt>
      <trkpt lat="45.40949" lon="5.83231">
        <ele>1028.199951172</ele>
        <time>2012-12-09T13:54:02Z</time>
      </trkpt>
      <trkpt lat="45.40945" lon="5.83243">
        <ele>1026.400024414</ele>
        <time>2012-12-09T13:54:03Z</time>
      </trkpt>
      <trkpt lat="45.40941" lon="5.83263">
        <ele>1023</ele>
        <time>2012-12-09T13:54:05Z</time>
      </trkpt>
      <trkpt lat="45.40943" lon="5.8327">
        <ele>1021.200012207</ele>
        <time>2012-12-09T13:54:06Z</time>
      </trkpt>
      <trkpt lat="45.40957" lon="5.83282">
        <ele>1017.200012207</ele>
        <time>2012-12-09T13:54:08Z</time>
      </trkpt>
      <trkpt lat="45.40975" lon="5.83286">
        <ele>1014.400024414</ele>
        <time>2012-12-09T13:54:11Z</time>
      </trkpt>
      <trkpt lat="45.40988" lon="5.83294">
        <ele>1011.599975586</ele>
        <time>2012-12-09T13:54:13Z</time>
      </trkpt>
      <trkpt lat="45.40997" lon="5.83307">
        <ele>1008.599975586</ele>
        <time>2012-12-09T13:54:15Z</time>
      </trkpt>
      <trkpt lat="45.41002" lon="5.83337">
        <ele>1004</ele>
        <time>2012-12-09T13:54:18Z</time>
      </trkpt>
      <trkpt lat="45.41002" lon="5.83349">
        <ele>1002.799987793</ele>
        <time>2012-12-09T13:54:19Z</time>
      </trkpt>
      <trkpt lat="45.41004" lon="5.83374">
        <ele>1000.200012207</ele>
        <time>2012-12-09T13:54:21Z</time>
      </trkpt>
      <trkpt lat="45.41007" lon="5.83388">
        <ele>998.799987793</ele>
        <time>2012-12-09T13:54:22Z</time>
      </trkpt>
      <trkpt lat="45.41019" lon="5.83412">
        <ele>996.799987793</ele>
        <time>2012-12-09T13:54:24Z</time>
      </trkpt>
      <trkpt lat="45.4103" lon="5.83432">
        <ele>994.599975586</ele>
        <time>2012-12-09T13:54:26Z</time>
      </trkpt>
      <trkpt lat="45.41042" lon="5.8345">
        <ele>991.799987793</ele>
        <time>2012-12-09T13:54:28Z</time>
      </trkpt>
      <trkpt lat="45.41057" lon="5.83477">
        <ele>986</ele>
        <time>2012-12-09T13:54:31Z</time>
      </trkpt>
      <trkpt lat="45.41061" lon="5.83486">
        <ele>983.599975586</ele>
        <time>2012-12-09T13:54:32Z</time>
      </trkpt>
      <trkpt lat="45.4107" lon="5.83518">
        <ele>978</ele>
        <time>2012-12-09T13:54:35Z</time>
      </trkpt>
      <trkpt lat="45.41072" lon="5.83529">
        <ele>976.799987793</ele>
        <time>2012-12-09T13:54:36Z</time>
      </trkpt>
      <trkpt lat="45.41081" lon="5.83561">
        <ele>973</ele>
        <time>2012-12-09T13:54:39Z</time>
      </trkpt>
      <trkpt lat="45.41087" lon="5.83579">
        <ele>970.599975586</ele>
        <time>2012-12-09T13:54:41Z</time>
      </trkpt>
      <trkpt lat="45.41087" lon="5.83595">
        <ele>971.400024414</ele>
        <time>2012-12-09T13:54:44Z</time>
      </trkpt>
      <trkpt lat="45.41087" lon="5.83606">
        <ele>972.200012207</ele>
        <time>2012-12-09T13:54:47Z</time>
      </trkpt>
      <trkpt lat="45.41088" lon="5.8361">
        <ele>972.599975586</ele>
        <time>2012-12-09T13:54:48Z</time>
      </trkpt>
      <trkpt lat="45.4109" lon="5.83614">
        <ele>972.599975586</ele>
        <time>2012-12-09T13:54:49Z</time>
      </trkpt>
      <trkpt lat="45.41096" lon="5.83619">
        <ele>972.200012207</ele>
        <time>2012-12-09T13:54:52Z</time>
      </trkpt>
      <trkpt lat="45.41096" lon="5.83619">
        <ele>972.200012207</ele>
        <time>2012-12-09T13:54:56Z</time>
      </trkpt>
      <trkpt lat="45.41095" lon="5.83611">
        <ele>971.400024414</ele>
        <time>2012-12-09T13:55:18Z</time>
      </trkpt>
      <trkpt lat="45.41099" lon="5.83612">
        <ele>971</ele>
        <time>2012-12-09T13:55:20Z</time>
      </trkpt>
      <trkpt lat="45.41105" lon="5.83612">
        <ele>970.200012207</ele>
        <time>2012-12-09T13:55:23Z</time>
      </trkpt>
      <trkpt lat="45.41111" lon="5.83612">
        <ele>969.400024414</ele>
        <time>2012-12-09T13:55:25Z</time>
      </trkpt>
      <trkpt lat="45.41121" lon="5.83614">
        <ele>968.200012207</ele>
        <time>2012-12-09T13:55:28Z</time>
      </trkpt>
      <trkpt lat="45.41141" lon="5.83614">
        <ele>965.400024414</ele>
        <time>2012-12-09T13:55:34Z</time>
      </trkpt>
      <trkpt lat="45.41144" lon="5.83613">
        <ele>964.799987793</ele>
        <time>2012-12-09T13:55:35Z</time>
      </trkpt>
      <trkpt lat="45.41163" lon="5.83608">
        <ele>961.200012207</ele>
        <time>2012-12-09T13:55:41Z</time>
      </trkpt>
      <trkpt lat="45.4118" lon="5.83599">
        <ele>956</ele>
        <time>2012-12-09T13:55:47Z</time>
      </trkpt>
      <trkpt lat="45.41186" lon="5.83597">
        <ele>954.599975586</ele>
        <time>2012-12-09T13:55:49Z</time>
      </trkpt>
      <trkpt lat="45.412" lon="5.83603">
        <ele>951.799987793</ele>
        <time>2012-12-09T13:55:54Z</time>
      </trkpt>
      <trkpt lat="45.41214" lon="5.83622">
        <ele>950.400024414</ele>
        <time>2012-12-09T13:56:00Z</time>
      </trkpt>
      <trkpt lat="45.41231" lon="5.83646">
        <ele>948.599975586</ele>
        <time>2012-12-09T13:56:05Z</time>
      </trkpt>
      <trkpt lat="45.41245" lon="5.83663">
        <ele>946</ele>
        <time>2012-12-09T13:56:08Z</time>
      </trkpt>
      <trkpt lat="45.41258" lon="5.83679">
        <ele>945.200012207</ele>
        <time>2012-12-09T13:56:11Z</time>
      </trkpt>
      <trkpt lat="45.41272" lon="5.83698">
        <ele>944.599975586</ele>
        <time>2012-12-09T13:56:16Z</time>
      </trkpt>
      <trkpt lat="45.41277" lon="5.83702">
        <ele>943.799987793</ele>
        <time>2012-12-09T13:56:18Z</time>
      </trkpt>
      <trkpt lat="45.41279" lon="5.83704">
        <ele>943.400024414</ele>
        <time>2012-12-09T13:56:20Z</time>
      </trkpt>
      <trkpt lat="45.41277" lon="5.83704">
        <ele>944</ele>
        <time>2012-12-09T13:56:39Z</time>
      </trkpt>
    </trkseg>
  </trk>
</gpx>